<?xml version='1.0' encoding='UTF-8'?><gpx version="1.1" creator="JPX - https://github.com/jenetics/jpx" xmlns="http://www.topografix.com/GPX/1/1"><trk><trkseg><trkpt lat="43.0995652" lon="12.3087321"><ele>245.00000000000003</ele><time>2026-05-02T05:10:20.619Z</time></trkpt><trkpt lat="43.0996229" lon="12.3087699"><ele>245.0</ele><time>2026-05-02T05:10:21.63Z</time></trkpt><trkpt lat="43.0996954" lon="12.308792"><ele>245.0</ele><time>2026-05-02T05:10:22.624Z</time></trkpt><trkpt lat="43.0997793" lon="12.3088007"><ele>245.0</ele><time>2026-05-02T05:10:23.623Z</time></trkpt><trkpt lat="43.0998667" lon="12.3088015"><ele>245.00000000000003</ele><time>2026-05-02T05:10:24.617Z</time></trkpt><trkpt lat="43.0999522" lon="12.3088105"><ele>245.0</ele><time>2026-05-02T05:10:25.616Z</time></trkpt><trkpt lat="43.1000402" lon="12.3088392"><ele>245.4</ele><time>2026-05-02T05:10:26.617Z</time></trkpt><trkpt lat="43.100099" lon="12.3089296"><ele>245.8</ele><time>2026-05-02T05:10:27.621Z</time></trkpt><trkpt lat="43.1001536" lon="12.3090114"><ele>246.2</ele><time>2026-05-02T05:10:28.625Z</time></trkpt><trkpt lat="43.1002216" lon="12.3090944"><ele>246.6</ele><time>2026-05-02T05:10:30.626Z</time></trkpt><trkpt lat="43.1002894" lon="12.309176"><ele>247.0</ele><time>2026-05-02T05:11:31.619Z</time></trkpt><trkpt lat="43.1004054" lon="12.3093125"><ele>247.0</ele><time>2026-05-02T05:11:33.661Z</time></trkpt><trkpt lat="43.1004411" lon="12.3094169"><ele>247.0</ele><time>2026-05-02T05:11:34.631Z</time></trkpt><trkpt lat="43.1004491" lon="12.3095503"><ele>247.0</ele><time>2026-05-02T05:11:35.624Z</time></trkpt><trkpt lat="43.1004406" lon="12.3097"><ele>247.0</ele><time>2026-05-02T05:11:36.621Z</time></trkpt><trkpt lat="43.100417" lon="12.3098675"><ele>247.0</ele><time>2026-05-02T05:11:37.626Z</time></trkpt><trkpt lat="43.1003862" lon="12.3100332"><ele>247.75</ele><time>2026-05-02T05:11:38.62Z</time></trkpt><trkpt lat="43.1003521" lon="12.3102075"><ele>248.5</ele><time>2026-05-02T05:11:39.627Z</time></trkpt><trkpt lat="43.1003171" lon="12.3103886"><ele>249.25</ele><time>2026-05-02T05:11:40.621Z</time></trkpt><trkpt lat="43.1002783" lon="12.3105791"><ele>250.0</ele><time>2026-05-02T05:11:41.63Z</time></trkpt><trkpt lat="43.1002377" lon="12.3107775"><ele>251.0</ele><time>2026-05-02T05:11:42.623Z</time></trkpt><trkpt lat="43.1001979" lon="12.3109794"><ele>252.0</ele><time>2026-05-02T05:11:43.624Z</time></trkpt><trkpt lat="43.1001601" lon="12.3111842"><ele>253.0</ele><time>2026-05-02T05:11:44.63Z</time></trkpt><trkpt lat="43.1001249" lon="12.3113996"><ele>253.66666666666666</ele><time>2026-05-02T05:11:45.624Z</time></trkpt><trkpt lat="43.1000947" lon="12.311611"><ele>254.33333333333331</ele><time>2026-05-02T05:11:46.651Z</time></trkpt><trkpt lat="43.1000707" lon="12.3118179"><ele>255.0</ele><time>2026-05-02T05:11:47.623Z</time></trkpt><trkpt lat="43.1000466" lon="12.3120262"><ele>255.0</ele><time>2026-05-02T05:11:48.639Z</time></trkpt><trkpt lat="43.1000254" lon="12.3122317"><ele>255.0</ele><time>2026-05-02T05:11:49.62Z</time></trkpt><trkpt lat="43.1000083" lon="12.3124407"><ele>255.0</ele><time>2026-05-02T05:11:50.653Z</time></trkpt><trkpt lat="43.0999888" lon="12.3126443"><ele>255.33333333333331</ele><time>2026-05-02T05:11:51.66Z</time></trkpt><trkpt lat="43.0999697" lon="12.3128479"><ele>255.66666666666666</ele><time>2026-05-02T05:11:52.644Z</time></trkpt><trkpt lat="43.0999494" lon="12.31305"><ele>256.0</ele><time>2026-05-02T05:11:53.623Z</time></trkpt><trkpt lat="43.0999323" lon="12.3132578"><ele>255.25</ele><time>2026-05-02T05:11:54.622Z</time></trkpt><trkpt lat="43.0999157" lon="12.3134608"><ele>254.5</ele><time>2026-05-02T05:11:55.618Z</time></trkpt><trkpt lat="43.0998921" lon="12.3136623"><ele>253.75</ele><time>2026-05-02T05:11:56.628Z</time></trkpt><trkpt lat="43.099867" lon="12.3138608"><ele>253.0</ele><time>2026-05-02T05:11:57.641Z</time></trkpt><trkpt lat="43.0998372" lon="12.3140544"><ele>253.0</ele><time>2026-05-02T05:11:58.618Z</time></trkpt><trkpt lat="43.0997882" lon="12.3142395"><ele>253.0</ele><time>2026-05-02T05:11:59.626Z</time></trkpt><trkpt lat="43.0997188" lon="12.3144154"><ele>253.0</ele><time>2026-05-02T05:12:00.617Z</time></trkpt><trkpt lat="43.0996311" lon="12.3145862"><ele>253.0</ele><time>2026-05-02T05:12:01.62Z</time></trkpt><trkpt lat="43.0995329" lon="12.3147566"><ele>253.66666666666666</ele><time>2026-05-02T05:12:02.621Z</time></trkpt><trkpt lat="43.0994301" lon="12.3149253"><ele>254.33333333333331</ele><time>2026-05-02T05:12:03.62Z</time></trkpt><trkpt lat="43.0993225" lon="12.3150973"><ele>255.0</ele><time>2026-05-02T05:12:04.623Z</time></trkpt><trkpt lat="43.0992138" lon="12.3152707"><ele>255.0</ele><time>2026-05-02T05:12:05.619Z</time></trkpt><trkpt lat="43.0991002" lon="12.3154493"><ele>255.0</ele><time>2026-05-02T05:12:06.626Z</time></trkpt><trkpt lat="43.0989913" lon="12.3156226"><ele>255.0</ele><time>2026-05-02T05:12:07.62Z</time></trkpt><trkpt lat="43.0988813" lon="12.3157947"><ele>255.0</ele><time>2026-05-02T05:12:08.623Z</time></trkpt><trkpt lat="43.0987705" lon="12.3159678"><ele>255.0</ele><time>2026-05-02T05:12:09.62Z</time></trkpt><trkpt lat="43.0986612" lon="12.3161464"><ele>255.0</ele><time>2026-05-02T05:12:10.622Z</time></trkpt><trkpt lat="43.0985576" lon="12.3163214"><ele>255.66666666666669</ele><time>2026-05-02T05:12:11.619Z</time></trkpt><trkpt lat="43.098453" lon="12.3164931"><ele>256.33333333333337</ele><time>2026-05-02T05:12:12.623Z</time></trkpt><trkpt lat="43.0983473" lon="12.3166677"><ele>257.0</ele><time>2026-05-02T05:12:13.621Z</time></trkpt><trkpt lat="43.0982531" lon="12.3168177"><ele>257.0</ele><time>2026-05-02T05:12:14.625Z</time></trkpt><trkpt lat="43.0981669" lon="12.3169403"><ele>257.0</ele><time>2026-05-02T05:12:15.619Z</time></trkpt><trkpt lat="43.0980762" lon="12.317025"><ele>257.0</ele><time>2026-05-02T05:12:16.623Z</time></trkpt><trkpt lat="43.0979694" lon="12.317084"><ele>257.0</ele><time>2026-05-02T05:12:17.623Z</time></trkpt><trkpt lat="43.0978692" lon="12.3171288"><ele>257.0</ele><time>2026-05-02T05:12:18.631Z</time></trkpt><trkpt lat="43.0977893" lon="12.3171797"><ele>257.0</ele><time>2026-05-02T05:12:19.619Z</time></trkpt><trkpt lat="43.0977368" lon="12.317253"><ele>257.0</ele><time>2026-05-02T05:12:20.619Z</time></trkpt><trkpt lat="43.0977174" lon="12.3173382"><ele>257.0</ele><time>2026-05-02T05:12:21.622Z</time></trkpt><trkpt lat="43.0977288" lon="12.3174345"><ele>257.0</ele><time>2026-05-02T05:12:22.62Z</time></trkpt><trkpt lat="43.0977761" lon="12.3175092"><ele>257.0</ele><time>2026-05-02T05:12:23.621Z</time></trkpt><trkpt lat="43.0978445" lon="12.317554"><ele>257.0</ele><time>2026-05-02T05:12:24.626Z</time></trkpt><trkpt lat="43.0979287" lon="12.3175629"><ele>257.2</ele><time>2026-05-02T05:12:25.622Z</time></trkpt><trkpt lat="43.0980191" lon="12.3175496"><ele>257.4</ele><time>2026-05-02T05:12:26.619Z</time></trkpt><trkpt lat="43.0981136" lon="12.317547"><ele>257.6</ele><time>2026-05-02T05:12:27.62Z</time></trkpt><trkpt lat="43.0982158" lon="12.3175854"><ele>257.8</ele><time>2026-05-02T05:12:28.619Z</time></trkpt><trkpt lat="43.0983298" lon="12.3176622"><ele>258.0</ele><time>2026-05-02T05:12:29.621Z</time></trkpt><trkpt lat="43.0984448" lon="12.3177576"><ele>258.6666666666667</ele><time>2026-05-02T05:12:30.624Z</time></trkpt><trkpt lat="43.098569" lon="12.3178724"><ele>259.33333333333337</ele><time>2026-05-02T05:12:31.624Z</time></trkpt><trkpt lat="43.0986959" lon="12.3179964"><ele>260.0</ele><time>2026-05-02T05:12:32.621Z</time></trkpt><trkpt lat="43.0988248" lon="12.3181286"><ele>261.0</ele><time>2026-05-02T05:12:33.619Z</time></trkpt><trkpt lat="43.0989512" lon="12.3182766"><ele>262.0</ele><time>2026-05-02T05:12:34.621Z</time></trkpt><trkpt lat="43.0990655" lon="12.3184481"><ele>263.0</ele><time>2026-05-02T05:12:35.618Z</time></trkpt><trkpt lat="43.099157" lon="12.3186193"><ele>263.0</ele><time>2026-05-02T05:12:36.624Z</time></trkpt><trkpt lat="43.099221" lon="12.3187849"><ele>263.0</ele><time>2026-05-02T05:12:37.62Z</time></trkpt><trkpt lat="43.0992613" lon="12.3189466"><ele>263.0</ele><time>2026-05-02T05:12:38.62Z</time></trkpt><trkpt lat="43.09928" lon="12.3191125"><ele>263.0</ele><time>2026-05-02T05:12:39.623Z</time></trkpt><trkpt lat="43.0993115" lon="12.3192559"><ele>263.0</ele><time>2026-05-02T05:12:40.619Z</time></trkpt><trkpt lat="43.0993707" lon="12.3193791"><ele>263.0</ele><time>2026-05-02T05:12:41.622Z</time></trkpt><trkpt lat="43.0994592" lon="12.3194683"><ele>263.0</ele><time>2026-05-02T05:12:42.62Z</time></trkpt><trkpt lat="43.0995599" lon="12.3195487"><ele>263.0</ele><time>2026-05-02T05:12:43.619Z</time></trkpt><trkpt lat="43.0996526" lon="12.3196627"><ele>263.0</ele><time>2026-05-02T05:12:44.62Z</time></trkpt><trkpt lat="43.0997366" lon="12.3198139"><ele>263.0</ele><time>2026-05-02T05:12:45.619Z</time></trkpt><trkpt lat="43.0998291" lon="12.3199739"><ele>263.0</ele><time>2026-05-02T05:12:46.625Z</time></trkpt><trkpt lat="43.0999425" lon="12.3201204"><ele>263.0</ele><time>2026-05-02T05:12:47.617Z</time></trkpt><trkpt lat="43.1000689" lon="12.3202548"><ele>263.0</ele><time>2026-05-02T05:12:48.617Z</time></trkpt><trkpt lat="43.1002008" lon="12.3203816"><ele>263.0</ele><time>2026-05-02T05:12:49.618Z</time></trkpt><trkpt lat="43.1003273" lon="12.3205028"><ele>263.0</ele><time>2026-05-02T05:12:50.62Z</time></trkpt><trkpt lat="43.1004397" lon="12.320623"><ele>263.6</ele><time>2026-05-02T05:12:51.626Z</time></trkpt><trkpt lat="43.1005297" lon="12.3207424"><ele>264.20000000000005</ele><time>2026-05-02T05:12:52.62Z</time></trkpt><trkpt lat="43.1005932" lon="12.3208714"><ele>264.8</ele><time>2026-05-02T05:12:53.623Z</time></trkpt><trkpt lat="43.1006277" lon="12.321004"><ele>265.40000000000003</ele><time>2026-05-02T05:12:54.62Z</time></trkpt><trkpt lat="43.1006538" lon="12.3211255"><ele>266.0</ele><time>2026-05-02T05:12:55.618Z</time></trkpt><trkpt lat="43.1007017" lon="12.3212135"><ele>266.0</ele><time>2026-05-02T05:12:56.616Z</time></trkpt><trkpt lat="43.1007662" lon="12.3212725"><ele>266.0</ele><time>2026-05-02T05:12:57.615Z</time></trkpt><trkpt lat="43.1008451" lon="12.3212838"><ele>266.0</ele><time>2026-05-02T05:12:58.622Z</time></trkpt><trkpt lat="43.1009278" lon="12.3212648"><ele>266.0</ele><time>2026-05-02T05:12:59.618Z</time></trkpt><trkpt lat="43.101022" lon="12.3212478"><ele>266.0</ele><time>2026-05-02T05:13:00.624Z</time></trkpt><trkpt lat="43.101126" lon="12.321262"><ele>266.0</ele><time>2026-05-02T05:13:01.624Z</time></trkpt><trkpt lat="43.1012371" lon="12.3213233"><ele>265.75</ele><time>2026-05-02T05:13:02.62Z</time></trkpt><trkpt lat="43.1013518" lon="12.3214126"><ele>265.5</ele><time>2026-05-02T05:13:03.625Z</time></trkpt><trkpt lat="43.1014724" lon="12.3215193"><ele>265.25</ele><time>2026-05-02T05:13:04.621Z</time></trkpt><trkpt lat="43.1016021" lon="12.3216351"><ele>265.0</ele><time>2026-05-02T05:13:05.616Z</time></trkpt><trkpt lat="43.1017362" lon="12.3217534"><ele>265.66666666666663</ele><time>2026-05-02T05:13:06.617Z</time></trkpt><trkpt lat="43.1018745" lon="12.3218798"><ele>266.3333333333333</ele><time>2026-05-02T05:13:07.619Z</time></trkpt><trkpt lat="43.1020181" lon="12.3220089"><ele>267.0</ele><time>2026-05-02T05:13:08.623Z</time></trkpt><trkpt lat="43.1021651" lon="12.3221394"><ele>267.0</ele><time>2026-05-02T05:13:09.621Z</time></trkpt><trkpt lat="43.1023139" lon="12.3222685"><ele>267.0</ele><time>2026-05-02T05:13:10.629Z</time></trkpt><trkpt lat="43.1024613" lon="12.3223989"><ele>267.0</ele><time>2026-05-02T05:13:11.617Z</time></trkpt><trkpt lat="43.1026074" lon="12.3225291"><ele>268.3333333333333</ele><time>2026-05-02T05:13:12.622Z</time></trkpt><trkpt lat="43.1027523" lon="12.3226554"><ele>269.66666666666663</ele><time>2026-05-02T05:13:13.617Z</time></trkpt><trkpt lat="43.1028921" lon="12.3227818"><ele>271.0</ele><time>2026-05-02T05:13:14.616Z</time></trkpt><trkpt lat="43.1030286" lon="12.3229032"><ele>271.0</ele><time>2026-05-02T05:13:15.626Z</time></trkpt><trkpt lat="43.1031634" lon="12.3230313"><ele>271.0</ele><time>2026-05-02T05:13:16.625Z</time></trkpt><trkpt lat="43.1032933" lon="12.3231658"><ele>271.0</ele><time>2026-05-02T05:13:17.623Z</time></trkpt><trkpt lat="43.1034201" lon="12.3233106"><ele>273.0</ele><time>2026-05-02T05:13:18.618Z</time></trkpt><trkpt lat="43.1035396" lon="12.323467"><ele>275.0</ele><time>2026-05-02T05:13:19.618Z</time></trkpt><trkpt lat="43.1036494" lon="12.3236424"><ele>277.0</ele><time>2026-05-02T05:13:20.626Z</time></trkpt><trkpt lat="43.1037509" lon="12.3238311"><ele>278.0</ele><time>2026-05-02T05:13:21.615Z</time></trkpt><trkpt lat="43.1038475" lon="12.3240296"><ele>279.0</ele><time>2026-05-02T05:13:22.627Z</time></trkpt><trkpt lat="43.1039424" lon="12.3242373"><ele>280.0</ele><time>2026-05-02T05:13:23.627Z</time></trkpt><trkpt lat="43.1040309" lon="12.3244524"><ele>280.66666666666663</ele><time>2026-05-02T05:13:24.622Z</time></trkpt><trkpt lat="43.1041231" lon="12.3246656"><ele>281.3333333333333</ele><time>2026-05-02T05:13:25.626Z</time></trkpt><trkpt lat="43.1042191" lon="12.3248758"><ele>282.0</ele><time>2026-05-02T05:13:26.621Z</time></trkpt><trkpt lat="43.1043169" lon="12.3250857"><ele>282.6666666666667</ele><time>2026-05-02T05:13:27.617Z</time></trkpt><trkpt lat="43.1044187" lon="12.3252906"><ele>283.33333333333337</ele><time>2026-05-02T05:13:28.617Z</time></trkpt><trkpt lat="43.1045119" lon="12.3254843"><ele>284.0</ele><time>2026-05-02T05:13:29.623Z</time></trkpt><trkpt lat="43.1045945" lon="12.3256645"><ele>285.75</ele><time>2026-05-02T05:13:30.626Z</time></trkpt><trkpt lat="43.1046695" lon="12.3258203"><ele>287.5</ele><time>2026-05-02T05:13:31.62Z</time></trkpt><trkpt lat="43.1047412" lon="12.3259496"><ele>289.25</ele><time>2026-05-02T05:13:32.619Z</time></trkpt><trkpt lat="43.1048201" lon="12.3260545"><ele>291.0</ele><time>2026-05-02T05:13:33.62Z</time></trkpt><trkpt lat="43.1049113" lon="12.3261304"><ele>290.75</ele><time>2026-05-02T05:13:34.617Z</time></trkpt><trkpt lat="43.105018" lon="12.3261785"><ele>290.5</ele><time>2026-05-02T05:13:35.628Z</time></trkpt><trkpt lat="43.1051281" lon="12.3262017"><ele>290.25</ele><time>2026-05-02T05:13:36.623Z</time></trkpt><trkpt lat="43.1052389" lon="12.3262197"><ele>290.0</ele><time>2026-05-02T05:13:37.622Z</time></trkpt><trkpt lat="43.105368" lon="12.3262118"><ele>290.0</ele><time>2026-05-02T05:13:38.619Z</time></trkpt><trkpt lat="43.1054693" lon="12.3262183"><ele>290.0</ele><time>2026-05-02T05:13:39.622Z</time></trkpt><trkpt lat="43.1055398" lon="12.3262677"><ele>290.0</ele><time>2026-05-02T05:13:40.624Z</time></trkpt><trkpt lat="43.1056102" lon="12.3263551"><ele>290.0</ele><time>2026-05-02T05:13:41.618Z</time></trkpt><trkpt lat="43.1056643" lon="12.3264485"><ele>290.0</ele><time>2026-05-02T05:13:42.619Z</time></trkpt><trkpt lat="43.1057039" lon="12.326628"><ele>291.6666666666667</ele><time>2026-05-02T05:13:43.618Z</time></trkpt><trkpt lat="43.105749" lon="12.3268142"><ele>293.3333333333333</ele><time>2026-05-02T05:13:44.623Z</time></trkpt><trkpt lat="43.1057945" lon="12.3270182"><ele>295.0</ele><time>2026-05-02T05:13:45.615Z</time></trkpt><trkpt lat="43.105848" lon="12.3272322"><ele>295.66666666666663</ele><time>2026-05-02T05:13:46.62Z</time></trkpt><trkpt lat="43.1059038" lon="12.3274547"><ele>296.3333333333333</ele><time>2026-05-02T05:13:47.62Z</time></trkpt><trkpt lat="43.1059651" lon="12.3276802"><ele>297.0</ele><time>2026-05-02T05:13:48.62Z</time></trkpt><trkpt lat="43.10603" lon="12.3279099"><ele>297.6666666666667</ele><time>2026-05-02T05:13:49.626Z</time></trkpt><trkpt lat="43.1060933" lon="12.3281408"><ele>298.33333333333337</ele><time>2026-05-02T05:13:50.621Z</time></trkpt><trkpt lat="43.1061562" lon="12.3283586"><ele>299.0</ele><time>2026-05-02T05:13:51.618Z</time></trkpt><trkpt lat="43.1062211" lon="12.3285803"><ele>299.0</ele><time>2026-05-02T05:13:52.617Z</time></trkpt><trkpt lat="43.1062845" lon="12.3287949"><ele>299.0</ele><time>2026-05-02T05:13:53.619Z</time></trkpt><trkpt lat="43.1063456" lon="12.3290042"><ele>299.0</ele><time>2026-05-02T05:13:54.618Z</time></trkpt><trkpt lat="43.1064014" lon="12.3291957"><ele>298.8</ele><time>2026-05-02T05:13:55.618Z</time></trkpt><trkpt lat="43.1064498" lon="12.3293583"><ele>298.59999999999997</ele><time>2026-05-02T05:13:56.62Z</time></trkpt><trkpt lat="43.1064907" lon="12.3294887"><ele>298.4</ele><time>2026-05-02T05:13:57.622Z</time></trkpt><trkpt lat="43.1065312" lon="12.329584"><ele>298.2</ele><time>2026-05-02T05:13:58.619Z</time></trkpt><trkpt lat="43.1065905" lon="12.3296362"><ele>298.0</ele><time>2026-05-02T05:13:59.622Z</time></trkpt><trkpt lat="43.1066614" lon="12.3296443"><ele>298.0</ele><time>2026-05-02T05:14:00.622Z</time></trkpt><trkpt lat="43.1067533" lon="12.3296197"><ele>298.0</ele><time>2026-05-02T05:14:01.62Z</time></trkpt><trkpt lat="43.1068673" lon="12.32958"><ele>298.0</ele><time>2026-05-02T05:14:02.618Z</time></trkpt><trkpt lat="43.1069966" lon="12.3295445"><ele>298.0</ele><time>2026-05-02T05:14:03.624Z</time></trkpt><trkpt lat="43.1071321" lon="12.3295402"><ele>298.0</ele><time>2026-05-02T05:14:04.62Z</time></trkpt><trkpt lat="43.107271" lon="12.3295739"><ele>298.0</ele><time>2026-05-02T05:14:05.618Z</time></trkpt><trkpt lat="43.1074202" lon="12.3296497"><ele>298.0</ele><time>2026-05-02T05:14:06.622Z</time></trkpt><trkpt lat="43.1075779" lon="12.3297307"><ele>300.0</ele><time>2026-05-02T05:14:07.625Z</time></trkpt><trkpt lat="43.1077365" lon="12.3298194"><ele>302.0</ele><time>2026-05-02T05:14:08.619Z</time></trkpt><trkpt lat="43.1079054" lon="12.329895"><ele>304.0</ele><time>2026-05-02T05:14:09.626Z</time></trkpt><trkpt lat="43.1080748" lon="12.3299585"><ele>305.3333333333333</ele><time>2026-05-02T05:14:10.627Z</time></trkpt><trkpt lat="43.1082493" lon="12.3300125"><ele>306.6666666666667</ele><time>2026-05-02T05:14:11.62Z</time></trkpt><trkpt lat="43.108418" lon="12.3300726"><ele>308.0</ele><time>2026-05-02T05:14:12.621Z</time></trkpt><trkpt lat="43.1085739" lon="12.330076"><ele>308.0</ele><time>2026-05-02T05:14:13.623Z</time></trkpt><trkpt lat="43.1087397" lon="12.3300364"><ele>308.0</ele><time>2026-05-02T05:14:14.624Z</time></trkpt><trkpt lat="43.108895" lon="12.3299685"><ele>308.0</ele><time>2026-05-02T05:14:15.622Z</time></trkpt><trkpt lat="43.1090422" lon="12.3298803"><ele>310.33333333333337</ele><time>2026-05-02T05:14:16.62Z</time></trkpt><trkpt lat="43.1091835" lon="12.329783"><ele>312.6666666666667</ele><time>2026-05-02T05:14:17.622Z</time></trkpt><trkpt lat="43.1093141" lon="12.3296727"><ele>315.0</ele><time>2026-05-02T05:14:18.618Z</time></trkpt><trkpt lat="43.1094407" lon="12.329553"><ele>317.75</ele><time>2026-05-02T05:14:19.617Z</time></trkpt><trkpt lat="43.1095498" lon="12.3294219"><ele>320.5</ele><time>2026-05-02T05:14:20.62Z</time></trkpt><trkpt lat="43.1096468" lon="12.3292727"><ele>323.25</ele><time>2026-05-02T05:14:21.622Z</time></trkpt><trkpt lat="43.1097295" lon="12.3291203"><ele>326.0</ele><time>2026-05-02T05:14:22.625Z</time></trkpt><trkpt lat="43.1097959" lon="12.3289651"><ele>326.5</ele><time>2026-05-02T05:14:23.628Z</time></trkpt><trkpt lat="43.1098242" lon="12.3288026"><ele>327.0</ele><time>2026-05-02T05:14:24.618Z</time></trkpt><trkpt lat="43.109855" lon="12.328638"><ele>327.5</ele><time>2026-05-02T05:14:25.618Z</time></trkpt><trkpt lat="43.1098617" lon="12.3284567"><ele>328.0</ele><time>2026-05-02T05:14:26.62Z</time></trkpt><trkpt lat="43.1098846" lon="12.3282593"><ele>330.5</ele><time>2026-05-02T05:14:27.621Z</time></trkpt><trkpt lat="43.1098915" lon="12.3280592"><ele>333.0</ele><time>2026-05-02T05:14:28.616Z</time></trkpt><trkpt lat="43.1098718" lon="12.3278663"><ele>335.5</ele><time>2026-05-02T05:14:29.622Z</time></trkpt><trkpt lat="43.1098313" lon="12.327664"><ele>338.0</ele><time>2026-05-02T05:14:30.622Z</time></trkpt><trkpt lat="43.1097829" lon="12.3274678"><ele>338.0</ele><time>2026-05-02T05:14:31.617Z</time></trkpt><trkpt lat="43.1097458" lon="12.3272938"><ele>338.0</ele><time>2026-05-02T05:14:32.64Z</time></trkpt><trkpt lat="43.1097389" lon="12.3271427"><ele>338.0</ele><time>2026-05-02T05:14:33.623Z</time></trkpt><trkpt lat="43.1097664" lon="12.3270194"><ele>338.0</ele><time>2026-05-02T05:14:34.621Z</time></trkpt><trkpt lat="43.1098244" lon="12.3269164"><ele>338.0</ele><time>2026-05-02T05:14:35.618Z</time></trkpt><trkpt lat="43.1099074" lon="12.3268596"><ele>342.75</ele><time>2026-05-02T05:14:36.626Z</time></trkpt><trkpt lat="43.1100086" lon="12.3268318"><ele>347.5</ele><time>2026-05-02T05:14:37.624Z</time></trkpt><trkpt lat="43.1101207" lon="12.3267935"><ele>352.25</ele><time>2026-05-02T05:14:38.619Z</time></trkpt><trkpt lat="43.1102332" lon="12.3267165"><ele>357.0</ele><time>2026-05-02T05:14:39.63Z</time></trkpt><trkpt lat="43.1103506" lon="12.3266179"><ele>357.0</ele><time>2026-05-02T05:14:40.622Z</time></trkpt><trkpt lat="43.1104716" lon="12.3265084"><ele>357.0</ele><time>2026-05-02T05:14:41.629Z</time></trkpt><trkpt lat="43.110594" lon="12.326396"><ele>357.0</ele><time>2026-05-02T05:14:42.617Z</time></trkpt><trkpt lat="43.1107221" lon="12.3262854"><ele>357.0</ele><time>2026-05-02T05:14:43.62Z</time></trkpt><trkpt lat="43.1108458" lon="12.3261807"><ele>360.5</ele><time>2026-05-02T05:14:44.62Z</time></trkpt><trkpt lat="43.1109659" lon="12.3260867"><ele>364.0</ele><time>2026-05-02T05:14:45.619Z</time></trkpt><trkpt lat="43.1110605" lon="12.3259874"><ele>367.5</ele><time>2026-05-02T05:14:46.619Z</time></trkpt><trkpt lat="43.1111281" lon="12.3258507"><ele>371.0</ele><time>2026-05-02T05:14:47.618Z</time></trkpt><trkpt lat="43.1111686" lon="12.3256907"><ele>370.5</ele><time>2026-05-02T05:14:48.63Z</time></trkpt><trkpt lat="43.1111999" lon="12.3255257"><ele>370.0</ele><time>2026-05-02T05:14:49.617Z</time></trkpt><trkpt lat="43.1112343" lon="12.3253593"><ele>369.5</ele><time>2026-05-02T05:14:50.619Z</time></trkpt><trkpt lat="43.1112774" lon="12.3251749"><ele>369.0</ele><time>2026-05-02T05:14:51.625Z</time></trkpt><trkpt lat="43.111337" lon="12.3249942"><ele>369.0</ele><time>2026-05-02T05:14:52.615Z</time></trkpt><trkpt lat="43.1114055" lon="12.3248311"><ele>369.0</ele><time>2026-05-02T05:14:53.622Z</time></trkpt><trkpt lat="43.1114847" lon="12.3246604"><ele>369.0</ele><time>2026-05-02T05:14:54.621Z</time></trkpt><trkpt lat="43.1115627" lon="12.3244866"><ele>369.0</ele><time>2026-05-02T05:14:55.617Z</time></trkpt><trkpt lat="43.1116446" lon="12.3243082"><ele>376.0</ele><time>2026-05-02T05:14:56.627Z</time></trkpt><trkpt lat="43.1117311" lon="12.3241209"><ele>383.0</ele><time>2026-05-02T05:14:57.617Z</time></trkpt><trkpt lat="43.1118084" lon="12.3239387"><ele>390.0</ele><time>2026-05-02T05:14:58.618Z</time></trkpt><trkpt lat="43.1118716" lon="12.3237479"><ele>390.0</ele><time>2026-05-02T05:14:59.617Z</time></trkpt><trkpt lat="43.1119306" lon="12.3235635"><ele>390.0</ele><time>2026-05-02T05:15:00.619Z</time></trkpt><trkpt lat="43.1120018" lon="12.3234286"><ele>390.0</ele><time>2026-05-02T05:15:01.619Z</time></trkpt><trkpt lat="43.1120967" lon="12.3233235"><ele>390.0</ele><time>2026-05-02T05:15:02.618Z</time></trkpt><trkpt lat="43.112209" lon="12.3232312"><ele>390.0</ele><time>2026-05-02T05:15:03.629Z</time></trkpt><trkpt lat="43.1123292" lon="12.3231341"><ele>390.0</ele><time>2026-05-02T05:15:04.622Z</time></trkpt><trkpt lat="43.1124553" lon="12.3230287"><ele>390.0</ele><time>2026-05-02T05:15:05.622Z</time></trkpt><trkpt lat="43.1125809" lon="12.3229125"><ele>390.0</ele><time>2026-05-02T05:15:06.619Z</time></trkpt><trkpt lat="43.1127128" lon="12.3227965"><ele>394.66666666666663</ele><time>2026-05-02T05:15:07.62Z</time></trkpt><trkpt lat="43.1128433" lon="12.3226658"><ele>399.3333333333333</ele><time>2026-05-02T05:15:08.618Z</time></trkpt><trkpt lat="43.1129751" lon="12.3225332"><ele>404.0</ele><time>2026-05-02T05:15:09.618Z</time></trkpt><trkpt lat="43.1130953" lon="12.32239"><ele>402.3333333333333</ele><time>2026-05-02T05:15:10.616Z</time></trkpt><trkpt lat="43.1131939" lon="12.3222297"><ele>400.66666666666663</ele><time>2026-05-02T05:15:11.624Z</time></trkpt><trkpt lat="43.1132644" lon="12.322042"><ele>399.0</ele><time>2026-05-02T05:15:12.624Z</time></trkpt><trkpt lat="43.113329" lon="12.3218591"><ele>408.0</ele><time>2026-05-02T05:15:13.624Z</time></trkpt><trkpt lat="43.113385" lon="12.3216603"><ele>417.0</ele><time>2026-05-02T05:15:14.621Z</time></trkpt><trkpt lat="43.1134304" lon="12.3214628"><ele>426.0</ele><time>2026-05-02T05:15:15.621Z</time></trkpt><trkpt lat="43.1134962" lon="12.3212609"><ele>426.0</ele><time>2026-05-02T05:15:16.627Z</time></trkpt><trkpt lat="43.113573" lon="12.3210698"><ele>426.0</ele><time>2026-05-02T05:15:17.619Z</time></trkpt><trkpt lat="43.113659" lon="12.3208867"><ele>426.0</ele><time>2026-05-02T05:15:18.625Z</time></trkpt><trkpt lat="43.1137548" lon="12.3207098"><ele>422.66666666666663</ele><time>2026-05-02T05:15:19.631Z</time></trkpt><trkpt lat="43.1138574" lon="12.3205374"><ele>419.3333333333333</ele><time>2026-05-02T05:15:20.619Z</time></trkpt><trkpt lat="43.1139724" lon="12.3203824"><ele>416.0</ele><time>2026-05-02T05:15:21.626Z</time></trkpt><trkpt lat="43.114093" lon="12.3202258"><ele>425.0</ele><time>2026-05-02T05:15:22.623Z</time></trkpt><trkpt lat="43.1142203" lon="12.3200908"><ele>434.0</ele><time>2026-05-02T05:15:23.619Z</time></trkpt><trkpt lat="43.1143419" lon="12.3199408"><ele>443.0</ele><time>2026-05-02T05:15:24.625Z</time></trkpt><trkpt lat="43.1144587" lon="12.319785"><ele>439.0</ele><time>2026-05-02T05:15:25.622Z</time></trkpt><trkpt lat="43.1145742" lon="12.3196297"><ele>435.0</ele><time>2026-05-02T05:15:26.625Z</time></trkpt><trkpt lat="43.1146938" lon="12.3194816"><ele>431.0</ele><time>2026-05-02T05:15:27.623Z</time></trkpt><trkpt lat="43.1148109" lon="12.3193335"><ele>438.3333333333333</ele><time>2026-05-02T05:15:28.618Z</time></trkpt><trkpt lat="43.1149206" lon="12.3191898"><ele>445.66666666666663</ele><time>2026-05-02T05:15:29.618Z</time></trkpt><trkpt lat="43.115025" lon="12.3190347"><ele>453.0</ele><time>2026-05-02T05:15:30.636Z</time></trkpt><trkpt lat="43.1151198" lon="12.3188673"><ele>453.0</ele><time>2026-05-02T05:15:31.625Z</time></trkpt><trkpt lat="43.1152022" lon="12.3186869"><ele>453.0</ele><time>2026-05-02T05:15:32.624Z</time></trkpt><trkpt lat="43.115284" lon="12.318513"><ele>453.0</ele><time>2026-05-02T05:15:33.623Z</time></trkpt><trkpt lat="43.1153675" lon="12.3183287"><ele>453.0</ele><time>2026-05-02T05:15:34.62Z</time></trkpt><trkpt lat="43.1154455" lon="12.3181418"><ele>453.0</ele><time>2026-05-02T05:15:35.621Z</time></trkpt><trkpt lat="43.1155178" lon="12.3179475"><ele>453.0</ele><time>2026-05-02T05:15:36.622Z</time></trkpt><trkpt lat="43.1155727" lon="12.3177494"><ele>453.0</ele><time>2026-05-02T05:15:37.619Z</time></trkpt><trkpt lat="43.1156164" lon="12.3175424"><ele>453.0</ele><time>2026-05-02T05:15:38.622Z</time></trkpt><trkpt lat="43.1156608" lon="12.3173329"><ele>453.0</ele><time>2026-05-02T05:15:39.623Z</time></trkpt><trkpt lat="43.1157016" lon="12.3171152"><ele>464.33333333333337</ele><time>2026-05-02T05:15:40.618Z</time></trkpt><trkpt lat="43.115747" lon="12.3169012"><ele>475.6666666666667</ele><time>2026-05-02T05:15:41.627Z</time></trkpt><trkpt lat="43.115813" lon="12.3166885"><ele>487.0</ele><time>2026-05-02T05:15:42.62Z</time></trkpt><trkpt lat="43.1158812" lon="12.3164801"><ele>489.75</ele><time>2026-05-02T05:15:43.631Z</time></trkpt><trkpt lat="43.1159614" lon="12.3162757"><ele>492.5</ele><time>2026-05-02T05:15:44.622Z</time></trkpt><trkpt lat="43.116034" lon="12.3161077"><ele>495.25</ele><time>2026-05-02T05:15:45.615Z</time></trkpt><trkpt lat="43.1160863" lon="12.3159732"><ele>498.0</ele><time>2026-05-02T05:15:46.63Z</time></trkpt><trkpt lat="43.1161033" lon="12.315861"><ele>498.0</ele><time>2026-05-02T05:15:47.621Z</time></trkpt><trkpt lat="43.1161122" lon="12.3157515"><ele>497.99999999999994</ele><time>2026-05-02T05:15:48.623Z</time></trkpt><trkpt lat="43.1160537" lon="12.3156322"><ele>497.99999999999994</ele><time>2026-05-02T05:15:50.639Z</time></trkpt><trkpt lat="43.1159745" lon="12.3156312"><ele>498.0</ele><time>2026-05-02T05:15:51.63Z</time></trkpt><trkpt lat="43.1158552" lon="12.3156938"><ele>498.0</ele><time>2026-05-02T05:15:52.622Z</time></trkpt><trkpt lat="43.1157041" lon="12.3158177"><ele>500.0</ele><time>2026-05-02T05:15:53.714Z</time></trkpt><trkpt lat="43.1155735" lon="12.3158842"><ele>502.0</ele><time>2026-05-02T05:15:54.618Z</time></trkpt><trkpt lat="43.1154391" lon="12.3159588"><ele>504.0</ele><time>2026-05-02T05:15:55.625Z</time></trkpt><trkpt lat="43.1153025" lon="12.3160295"><ele>506.0</ele><time>2026-05-02T05:15:56.622Z</time></trkpt><trkpt lat="43.1151646" lon="12.3161014"><ele>506.0</ele><time>2026-05-02T05:15:57.616Z</time></trkpt><trkpt lat="43.1150357" lon="12.3161659"><ele>506.0</ele><time>2026-05-02T05:15:58.616Z</time></trkpt><trkpt lat="43.1149017" lon="12.3162085"><ele>506.0</ele><time>2026-05-02T05:15:59.618Z</time></trkpt><trkpt lat="43.1147648" lon="12.3162072"><ele>506.0</ele><time>2026-05-02T05:16:00.618Z</time></trkpt><trkpt lat="43.1146257" lon="12.3161953"><ele>504.25</ele><time>2026-05-02T05:16:01.622Z</time></trkpt><trkpt lat="43.1144986" lon="12.3161583"><ele>502.5</ele><time>2026-05-02T05:16:02.642Z</time></trkpt><trkpt lat="43.1143933" lon="12.3160671"><ele>500.75</ele><time>2026-05-02T05:16:03.619Z</time></trkpt><trkpt lat="43.1143074" lon="12.3159487"><ele>499.0</ele><time>2026-05-02T05:16:04.63Z</time></trkpt><trkpt lat="43.1142398" lon="12.3158068"><ele>499.0</ele><time>2026-05-02T05:16:05.626Z</time></trkpt><trkpt lat="43.1141747" lon="12.3156347"><ele>499.0</ele><time>2026-05-02T05:16:06.62Z</time></trkpt><trkpt lat="43.1141005" lon="12.3154727"><ele>499.0</ele><time>2026-05-02T05:16:07.624Z</time></trkpt><trkpt lat="43.1140298" lon="12.3152973"><ele>499.0</ele><time>2026-05-02T05:16:08.625Z</time></trkpt><trkpt lat="43.1139443" lon="12.3151214"><ele>500.33333333333337</ele><time>2026-05-02T05:16:09.621Z</time></trkpt><trkpt lat="43.1138605" lon="12.3149349"><ele>501.66666666666663</ele><time>2026-05-02T05:16:10.626Z</time></trkpt><trkpt lat="43.1137682" lon="12.3147432"><ele>503.0</ele><time>2026-05-02T05:16:11.621Z</time></trkpt><trkpt lat="43.1136752" lon="12.3145457"><ele>503.0</ele><time>2026-05-02T05:16:12.62Z</time></trkpt><trkpt lat="43.1135802" lon="12.3143561"><ele>503.0</ele><time>2026-05-02T05:16:13.627Z</time></trkpt><trkpt lat="43.1134883" lon="12.3141651"><ele>503.0</ele><time>2026-05-02T05:16:14.624Z</time></trkpt><trkpt lat="43.1134123" lon="12.3139988"><ele>504.0</ele><time>2026-05-02T05:16:15.622Z</time></trkpt><trkpt lat="43.11333" lon="12.3138458"><ele>505.0</ele><time>2026-05-02T05:16:16.625Z</time></trkpt><trkpt lat="43.1132665" lon="12.3136924"><ele>506.0</ele><time>2026-05-02T05:16:17.622Z</time></trkpt><trkpt lat="43.1132238" lon="12.313539"><ele>507.0</ele><time>2026-05-02T05:16:18.624Z</time></trkpt><trkpt lat="43.113194" lon="12.3134031"><ele>507.0</ele><time>2026-05-02T05:16:19.626Z</time></trkpt><trkpt lat="43.1131983" lon="12.3132743"><ele>507.00000000000006</ele><time>2026-05-02T05:16:20.625Z</time></trkpt><trkpt lat="43.1132431" lon="12.3131629"><ele>507.00000000000006</ele><time>2026-05-02T05:16:21.626Z</time></trkpt><trkpt lat="43.1133181" lon="12.31308"><ele>507.0</ele><time>2026-05-02T05:16:22.622Z</time></trkpt><trkpt lat="43.1134222" lon="12.3130362"><ele>507.0</ele><time>2026-05-02T05:16:23.618Z</time></trkpt><trkpt lat="43.1135439" lon="12.3130164"><ele>507.0</ele><time>2026-05-02T05:16:24.625Z</time></trkpt><trkpt lat="43.1136731" lon="12.3130278"><ele>507.0</ele><time>2026-05-02T05:16:25.621Z</time></trkpt><trkpt lat="43.113816" lon="12.3130533"><ele>507.0</ele><time>2026-05-02T05:16:26.621Z</time></trkpt><trkpt lat="43.1139656" lon="12.3130878"><ele>507.0</ele><time>2026-05-02T05:16:27.63Z</time></trkpt><trkpt lat="43.1141095" lon="12.3131242"><ele>511.0</ele><time>2026-05-02T05:16:28.627Z</time></trkpt><trkpt lat="43.1142545" lon="12.313158"><ele>515.0</ele><time>2026-05-02T05:16:29.621Z</time></trkpt><trkpt lat="43.1144045" lon="12.3131832"><ele>519.0</ele><time>2026-05-02T05:16:30.63Z</time></trkpt><trkpt lat="43.1145604" lon="12.3132013"><ele>519.0</ele><time>2026-05-02T05:16:31.619Z</time></trkpt><trkpt lat="43.1147151" lon="12.3132108"><ele>519.0</ele><time>2026-05-02T05:16:32.623Z</time></trkpt><trkpt lat="43.1148709" lon="12.3132137"><ele>519.0</ele><time>2026-05-02T05:16:33.621Z</time></trkpt><trkpt lat="43.1150264" lon="12.3132289"><ele>524.0</ele><time>2026-05-02T05:16:34.619Z</time></trkpt><trkpt lat="43.1151924" lon="12.3132305"><ele>529.0</ele><time>2026-05-02T05:16:35.624Z</time></trkpt><trkpt lat="43.1153531" lon="12.3132363"><ele>534.0</ele><time>2026-05-02T05:16:36.629Z</time></trkpt><trkpt lat="43.1155153" lon="12.3132438"><ele>534.0</ele><time>2026-05-02T05:16:37.618Z</time></trkpt><trkpt lat="43.115674" lon="12.3132444"><ele>534.0</ele><time>2026-05-02T05:16:38.626Z</time></trkpt><trkpt lat="43.1158173" lon="12.3132513"><ele>534.0</ele><time>2026-05-02T05:16:39.628Z</time></trkpt><trkpt lat="43.1159439" lon="12.3132873"><ele>534.0</ele><time>2026-05-02T05:16:40.618Z</time></trkpt><trkpt lat="43.11607" lon="12.3133178"><ele>535.5</ele><time>2026-05-02T05:16:41.621Z</time></trkpt><trkpt lat="43.1162036" lon="12.3133107"><ele>537.0</ele><time>2026-05-02T05:16:42.625Z</time></trkpt><trkpt lat="43.1163451" lon="12.3132807"><ele>538.5</ele><time>2026-05-02T05:16:43.624Z</time></trkpt><trkpt lat="43.1164899" lon="12.3132317"><ele>540.0</ele><time>2026-05-02T05:16:44.625Z</time></trkpt><trkpt lat="43.1166433" lon="12.3131642"><ele>541.3333333333334</ele><time>2026-05-02T05:16:45.619Z</time></trkpt><trkpt lat="43.1167981" lon="12.313087"><ele>542.6666666666667</ele><time>2026-05-02T05:16:46.618Z</time></trkpt><trkpt lat="43.1169569" lon="12.3129925"><ele>544.0</ele><time>2026-05-02T05:16:47.62Z</time></trkpt><trkpt lat="43.1171141" lon="12.3129019"><ele>544.6666666666667</ele><time>2026-05-02T05:16:48.618Z</time></trkpt><trkpt lat="43.1172746" lon="12.3128286"><ele>545.3333333333334</ele><time>2026-05-02T05:16:49.618Z</time></trkpt><trkpt lat="43.1174209" lon="12.3127638"><ele>546.0</ele><time>2026-05-02T05:16:50.62Z</time></trkpt><trkpt lat="43.1175831" lon="12.3127287"><ele>548.0</ele><time>2026-05-02T05:16:51.619Z</time></trkpt><trkpt lat="43.1177406" lon="12.312712"><ele>550.0</ele><time>2026-05-02T05:16:52.617Z</time></trkpt><trkpt lat="43.1178953" lon="12.3127095"><ele>552.0</ele><time>2026-05-02T05:16:53.618Z</time></trkpt><trkpt lat="43.1180496" lon="12.3126948"><ele>552.0</ele><time>2026-05-02T05:16:54.623Z</time></trkpt><trkpt lat="43.1182022" lon="12.3126645"><ele>552.0</ele><time>2026-05-02T05:16:55.62Z</time></trkpt><trkpt lat="43.1183516" lon="12.312623"><ele>552.0</ele><time>2026-05-02T05:16:56.619Z</time></trkpt><trkpt lat="43.1185062" lon="12.3125692"><ele>554.5</ele><time>2026-05-02T05:16:57.622Z</time></trkpt><trkpt lat="43.1186501" lon="12.3125143"><ele>557.0</ele><time>2026-05-02T05:16:58.618Z</time></trkpt><trkpt lat="43.1187933" lon="12.3124524"><ele>559.5</ele><time>2026-05-02T05:16:59.625Z</time></trkpt><trkpt lat="43.1189297" lon="12.3123983"><ele>562.0</ele><time>2026-05-02T05:17:00.618Z</time></trkpt><trkpt lat="43.1190648" lon="12.3123681"><ele>564.3333333333334</ele><time>2026-05-02T05:17:01.622Z</time></trkpt><trkpt lat="43.1192095" lon="12.3123579"><ele>566.6666666666666</ele><time>2026-05-02T05:17:02.623Z</time></trkpt><trkpt lat="43.1193669" lon="12.312347"><ele>569.0</ele><time>2026-05-02T05:17:03.623Z</time></trkpt><trkpt lat="43.1195236" lon="12.3123453"><ele>569.0</ele><time>2026-05-02T05:17:04.623Z</time></trkpt><trkpt lat="43.1196843" lon="12.3123308"><ele>569.0</ele><time>2026-05-02T05:17:05.622Z</time></trkpt><trkpt lat="43.1198468" lon="12.3123492"><ele>569.0</ele><time>2026-05-02T05:17:06.624Z</time></trkpt><trkpt lat="43.120012" lon="12.3123889"><ele>570.3333333333333</ele><time>2026-05-02T05:17:07.623Z</time></trkpt><trkpt lat="43.1201759" lon="12.3124382"><ele>571.6666666666666</ele><time>2026-05-02T05:17:08.622Z</time></trkpt><trkpt lat="43.12034" lon="12.3125334"><ele>573.0</ele><time>2026-05-02T05:17:09.628Z</time></trkpt><trkpt lat="43.1205073" lon="12.3126348"><ele>573.0</ele><time>2026-05-02T05:17:10.621Z</time></trkpt><trkpt lat="43.1206752" lon="12.3127397"><ele>573.0</ele><time>2026-05-02T05:17:11.62Z</time></trkpt><trkpt lat="43.1208075" lon="12.3129181"><ele>573.0</ele><time>2026-05-02T05:17:12.621Z</time></trkpt><trkpt lat="43.120951" lon="12.3130732"><ele>577.0</ele><time>2026-05-02T05:17:13.626Z</time></trkpt><trkpt lat="43.1210871" lon="12.3132296"><ele>581.0</ele><time>2026-05-02T05:17:14.622Z</time></trkpt><trkpt lat="43.1212165" lon="12.3133735"><ele>585.0</ele><time>2026-05-02T05:17:15.628Z</time></trkpt><trkpt lat="43.1213364" lon="12.3135051"><ele>585.0</ele><time>2026-05-02T05:17:16.625Z</time></trkpt><trkpt lat="43.121442" lon="12.3136113"><ele>585.0</ele><time>2026-05-02T05:17:17.621Z</time></trkpt><trkpt lat="43.1215406" lon="12.3136915"><ele>585.0</ele><time>2026-05-02T05:17:18.63Z</time></trkpt><trkpt lat="43.1216361" lon="12.313709"><ele>585.0</ele><time>2026-05-02T05:17:19.622Z</time></trkpt><trkpt lat="43.121712" lon="12.3137033"><ele>585.0</ele><time>2026-05-02T05:17:20.622Z</time></trkpt><trkpt lat="43.1217781" lon="12.3136882"><ele>588.8</ele><time>2026-05-02T05:17:21.627Z</time></trkpt><trkpt lat="43.1218465" lon="12.313658"><ele>592.6</ele><time>2026-05-02T05:17:23.625Z</time></trkpt><trkpt lat="43.1219423" lon="12.3136363"><ele>596.4</ele><time>2026-05-02T05:17:58.628Z</time></trkpt><trkpt lat="43.1220817" lon="12.3136591"><ele>600.2</ele><time>2026-05-02T05:18:00.63Z</time></trkpt><trkpt lat="43.1221668" lon="12.3136973"><ele>604.0</ele><time>2026-05-02T05:18:01.627Z</time></trkpt><trkpt lat="43.1222598" lon="12.3137258"><ele>604.0</ele><time>2026-05-02T05:18:02.62Z</time></trkpt><trkpt lat="43.1223662" lon="12.3137318"><ele>604.0</ele><time>2026-05-02T05:18:03.618Z</time></trkpt><trkpt lat="43.1224852" lon="12.3137384"><ele>604.0</ele><time>2026-05-02T05:18:04.62Z</time></trkpt><trkpt lat="43.1226208" lon="12.3137565"><ele>604.0</ele><time>2026-05-02T05:18:05.621Z</time></trkpt><trkpt lat="43.1227431" lon="12.3137716"><ele>604.6</ele><time>2026-05-02T05:18:06.622Z</time></trkpt><trkpt lat="43.122852" lon="12.3138126"><ele>605.2</ele><time>2026-05-02T05:18:07.621Z</time></trkpt><trkpt lat="43.1229452" lon="12.3138683"><ele>605.8000000000001</ele><time>2026-05-02T05:18:08.622Z</time></trkpt><trkpt lat="43.1230247" lon="12.3139088"><ele>606.4</ele><time>2026-05-02T05:18:09.618Z</time></trkpt><trkpt lat="43.1231034" lon="12.3139184"><ele>607.0</ele><time>2026-05-02T05:18:10.627Z</time></trkpt><trkpt lat="43.1231775" lon="12.3139088"><ele>605.0</ele><time>2026-05-02T05:18:11.618Z</time></trkpt><trkpt lat="43.1232348" lon="12.3138648"><ele>603.0</ele><time>2026-05-02T05:18:12.623Z</time></trkpt><trkpt lat="43.123287" lon="12.3137835"><ele>601.0</ele><time>2026-05-02T05:18:13.622Z</time></trkpt><trkpt lat="43.1233454" lon="12.3137081"><ele>599.0</ele><time>2026-05-02T05:18:14.618Z</time></trkpt><trkpt lat="43.1234126" lon="12.3136542"><ele>597.0</ele><time>2026-05-02T05:18:15.622Z</time></trkpt><trkpt lat="43.1235032" lon="12.313617"><ele>595.0</ele><time>2026-05-02T05:18:16.619Z</time></trkpt><trkpt lat="43.1236054" lon="12.3135948"><ele>595.0</ele><time>2026-05-02T05:18:17.626Z</time></trkpt><trkpt lat="43.1237312" lon="12.3135693"><ele>595.0</ele><time>2026-05-02T05:18:18.628Z</time></trkpt><trkpt lat="43.1238563" lon="12.3135416"><ele>595.0</ele><time>2026-05-02T05:18:19.621Z</time></trkpt><trkpt lat="43.1239657" lon="12.3135036"><ele>595.0</ele><time>2026-05-02T05:18:20.62Z</time></trkpt><trkpt lat="43.1240784" lon="12.3134504"><ele>592.25</ele><time>2026-05-02T05:18:21.626Z</time></trkpt><trkpt lat="43.1241978" lon="12.3133809"><ele>589.5</ele><time>2026-05-02T05:18:22.62Z</time></trkpt><trkpt lat="43.1243251" lon="12.3133107"><ele>586.75</ele><time>2026-05-02T05:18:23.626Z</time></trkpt><trkpt lat="43.1244574" lon="12.3132127"><ele>584.0</ele><time>2026-05-02T05:18:24.618Z</time></trkpt><trkpt lat="43.1245745" lon="12.3131041"><ele>584.5</ele><time>2026-05-02T05:18:25.621Z</time></trkpt><trkpt lat="43.1247026" lon="12.3129937"><ele>585.0</ele><time>2026-05-02T05:18:26.624Z</time></trkpt><trkpt lat="43.1248259" lon="12.3129083"><ele>585.5</ele><time>2026-05-02T05:18:27.624Z</time></trkpt><trkpt lat="43.1249481" lon="12.3128477"><ele>586.0</ele><time>2026-05-02T05:18:28.619Z</time></trkpt><trkpt lat="43.1250559" lon="12.312802"><ele>586.0</ele><time>2026-05-02T05:18:29.623Z</time></trkpt><trkpt lat="43.1251653" lon="12.3127871"><ele>586.0</ele><time>2026-05-02T05:18:30.621Z</time></trkpt><trkpt lat="43.125278" lon="12.3127727"><ele>586.0</ele><time>2026-05-02T05:18:31.624Z</time></trkpt><trkpt lat="43.1253808" lon="12.3127706"><ele>586.0</ele><time>2026-05-02T05:18:32.627Z</time></trkpt><trkpt lat="43.1254528" lon="12.3128071"><ele>586.0</ele><time>2026-05-02T05:18:33.618Z</time></trkpt><trkpt lat="43.1255224" lon="12.3128521"><ele>586.0</ele><time>2026-05-02T05:18:34.63Z</time></trkpt><trkpt lat="43.1255656" lon="12.3129306"><ele>586.0</ele><time>2026-05-02T05:18:35.619Z</time></trkpt><trkpt lat="43.1255979" lon="12.3130275"><ele>586.0</ele><time>2026-05-02T05:18:36.622Z</time></trkpt><trkpt lat="43.1256226" lon="12.3131342"><ele>586.0</ele><time>2026-05-02T05:18:37.626Z</time></trkpt><trkpt lat="43.1256292" lon="12.3132694"><ele>586.0</ele><time>2026-05-02T05:18:38.622Z</time></trkpt><trkpt lat="43.1256264" lon="12.3134021"><ele>586.0</ele><time>2026-05-02T05:18:39.624Z</time></trkpt><trkpt lat="43.1256094" lon="12.3135282"><ele>584.6666666666667</ele><time>2026-05-02T05:18:40.621Z</time></trkpt><trkpt lat="43.1255763" lon="12.3136664"><ele>583.3333333333334</ele><time>2026-05-02T05:18:41.62Z</time></trkpt><trkpt lat="43.1255611" lon="12.313775"><ele>582.0</ele><time>2026-05-02T05:18:42.62Z</time></trkpt><trkpt lat="43.1255599" lon="12.3138642"><ele>580.6666666666666</ele><time>2026-05-02T05:18:43.622Z</time></trkpt><trkpt lat="43.1256233" lon="12.3139949"><ele>579.3333333333333</ele><time>2026-05-02T05:18:45.625Z</time></trkpt><trkpt lat="43.1256782" lon="12.314049"><ele>578.0</ele><time>2026-05-02T05:18:46.621Z</time></trkpt><trkpt lat="43.1257436" lon="12.3140886"><ele>581.1999999999999</ele><time>2026-05-02T05:18:47.623Z</time></trkpt><trkpt lat="43.1258095" lon="12.314134"><ele>584.4</ele><time>2026-05-02T05:18:48.62Z</time></trkpt><trkpt lat="43.1258718" lon="12.3142116"><ele>587.5999999999999</ele><time>2026-05-02T05:18:49.625Z</time></trkpt><trkpt lat="43.125943" lon="12.3143106"><ele>590.8</ele><time>2026-05-02T05:18:50.627Z</time></trkpt><trkpt lat="43.1260174" lon="12.3144115"><ele>594.0</ele><time>2026-05-02T05:18:51.623Z</time></trkpt><trkpt lat="43.1260874" lon="12.3145002"><ele>594.0</ele><time>2026-05-02T05:18:52.623Z</time></trkpt><trkpt lat="43.1261798" lon="12.3145932"><ele>594.0</ele><time>2026-05-02T05:18:53.632Z</time></trkpt><trkpt lat="43.1262781" lon="12.3146931"><ele>594.0</ele><time>2026-05-02T05:18:54.626Z</time></trkpt><trkpt lat="43.1263828" lon="12.314794"><ele>594.0</ele><time>2026-05-02T05:18:55.62Z</time></trkpt><trkpt lat="43.1265179" lon="12.3149028"><ele>590.5</ele><time>2026-05-02T05:18:56.623Z</time></trkpt><trkpt lat="43.1266331" lon="12.3150154"><ele>587.0</ele><time>2026-05-02T05:18:57.622Z</time></trkpt><trkpt lat="43.1267545" lon="12.3151354"><ele>583.5</ele><time>2026-05-02T05:18:58.619Z</time></trkpt><trkpt lat="43.126874" lon="12.3152551"><ele>580.0</ele><time>2026-05-02T05:18:59.629Z</time></trkpt><trkpt lat="43.1270014" lon="12.3153605"><ele>580.0</ele><time>2026-05-02T05:19:00.621Z</time></trkpt><trkpt lat="43.1271428" lon="12.3154556"><ele>580.0</ele><time>2026-05-02T05:19:01.63Z</time></trkpt><trkpt lat="43.127297" lon="12.3155469"><ele>580.0</ele><time>2026-05-02T05:19:02.621Z</time></trkpt><trkpt lat="43.1274659" lon="12.3156455"><ele>578.0</ele><time>2026-05-02T05:19:03.622Z</time></trkpt><trkpt lat="43.1276172" lon="12.315732"><ele>576.0</ele><time>2026-05-02T05:19:04.619Z</time></trkpt><trkpt lat="43.1277491" lon="12.3158226"><ele>574.0</ele><time>2026-05-02T05:19:05.623Z</time></trkpt><trkpt lat="43.127856" lon="12.3159113"><ele>572.0</ele><time>2026-05-02T05:19:06.619Z</time></trkpt><trkpt lat="43.1279513" lon="12.3159725"><ele>572.0</ele><time>2026-05-02T05:19:07.619Z</time></trkpt><trkpt lat="43.1280589" lon="12.3160006"><ele>572.0</ele><time>2026-05-02T05:19:08.621Z</time></trkpt><trkpt lat="43.1281853" lon="12.3160046"><ele>572.0</ele><time>2026-05-02T05:19:09.622Z</time></trkpt><trkpt lat="43.1283244" lon="12.3159844"><ele>572.0</ele><time>2026-05-02T05:19:10.626Z</time></trkpt><trkpt lat="43.1284753" lon="12.3159501"><ele>572.25</ele><time>2026-05-02T05:19:11.619Z</time></trkpt><trkpt lat="43.1286264" lon="12.3159083"><ele>572.5</ele><time>2026-05-02T05:19:12.625Z</time></trkpt><trkpt lat="43.1287725" lon="12.3158669"><ele>572.75</ele><time>2026-05-02T05:19:13.623Z</time></trkpt><trkpt lat="43.1289007" lon="12.3158222"><ele>573.0</ele><time>2026-05-02T05:19:14.624Z</time></trkpt><trkpt lat="43.1290155" lon="12.3157678"><ele>575.25</ele><time>2026-05-02T05:19:15.626Z</time></trkpt><trkpt lat="43.1291317" lon="12.3157028"><ele>577.5</ele><time>2026-05-02T05:19:16.619Z</time></trkpt><trkpt lat="43.1292524" lon="12.3156547"><ele>579.75</ele><time>2026-05-02T05:19:17.63Z</time></trkpt><trkpt lat="43.1293565" lon="12.3156273"><ele>582.0</ele><time>2026-05-02T05:19:18.62Z</time></trkpt><trkpt lat="43.1294547" lon="12.315625"><ele>582.0</ele><time>2026-05-02T05:19:19.627Z</time></trkpt><trkpt lat="43.1295463" lon="12.3156582"><ele>582.0</ele><time>2026-05-02T05:19:20.62Z</time></trkpt><trkpt lat="43.1296407" lon="12.3157229"><ele>582.0</ele><time>2026-05-02T05:19:21.617Z</time></trkpt><trkpt lat="43.1297213" lon="12.3157793"><ele>582.0</ele><time>2026-05-02T05:19:22.62Z</time></trkpt><trkpt lat="43.1297889" lon="12.3157776"><ele>582.0</ele><time>2026-05-02T05:19:23.626Z</time></trkpt><trkpt lat="43.1298854" lon="12.3157634"><ele>583.5</ele><time>2026-05-02T05:19:24.62Z</time></trkpt><trkpt lat="43.1299837" lon="12.3157435"><ele>585.0</ele><time>2026-05-02T05:19:25.623Z</time></trkpt><trkpt lat="43.1301001" lon="12.3157297"><ele>586.5</ele><time>2026-05-02T05:19:26.622Z</time></trkpt><trkpt lat="43.1302339" lon="12.315727"><ele>588.0</ele><time>2026-05-02T05:19:27.624Z</time></trkpt><trkpt lat="43.1303769" lon="12.3157491"><ele>588.0</ele><time>2026-05-02T05:19:28.626Z</time></trkpt><trkpt lat="43.1305238" lon="12.3157613"><ele>588.0</ele><time>2026-05-02T05:19:29.619Z</time></trkpt><trkpt lat="43.130668" lon="12.3157846"><ele>588.0</ele><time>2026-05-02T05:19:30.622Z</time></trkpt><trkpt lat="43.1308144" lon="12.3157957"><ele>588.0</ele><time>2026-05-02T05:19:31.618Z</time></trkpt><trkpt lat="43.1309562" lon="12.3157871"><ele>589.1999999999999</ele><time>2026-05-02T05:19:32.624Z</time></trkpt><trkpt lat="43.1311037" lon="12.3157554"><ele>590.4</ele><time>2026-05-02T05:19:33.624Z</time></trkpt><trkpt lat="43.1312077" lon="12.315726"><ele>591.5999999999999</ele><time>2026-05-02T05:19:34.619Z</time></trkpt><trkpt lat="43.1312874" lon="12.3157218"><ele>592.8</ele><time>2026-05-02T05:19:35.63Z</time></trkpt><trkpt lat="43.1313644" lon="12.3157499"><ele>594.0</ele><time>2026-05-02T05:19:36.631Z</time></trkpt><trkpt lat="43.1314431" lon="12.3158134"><ele>594.0</ele><time>2026-05-02T05:19:37.624Z</time></trkpt><trkpt lat="43.1315237" lon="12.3159108"><ele>594.0</ele><time>2026-05-02T05:19:38.63Z</time></trkpt><trkpt lat="43.1316079" lon="12.3160404"><ele>594.0</ele><time>2026-05-02T05:19:39.616Z</time></trkpt><trkpt lat="43.1316952" lon="12.3162009"><ele>594.0</ele><time>2026-05-02T05:19:40.629Z</time></trkpt><trkpt lat="43.1317771" lon="12.31636"><ele>593.8</ele><time>2026-05-02T05:19:41.629Z</time></trkpt><trkpt lat="43.1318329" lon="12.3164838"><ele>593.5999999999999</ele><time>2026-05-02T05:19:42.626Z</time></trkpt><trkpt lat="43.1318863" lon="12.3165854"><ele>593.4</ele><time>2026-05-02T05:19:43.625Z</time></trkpt><trkpt lat="43.1319426" lon="12.3166671"><ele>593.1999999999999</ele><time>2026-05-02T05:19:44.626Z</time></trkpt><trkpt lat="43.1320128" lon="12.3167419"><ele>593.0</ele><time>2026-05-02T05:19:45.623Z</time></trkpt><trkpt lat="43.1321016" lon="12.3168167"><ele>593.0</ele><time>2026-05-02T05:19:46.626Z</time></trkpt><trkpt lat="43.1322023" lon="12.3168927"><ele>593.0</ele><time>2026-05-02T05:19:47.623Z</time></trkpt><trkpt lat="43.132317" lon="12.3169668"><ele>593.0</ele><time>2026-05-02T05:19:48.62Z</time></trkpt><trkpt lat="43.132433" lon="12.3170446"><ele>593.0</ele><time>2026-05-02T05:19:49.62Z</time></trkpt><trkpt lat="43.13256" lon="12.3171335"><ele>595.75</ele><time>2026-05-02T05:19:50.622Z</time></trkpt><trkpt lat="43.1326897" lon="12.3172318"><ele>598.5</ele><time>2026-05-02T05:19:51.621Z</time></trkpt><trkpt lat="43.132808" lon="12.3173234"><ele>601.25</ele><time>2026-05-02T05:19:52.621Z</time></trkpt><trkpt lat="43.1328973" lon="12.3173967"><ele>604.0</ele><time>2026-05-02T05:19:53.625Z</time></trkpt><trkpt lat="43.1329559" lon="12.3174624"><ele>604.0</ele><time>2026-05-02T05:19:54.619Z</time></trkpt><trkpt lat="43.1330131" lon="12.3176091"><ele>604.0</ele><time>2026-05-02T05:19:56.619Z</time></trkpt><trkpt lat="43.1330138" lon="12.3176973"><ele>604.0</ele><time>2026-05-02T05:19:57.621Z</time></trkpt><trkpt lat="43.1330034" lon="12.3177957"><ele>604.0</ele><time>2026-05-02T05:19:58.629Z</time></trkpt><trkpt lat="43.1329867" lon="12.3179108"><ele>604.0</ele><time>2026-05-02T05:19:59.623Z</time></trkpt><trkpt lat="43.1329796" lon="12.3180131"><ele>604.0</ele><time>2026-05-02T05:20:00.623Z</time></trkpt><trkpt lat="43.1329984" lon="12.3181345"><ele>607.0</ele><time>2026-05-02T05:20:01.624Z</time></trkpt><trkpt lat="43.1330166" lon="12.3182521"><ele>610.0</ele><time>2026-05-02T05:20:02.634Z</time></trkpt><trkpt lat="43.1330492" lon="12.3183813"><ele>613.0</ele><time>2026-05-02T05:20:03.619Z</time></trkpt><trkpt lat="43.1330869" lon="12.3185148"><ele>616.0</ele><time>2026-05-02T05:20:04.624Z</time></trkpt><trkpt lat="43.1331351" lon="12.3186541"><ele>619.0</ele><time>2026-05-02T05:20:05.62Z</time></trkpt><trkpt lat="43.13318" lon="12.3187811"><ele>619.2</ele><time>2026-05-02T05:20:06.625Z</time></trkpt><trkpt lat="43.1332245" lon="12.318911"><ele>619.4</ele><time>2026-05-02T05:20:07.622Z</time></trkpt><trkpt lat="43.1332771" lon="12.3190458"><ele>619.6</ele><time>2026-05-02T05:20:08.621Z</time></trkpt><trkpt lat="43.1333233" lon="12.3191862"><ele>619.8</ele><time>2026-05-02T05:20:09.624Z</time></trkpt><trkpt lat="43.1333748" lon="12.3193211"><ele>620.0</ele><time>2026-05-02T05:20:10.62Z</time></trkpt><trkpt lat="43.1334181" lon="12.3194465"><ele>620.0</ele><time>2026-05-02T05:20:11.634Z</time></trkpt><trkpt lat="43.1334475" lon="12.3195502"><ele>620.0</ele><time>2026-05-02T05:20:12.621Z</time></trkpt><trkpt lat="43.1334595" lon="12.3196446"><ele>620.0</ele><time>2026-05-02T05:20:13.622Z</time></trkpt><trkpt lat="43.1334524" lon="12.3197476"><ele>620.0</ele><time>2026-05-02T05:20:14.622Z</time></trkpt><trkpt lat="43.1334205" lon="12.3198487"><ele>620.0</ele><time>2026-05-02T05:20:15.622Z</time></trkpt><trkpt lat="43.1333903" lon="12.3200079"><ele>620.0</ele><time>2026-05-02T05:20:17.626Z</time></trkpt><trkpt lat="43.1333247" lon="12.3201592"><ele>621.0</ele><time>2026-05-02T05:20:19.624Z</time></trkpt><trkpt lat="43.133269" lon="12.3202324"><ele>622.0</ele><time>2026-05-02T05:20:20.624Z</time></trkpt><trkpt lat="43.1332169" lon="12.3203132"><ele>623.0</ele><time>2026-05-02T05:20:21.622Z</time></trkpt><trkpt lat="43.1331514" lon="12.3203809"><ele>624.0</ele><time>2026-05-02T05:20:22.624Z</time></trkpt><trkpt lat="43.1330983" lon="12.3204594"><ele>625.0</ele><time>2026-05-02T05:20:23.624Z</time></trkpt><trkpt lat="43.1330522" lon="12.3205682"><ele>626.0</ele><time>2026-05-02T05:20:24.622Z</time></trkpt><trkpt lat="43.1330121" lon="12.3206857"><ele>629.0</ele><time>2026-05-02T05:20:25.625Z</time></trkpt><trkpt lat="43.1330143" lon="12.3208437"><ele>632.0</ele><time>2026-05-02T05:20:26.625Z</time></trkpt><trkpt lat="43.133001" lon="12.3209961"><ele>635.0</ele><time>2026-05-02T05:20:27.623Z</time></trkpt><trkpt lat="43.1330661" lon="12.3211308"><ele>638.0</ele><time>2026-05-02T05:20:28.626Z</time></trkpt><trkpt lat="43.1331267" lon="12.3212831"><ele>637.0</ele><time>2026-05-02T05:20:29.621Z</time></trkpt><trkpt lat="43.1332103" lon="12.3214298"><ele>636.0</ele><time>2026-05-02T05:20:30.621Z</time></trkpt><trkpt lat="43.1332845" lon="12.3215585"><ele>635.0</ele><time>2026-05-02T05:20:31.623Z</time></trkpt><trkpt lat="43.133373" lon="12.3216463"><ele>634.0</ele><time>2026-05-02T05:20:32.623Z</time></trkpt><trkpt lat="43.1334577" lon="12.3217492"><ele>630.8</ele><time>2026-05-02T05:20:33.631Z</time></trkpt><trkpt lat="43.1335235" lon="12.321862"><ele>627.5999999999999</ele><time>2026-05-02T05:20:34.626Z</time></trkpt><trkpt lat="43.1335474" lon="12.3219913"><ele>624.4</ele><time>2026-05-02T05:20:35.623Z</time></trkpt><trkpt lat="43.13359" lon="12.3221142"><ele>621.1999999999999</ele><time>2026-05-02T05:20:36.622Z</time></trkpt><trkpt lat="43.1336509" lon="12.3222601"><ele>618.0</ele><time>2026-05-02T05:20:37.622Z</time></trkpt><trkpt lat="43.1337104" lon="12.3224042"><ele>617.8</ele><time>2026-05-02T05:20:38.63Z</time></trkpt><trkpt lat="43.1337735" lon="12.322526"><ele>617.5999999999999</ele><time>2026-05-02T05:20:39.628Z</time></trkpt><trkpt lat="43.1338357" lon="12.3226208"><ele>617.4000000000001</ele><time>2026-05-02T05:20:40.617Z</time></trkpt><trkpt lat="43.133919" lon="12.3227082"><ele>617.2</ele><time>2026-05-02T05:20:41.627Z</time></trkpt><trkpt lat="43.1340193" lon="12.3227758"><ele>617.0</ele><time>2026-05-02T05:20:42.626Z</time></trkpt><trkpt lat="43.1341444" lon="12.3228255"><ele>612.25</ele><time>2026-05-02T05:20:43.625Z</time></trkpt><trkpt lat="43.1342642" lon="12.3228606"><ele>607.5</ele><time>2026-05-02T05:20:44.622Z</time></trkpt><trkpt lat="43.1343788" lon="12.3229074"><ele>602.75</ele><time>2026-05-02T05:20:45.624Z</time></trkpt><trkpt lat="43.1344887" lon="12.3229788"><ele>598.0</ele><time>2026-05-02T05:20:46.624Z</time></trkpt><trkpt lat="43.134604" lon="12.3230577"><ele>598.25</ele><time>2026-05-02T05:20:47.618Z</time></trkpt><trkpt lat="43.1347198" lon="12.3231466"><ele>598.5</ele><time>2026-05-02T05:20:48.618Z</time></trkpt><trkpt lat="43.1348266" lon="12.3232255"><ele>598.75</ele><time>2026-05-02T05:20:49.625Z</time></trkpt><trkpt lat="43.1349234" lon="12.3232967"><ele>599.0</ele><time>2026-05-02T05:20:50.63Z</time></trkpt><trkpt lat="43.1350114" lon="12.3233684"><ele>598.1666666666666</ele><time>2026-05-02T05:20:51.626Z</time></trkpt><trkpt lat="43.1350903" lon="12.3234341"><ele>597.3333333333333</ele><time>2026-05-02T05:20:52.622Z</time></trkpt><trkpt lat="43.1351674" lon="12.323494"><ele>596.5</ele><time>2026-05-02T05:20:53.627Z</time></trkpt><trkpt lat="43.1352306" lon="12.3235497"><ele>595.6666666666666</ele><time>2026-05-02T05:20:54.626Z</time></trkpt><trkpt lat="43.1352876" lon="12.3236167"><ele>594.8333333333334</ele><time>2026-05-02T05:20:55.621Z</time></trkpt><trkpt lat="43.135346" lon="12.3237227"><ele>594.0</ele><time>2026-05-02T05:20:56.629Z</time></trkpt><trkpt lat="43.135416" lon="12.3238217"><ele>593.5</ele><time>2026-05-02T05:20:57.624Z</time></trkpt><trkpt lat="43.135491" lon="12.3239346"><ele>593.0</ele><time>2026-05-02T05:20:58.628Z</time></trkpt><trkpt lat="43.1355753" lon="12.3240601"><ele>592.5</ele><time>2026-05-02T05:20:59.627Z</time></trkpt><trkpt lat="43.1356631" lon="12.3241771"><ele>592.0</ele><time>2026-05-02T05:21:00.626Z</time></trkpt><trkpt lat="43.1357386" lon="12.3242869"><ele>592.0</ele><time>2026-05-02T05:21:01.632Z</time></trkpt><trkpt lat="43.1358051" lon="12.3244131"><ele>592.0</ele><time>2026-05-02T05:21:02.623Z</time></trkpt><trkpt lat="43.135853" lon="12.3245541"><ele>592.0</ele><time>2026-05-02T05:21:03.629Z</time></trkpt><trkpt lat="43.1358789" lon="12.3247058"><ele>592.0</ele><time>2026-05-02T05:21:04.625Z</time></trkpt><trkpt lat="43.1358939" lon="12.3248512"><ele>592.0</ele><time>2026-05-02T05:21:05.626Z</time></trkpt><trkpt lat="43.1359076" lon="12.3249892"><ele>591.2</ele><time>2026-05-02T05:21:06.628Z</time></trkpt><trkpt lat="43.135908" lon="12.3251219"><ele>590.4000000000001</ele><time>2026-05-02T05:21:07.624Z</time></trkpt><trkpt lat="43.1359115" lon="12.3252616"><ele>589.5999999999999</ele><time>2026-05-02T05:21:08.633Z</time></trkpt><trkpt lat="43.1359166" lon="12.3254035"><ele>588.8</ele><time>2026-05-02T05:21:09.63Z</time></trkpt><trkpt lat="43.1359312" lon="12.3255204"><ele>588.0</ele><time>2026-05-02T05:21:10.623Z</time></trkpt><trkpt lat="43.1359404" lon="12.3256451"><ele>586.6</ele><time>2026-05-02T05:21:11.623Z</time></trkpt><trkpt lat="43.1359488" lon="12.3257631"><ele>585.1999999999999</ele><time>2026-05-02T05:21:12.622Z</time></trkpt><trkpt lat="43.1359675" lon="12.3258827"><ele>583.8</ele><time>2026-05-02T05:21:13.62Z</time></trkpt><trkpt lat="43.135998" lon="12.3260123"><ele>582.4</ele><time>2026-05-02T05:21:14.633Z</time></trkpt><trkpt lat="43.1360236" lon="12.3261465"><ele>581.0</ele><time>2026-05-02T05:21:15.622Z</time></trkpt><trkpt lat="43.1360669" lon="12.3262733"><ele>578.6</ele><time>2026-05-02T05:21:16.62Z</time></trkpt><trkpt lat="43.136095" lon="12.3264001"><ele>576.2</ele><time>2026-05-02T05:21:17.629Z</time></trkpt><trkpt lat="43.1361216" lon="12.3265188"><ele>573.8</ele><time>2026-05-02T05:21:18.624Z</time></trkpt><trkpt lat="43.1361591" lon="12.3266282"><ele>571.4</ele><time>2026-05-02T05:21:19.628Z</time></trkpt><trkpt lat="43.1362026" lon="12.3267525"><ele>569.0</ele><time>2026-05-02T05:21:20.62Z</time></trkpt><trkpt lat="43.1362635" lon="12.3268382"><ele>569.0</ele><time>2026-05-02T05:21:21.627Z</time></trkpt><trkpt lat="43.1363221" lon="12.3269054"><ele>569.0</ele><time>2026-05-02T05:21:22.626Z</time></trkpt><trkpt lat="43.136368" lon="12.3269906"><ele>569.0</ele><time>2026-05-02T05:21:23.622Z</time></trkpt><trkpt lat="43.1364174" lon="12.3270653"><ele>569.0</ele><time>2026-05-02T05:21:24.621Z</time></trkpt><trkpt lat="43.1364694" lon="12.3271347"><ele>569.0</ele><time>2026-05-02T05:21:25.62Z</time></trkpt><trkpt lat="43.136548" lon="12.3272261"><ele>569.0</ele><time>2026-05-02T05:21:26.62Z</time></trkpt><trkpt lat="43.136624" lon="12.3273257"><ele>569.0</ele><time>2026-05-02T05:21:27.623Z</time></trkpt><trkpt lat="43.1367172" lon="12.3274275"><ele>569.0</ele><time>2026-05-02T05:21:28.618Z</time></trkpt><trkpt lat="43.1367983" lon="12.3275163"><ele>569.0</ele><time>2026-05-02T05:21:29.619Z</time></trkpt><trkpt lat="43.136881" lon="12.3275984"><ele>569.0</ele><time>2026-05-02T05:21:30.621Z</time></trkpt><trkpt lat="43.1369314" lon="12.3276771"><ele>569.0</ele><time>2026-05-02T05:21:31.62Z</time></trkpt><trkpt lat="43.1369687" lon="12.3277812"><ele>569.0</ele><time>2026-05-02T05:21:32.63Z</time></trkpt><trkpt lat="43.136985" lon="12.3279149"><ele>569.0</ele><time>2026-05-02T05:21:33.617Z</time></trkpt><trkpt lat="43.137006" lon="12.3280538"><ele>569.0</ele><time>2026-05-02T05:21:34.62Z</time></trkpt><trkpt lat="43.1370063" lon="12.3281664"><ele>569.0</ele><time>2026-05-02T05:21:35.621Z</time></trkpt><trkpt lat="43.1369862" lon="12.3282692"><ele>569.0</ele><time>2026-05-02T05:21:36.62Z</time></trkpt><trkpt lat="43.1369288" lon="12.3284154"><ele>567.6</ele><time>2026-05-02T05:21:38.628Z</time></trkpt><trkpt lat="43.1368723" lon="12.328485"><ele>566.2</ele><time>2026-05-02T05:21:39.624Z</time></trkpt><trkpt lat="43.1368126" lon="12.3285537"><ele>564.8000000000001</ele><time>2026-05-02T05:21:40.621Z</time></trkpt><trkpt lat="43.1367655" lon="12.3286767"><ele>563.4</ele><time>2026-05-02T05:21:42.619Z</time></trkpt><trkpt lat="43.1367941" lon="12.3288563"><ele>562.0</ele><time>2026-05-02T05:21:44.63Z</time></trkpt><trkpt lat="43.1368007" lon="12.3290002"><ele>561.2</ele><time>2026-05-02T05:21:46.622Z</time></trkpt><trkpt lat="43.13673" lon="12.3290964"><ele>560.4000000000001</ele><time>2026-05-02T05:21:48.622Z</time></trkpt><trkpt lat="43.1366545" lon="12.3291322"><ele>559.5999999999999</ele><time>2026-05-02T05:21:49.62Z</time></trkpt><trkpt lat="43.1365946" lon="12.3291636"><ele>558.8</ele><time>2026-05-02T05:21:50.627Z</time></trkpt><trkpt lat="43.1364845" lon="12.3291352"><ele>558.0</ele><time>2026-05-02T05:21:52.622Z</time></trkpt><trkpt lat="43.1363864" lon="12.3290605"><ele>553.6</ele><time>2026-05-02T05:21:54.622Z</time></trkpt><trkpt lat="43.1363171" lon="12.3291187"><ele>549.1999999999999</ele><time>2026-05-02T05:21:56.621Z</time></trkpt><trkpt lat="43.1362953" lon="12.3292415"><ele>544.8</ele><time>2026-05-02T05:21:59.623Z</time></trkpt><trkpt lat="43.1362969" lon="12.32936"><ele>540.4</ele><time>2026-05-02T05:22:01.623Z</time></trkpt><trkpt lat="43.1363285" lon="12.3295078"><ele>536.0</ele><time>2026-05-02T05:22:03.626Z</time></trkpt><trkpt lat="43.1364552" lon="12.3298009"><ele>534.8</ele><time>2026-05-02T05:22:04.62Z</time></trkpt><trkpt lat="43.1364931" lon="12.3299459"><ele>533.6</ele><time>2026-05-02T05:22:05.618Z</time></trkpt><trkpt lat="43.1365295" lon="12.3300719"><ele>532.4</ele><time>2026-05-02T05:22:06.646Z</time></trkpt><trkpt lat="43.1365504" lon="12.3301989"><ele>531.2</ele><time>2026-05-02T05:22:07.625Z</time></trkpt><trkpt lat="43.136559" lon="12.3303447"><ele>530.0</ele><time>2026-05-02T05:22:08.62Z</time></trkpt><trkpt lat="43.1365678" lon="12.3304994"><ele>528.5</ele><time>2026-05-02T05:22:09.619Z</time></trkpt><trkpt lat="43.1365577" lon="12.3306732"><ele>527.0</ele><time>2026-05-02T05:22:10.623Z</time></trkpt><trkpt lat="43.1365402" lon="12.3308443"><ele>525.5</ele><time>2026-05-02T05:22:11.62Z</time></trkpt><trkpt lat="43.1365259" lon="12.3310067"><ele>524.0</ele><time>2026-05-02T05:22:12.63Z</time></trkpt><trkpt lat="43.136512" lon="12.3311499"><ele>524.0</ele><time>2026-05-02T05:22:13.626Z</time></trkpt><trkpt lat="43.1365071" lon="12.3312732"><ele>524.0</ele><time>2026-05-02T05:22:14.62Z</time></trkpt><trkpt lat="43.1364959" lon="12.3313837"><ele>524.0</ele><time>2026-05-02T05:22:15.621Z</time></trkpt><trkpt lat="43.1364872" lon="12.3314711"><ele>524.0</ele><time>2026-05-02T05:22:16.629Z</time></trkpt><trkpt lat="43.1364775" lon="12.3315785"><ele>524.0</ele><time>2026-05-02T05:22:18.628Z</time></trkpt><trkpt lat="43.1364775" lon="12.3317011"><ele>524.0</ele><time>2026-05-02T05:22:21.627Z</time></trkpt><trkpt lat="43.1364877" lon="12.3317942"><ele>524.25</ele><time>2026-05-02T05:22:25.623Z</time></trkpt><trkpt lat="43.1365238" lon="12.3319289"><ele>524.5</ele><time>2026-05-02T05:22:27.627Z</time></trkpt><trkpt lat="43.136562" lon="12.3320298"><ele>524.75</ele><time>2026-05-02T05:22:28.632Z</time></trkpt><trkpt lat="43.1366229" lon="12.3321213"><ele>525.0</ele><time>2026-05-02T05:22:29.624Z</time></trkpt><trkpt lat="43.1367238" lon="12.3323155"><ele>525.0</ele><time>2026-05-02T05:22:30.624Z</time></trkpt><trkpt lat="43.1367912" lon="12.3324341"><ele>525.0</ele><time>2026-05-02T05:22:31.615Z</time></trkpt><trkpt lat="43.1368646" lon="12.3325727"><ele>525.0</ele><time>2026-05-02T05:22:32.627Z</time></trkpt><trkpt lat="43.1369257" lon="12.3326988"><ele>525.0</ele><time>2026-05-02T05:22:33.63Z</time></trkpt><trkpt lat="43.1369841" lon="12.3328154"><ele>525.0</ele><time>2026-05-02T05:22:34.633Z</time></trkpt><trkpt lat="43.1370395" lon="12.3329195"><ele>525.0</ele><time>2026-05-02T05:22:35.625Z</time></trkpt><trkpt lat="43.1371064" lon="12.3330125"><ele>525.0</ele><time>2026-05-02T05:22:36.624Z</time></trkpt><trkpt lat="43.1371695" lon="12.3330881"><ele>525.0</ele><time>2026-05-02T05:22:37.627Z</time></trkpt><trkpt lat="43.1372247" lon="12.3331581"><ele>525.0</ele><time>2026-05-02T05:22:38.618Z</time></trkpt><trkpt lat="43.1372649" lon="12.3332384"><ele>525.0</ele><time>2026-05-02T05:22:39.628Z</time></trkpt><trkpt lat="43.1372905" lon="12.3333357"><ele>525.0</ele><time>2026-05-02T05:22:40.624Z</time></trkpt><trkpt lat="43.1373079" lon="12.333451"><ele>525.0</ele><time>2026-05-02T05:22:41.629Z</time></trkpt><trkpt lat="43.1373227" lon="12.3335798"><ele>525.0</ele><time>2026-05-02T05:22:42.632Z</time></trkpt><trkpt lat="43.1373079" lon="12.3337375"><ele>525.0</ele><time>2026-05-02T05:22:43.628Z</time></trkpt><trkpt lat="43.1372982" lon="12.3338996"><ele>525.0</ele><time>2026-05-02T05:22:44.622Z</time></trkpt><trkpt lat="43.1373005" lon="12.3340636"><ele>525.0</ele><time>2026-05-02T05:22:45.622Z</time></trkpt><trkpt lat="43.1373184" lon="12.3342369"><ele>525.0</ele><time>2026-05-02T05:22:46.624Z</time></trkpt><trkpt lat="43.1373511" lon="12.3344129"><ele>525.0</ele><time>2026-05-02T05:22:47.625Z</time></trkpt><trkpt lat="43.1373857" lon="12.3345904"><ele>525.0</ele><time>2026-05-02T05:22:48.626Z</time></trkpt><trkpt lat="43.1374139" lon="12.3347773"><ele>524.5</ele><time>2026-05-02T05:22:49.621Z</time></trkpt><trkpt lat="43.1374415" lon="12.3349657"><ele>524.0</ele><time>2026-05-02T05:22:50.616Z</time></trkpt><trkpt lat="43.137475" lon="12.3351565"><ele>523.5</ele><time>2026-05-02T05:22:51.622Z</time></trkpt><trkpt lat="43.1375231" lon="12.3353333"><ele>523.0</ele><time>2026-05-02T05:22:52.625Z</time></trkpt><trkpt lat="43.1375762" lon="12.3355031"><ele>525.0</ele><time>2026-05-02T05:22:53.627Z</time></trkpt><trkpt lat="43.1376248" lon="12.3356736"><ele>527.0</ele><time>2026-05-02T05:22:54.634Z</time></trkpt><trkpt lat="43.1376691" lon="12.3358444"><ele>529.0</ele><time>2026-05-02T05:22:55.622Z</time></trkpt><trkpt lat="43.137705" lon="12.3360213"><ele>531.0</ele><time>2026-05-02T05:22:56.631Z</time></trkpt><trkpt lat="43.1377386" lon="12.3361922"><ele>531.0</ele><time>2026-05-02T05:22:57.632Z</time></trkpt><trkpt lat="43.1377711" lon="12.3363666"><ele>531.0</ele><time>2026-05-02T05:22:58.631Z</time></trkpt><trkpt lat="43.1378024" lon="12.3365369"><ele>531.0</ele><time>2026-05-02T05:22:59.623Z</time></trkpt><trkpt lat="43.1378274" lon="12.3367028"><ele>531.0</ele><time>2026-05-02T05:23:00.628Z</time></trkpt><trkpt lat="43.1378407" lon="12.3368564"><ele>531.5</ele><time>2026-05-02T05:23:01.481Z</time></trkpt><trkpt lat="43.1378334" lon="12.3370056"><ele>532.0</ele><time>2026-05-02T05:23:02.49Z</time></trkpt><trkpt lat="43.1377986" lon="12.3371599"><ele>532.5</ele><time>2026-05-02T05:23:03.488Z</time></trkpt><trkpt lat="43.1377421" lon="12.3373145"><ele>533.0</ele><time>2026-05-02T05:23:04.478Z</time></trkpt><trkpt lat="43.1376492" lon="12.3374717"><ele>533.0</ele><time>2026-05-02T05:23:05.492Z</time></trkpt><trkpt lat="43.1375823" lon="12.337621"><ele>533.0</ele><time>2026-05-02T05:23:06.482Z</time></trkpt><trkpt lat="43.1375335" lon="12.3377707"><ele>533.0</ele><time>2026-05-02T05:23:07.484Z</time></trkpt><trkpt lat="43.137509" lon="12.3379388"><ele>533.0</ele><time>2026-05-02T05:23:08.481Z</time></trkpt><trkpt lat="43.1375056" lon="12.3381199"><ele>531.5</ele><time>2026-05-02T05:23:09.492Z</time></trkpt><trkpt lat="43.1375129" lon="12.3382994"><ele>530.0</ele><time>2026-05-02T05:23:10.483Z</time></trkpt><trkpt lat="43.1375324" lon="12.3384642"><ele>528.5</ele><time>2026-05-02T05:23:11.482Z</time></trkpt><trkpt lat="43.1375726" lon="12.338601"><ele>527.0</ele><time>2026-05-02T05:23:12.483Z</time></trkpt><trkpt lat="43.1376328" lon="12.3386994"><ele>527.0</ele><time>2026-05-02T05:23:13.481Z</time></trkpt><trkpt lat="43.1377195" lon="12.3387736"><ele>527.0</ele><time>2026-05-02T05:23:14.482Z</time></trkpt><trkpt lat="43.1378177" lon="12.3388119"><ele>527.0</ele><time>2026-05-02T05:23:15.483Z</time></trkpt><trkpt lat="43.1379231" lon="12.3388168"><ele>527.0</ele><time>2026-05-02T05:23:16.48Z</time></trkpt><trkpt lat="43.1380485" lon="12.3388032"><ele>527.0</ele><time>2026-05-02T05:23:17.481Z</time></trkpt><trkpt lat="43.13817" lon="12.3388035"><ele>526.2</ele><time>2026-05-02T05:23:18.48Z</time></trkpt><trkpt lat="43.1382783" lon="12.3388315"><ele>525.4000000000001</ele><time>2026-05-02T05:23:19.48Z</time></trkpt><trkpt lat="43.1383663" lon="12.338896"><ele>524.5999999999999</ele><time>2026-05-02T05:23:20.48Z</time></trkpt><trkpt lat="43.1384257" lon="12.3389781"><ele>523.8</ele><time>2026-05-02T05:23:21.487Z</time></trkpt><trkpt lat="43.1384828" lon="12.33906"><ele>523.0</ele><time>2026-05-02T05:23:22.481Z</time></trkpt><trkpt lat="43.1385387" lon="12.3391324"><ele>523.0</ele><time>2026-05-02T05:23:24.483Z</time></trkpt><trkpt lat="43.1385832" lon="12.3390694"><ele>523.0</ele><time>2026-05-02T05:23:26.491Z</time></trkpt><trkpt lat="43.1386" lon="12.3389839"><ele>523.0</ele><time>2026-05-02T05:23:27.498Z</time></trkpt><trkpt lat="43.1386186" lon="12.3388701"><ele>523.0</ele><time>2026-05-02T05:23:28.485Z</time></trkpt><trkpt lat="43.1386469" lon="12.3387337"><ele>523.0</ele><time>2026-05-02T05:23:29.492Z</time></trkpt><trkpt lat="43.1386892" lon="12.3385638"><ele>523.0</ele><time>2026-05-02T05:23:30.484Z</time></trkpt><trkpt lat="43.1387142" lon="12.3383722"><ele>523.0</ele><time>2026-05-02T05:23:31.49Z</time></trkpt><trkpt lat="43.1387265" lon="12.3381969"><ele>523.0</ele><time>2026-05-02T05:23:32.494Z</time></trkpt><trkpt lat="43.1387506" lon="12.3380646"><ele>523.0</ele><time>2026-05-02T05:23:33.482Z</time></trkpt><trkpt lat="43.1388039" lon="12.3379501"><ele>523.0</ele><time>2026-05-02T05:23:34.482Z</time></trkpt><trkpt lat="43.1388917" lon="12.3378351"><ele>523.0</ele><time>2026-05-02T05:23:35.481Z</time></trkpt><trkpt lat="43.1390004" lon="12.3377101"><ele>519.0</ele><time>2026-05-02T05:23:36.481Z</time></trkpt><trkpt lat="43.1391166" lon="12.3375655"><ele>515.0</ele><time>2026-05-02T05:23:37.487Z</time></trkpt><trkpt lat="43.1392271" lon="12.3373958"><ele>511.0</ele><time>2026-05-02T05:23:38.484Z</time></trkpt><trkpt lat="43.1393322" lon="12.3372288"><ele>508.75</ele><time>2026-05-02T05:23:39.484Z</time></trkpt><trkpt lat="43.1394237" lon="12.3370635"><ele>506.5</ele><time>2026-05-02T05:23:40.483Z</time></trkpt><trkpt lat="43.1395085" lon="12.3369317"><ele>504.25</ele><time>2026-05-02T05:23:41.484Z</time></trkpt><trkpt lat="43.1395919" lon="12.3368034"><ele>502.0</ele><time>2026-05-02T05:23:42.491Z</time></trkpt><trkpt lat="43.139634" lon="12.3366948"><ele>502.0</ele><time>2026-05-02T05:23:43.482Z</time></trkpt><trkpt lat="43.1396562" lon="12.3365738"><ele>502.00000000000006</ele><time>2026-05-02T05:23:44.487Z</time></trkpt><trkpt lat="43.1396443" lon="12.3364232"><ele>502.00000000000006</ele><time>2026-05-02T05:23:45.48Z</time></trkpt><trkpt lat="43.1396076" lon="12.3362617"><ele>502.0</ele><time>2026-05-02T05:23:46.482Z</time></trkpt><trkpt lat="43.1395821" lon="12.3361229"><ele>502.0</ele><time>2026-05-02T05:23:47.483Z</time></trkpt><trkpt lat="43.1395845" lon="12.3359978"><ele>501.6</ele><time>2026-05-02T05:23:48.489Z</time></trkpt><trkpt lat="43.1396138" lon="12.3358941"><ele>501.20000000000005</ele><time>2026-05-02T05:23:49.478Z</time></trkpt><trkpt lat="43.1396693" lon="12.3358026"><ele>500.8</ele><time>2026-05-02T05:23:50.486Z</time></trkpt><trkpt lat="43.1397419" lon="12.3357534"><ele>500.4</ele><time>2026-05-02T05:23:51.482Z</time></trkpt><trkpt lat="43.1398351" lon="12.3357225"><ele>500.0</ele><time>2026-05-02T05:23:52.484Z</time></trkpt><trkpt lat="43.1399833" lon="12.3357757"><ele>500.0</ele><time>2026-05-02T05:23:53.483Z</time></trkpt><trkpt lat="43.1401058" lon="12.335784"><ele>500.0</ele><time>2026-05-02T05:23:54.482Z</time></trkpt><trkpt lat="43.1402362" lon="12.3357885"><ele>500.0</ele><time>2026-05-02T05:23:55.484Z</time></trkpt><trkpt lat="43.1403579" lon="12.3357852"><ele>500.0</ele><time>2026-05-02T05:23:56.481Z</time></trkpt><trkpt lat="43.1404777" lon="12.3357155"><ele>500.0</ele><time>2026-05-02T05:23:57.487Z</time></trkpt><trkpt lat="43.1406043" lon="12.3356423"><ele>500.0</ele><time>2026-05-02T05:23:58.481Z</time></trkpt><trkpt lat="43.1407262" lon="12.3355729"><ele>500.0</ele><time>2026-05-02T05:23:59.484Z</time></trkpt><trkpt lat="43.140855" lon="12.3355011"><ele>500.0</ele><time>2026-05-02T05:24:00.477Z</time></trkpt><trkpt lat="43.1409797" lon="12.33544"><ele>501.25</ele><time>2026-05-02T05:24:01.48Z</time></trkpt><trkpt lat="43.1411128" lon="12.3353781"><ele>502.5</ele><time>2026-05-02T05:24:02.481Z</time></trkpt><trkpt lat="43.1412435" lon="12.3353212"><ele>503.75</ele><time>2026-05-02T05:24:03.486Z</time></trkpt><trkpt lat="43.1413801" lon="12.3352702"><ele>505.0</ele><time>2026-05-02T05:24:04.503Z</time></trkpt><trkpt lat="43.1415144" lon="12.3352191"><ele>505.0</ele><time>2026-05-02T05:24:05.488Z</time></trkpt><trkpt lat="43.1416484" lon="12.3351766"><ele>505.0</ele><time>2026-05-02T05:24:06.49Z</time></trkpt><trkpt lat="43.1417855" lon="12.3351396"><ele>505.0</ele><time>2026-05-02T05:24:07.494Z</time></trkpt><trkpt lat="43.1419143" lon="12.3351091"><ele>505.0</ele><time>2026-05-02T05:24:08.479Z</time></trkpt><trkpt lat="43.1420415" lon="12.3350708"><ele>505.0</ele><time>2026-05-02T05:24:09.489Z</time></trkpt><trkpt lat="43.1421521" lon="12.3350299"><ele>505.0</ele><time>2026-05-02T05:24:10.487Z</time></trkpt><trkpt lat="43.142238" lon="12.3349462"><ele>505.0</ele><time>2026-05-02T05:24:11.483Z</time></trkpt><trkpt lat="43.1423132" lon="12.3348449"><ele>505.0</ele><time>2026-05-02T05:24:12.49Z</time></trkpt><trkpt lat="43.1423508" lon="12.3346932"><ele>505.0</ele><time>2026-05-02T05:24:13.481Z</time></trkpt><trkpt lat="43.1423597" lon="12.3345192"><ele>507.2</ele><time>2026-05-02T05:24:14.488Z</time></trkpt><trkpt lat="43.1423814" lon="12.3343745"><ele>509.4</ele><time>2026-05-02T05:24:15.486Z</time></trkpt><trkpt lat="43.142409" lon="12.3342193"><ele>511.6</ele><time>2026-05-02T05:24:16.483Z</time></trkpt><trkpt lat="43.1424567" lon="12.3340703"><ele>513.8</ele><time>2026-05-02T05:24:17.492Z</time></trkpt><trkpt lat="43.1425316" lon="12.3339701"><ele>516.0</ele><time>2026-05-02T05:24:18.484Z</time></trkpt><trkpt lat="43.1426132" lon="12.3338855"><ele>519.25</ele><time>2026-05-02T05:24:19.492Z</time></trkpt><trkpt lat="43.1427144" lon="12.3338029"><ele>522.5</ele><time>2026-05-02T05:24:20.49Z</time></trkpt><trkpt lat="43.1428332" lon="12.3337197"><ele>525.75</ele><time>2026-05-02T05:24:21.479Z</time></trkpt><trkpt lat="43.1429548" lon="12.3336447"><ele>529.0</ele><time>2026-05-02T05:24:22.48Z</time></trkpt><trkpt lat="43.143074" lon="12.3335723"><ele>529.0</ele><time>2026-05-02T05:24:23.483Z</time></trkpt><trkpt lat="43.1431909" lon="12.3334903"><ele>529.0</ele><time>2026-05-02T05:24:24.493Z</time></trkpt><trkpt lat="43.1432966" lon="12.3334034"><ele>529.0</ele><time>2026-05-02T05:24:25.477Z</time></trkpt><trkpt lat="43.1433904" lon="12.3332985"><ele>529.0</ele><time>2026-05-02T05:24:26.484Z</time></trkpt><trkpt lat="43.1434766" lon="12.3331636"><ele>527.0</ele><time>2026-05-02T05:24:27.476Z</time></trkpt><trkpt lat="43.1435552" lon="12.3330164"><ele>525.0</ele><time>2026-05-02T05:24:28.481Z</time></trkpt><trkpt lat="43.1436376" lon="12.3328627"><ele>523.0</ele><time>2026-05-02T05:24:29.492Z</time></trkpt><trkpt lat="43.1437233" lon="12.3327145"><ele>521.0</ele><time>2026-05-02T05:24:30.489Z</time></trkpt><trkpt lat="43.1437942" lon="12.3325841"><ele>521.0</ele><time>2026-05-02T05:24:31.483Z</time></trkpt><trkpt lat="43.1438409" lon="12.3324826"><ele>521.0</ele><time>2026-05-02T05:24:32.49Z</time></trkpt><trkpt lat="43.1438622" lon="12.3323866"><ele>521.0</ele><time>2026-05-02T05:24:33.493Z</time></trkpt><trkpt lat="43.1438581" lon="12.332285"><ele>521.0</ele><time>2026-05-02T05:24:34.485Z</time></trkpt><trkpt lat="43.1438448" lon="12.3321893"><ele>521.0</ele><time>2026-05-02T05:24:35.486Z</time></trkpt><trkpt lat="43.1438429" lon="12.3321011"><ele>521.0</ele><time>2026-05-02T05:24:36.482Z</time></trkpt><trkpt lat="43.1438963" lon="12.3319311"><ele>518.6</ele><time>2026-05-02T05:24:38.478Z</time></trkpt><trkpt lat="43.1439616" lon="12.3318101"><ele>516.2</ele><time>2026-05-02T05:24:39.482Z</time></trkpt><trkpt lat="43.144031" lon="12.3316822"><ele>513.8</ele><time>2026-05-02T05:24:40.48Z</time></trkpt><trkpt lat="43.1440918" lon="12.3315589"><ele>511.4</ele><time>2026-05-02T05:24:41.478Z</time></trkpt><trkpt lat="43.1441446" lon="12.3314386"><ele>509.0</ele><time>2026-05-02T05:24:42.484Z</time></trkpt><trkpt lat="43.1441933" lon="12.3313053"><ele>505.79999999999995</ele><time>2026-05-02T05:24:43.481Z</time></trkpt><trkpt lat="43.1442474" lon="12.3311796"><ele>502.59999999999997</ele><time>2026-05-02T05:24:44.483Z</time></trkpt><trkpt lat="43.1442934" lon="12.3310735"><ele>499.4</ele><time>2026-05-02T05:24:45.481Z</time></trkpt><trkpt lat="43.1443457" lon="12.3309965"><ele>496.2</ele><time>2026-05-02T05:24:46.481Z</time></trkpt><trkpt lat="43.1444227" lon="12.330924"><ele>493.0</ele><time>2026-05-02T05:24:47.483Z</time></trkpt><trkpt lat="43.1445188" lon="12.3308502"><ele>493.00000000000006</ele><time>2026-05-02T05:24:48.48Z</time></trkpt><trkpt lat="43.1446117" lon="12.330782"><ele>493.0</ele><time>2026-05-02T05:24:49.492Z</time></trkpt><trkpt lat="43.1447074" lon="12.3307387"><ele>493.0</ele><time>2026-05-02T05:24:50.487Z</time></trkpt><trkpt lat="43.1447942" lon="12.3307028"><ele>493.0</ele><time>2026-05-02T05:24:51.482Z</time></trkpt><trkpt lat="43.1448788" lon="12.3306942"><ele>493.00000000000006</ele><time>2026-05-02T05:24:52.49Z</time></trkpt><trkpt lat="43.1449426" lon="12.3307007"><ele>493.0</ele><time>2026-05-02T05:24:53.482Z</time></trkpt><trkpt lat="43.1450213" lon="12.330649"><ele>493.59999999999997</ele><time>2026-05-02T05:24:55.485Z</time></trkpt><trkpt lat="43.14501" lon="12.3305576"><ele>494.19999999999993</ele><time>2026-05-02T05:24:57.481Z</time></trkpt><trkpt lat="43.1449494" lon="12.3305067"><ele>494.8</ele><time>2026-05-02T05:24:59.482Z</time></trkpt><trkpt lat="43.1448538" lon="12.330444"><ele>495.4</ele><time>2026-05-02T05:25:02.481Z</time></trkpt><trkpt lat="43.1447914" lon="12.3303758"><ele>496.0</ele><time>2026-05-02T05:25:03.485Z</time></trkpt><trkpt lat="43.1446662" lon="12.3301902"><ele>496.0</ele><time>2026-05-02T05:25:04.483Z</time></trkpt><trkpt lat="43.1445918" lon="12.3300532"><ele>496.0</ele><time>2026-05-02T05:25:05.484Z</time></trkpt><trkpt lat="43.1446234" lon="12.329973"><ele>496.0</ele><time>2026-05-02T05:25:06.481Z</time></trkpt><trkpt lat="43.1446788" lon="12.3299021"><ele>496.0</ele><time>2026-05-02T05:25:07.48Z</time></trkpt><trkpt lat="43.1447598" lon="12.3298412"><ele>496.0</ele><time>2026-05-02T05:25:08.49Z</time></trkpt><trkpt lat="43.1448478" lon="12.3297691"><ele>493.20000000000005</ele><time>2026-05-02T05:25:09.482Z</time></trkpt><trkpt lat="43.1449347" lon="12.3296746"><ele>490.40000000000003</ele><time>2026-05-02T05:25:10.499Z</time></trkpt><trkpt lat="43.1449967" lon="12.3295856"><ele>487.6</ele><time>2026-05-02T05:25:11.483Z</time></trkpt><trkpt lat="43.1450597" lon="12.3294848"><ele>484.8</ele><time>2026-05-02T05:25:12.48Z</time></trkpt><trkpt lat="43.1451107" lon="12.3293623"><ele>482.0</ele><time>2026-05-02T05:25:13.484Z</time></trkpt><trkpt lat="43.1451615" lon="12.3292417"><ele>482.0</ele><time>2026-05-02T05:25:14.481Z</time></trkpt><trkpt lat="43.145174" lon="12.3291107"><ele>482.00000000000006</ele><time>2026-05-02T05:25:15.481Z</time></trkpt><trkpt lat="43.1451851" lon="12.3289733"><ele>482.00000000000006</ele><time>2026-05-02T05:25:16.483Z</time></trkpt><trkpt lat="43.1451905" lon="12.3288301"><ele>482.0</ele><time>2026-05-02T05:25:17.479Z</time></trkpt><trkpt lat="43.1451794" lon="12.328684"><ele>482.0</ele><time>2026-05-02T05:25:18.488Z</time></trkpt><trkpt lat="43.1451544" lon="12.3285353"><ele>481.0</ele><time>2026-05-02T05:25:19.492Z</time></trkpt><trkpt lat="43.1451153" lon="12.3283825"><ele>480.0</ele><time>2026-05-02T05:25:20.483Z</time></trkpt><trkpt lat="43.1450616" lon="12.3282239"><ele>479.0</ele><time>2026-05-02T05:25:21.488Z</time></trkpt><trkpt lat="43.1450038" lon="12.3280529"><ele>478.0</ele><time>2026-05-02T05:25:22.483Z</time></trkpt><trkpt lat="43.1449519" lon="12.3278965"><ele>479.4</ele><time>2026-05-02T05:25:23.482Z</time></trkpt><trkpt lat="43.1449103" lon="12.3277639"><ele>480.79999999999995</ele><time>2026-05-02T05:25:24.482Z</time></trkpt><trkpt lat="43.1448725" lon="12.3276372"><ele>482.2</ele><time>2026-05-02T05:25:25.481Z</time></trkpt><trkpt lat="43.1448415" lon="12.3275209"><ele>483.6</ele><time>2026-05-02T05:25:26.484Z</time></trkpt><trkpt lat="43.1448081" lon="12.3274207"><ele>485.0</ele><time>2026-05-02T05:25:27.477Z</time></trkpt><trkpt lat="43.1447605" lon="12.3273248"><ele>485.0</ele><time>2026-05-02T05:25:28.479Z</time></trkpt><trkpt lat="43.1447077" lon="12.3272409"><ele>485.0</ele><time>2026-05-02T05:25:29.487Z</time></trkpt><trkpt lat="43.1446386" lon="12.3271652"><ele>485.0</ele><time>2026-05-02T05:25:30.478Z</time></trkpt><trkpt lat="43.1445435" lon="12.3271011"><ele>485.0</ele><time>2026-05-02T05:25:31.489Z</time></trkpt><trkpt lat="43.1444197" lon="12.3270601"><ele>485.0</ele><time>2026-05-02T05:25:32.485Z</time></trkpt><trkpt lat="43.1443012" lon="12.3270083"><ele>482.6</ele><time>2026-05-02T05:25:33.483Z</time></trkpt><trkpt lat="43.144206" lon="12.3269763"><ele>480.2</ele><time>2026-05-02T05:25:34.479Z</time></trkpt><trkpt lat="43.1441103" lon="12.3268975"><ele>477.79999999999995</ele><time>2026-05-02T05:25:36.481Z</time></trkpt><trkpt lat="43.144119" lon="12.326768"><ele>475.4</ele><time>2026-05-02T05:25:38.484Z</time></trkpt><trkpt lat="43.1441573" lon="12.3266913"><ele>473.0</ele><time>2026-05-02T05:25:39.486Z</time></trkpt><trkpt lat="43.1442161" lon="12.3266177"><ele>473.0</ele><time>2026-05-02T05:25:40.489Z</time></trkpt><trkpt lat="43.1442812" lon="12.326534"><ele>472.99999999999994</ele><time>2026-05-02T05:25:41.491Z</time></trkpt><trkpt lat="43.1443804" lon="12.3264607"><ele>472.99999999999994</ele><time>2026-05-02T05:25:42.478Z</time></trkpt><trkpt lat="43.1444603" lon="12.3263841"><ele>473.0</ele><time>2026-05-02T05:25:43.482Z</time></trkpt><trkpt lat="43.1445339" lon="12.326301"><ele>473.0</ele><time>2026-05-02T05:25:44.48Z</time></trkpt><trkpt lat="43.1446033" lon="12.3262115"><ele>473.66666666666663</ele><time>2026-05-02T05:25:45.488Z</time></trkpt><trkpt lat="43.1446342" lon="12.3260968"><ele>474.3333333333333</ele><time>2026-05-02T05:25:46.484Z</time></trkpt><trkpt lat="43.1446362" lon="12.3260018"><ele>475.0</ele><time>2026-05-02T05:25:47.487Z</time></trkpt><trkpt lat="43.1446218" lon="12.3259057"><ele>475.66666666666663</ele><time>2026-05-02T05:25:48.487Z</time></trkpt><trkpt lat="43.1445859" lon="12.3257912"><ele>476.3333333333333</ele><time>2026-05-02T05:25:49.479Z</time></trkpt><trkpt lat="43.1445332" lon="12.3256734"><ele>477.0</ele><time>2026-05-02T05:25:50.486Z</time></trkpt><trkpt lat="43.1444849" lon="12.325526"><ele>477.0</ele><time>2026-05-02T05:25:51.481Z</time></trkpt><trkpt lat="43.1444278" lon="12.3253882"><ele>477.00000000000006</ele><time>2026-05-02T05:25:52.492Z</time></trkpt><trkpt lat="43.144373" lon="12.3252497"><ele>477.00000000000006</ele><time>2026-05-02T05:25:53.489Z</time></trkpt><trkpt lat="43.1443339" lon="12.3251267"><ele>477.0</ele><time>2026-05-02T05:25:54.487Z</time></trkpt><trkpt lat="43.1443196" lon="12.3250184"><ele>477.0</ele><time>2026-05-02T05:25:55.481Z</time></trkpt><trkpt lat="43.1443318" lon="12.324929"><ele>477.0</ele><time>2026-05-02T05:25:56.484Z</time></trkpt><trkpt lat="43.1443569" lon="12.3248358"><ele>477.00000000000006</ele><time>2026-05-02T05:25:57.491Z</time></trkpt><trkpt lat="43.1444163" lon="12.3247291"><ele>477.00000000000006</ele><time>2026-05-02T05:25:58.482Z</time></trkpt><trkpt lat="43.1445069" lon="12.3246348"><ele>477.0</ele><time>2026-05-02T05:25:59.489Z</time></trkpt><trkpt lat="43.14461" lon="12.3245447"><ele>477.0</ele><time>2026-05-02T05:26:00.477Z</time></trkpt><trkpt lat="43.1447391" lon="12.3244741"><ele>476.0</ele><time>2026-05-02T05:26:01.48Z</time></trkpt><trkpt lat="43.144878" lon="12.3244215"><ele>475.0</ele><time>2026-05-02T05:26:02.479Z</time></trkpt><trkpt lat="43.1450269" lon="12.3243798"><ele>474.0</ele><time>2026-05-02T05:26:03.481Z</time></trkpt><trkpt lat="43.1451759" lon="12.3243589"><ele>473.0</ele><time>2026-05-02T05:26:04.492Z</time></trkpt><trkpt lat="43.1453111" lon="12.3243456"><ele>471.0</ele><time>2026-05-02T05:26:05.482Z</time></trkpt><trkpt lat="43.1454256" lon="12.3243209"><ele>468.99999999999994</ele><time>2026-05-02T05:26:06.481Z</time></trkpt><trkpt lat="43.1455232" lon="12.3242794"><ele>466.99999999999994</ele><time>2026-05-02T05:26:07.48Z</time></trkpt><trkpt lat="43.1456152" lon="12.3242101"><ele>465.0</ele><time>2026-05-02T05:26:08.481Z</time></trkpt><trkpt lat="43.1456996" lon="12.324116"><ele>463.0</ele><time>2026-05-02T05:26:09.485Z</time></trkpt><trkpt lat="43.1457855" lon="12.3239868"><ele>461.33333333333337</ele><time>2026-05-02T05:26:10.481Z</time></trkpt><trkpt lat="43.1458767" lon="12.3238416"><ele>459.66666666666663</ele><time>2026-05-02T05:26:11.493Z</time></trkpt><trkpt lat="43.1459837" lon="12.3236896"><ele>458.0</ele><time>2026-05-02T05:26:12.483Z</time></trkpt><trkpt lat="43.1460961" lon="12.3235338"><ele>458.0</ele><time>2026-05-02T05:26:13.481Z</time></trkpt><trkpt lat="43.1462024" lon="12.3233919"><ele>458.0</ele><time>2026-05-02T05:26:14.482Z</time></trkpt><trkpt lat="43.1462862" lon="12.3232579"><ele>458.0</ele><time>2026-05-02T05:26:15.479Z</time></trkpt><trkpt lat="43.146351" lon="12.3231141"><ele>458.0</ele><time>2026-05-02T05:26:16.493Z</time></trkpt><trkpt lat="43.146399" lon="12.3229601"><ele>458.0</ele><time>2026-05-02T05:26:17.483Z</time></trkpt><trkpt lat="43.1464355" lon="12.3227886"><ele>457.99999999999994</ele><time>2026-05-02T05:26:18.481Z</time></trkpt><trkpt lat="43.1464673" lon="12.3226325"><ele>457.99999999999994</ele><time>2026-05-02T05:26:19.48Z</time></trkpt><trkpt lat="43.1464968" lon="12.322506"><ele>458.0</ele><time>2026-05-02T05:26:20.483Z</time></trkpt><trkpt lat="43.1465365" lon="12.3224094"><ele>458.0</ele><time>2026-05-02T05:26:21.48Z</time></trkpt><trkpt lat="43.1465827" lon="12.3223352"><ele>457.79999999999995</ele><time>2026-05-02T05:26:22.484Z</time></trkpt><trkpt lat="43.1467047" lon="12.3222925"><ele>457.59999999999997</ele><time>2026-05-02T05:26:24.481Z</time></trkpt><trkpt lat="43.1467967" lon="12.322295"><ele>457.40000000000003</ele><time>2026-05-02T05:26:25.484Z</time></trkpt><trkpt lat="43.1468853" lon="12.3222864"><ele>457.20000000000005</ele><time>2026-05-02T05:26:26.482Z</time></trkpt><trkpt lat="43.1469814" lon="12.3222405"><ele>457.0</ele><time>2026-05-02T05:26:27.483Z</time></trkpt><trkpt lat="43.1470888" lon="12.3221675"><ele>456.40000000000003</ele><time>2026-05-02T05:26:28.48Z</time></trkpt><trkpt lat="43.1472033" lon="12.3220775"><ele>455.80000000000007</ele><time>2026-05-02T05:26:29.487Z</time></trkpt><trkpt lat="43.1473038" lon="12.3220002"><ele>455.2</ele><time>2026-05-02T05:26:30.483Z</time></trkpt><trkpt lat="43.1473958" lon="12.3219461"><ele>454.6</ele><time>2026-05-02T05:26:31.483Z</time></trkpt><trkpt lat="43.147494" lon="12.321919"><ele>454.0</ele><time>2026-05-02T05:26:32.49Z</time></trkpt><trkpt lat="43.1475969" lon="12.3219282"><ele>453.75</ele><time>2026-05-02T05:26:33.483Z</time></trkpt><trkpt lat="43.147701" lon="12.3219738"><ele>453.5</ele><time>2026-05-02T05:26:34.48Z</time></trkpt><trkpt lat="43.1478019" lon="12.3220491"><ele>453.25</ele><time>2026-05-02T05:26:35.484Z</time></trkpt><trkpt lat="43.1478957" lon="12.3221525"><ele>453.0</ele><time>2026-05-02T05:26:36.482Z</time></trkpt><trkpt lat="43.1479974" lon="12.3222688"><ele>453.25</ele><time>2026-05-02T05:26:37.484Z</time></trkpt><trkpt lat="43.1481047" lon="12.3223789"><ele>453.5</ele><time>2026-05-02T05:26:38.489Z</time></trkpt><trkpt lat="43.1482202" lon="12.3224838"><ele>453.75</ele><time>2026-05-02T05:26:39.483Z</time></trkpt><trkpt lat="43.1483232" lon="12.3225735"><ele>454.0</ele><time>2026-05-02T05:26:40.485Z</time></trkpt><trkpt lat="43.1484076" lon="12.3226277"><ele>454.0</ele><time>2026-05-02T05:26:41.481Z</time></trkpt><trkpt lat="43.1484808" lon="12.3226413"><ele>454.0</ele><time>2026-05-02T05:26:42.491Z</time></trkpt><trkpt lat="43.1485495" lon="12.3226098"><ele>454.0</ele><time>2026-05-02T05:26:43.488Z</time></trkpt><trkpt lat="43.1486213" lon="12.3225412"><ele>454.0</ele><time>2026-05-02T05:26:44.483Z</time></trkpt><trkpt lat="43.1486952" lon="12.3224405"><ele>454.0</ele><time>2026-05-02T05:26:45.483Z</time></trkpt><trkpt lat="43.1487756" lon="12.3223225"><ele>453.75</ele><time>2026-05-02T05:26:46.479Z</time></trkpt><trkpt lat="43.1488657" lon="12.3221979"><ele>453.5</ele><time>2026-05-02T05:26:47.486Z</time></trkpt><trkpt lat="43.1489611" lon="12.3220799"><ele>453.25</ele><time>2026-05-02T05:26:48.484Z</time></trkpt><trkpt lat="43.1490665" lon="12.3219717"><ele>453.0</ele><time>2026-05-02T05:26:49.481Z</time></trkpt><trkpt lat="43.1491707" lon="12.3218725"><ele>453.0</ele><time>2026-05-02T05:26:50.479Z</time></trkpt><trkpt lat="43.1492783" lon="12.3217831"><ele>453.0</ele><time>2026-05-02T05:26:51.526Z</time></trkpt><trkpt lat="43.1493839" lon="12.3217098"><ele>453.0</ele><time>2026-05-02T05:26:52.48Z</time></trkpt><trkpt lat="43.1494912" lon="12.321653"><ele>453.0</ele><time>2026-05-02T05:26:53.487Z</time></trkpt><trkpt lat="43.1495869" lon="12.321596"><ele>453.0</ele><time>2026-05-02T05:26:54.485Z</time></trkpt><trkpt lat="43.1496751" lon="12.3215175"><ele>453.0</ele><time>2026-05-02T05:26:55.482Z</time></trkpt><trkpt lat="43.149751" lon="12.321409"><ele>453.0</ele><time>2026-05-02T05:26:56.48Z</time></trkpt><trkpt lat="43.1498223" lon="12.3212758"><ele>453.0</ele><time>2026-05-02T05:26:57.48Z</time></trkpt><trkpt lat="43.1498983" lon="12.3211363"><ele>453.59999999999997</ele><time>2026-05-02T05:26:58.485Z</time></trkpt><trkpt lat="43.1499756" lon="12.3210209"><ele>454.19999999999993</ele><time>2026-05-02T05:26:59.479Z</time></trkpt><trkpt lat="43.1500563" lon="12.3209252"><ele>454.8</ele><time>2026-05-02T05:27:00.489Z</time></trkpt><trkpt lat="43.1501481" lon="12.3208454"><ele>455.4</ele><time>2026-05-02T05:27:01.49Z</time></trkpt><trkpt lat="43.1502407" lon="12.3207736"><ele>456.0</ele><time>2026-05-02T05:27:02.485Z</time></trkpt><trkpt lat="43.1503301" lon="12.3206905"><ele>456.0</ele><time>2026-05-02T05:27:03.485Z</time></trkpt><trkpt lat="43.1504147" lon="12.3205837"><ele>456.0</ele><time>2026-05-02T05:27:04.487Z</time></trkpt><trkpt lat="43.1504927" lon="12.3204545"><ele>456.0</ele><time>2026-05-02T05:27:05.489Z</time></trkpt><trkpt lat="43.1505754" lon="12.3203205"><ele>456.0</ele><time>2026-05-02T05:27:06.482Z</time></trkpt><trkpt lat="43.150627" lon="12.3202089"><ele>455.3333333333333</ele><time>2026-05-02T05:27:07.48Z</time></trkpt><trkpt lat="43.1506733" lon="12.3201043"><ele>454.66666666666663</ele><time>2026-05-02T05:27:08.486Z</time></trkpt><trkpt lat="43.1507253" lon="12.3200283"><ele>454.0</ele><time>2026-05-02T05:27:09.48Z</time></trkpt><trkpt lat="43.1507846" lon="12.3199674"><ele>453.3333333333333</ele><time>2026-05-02T05:27:10.489Z</time></trkpt><trkpt lat="43.150874" lon="12.3199554"><ele>452.66666666666663</ele><time>2026-05-02T05:27:11.48Z</time></trkpt><trkpt lat="43.150973" lon="12.3199687"><ele>452.0</ele><time>2026-05-02T05:27:12.487Z</time></trkpt><trkpt lat="43.1510864" lon="12.3199891"><ele>452.0</ele><time>2026-05-02T05:27:13.481Z</time></trkpt><trkpt lat="43.1512075" lon="12.3200089"><ele>452.0</ele><time>2026-05-02T05:27:14.49Z</time></trkpt><trkpt lat="43.1513188" lon="12.3200275"><ele>452.0</ele><time>2026-05-02T05:27:15.482Z</time></trkpt><trkpt lat="43.1514339" lon="12.3200452"><ele>452.0</ele><time>2026-05-02T05:27:16.486Z</time></trkpt><trkpt lat="43.1515435" lon="12.3200669"><ele>449.40000000000003</ele><time>2026-05-02T05:27:17.487Z</time></trkpt><trkpt lat="43.151652" lon="12.3200982"><ele>446.80000000000007</ele><time>2026-05-02T05:27:18.482Z</time></trkpt><trkpt lat="43.1517577" lon="12.3201281"><ele>444.2</ele><time>2026-05-02T05:27:19.483Z</time></trkpt><trkpt lat="43.1518505" lon="12.3201811"><ele>441.6</ele><time>2026-05-02T05:27:20.482Z</time></trkpt><trkpt lat="43.1519421" lon="12.3202301"><ele>439.0</ele><time>2026-05-02T05:27:21.481Z</time></trkpt><trkpt lat="43.1520303" lon="12.3202552"><ele>439.0</ele><time>2026-05-02T05:27:22.49Z</time></trkpt><trkpt lat="43.1521285" lon="12.3202496"><ele>439.0</ele><time>2026-05-02T05:27:23.486Z</time></trkpt><trkpt lat="43.1522436" lon="12.3202287"><ele>439.0</ele><time>2026-05-02T05:27:24.482Z</time></trkpt><trkpt lat="43.1523788" lon="12.3202105"><ele>439.0</ele><time>2026-05-02T05:27:25.482Z</time></trkpt><trkpt lat="43.1525235" lon="12.3202053"><ele>436.25</ele><time>2026-05-02T05:27:26.482Z</time></trkpt><trkpt lat="43.1526654" lon="12.3202088"><ele>433.5</ele><time>2026-05-02T05:27:27.481Z</time></trkpt><trkpt lat="43.152797" lon="12.3202063"><ele>430.75</ele><time>2026-05-02T05:27:28.483Z</time></trkpt><trkpt lat="43.1529156" lon="12.3202091"><ele>428.0</ele><time>2026-05-02T05:27:29.483Z</time></trkpt><trkpt lat="43.1530227" lon="12.3202221"><ele>428.0</ele><time>2026-05-02T05:27:30.482Z</time></trkpt><trkpt lat="43.1531206" lon="12.3202481"><ele>427.99999999999994</ele><time>2026-05-02T05:27:31.492Z</time></trkpt><trkpt lat="43.1531988" lon="12.3202852"><ele>427.99999999999994</ele><time>2026-05-02T05:27:32.482Z</time></trkpt><trkpt lat="43.1532697" lon="12.3203427"><ele>428.0</ele><time>2026-05-02T05:27:33.483Z</time></trkpt><trkpt lat="43.1533379" lon="12.3204286"><ele>428.0</ele><time>2026-05-02T05:27:34.481Z</time></trkpt><trkpt lat="43.1534089" lon="12.3205295"><ele>426.16666666666663</ele><time>2026-05-02T05:27:35.483Z</time></trkpt><trkpt lat="43.153477" lon="12.320616"><ele>424.3333333333333</ele><time>2026-05-02T05:27:36.481Z</time></trkpt><trkpt lat="43.1535402" lon="12.3206867"><ele>422.5</ele><time>2026-05-02T05:27:37.485Z</time></trkpt><trkpt lat="43.1536424" lon="12.3207582"><ele>420.66666666666663</ele><time>2026-05-02T05:27:39.482Z</time></trkpt><trkpt lat="43.1537114" lon="12.3207069"><ele>418.8333333333333</ele><time>2026-05-02T05:27:41.485Z</time></trkpt><trkpt lat="43.1537433" lon="12.3206116"><ele>417.0</ele><time>2026-05-02T05:27:42.485Z</time></trkpt><trkpt lat="43.1537782" lon="12.3205053"><ele>416.6666666666667</ele><time>2026-05-02T05:27:43.495Z</time></trkpt><trkpt lat="43.1537965" lon="12.3203842"><ele>416.33333333333337</ele><time>2026-05-02T05:27:44.491Z</time></trkpt><trkpt lat="43.1538041" lon="12.3202433"><ele>416.0</ele><time>2026-05-02T05:27:45.483Z</time></trkpt><trkpt lat="43.1538123" lon="12.3201047"><ele>415.6666666666667</ele><time>2026-05-02T05:27:46.487Z</time></trkpt><trkpt lat="43.1538213" lon="12.3199886"><ele>415.33333333333337</ele><time>2026-05-02T05:27:47.482Z</time></trkpt><trkpt lat="43.1538557" lon="12.3199103"><ele>415.0</ele><time>2026-05-02T05:27:48.484Z</time></trkpt><trkpt lat="43.1539043" lon="12.3198357"><ele>415.0</ele><time>2026-05-02T05:27:49.482Z</time></trkpt><trkpt lat="43.1539675" lon="12.3197741"><ele>415.0</ele><time>2026-05-02T05:27:50.487Z</time></trkpt><trkpt lat="43.1540563" lon="12.3197305"><ele>415.0</ele><time>2026-05-02T05:27:51.483Z</time></trkpt><trkpt lat="43.1541373" lon="12.3196677"><ele>415.0</ele><time>2026-05-02T05:27:52.486Z</time></trkpt><trkpt lat="43.1542104" lon="12.3195895"><ele>415.0</ele><time>2026-05-02T05:27:53.483Z</time></trkpt><trkpt lat="43.1542755" lon="12.3194941"><ele>411.83333333333337</ele><time>2026-05-02T05:27:54.485Z</time></trkpt><trkpt lat="43.1543356" lon="12.3193968"><ele>408.6666666666667</ele><time>2026-05-02T05:27:55.48Z</time></trkpt><trkpt lat="43.1543751" lon="12.3193092"><ele>405.5</ele><time>2026-05-02T05:27:56.505Z</time></trkpt><trkpt lat="43.1544062" lon="12.3192207"><ele>402.33333333333337</ele><time>2026-05-02T05:27:57.494Z</time></trkpt><trkpt lat="43.1543885" lon="12.3191216"><ele>399.1666666666667</ele><time>2026-05-02T05:27:58.482Z</time></trkpt><trkpt lat="43.1543633" lon="12.3189925"><ele>396.0</ele><time>2026-05-02T05:27:59.483Z</time></trkpt><trkpt lat="43.1543388" lon="12.3188699"><ele>394.8</ele><time>2026-05-02T05:28:00.483Z</time></trkpt><trkpt lat="43.1543172" lon="12.3187392"><ele>393.6</ele><time>2026-05-02T05:28:01.488Z</time></trkpt><trkpt lat="43.1543129" lon="12.3186288"><ele>392.4</ele><time>2026-05-02T05:28:02.486Z</time></trkpt><trkpt lat="43.1543209" lon="12.318503"><ele>391.2</ele><time>2026-05-02T05:28:03.481Z</time></trkpt><trkpt lat="43.1543378" lon="12.3183661"><ele>390.0</ele><time>2026-05-02T05:28:04.491Z</time></trkpt><trkpt lat="43.154367" lon="12.3182098"><ele>389.4</ele><time>2026-05-02T05:28:05.481Z</time></trkpt><trkpt lat="43.1543968" lon="12.3180545"><ele>388.8</ele><time>2026-05-02T05:28:06.48Z</time></trkpt><trkpt lat="43.1544164" lon="12.3178975"><ele>388.20000000000005</ele><time>2026-05-02T05:28:07.483Z</time></trkpt><trkpt lat="43.1544296" lon="12.3177582"><ele>387.6</ele><time>2026-05-02T05:28:08.48Z</time></trkpt><trkpt lat="43.1544397" lon="12.3176267"><ele>387.0</ele><time>2026-05-02T05:28:09.482Z</time></trkpt><trkpt lat="43.1544894" lon="12.3174783"><ele>387.0</ele><time>2026-05-02T05:28:10.488Z</time></trkpt><trkpt lat="43.1545402" lon="12.3173283"><ele>387.0</ele><time>2026-05-02T05:28:11.478Z</time></trkpt><trkpt lat="43.1545891" lon="12.3171919"><ele>387.0</ele><time>2026-05-02T05:28:12.486Z</time></trkpt><trkpt lat="43.1546458" lon="12.3170832"><ele>387.0</ele><time>2026-05-02T05:28:13.486Z</time></trkpt><trkpt lat="43.154703" lon="12.3169885"><ele>387.0</ele><time>2026-05-02T05:28:14.483Z</time></trkpt><trkpt lat="43.1547534" lon="12.3168832"><ele>386.40000000000003</ele><time>2026-05-02T05:28:15.494Z</time></trkpt><trkpt lat="43.1548156" lon="12.316833"><ele>385.8</ele><time>2026-05-02T05:28:16.485Z</time></trkpt><trkpt lat="43.1548911" lon="12.3167877"><ele>385.2</ele><time>2026-05-02T05:28:17.479Z</time></trkpt><trkpt lat="43.1549689" lon="12.3167339"><ele>384.6</ele><time>2026-05-02T05:28:18.483Z</time></trkpt><trkpt lat="43.1550876" lon="12.3166992"><ele>384.0</ele><time>2026-05-02T05:28:19.484Z</time></trkpt><trkpt lat="43.1551964" lon="12.3166749"><ele>381.4</ele><time>2026-05-02T05:28:20.482Z</time></trkpt><trkpt lat="43.1553155" lon="12.3166593"><ele>378.79999999999995</ele><time>2026-05-02T05:28:21.486Z</time></trkpt><trkpt lat="43.1554243" lon="12.3166397"><ele>376.20000000000005</ele><time>2026-05-02T05:28:22.483Z</time></trkpt><trkpt lat="43.1555157" lon="12.3166371"><ele>373.6</ele><time>2026-05-02T05:28:23.484Z</time></trkpt><trkpt lat="43.1555978" lon="12.3166556"><ele>371.0</ele><time>2026-05-02T05:28:24.486Z</time></trkpt><trkpt lat="43.1556791" lon="12.3166998"><ele>369.25</ele><time>2026-05-02T05:28:25.48Z</time></trkpt><trkpt lat="43.1557556" lon="12.3167657"><ele>367.5</ele><time>2026-05-02T05:28:26.487Z</time></trkpt><trkpt lat="43.1558365" lon="12.3168608"><ele>365.75</ele><time>2026-05-02T05:28:27.493Z</time></trkpt><trkpt lat="43.1559265" lon="12.3169729"><ele>364.0</ele><time>2026-05-02T05:28:28.486Z</time></trkpt><trkpt lat="43.1560179" lon="12.3171048"><ele>364.0</ele><time>2026-05-02T05:28:29.485Z</time></trkpt><trkpt lat="43.1561118" lon="12.3172304"><ele>364.0</ele><time>2026-05-02T05:28:30.491Z</time></trkpt><trkpt lat="43.1561929" lon="12.31735"><ele>364.0</ele><time>2026-05-02T05:28:31.481Z</time></trkpt><trkpt lat="43.1562666" lon="12.3174638"><ele>364.0</ele><time>2026-05-02T05:28:32.486Z</time></trkpt><trkpt lat="43.1563201" lon="12.3175872"><ele>366.75</ele><time>2026-05-02T05:28:33.484Z</time></trkpt><trkpt lat="43.1563819" lon="12.3177215"><ele>369.5</ele><time>2026-05-02T05:28:34.485Z</time></trkpt><trkpt lat="43.1564635" lon="12.3178478"><ele>372.25</ele><time>2026-05-02T05:28:35.485Z</time></trkpt><trkpt lat="43.1565531" lon="12.3179572"><ele>375.0</ele><time>2026-05-02T05:28:36.485Z</time></trkpt><trkpt lat="43.1566344" lon="12.3180535"><ele>371.2</ele><time>2026-05-02T05:28:37.499Z</time></trkpt><trkpt lat="43.1567014" lon="12.3181597"><ele>367.4</ele><time>2026-05-02T05:28:38.488Z</time></trkpt><trkpt lat="43.1567617" lon="12.3182692"><ele>363.6</ele><time>2026-05-02T05:28:39.486Z</time></trkpt><trkpt lat="43.1568221" lon="12.318385"><ele>359.8</ele><time>2026-05-02T05:28:40.486Z</time></trkpt><trkpt lat="43.1568578" lon="12.3185208"><ele>356.0</ele><time>2026-05-02T05:28:41.48Z</time></trkpt><trkpt lat="43.1568793" lon="12.3186714"><ele>356.0</ele><time>2026-05-02T05:28:42.478Z</time></trkpt><trkpt lat="43.1568961" lon="12.3188369"><ele>356.0</ele><time>2026-05-02T05:28:43.482Z</time></trkpt><trkpt lat="43.1569148" lon="12.3190106"><ele>356.0</ele><time>2026-05-02T05:28:44.486Z</time></trkpt><trkpt lat="43.1569319" lon="12.3191783"><ele>356.0</ele><time>2026-05-02T05:28:45.482Z</time></trkpt><trkpt lat="43.1569509" lon="12.3193326"><ele>356.4</ele><time>2026-05-02T05:28:46.487Z</time></trkpt><trkpt lat="43.15696" lon="12.3194792"><ele>356.8</ele><time>2026-05-02T05:28:47.482Z</time></trkpt><trkpt lat="43.1569658" lon="12.3196264"><ele>357.2</ele><time>2026-05-02T05:28:48.485Z</time></trkpt><trkpt lat="43.1569814" lon="12.3197677"><ele>357.59999999999997</ele><time>2026-05-02T05:28:49.48Z</time></trkpt><trkpt lat="43.1570049" lon="12.3199111"><ele>358.0</ele><time>2026-05-02T05:28:50.481Z</time></trkpt><trkpt lat="43.1570276" lon="12.3200481"><ele>357.0</ele><time>2026-05-02T05:28:51.49Z</time></trkpt><trkpt lat="43.1570549" lon="12.3201644"><ele>356.0</ele><time>2026-05-02T05:28:52.489Z</time></trkpt><trkpt lat="43.1570699" lon="12.3202671"><ele>355.0</ele><time>2026-05-02T05:28:53.481Z</time></trkpt><trkpt lat="43.1571011" lon="12.3203959"><ele>354.0</ele><time>2026-05-02T05:28:55.482Z</time></trkpt><trkpt lat="43.1571933" lon="12.3203883"><ele>353.0</ele><time>2026-05-02T05:28:57.482Z</time></trkpt><trkpt lat="43.1572607" lon="12.3203339"><ele>352.0</ele><time>2026-05-02T05:28:58.491Z</time></trkpt><trkpt lat="43.1573288" lon="12.3202345"><ele>346.8</ele><time>2026-05-02T05:28:59.489Z</time></trkpt><trkpt lat="43.1573931" lon="12.3201165"><ele>341.6</ele><time>2026-05-02T05:29:00.48Z</time></trkpt><trkpt lat="43.1574575" lon="12.3200026"><ele>336.40000000000003</ele><time>2026-05-02T05:29:01.481Z</time></trkpt><trkpt lat="43.1575147" lon="12.3199071"><ele>331.20000000000005</ele><time>2026-05-02T05:29:02.482Z</time></trkpt><trkpt lat="43.1575647" lon="12.3198394"><ele>326.0</ele><time>2026-05-02T05:29:03.479Z</time></trkpt><trkpt lat="43.1576553" lon="12.3198216"><ele>326.0</ele><time>2026-05-02T05:29:05.49Z</time></trkpt><trkpt lat="43.1577072" lon="12.3199706"><ele>326.0</ele><time>2026-05-02T05:29:07.487Z</time></trkpt><trkpt lat="43.1577193" lon="12.3200808"><ele>326.0</ele><time>2026-05-02T05:29:08.482Z</time></trkpt><trkpt lat="43.1577149" lon="12.320195"><ele>326.0</ele><time>2026-05-02T05:29:09.492Z</time></trkpt><trkpt lat="43.1576798" lon="12.3202939"><ele>326.0</ele><time>2026-05-02T05:29:10.478Z</time></trkpt><trkpt lat="43.1576179" lon="12.320403"><ele>326.0</ele><time>2026-05-02T05:29:11.483Z</time></trkpt><trkpt lat="43.157567" lon="12.3205215"><ele>326.0</ele><time>2026-05-02T05:29:12.485Z</time></trkpt><trkpt lat="43.1575255" lon="12.3206346"><ele>326.0</ele><time>2026-05-02T05:29:13.48Z</time></trkpt><trkpt lat="43.1575237" lon="12.3207376"><ele>326.0</ele><time>2026-05-02T05:29:14.494Z</time></trkpt><trkpt lat="43.1575448" lon="12.3208204"><ele>326.0</ele><time>2026-05-02T05:29:15.479Z</time></trkpt><trkpt lat="43.1576094" lon="12.3208881"><ele>326.0</ele><time>2026-05-02T05:29:16.479Z</time></trkpt><trkpt lat="43.1576915" lon="12.3209296"><ele>325.5</ele><time>2026-05-02T05:29:17.482Z</time></trkpt><trkpt lat="43.1577967" lon="12.3209534"><ele>325.0</ele><time>2026-05-02T05:29:18.483Z</time></trkpt><trkpt lat="43.1579142" lon="12.3209557"><ele>324.5</ele><time>2026-05-02T05:29:19.479Z</time></trkpt><trkpt lat="43.1580422" lon="12.3209597"><ele>324.0</ele><time>2026-05-02T05:29:20.488Z</time></trkpt><trkpt lat="43.1581875" lon="12.3209683"><ele>320.4</ele><time>2026-05-02T05:29:21.482Z</time></trkpt><trkpt lat="43.1583072" lon="12.3209723"><ele>316.79999999999995</ele><time>2026-05-02T05:29:22.49Z</time></trkpt><trkpt lat="43.1584085" lon="12.3209933"><ele>313.20000000000005</ele><time>2026-05-02T05:29:23.487Z</time></trkpt><trkpt lat="43.1584816" lon="12.3210456"><ele>309.6</ele><time>2026-05-02T05:29:24.482Z</time></trkpt><trkpt lat="43.1585569" lon="12.3211383"><ele>306.0</ele><time>2026-05-02T05:29:25.481Z</time></trkpt><trkpt lat="43.1586449" lon="12.321249"><ele>306.0</ele><time>2026-05-02T05:29:26.481Z</time></trkpt><trkpt lat="43.1587235" lon="12.3213853"><ele>306.0</ele><time>2026-05-02T05:29:27.484Z</time></trkpt><trkpt lat="43.1588088" lon="12.3215353"><ele>306.0</ele><time>2026-05-02T05:29:28.491Z</time></trkpt><trkpt lat="43.158884" lon="12.3216877"><ele>306.0</ele><time>2026-05-02T05:29:29.485Z</time></trkpt><trkpt lat="43.1589454" lon="12.3218456"><ele>309.75</ele><time>2026-05-02T05:29:30.484Z</time></trkpt><trkpt lat="43.1589884" lon="12.3220216"><ele>313.5</ele><time>2026-05-02T05:29:31.481Z</time></trkpt><trkpt lat="43.1590184" lon="12.3222195"><ele>317.25</ele><time>2026-05-02T05:29:32.479Z</time></trkpt><trkpt lat="43.1590435" lon="12.3224302"><ele>321.0</ele><time>2026-05-02T05:29:33.482Z</time></trkpt><trkpt lat="43.1590713" lon="12.3226344"><ele>319.0</ele><time>2026-05-02T05:29:34.483Z</time></trkpt><trkpt lat="43.1590914" lon="12.3228248"><ele>317.0</ele><time>2026-05-02T05:29:35.484Z</time></trkpt><trkpt lat="43.1590952" lon="12.3230079"><ele>315.0</ele><time>2026-05-02T05:29:36.485Z</time></trkpt><trkpt lat="43.159078" lon="12.3231786"><ele>313.0</ele><time>2026-05-02T05:29:37.481Z</time></trkpt><trkpt lat="43.1590269" lon="12.323329"><ele>313.0</ele><time>2026-05-02T05:29:38.483Z</time></trkpt><trkpt lat="43.1589549" lon="12.3234743"><ele>313.0</ele><time>2026-05-02T05:29:39.481Z</time></trkpt><trkpt lat="43.1588715" lon="12.323609"><ele>313.0</ele><time>2026-05-02T05:29:40.489Z</time></trkpt><trkpt lat="43.1588046" lon="12.3237245"><ele>313.0</ele><time>2026-05-02T05:29:41.488Z</time></trkpt><trkpt lat="43.1587623" lon="12.3238488"><ele>305.25</ele><time>2026-05-02T05:29:42.49Z</time></trkpt><trkpt lat="43.1587556" lon="12.3239926"><ele>297.5</ele><time>2026-05-02T05:29:43.488Z</time></trkpt><trkpt lat="43.1587832" lon="12.3241386"><ele>289.75</ele><time>2026-05-02T05:29:44.482Z</time></trkpt><trkpt lat="43.1588404" lon="12.3242751"><ele>282.0</ele><time>2026-05-02T05:29:45.481Z</time></trkpt><trkpt lat="43.1589153" lon="12.3244166"><ele>282.0</ele><time>2026-05-02T05:29:46.478Z</time></trkpt><trkpt lat="43.1589973" lon="12.3245564"><ele>282.0</ele><time>2026-05-02T05:29:47.483Z</time></trkpt><trkpt lat="43.1590873" lon="12.3246981"><ele>282.0</ele><time>2026-05-02T05:29:48.482Z</time></trkpt><trkpt lat="43.1591708" lon="12.3248364"><ele>282.0</ele><time>2026-05-02T05:29:49.487Z</time></trkpt><trkpt lat="43.1592434" lon="12.324955"><ele>280.2</ele><time>2026-05-02T05:29:50.483Z</time></trkpt><trkpt lat="43.1592988" lon="12.3250469"><ele>278.4</ele><time>2026-05-02T05:29:51.48Z</time></trkpt><trkpt lat="43.159386" lon="12.3250931"><ele>276.6</ele><time>2026-05-02T05:29:53.478Z</time></trkpt><trkpt lat="43.1594479" lon="12.3249925"><ele>274.8</ele><time>2026-05-02T05:29:55.484Z</time></trkpt><trkpt lat="43.1594628" lon="12.3248801"><ele>273.0</ele><time>2026-05-02T05:29:56.489Z</time></trkpt><trkpt lat="43.1594671" lon="12.3247311"><ele>273.25</ele><time>2026-05-02T05:29:57.487Z</time></trkpt><trkpt lat="43.159472" lon="12.3245651"><ele>273.5</ele><time>2026-05-02T05:29:58.481Z</time></trkpt><trkpt lat="43.1594818" lon="12.3243819"><ele>273.75</ele><time>2026-05-02T05:29:59.49Z</time></trkpt><trkpt lat="43.159493" lon="12.324187"><ele>274.0</ele><time>2026-05-02T05:30:00.485Z</time></trkpt><trkpt lat="43.1594961" lon="12.3239728"><ele>276.66666666666663</ele><time>2026-05-02T05:30:01.491Z</time></trkpt><trkpt lat="43.1595088" lon="12.3237557"><ele>279.3333333333333</ele><time>2026-05-02T05:30:02.483Z</time></trkpt><trkpt lat="43.1595222" lon="12.3235357"><ele>282.0</ele><time>2026-05-02T05:30:03.487Z</time></trkpt><trkpt lat="43.1595269" lon="12.323311"><ele>282.0</ele><time>2026-05-02T05:30:04.486Z</time></trkpt><trkpt lat="43.1595303" lon="12.3230777"><ele>282.0</ele><time>2026-05-02T05:30:05.483Z</time></trkpt><trkpt lat="43.1595261" lon="12.3228427"><ele>282.0</ele><time>2026-05-02T05:30:06.487Z</time></trkpt><trkpt lat="43.1595107" lon="12.3226084"><ele>282.0</ele><time>2026-05-02T05:30:07.48Z</time></trkpt><trkpt lat="43.1594896" lon="12.3223702"><ele>282.0</ele><time>2026-05-02T05:30:08.493Z</time></trkpt><trkpt lat="43.1594705" lon="12.322129"><ele>282.0</ele><time>2026-05-02T05:30:09.483Z</time></trkpt><trkpt lat="43.1594487" lon="12.3218915"><ele>282.0</ele><time>2026-05-02T05:30:10.487Z</time></trkpt><trkpt lat="43.1594237" lon="12.3216467"><ele>282.0</ele><time>2026-05-02T05:30:11.478Z</time></trkpt><trkpt lat="43.1593969" lon="12.3214194"><ele>282.0</ele><time>2026-05-02T05:30:12.481Z</time></trkpt><trkpt lat="43.1593632" lon="12.3211972"><ele>279.5</ele><time>2026-05-02T05:30:13.484Z</time></trkpt><trkpt lat="43.1593346" lon="12.3209902"><ele>277.0</ele><time>2026-05-02T05:30:14.483Z</time></trkpt><trkpt lat="43.1593079" lon="12.320796"><ele>274.5</ele><time>2026-05-02T05:30:15.481Z</time></trkpt><trkpt lat="43.1592827" lon="12.3206113"><ele>272.0</ele><time>2026-05-02T05:30:16.489Z</time></trkpt><trkpt lat="43.1592681" lon="12.3204295"><ele>272.25</ele><time>2026-05-02T05:30:17.485Z</time></trkpt><trkpt lat="43.1592636" lon="12.3202419"><ele>272.5</ele><time>2026-05-02T05:30:18.487Z</time></trkpt><trkpt lat="43.1592761" lon="12.3200471"><ele>272.75</ele><time>2026-05-02T05:30:19.482Z</time></trkpt><trkpt lat="43.1593083" lon="12.3198538"><ele>273.0</ele><time>2026-05-02T05:30:20.482Z</time></trkpt><trkpt lat="43.1593631" lon="12.3196573"><ele>273.0</ele><time>2026-05-02T05:30:21.481Z</time></trkpt><trkpt lat="43.1594345" lon="12.3194642"><ele>273.0</ele><time>2026-05-02T05:30:22.482Z</time></trkpt><trkpt lat="43.1595273" lon="12.3192874"><ele>273.0</ele><time>2026-05-02T05:30:23.487Z</time></trkpt><trkpt lat="43.1596348" lon="12.3191229"><ele>273.0</ele><time>2026-05-02T05:30:24.492Z</time></trkpt><trkpt lat="43.1597572" lon="12.3189705"><ele>273.0</ele><time>2026-05-02T05:30:25.485Z</time></trkpt><trkpt lat="43.1598923" lon="12.3188341"><ele>273.0</ele><time>2026-05-02T05:30:26.49Z</time></trkpt><trkpt lat="43.1600278" lon="12.3186953"><ele>270.3333333333333</ele><time>2026-05-02T05:30:27.491Z</time></trkpt><trkpt lat="43.1601594" lon="12.3185617"><ele>267.66666666666663</ele><time>2026-05-02T05:30:28.481Z</time></trkpt><trkpt lat="43.1602776" lon="12.3184057"><ele>265.0</ele><time>2026-05-02T05:30:29.492Z</time></trkpt><trkpt lat="43.1603771" lon="12.3182181"><ele>263.66666666666663</ele><time>2026-05-02T05:30:30.481Z</time></trkpt><trkpt lat="43.1604593" lon="12.3180156"><ele>262.3333333333333</ele><time>2026-05-02T05:30:31.487Z</time></trkpt><trkpt lat="43.1605371" lon="12.3178007"><ele>261.0</ele><time>2026-05-02T05:30:32.482Z</time></trkpt><trkpt lat="43.1606274" lon="12.3175904"><ele>261.3333333333333</ele><time>2026-05-02T05:30:33.486Z</time></trkpt><trkpt lat="43.160724" lon="12.3173885"><ele>261.66666666666663</ele><time>2026-05-02T05:30:34.481Z</time></trkpt><trkpt lat="43.1608315" lon="12.3172003"><ele>262.0</ele><time>2026-05-02T05:30:35.484Z</time></trkpt><trkpt lat="43.1609373" lon="12.3170212"><ele>262.0</ele><time>2026-05-02T05:30:36.483Z</time></trkpt><trkpt lat="43.1610386" lon="12.3168463"><ele>262.0</ele><time>2026-05-02T05:30:37.481Z</time></trkpt><trkpt lat="43.1611248" lon="12.3166708"><ele>262.0</ele><time>2026-05-02T05:30:38.479Z</time></trkpt><trkpt lat="43.1611926" lon="12.3164759"><ele>262.0</ele><time>2026-05-02T05:30:39.481Z</time></trkpt><trkpt lat="43.1612343" lon="12.3162636"><ele>262.0</ele><time>2026-05-02T05:30:40.482Z</time></trkpt><trkpt lat="43.1612626" lon="12.3160367"><ele>262.0</ele><time>2026-05-02T05:30:41.486Z</time></trkpt><trkpt lat="43.1612854" lon="12.3158081"><ele>262.0</ele><time>2026-05-02T05:30:42.482Z</time></trkpt><trkpt lat="43.161307" lon="12.3155742"><ele>262.0</ele><time>2026-05-02T05:30:43.482Z</time></trkpt><trkpt lat="43.161334" lon="12.3153442"><ele>262.0</ele><time>2026-05-02T05:30:44.489Z</time></trkpt><trkpt lat="43.1613624" lon="12.3151142"><ele>262.3333333333333</ele><time>2026-05-02T05:30:45.482Z</time></trkpt><trkpt lat="43.1614051" lon="12.3148953"><ele>262.6666666666667</ele><time>2026-05-02T05:30:46.485Z</time></trkpt><trkpt lat="43.1614457" lon="12.3146715"><ele>263.0</ele><time>2026-05-02T05:30:47.491Z</time></trkpt><trkpt lat="43.1614816" lon="12.3144517"><ele>261.6666666666667</ele><time>2026-05-02T05:30:48.481Z</time></trkpt><trkpt lat="43.1615135" lon="12.3142318"><ele>260.3333333333333</ele><time>2026-05-02T05:30:49.494Z</time></trkpt><trkpt lat="43.161528" lon="12.3140067"><ele>259.0</ele><time>2026-05-02T05:30:50.49Z</time></trkpt><trkpt lat="43.1615254" lon="12.3137765"><ele>258.3333333333333</ele><time>2026-05-02T05:30:51.481Z</time></trkpt><trkpt lat="43.1615062" lon="12.3135463"><ele>257.6666666666667</ele><time>2026-05-02T05:30:52.482Z</time></trkpt><trkpt lat="43.1614785" lon="12.3133137"><ele>257.0</ele><time>2026-05-02T05:30:53.483Z</time></trkpt><trkpt lat="43.1614455" lon="12.3130854"><ele>257.33333333333337</ele><time>2026-05-02T05:30:54.488Z</time></trkpt><trkpt lat="43.1613938" lon="12.312856"><ele>257.6666666666667</ele><time>2026-05-02T05:30:55.483Z</time></trkpt><trkpt lat="43.1613479" lon="12.3126263"><ele>258.0</ele><time>2026-05-02T05:30:56.481Z</time></trkpt><trkpt lat="43.1612994" lon="12.3123952"><ele>257.6666666666667</ele><time>2026-05-02T05:30:57.488Z</time></trkpt><trkpt lat="43.1612551" lon="12.3121718"><ele>257.33333333333337</ele><time>2026-05-02T05:30:58.48Z</time></trkpt><trkpt lat="43.1612127" lon="12.3119457"><ele>257.0</ele><time>2026-05-02T05:30:59.494Z</time></trkpt><trkpt lat="43.1611686" lon="12.3117242"><ele>257.0</ele><time>2026-05-02T05:31:00.482Z</time></trkpt><trkpt lat="43.1611168" lon="12.3115198"><ele>257.0</ele><time>2026-05-02T05:31:01.483Z</time></trkpt><trkpt lat="43.1610719" lon="12.3113275"><ele>257.0</ele><time>2026-05-02T05:31:02.483Z</time></trkpt><trkpt lat="43.1610395" lon="12.3111378"><ele>257.0</ele><time>2026-05-02T05:31:03.482Z</time></trkpt><trkpt lat="43.1610247" lon="12.3109377"><ele>257.5</ele><time>2026-05-02T05:31:04.485Z</time></trkpt><trkpt lat="43.161021" lon="12.3107323"><ele>258.0</ele><time>2026-05-02T05:31:05.485Z</time></trkpt><trkpt lat="43.1610249" lon="12.3105446"><ele>258.5</ele><time>2026-05-02T05:31:06.486Z</time></trkpt><trkpt lat="43.1610352" lon="12.3103871"><ele>259.0</ele><time>2026-05-02T05:31:07.492Z</time></trkpt><trkpt lat="43.1610673" lon="12.3102626"><ele>259.0</ele><time>2026-05-02T05:31:08.486Z</time></trkpt><trkpt lat="43.1611101" lon="12.3101791"><ele>259.0</ele><time>2026-05-02T05:31:09.485Z</time></trkpt><trkpt lat="43.1611679" lon="12.3101403"><ele>259.0</ele><time>2026-05-02T05:31:10.488Z</time></trkpt><trkpt lat="43.1612449" lon="12.3101229"><ele>259.0</ele><time>2026-05-02T05:31:11.486Z</time></trkpt><trkpt lat="43.1613478" lon="12.3101164"><ele>259.0</ele><time>2026-05-02T05:31:12.483Z</time></trkpt><trkpt lat="43.1614607" lon="12.3100987"><ele>259.0</ele><time>2026-05-02T05:31:13.494Z</time></trkpt><trkpt lat="43.1615814" lon="12.3100456"><ele>259.0</ele><time>2026-05-02T05:31:14.486Z</time></trkpt><trkpt lat="43.1616976" lon="12.3099623"><ele>259.0</ele><time>2026-05-02T05:31:15.485Z</time></trkpt><trkpt lat="43.16181" lon="12.3098723"><ele>259.0</ele><time>2026-05-02T05:31:16.487Z</time></trkpt><trkpt lat="43.1618831" lon="12.3097107"><ele>259.0</ele><time>2026-05-02T05:31:17.483Z</time></trkpt><trkpt lat="43.1619511" lon="12.3095412"><ele>259.0</ele><time>2026-05-02T05:31:18.498Z</time></trkpt><trkpt lat="43.1620016" lon="12.3093602"><ele>259.0</ele><time>2026-05-02T05:31:19.484Z</time></trkpt><trkpt lat="43.1620441" lon="12.3091664"><ele>259.0</ele><time>2026-05-02T05:31:20.482Z</time></trkpt><trkpt lat="43.162079" lon="12.3089681"><ele>259.0</ele><time>2026-05-02T05:31:21.479Z</time></trkpt><trkpt lat="43.1621133" lon="12.3087632"><ele>259.3333333333333</ele><time>2026-05-02T05:31:22.492Z</time></trkpt><trkpt lat="43.1621464" lon="12.3085534"><ele>259.6666666666667</ele><time>2026-05-02T05:31:23.485Z</time></trkpt><trkpt lat="43.1621782" lon="12.3083363"><ele>260.0</ele><time>2026-05-02T05:31:24.48Z</time></trkpt><trkpt lat="43.1622047" lon="12.3081191"><ele>258.6666666666667</ele><time>2026-05-02T05:31:25.481Z</time></trkpt><trkpt lat="43.1622194" lon="12.3079017"><ele>257.3333333333333</ele><time>2026-05-02T05:31:26.483Z</time></trkpt><trkpt lat="43.1622176" lon="12.3076832"><ele>256.0</ele><time>2026-05-02T05:31:27.487Z</time></trkpt><trkpt lat="43.1621981" lon="12.3074603"><ele>256.3333333333333</ele><time>2026-05-02T05:31:28.48Z</time></trkpt><trkpt lat="43.1621638" lon="12.3072356"><ele>256.6666666666667</ele><time>2026-05-02T05:31:29.485Z</time></trkpt><trkpt lat="43.1621279" lon="12.3070154"><ele>257.0</ele><time>2026-05-02T05:31:30.483Z</time></trkpt><trkpt lat="43.1620924" lon="12.3067933"><ele>257.0</ele><time>2026-05-02T05:31:31.481Z</time></trkpt><trkpt lat="43.1620574" lon="12.3065656"><ele>257.0</ele><time>2026-05-02T05:31:32.497Z</time></trkpt><trkpt lat="43.1620228" lon="12.3063432"><ele>257.0</ele><time>2026-05-02T05:31:33.483Z</time></trkpt><trkpt lat="43.1619907" lon="12.3061112"><ele>256.6666666666667</ele><time>2026-05-02T05:31:34.484Z</time></trkpt><trkpt lat="43.1619588" lon="12.3058825"><ele>256.3333333333333</ele><time>2026-05-02T05:31:35.487Z</time></trkpt><trkpt lat="43.1619278" lon="12.3056542"><ele>256.0</ele><time>2026-05-02T05:31:36.483Z</time></trkpt><trkpt lat="43.1618938" lon="12.3054254"><ele>257.66666666666663</ele><time>2026-05-02T05:31:37.486Z</time></trkpt><trkpt lat="43.1618621" lon="12.3051987"><ele>259.3333333333333</ele><time>2026-05-02T05:31:38.489Z</time></trkpt><trkpt lat="43.1618278" lon="12.304973"><ele>261.0</ele><time>2026-05-02T05:31:39.485Z</time></trkpt><trkpt lat="43.1617986" lon="12.304745"><ele>263.3333333333333</ele><time>2026-05-02T05:31:40.488Z</time></trkpt><trkpt lat="43.161769" lon="12.3045177"><ele>265.66666666666663</ele><time>2026-05-02T05:31:41.481Z</time></trkpt><trkpt lat="43.1617364" lon="12.3042889"><ele>268.0</ele><time>2026-05-02T05:31:42.482Z</time></trkpt><trkpt lat="43.1617063" lon="12.3040599"><ele>269.3333333333333</ele><time>2026-05-02T05:31:43.482Z</time></trkpt><trkpt lat="43.1616768" lon="12.303831"><ele>270.6666666666667</ele><time>2026-05-02T05:31:44.481Z</time></trkpt><trkpt lat="43.161652" lon="12.3036033"><ele>272.0</ele><time>2026-05-02T05:31:45.488Z</time></trkpt><trkpt lat="43.1616267" lon="12.3033777"><ele>272.0</ele><time>2026-05-02T05:31:46.484Z</time></trkpt><trkpt lat="43.1615958" lon="12.3031529"><ele>272.0</ele><time>2026-05-02T05:31:47.48Z</time></trkpt><trkpt lat="43.1615739" lon="12.3029268"><ele>272.0</ele><time>2026-05-02T05:31:48.482Z</time></trkpt><trkpt lat="43.1615577" lon="12.3026982"><ele>272.33333333333337</ele><time>2026-05-02T05:31:49.485Z</time></trkpt><trkpt lat="43.1615502" lon="12.3024627"><ele>272.6666666666667</ele><time>2026-05-02T05:31:50.492Z</time></trkpt><trkpt lat="43.1615584" lon="12.3022312"><ele>273.0</ele><time>2026-05-02T05:31:51.485Z</time></trkpt><trkpt lat="43.1615726" lon="12.302002"><ele>271.6666666666667</ele><time>2026-05-02T05:31:52.482Z</time></trkpt><trkpt lat="43.1615933" lon="12.301777"><ele>270.33333333333337</ele><time>2026-05-02T05:31:53.483Z</time></trkpt><trkpt lat="43.161615" lon="12.3015495"><ele>269.0</ele><time>2026-05-02T05:31:54.486Z</time></trkpt><trkpt lat="43.1616378" lon="12.301318"><ele>267.6666666666667</ele><time>2026-05-02T05:31:55.48Z</time></trkpt><trkpt lat="43.1616583" lon="12.3010912"><ele>266.3333333333333</ele><time>2026-05-02T05:31:56.482Z</time></trkpt><trkpt lat="43.1616831" lon="12.300861"><ele>265.0</ele><time>2026-05-02T05:31:57.483Z</time></trkpt><trkpt lat="43.1617032" lon="12.3006327"><ele>263.66666666666663</ele><time>2026-05-02T05:31:58.485Z</time></trkpt><trkpt lat="43.1617259" lon="12.3003947"><ele>262.3333333333333</ele><time>2026-05-02T05:31:59.484Z</time></trkpt><trkpt lat="43.1617477" lon="12.3001626"><ele>261.0</ele><time>2026-05-02T05:32:00.483Z</time></trkpt><trkpt lat="43.1617674" lon="12.2999366"><ele>260.0</ele><time>2026-05-02T05:32:01.491Z</time></trkpt><trkpt lat="43.1617859" lon="12.2997217"><ele>259.0</ele><time>2026-05-02T05:32:02.482Z</time></trkpt><trkpt lat="43.1618022" lon="12.2995076"><ele>258.0</ele><time>2026-05-02T05:32:03.481Z</time></trkpt><trkpt lat="43.1618229" lon="12.2993059"><ele>258.0</ele><time>2026-05-02T05:32:04.487Z</time></trkpt><trkpt lat="43.1618442" lon="12.2991021"><ele>258.0</ele><time>2026-05-02T05:32:05.49Z</time></trkpt><trkpt lat="43.1618547" lon="12.2988877"><ele>258.0</ele><time>2026-05-02T05:32:06.486Z</time></trkpt><trkpt lat="43.1618649" lon="12.2986658"><ele>257.6666666666667</ele><time>2026-05-02T05:32:07.485Z</time></trkpt><trkpt lat="43.1618656" lon="12.2984375"><ele>257.33333333333337</ele><time>2026-05-02T05:32:08.482Z</time></trkpt><trkpt lat="43.1618666" lon="12.2982063"><ele>257.0</ele><time>2026-05-02T05:32:09.494Z</time></trkpt><trkpt lat="43.161865" lon="12.297979"><ele>255.66666666666669</ele><time>2026-05-02T05:32:10.492Z</time></trkpt><trkpt lat="43.1618589" lon="12.2977475"><ele>254.33333333333331</ele><time>2026-05-02T05:32:11.495Z</time></trkpt><trkpt lat="43.1618561" lon="12.297523"><ele>253.0</ele><time>2026-05-02T05:32:12.48Z</time></trkpt><trkpt lat="43.1618576" lon="12.2972929"><ele>252.66666666666666</ele><time>2026-05-02T05:32:13.482Z</time></trkpt><trkpt lat="43.1618609" lon="12.2970653"><ele>252.33333333333331</ele><time>2026-05-02T05:32:14.481Z</time></trkpt><trkpt lat="43.1618686" lon="12.296844"><ele>252.0</ele><time>2026-05-02T05:32:15.488Z</time></trkpt><trkpt lat="43.1618781" lon="12.2966185"><ele>252.0</ele><time>2026-05-02T05:32:16.483Z</time></trkpt><trkpt lat="43.161883" lon="12.2963946"><ele>252.0</ele><time>2026-05-02T05:32:17.483Z</time></trkpt><trkpt lat="43.1618827" lon="12.2961755"><ele>252.0</ele><time>2026-05-02T05:32:18.488Z</time></trkpt><trkpt lat="43.161873" lon="12.2959602"><ele>252.0</ele><time>2026-05-02T05:32:19.49Z</time></trkpt><trkpt lat="43.1618436" lon="12.295748"><ele>252.0</ele><time>2026-05-02T05:32:20.49Z</time></trkpt><trkpt lat="43.1617882" lon="12.2955522"><ele>252.0</ele><time>2026-05-02T05:32:21.492Z</time></trkpt><trkpt lat="43.1617065" lon="12.2953685"><ele>252.0</ele><time>2026-05-02T05:32:22.483Z</time></trkpt><trkpt lat="43.1616073" lon="12.2951973"><ele>252.0</ele><time>2026-05-02T05:32:23.48Z</time></trkpt><trkpt lat="43.1614961" lon="12.2950319"><ele>252.0</ele><time>2026-05-02T05:32:24.49Z</time></trkpt><trkpt lat="43.1613808" lon="12.2948649"><ele>251.0</ele><time>2026-05-02T05:32:25.489Z</time></trkpt><trkpt lat="43.1612636" lon="12.2946989"><ele>250.0</ele><time>2026-05-02T05:32:26.488Z</time></trkpt><trkpt lat="43.1611477" lon="12.294535"><ele>249.0</ele><time>2026-05-02T05:32:27.494Z</time></trkpt><trkpt lat="43.1610316" lon="12.2943713"><ele>249.0</ele><time>2026-05-02T05:32:28.483Z</time></trkpt><trkpt lat="43.1609123" lon="12.2942136"><ele>249.0</ele><time>2026-05-02T05:32:29.486Z</time></trkpt><trkpt lat="43.1607872" lon="12.2940632"><ele>249.0</ele><time>2026-05-02T05:32:30.481Z</time></trkpt><trkpt lat="43.1606532" lon="12.2939286"><ele>249.66666666666669</ele><time>2026-05-02T05:32:31.48Z</time></trkpt><trkpt lat="43.1605117" lon="12.2938072"><ele>250.33333333333334</ele><time>2026-05-02T05:32:32.491Z</time></trkpt><trkpt lat="43.1603699" lon="12.2936871"><ele>251.0</ele><time>2026-05-02T05:32:33.491Z</time></trkpt><trkpt lat="43.1602284" lon="12.2935647"><ele>251.0</ele><time>2026-05-02T05:32:34.485Z</time></trkpt><trkpt lat="43.1600894" lon="12.29344"><ele>251.0</ele><time>2026-05-02T05:32:35.485Z</time></trkpt><trkpt lat="43.1599619" lon="12.2933105"><ele>251.0</ele><time>2026-05-02T05:32:36.487Z</time></trkpt><trkpt lat="43.1598463" lon="12.2931807"><ele>251.75</ele><time>2026-05-02T05:32:37.483Z</time></trkpt><trkpt lat="43.1597343" lon="12.2930422"><ele>252.5</ele><time>2026-05-02T05:32:38.489Z</time></trkpt><trkpt lat="43.1596335" lon="12.2928908"><ele>253.25</ele><time>2026-05-02T05:32:39.482Z</time></trkpt><trkpt lat="43.15954" lon="12.2927331"><ele>254.0</ele><time>2026-05-02T05:32:40.487Z</time></trkpt><trkpt lat="43.1594591" lon="12.2925589"><ele>254.0</ele><time>2026-05-02T05:32:41.486Z</time></trkpt><trkpt lat="43.1593965" lon="12.2923782"><ele>254.0</ele><time>2026-05-02T05:32:42.481Z</time></trkpt><trkpt lat="43.1593549" lon="12.2921942"><ele>254.0</ele><time>2026-05-02T05:32:43.488Z</time></trkpt><trkpt lat="43.1593358" lon="12.2920097"><ele>254.0</ele><time>2026-05-02T05:32:44.482Z</time></trkpt><trkpt lat="43.159346" lon="12.2918155"><ele>255.66666666666669</ele><time>2026-05-02T05:32:45.489Z</time></trkpt><trkpt lat="43.1593756" lon="12.29162"><ele>257.3333333333333</ele><time>2026-05-02T05:32:46.491Z</time></trkpt><trkpt lat="43.1594123" lon="12.2914138"><ele>259.0</ele><time>2026-05-02T05:32:47.485Z</time></trkpt><trkpt lat="43.159459" lon="12.2911931"><ele>260.0</ele><time>2026-05-02T05:32:48.482Z</time></trkpt><trkpt lat="43.159503" lon="12.2909741"><ele>261.0</ele><time>2026-05-02T05:32:49.491Z</time></trkpt><trkpt lat="43.159553" lon="12.2907866"><ele>262.0</ele><time>2026-05-02T05:32:50.492Z</time></trkpt><trkpt lat="43.1596211" lon="12.2905975"><ele>263.0</ele><time>2026-05-02T05:32:51.485Z</time></trkpt><trkpt lat="43.159702" lon="12.2904154"><ele>264.0</ele><time>2026-05-02T05:32:52.49Z</time></trkpt><trkpt lat="43.1597842" lon="12.2902393"><ele>265.0</ele><time>2026-05-02T05:32:53.488Z</time></trkpt><trkpt lat="43.1598655" lon="12.2900609"><ele>263.75</ele><time>2026-05-02T05:32:54.483Z</time></trkpt><trkpt lat="43.1599429" lon="12.2898813"><ele>262.5</ele><time>2026-05-02T05:32:55.487Z</time></trkpt><trkpt lat="43.1600216" lon="12.2897067"><ele>261.25</ele><time>2026-05-02T05:32:56.485Z</time></trkpt><trkpt lat="43.1600892" lon="12.2895324"><ele>260.0</ele><time>2026-05-02T05:32:57.482Z</time></trkpt><trkpt lat="43.1601441" lon="12.2893357"><ele>260.0</ele><time>2026-05-02T05:32:58.488Z</time></trkpt><trkpt lat="43.1601793" lon="12.2891231"><ele>260.0</ele><time>2026-05-02T05:32:59.482Z</time></trkpt><trkpt lat="43.1601976" lon="12.2888959"><ele>260.0</ele><time>2026-05-02T05:33:00.492Z</time></trkpt><trkpt lat="43.1602051" lon="12.2886731"><ele>260.33333333333337</ele><time>2026-05-02T05:33:01.48Z</time></trkpt><trkpt lat="43.1602148" lon="12.2884483"><ele>260.6666666666667</ele><time>2026-05-02T05:33:02.482Z</time></trkpt><trkpt lat="43.1602246" lon="12.288224"><ele>261.0</ele><time>2026-05-02T05:33:03.49Z</time></trkpt><trkpt lat="43.160231" lon="12.2880028"><ele>260.25</ele><time>2026-05-02T05:33:04.48Z</time></trkpt><trkpt lat="43.1602322" lon="12.2877981"><ele>259.5</ele><time>2026-05-02T05:33:05.485Z</time></trkpt><trkpt lat="43.1602225" lon="12.2875984"><ele>258.75</ele><time>2026-05-02T05:33:06.484Z</time></trkpt><trkpt lat="43.1602047" lon="12.2874032"><ele>258.0</ele><time>2026-05-02T05:33:07.483Z</time></trkpt><trkpt lat="43.1601771" lon="12.287224"><ele>257.2</ele><time>2026-05-02T05:33:08.482Z</time></trkpt><trkpt lat="43.1601459" lon="12.2870515"><ele>256.4</ele><time>2026-05-02T05:33:09.485Z</time></trkpt><trkpt lat="43.1601091" lon="12.2868941"><ele>255.59999999999997</ele><time>2026-05-02T05:33:10.49Z</time></trkpt><trkpt lat="43.1600697" lon="12.2867581"><ele>254.79999999999998</ele><time>2026-05-02T05:33:11.492Z</time></trkpt><trkpt lat="43.1600316" lon="12.2866459"><ele>254.0</ele><time>2026-05-02T05:33:12.493Z</time></trkpt><trkpt lat="43.160009" lon="12.2865419"><ele>254.0</ele><time>2026-05-02T05:33:13.484Z</time></trkpt><trkpt lat="43.1600126" lon="12.2864302"><ele>253.99999999999997</ele><time>2026-05-02T05:33:14.489Z</time></trkpt><trkpt lat="43.1600411" lon="12.2863059"><ele>253.99999999999997</ele><time>2026-05-02T05:33:15.487Z</time></trkpt><trkpt lat="43.1600887" lon="12.286166"><ele>254.0</ele><time>2026-05-02T05:33:16.481Z</time></trkpt><trkpt lat="43.1601592" lon="12.286009"><ele>254.0</ele><time>2026-05-02T05:33:17.483Z</time></trkpt><trkpt lat="43.1602277" lon="12.2858408"><ele>253.25</ele><time>2026-05-02T05:33:18.482Z</time></trkpt><trkpt lat="43.1602969" lon="12.2856682"><ele>252.5</ele><time>2026-05-02T05:33:19.485Z</time></trkpt><trkpt lat="43.1603632" lon="12.2854986"><ele>251.75</ele><time>2026-05-02T05:33:20.481Z</time></trkpt><trkpt lat="43.1604293" lon="12.285343"><ele>251.0</ele><time>2026-05-02T05:33:21.486Z</time></trkpt><trkpt lat="43.1604933" lon="12.285196"><ele>250.75</ele><time>2026-05-02T05:33:22.487Z</time></trkpt><trkpt lat="43.160565" lon="12.2850643"><ele>250.5</ele><time>2026-05-02T05:33:23.487Z</time></trkpt><trkpt lat="43.1606377" lon="12.2849248"><ele>250.25</ele><time>2026-05-02T05:33:24.482Z</time></trkpt><trkpt lat="43.1607112" lon="12.2847842"><ele>250.0</ele><time>2026-05-02T05:33:25.481Z</time></trkpt><trkpt lat="43.1607888" lon="12.2846396"><ele>250.5</ele><time>2026-05-02T05:33:26.486Z</time></trkpt><trkpt lat="43.1608699" lon="12.2844855"><ele>251.0</ele><time>2026-05-02T05:33:27.479Z</time></trkpt><trkpt lat="43.1609531" lon="12.2843221"><ele>251.5</ele><time>2026-05-02T05:33:28.494Z</time></trkpt><trkpt lat="43.1610413" lon="12.2841548"><ele>252.0</ele><time>2026-05-02T05:33:29.483Z</time></trkpt><trkpt lat="43.1611315" lon="12.2839846"><ele>251.33333333333331</ele><time>2026-05-02T05:33:30.483Z</time></trkpt><trkpt lat="43.1612287" lon="12.2838114"><ele>250.66666666666666</ele><time>2026-05-02T05:33:31.483Z</time></trkpt><trkpt lat="43.1613212" lon="12.283635"><ele>250.0</ele><time>2026-05-02T05:33:32.49Z</time></trkpt><trkpt lat="43.1614127" lon="12.2834561"><ele>250.0</ele><time>2026-05-02T05:33:33.484Z</time></trkpt><trkpt lat="43.1615012" lon="12.2832783"><ele>250.0</ele><time>2026-05-02T05:33:34.485Z</time></trkpt><trkpt lat="43.1615887" lon="12.2831058"><ele>250.0</ele><time>2026-05-02T05:33:35.481Z</time></trkpt><trkpt lat="43.1616787" lon="12.2829288"><ele>250.33333333333331</ele><time>2026-05-02T05:33:36.492Z</time></trkpt><trkpt lat="43.1617713" lon="12.2827443"><ele>250.66666666666669</ele><time>2026-05-02T05:33:37.48Z</time></trkpt><trkpt lat="43.1618643" lon="12.2825587"><ele>251.0</ele><time>2026-05-02T05:33:38.483Z</time></trkpt><trkpt lat="43.1619625" lon="12.2823676"><ele>250.66666666666669</ele><time>2026-05-02T05:33:39.482Z</time></trkpt><trkpt lat="43.1620562" lon="12.2821797"><ele>250.33333333333331</ele><time>2026-05-02T05:33:40.494Z</time></trkpt><trkpt lat="43.162151" lon="12.2819883"><ele>250.0</ele><time>2026-05-02T05:33:41.484Z</time></trkpt><trkpt lat="43.1622453" lon="12.2817999"><ele>250.0</ele><time>2026-05-02T05:33:42.499Z</time></trkpt><trkpt lat="43.1623399" lon="12.2816141"><ele>250.0</ele><time>2026-05-02T05:33:43.481Z</time></trkpt><trkpt lat="43.1624348" lon="12.2814282"><ele>250.0</ele><time>2026-05-02T05:33:44.482Z</time></trkpt><trkpt lat="43.1625299" lon="12.2812493"><ele>250.0</ele><time>2026-05-02T05:33:45.484Z</time></trkpt><trkpt lat="43.1626288" lon="12.2810666"><ele>250.0</ele><time>2026-05-02T05:33:46.483Z</time></trkpt><trkpt lat="43.162723" lon="12.2808871"><ele>250.0</ele><time>2026-05-02T05:33:47.489Z</time></trkpt><trkpt lat="43.1628198" lon="12.2807034"><ele>250.33333333333331</ele><time>2026-05-02T05:33:48.482Z</time></trkpt><trkpt lat="43.1629164" lon="12.2805176"><ele>250.66666666666669</ele><time>2026-05-02T05:33:49.483Z</time></trkpt><trkpt lat="43.1630122" lon="12.2803366"><ele>251.0</ele><time>2026-05-02T05:33:50.48Z</time></trkpt><trkpt lat="43.1631122" lon="12.2801571"><ele>251.33333333333334</ele><time>2026-05-02T05:33:51.484Z</time></trkpt><trkpt lat="43.1632076" lon="12.2799837"><ele>251.66666666666669</ele><time>2026-05-02T05:33:52.482Z</time></trkpt><trkpt lat="43.1633012" lon="12.279821"><ele>252.0</ele><time>2026-05-02T05:33:53.492Z</time></trkpt><trkpt lat="43.1633893" lon="12.2796718"><ele>252.0</ele><time>2026-05-02T05:33:54.502Z</time></trkpt><trkpt lat="43.1634817" lon="12.2795432"><ele>252.0</ele><time>2026-05-02T05:33:55.483Z</time></trkpt><trkpt lat="43.1635863" lon="12.2794382"><ele>252.0</ele><time>2026-05-02T05:33:56.493Z</time></trkpt><trkpt lat="43.1637052" lon="12.2793608"><ele>252.0</ele><time>2026-05-02T05:33:57.483Z</time></trkpt><trkpt lat="43.1638269" lon="12.2793044"><ele>252.0</ele><time>2026-05-02T05:33:58.484Z</time></trkpt><trkpt lat="43.1639435" lon="12.2792484"><ele>252.0</ele><time>2026-05-02T05:33:59.483Z</time></trkpt><trkpt lat="43.1640176" lon="12.27923"><ele>252.0</ele><time>2026-05-02T05:34:00.484Z</time></trkpt><trkpt lat="43.1640756" lon="12.2791849"><ele>252.0</ele><time>2026-05-02T05:34:01.48Z</time></trkpt><trkpt lat="43.1641255" lon="12.2790203"><ele>252.0</ele><time>2026-05-02T05:34:03.485Z</time></trkpt><trkpt lat="43.1641173" lon="12.2789015"><ele>252.5</ele><time>2026-05-02T05:34:04.485Z</time></trkpt><trkpt lat="43.164093" lon="12.2787586"><ele>253.0</ele><time>2026-05-02T05:34:05.481Z</time></trkpt><trkpt lat="43.1640656" lon="12.2786066"><ele>253.5</ele><time>2026-05-02T05:34:06.482Z</time></trkpt><trkpt lat="43.164036" lon="12.2784535"><ele>254.0</ele><time>2026-05-02T05:34:07.484Z</time></trkpt><trkpt lat="43.1639973" lon="12.278298"><ele>254.0</ele><time>2026-05-02T05:34:08.484Z</time></trkpt><trkpt lat="43.1639658" lon="12.2781268"><ele>254.0</ele><time>2026-05-02T05:34:09.489Z</time></trkpt><trkpt lat="43.163938" lon="12.2779621"><ele>254.0</ele><time>2026-05-02T05:34:10.486Z</time></trkpt><trkpt lat="43.1639353" lon="12.277794"><ele>254.0</ele><time>2026-05-02T05:34:11.487Z</time></trkpt><trkpt lat="43.1639398" lon="12.2776195"><ele>254.75</ele><time>2026-05-02T05:34:12.481Z</time></trkpt><trkpt lat="43.1639458" lon="12.2774403"><ele>255.5</ele><time>2026-05-02T05:34:13.482Z</time></trkpt><trkpt lat="43.163954" lon="12.2772644"><ele>256.25</ele><time>2026-05-02T05:34:14.485Z</time></trkpt><trkpt lat="43.1639606" lon="12.2770932"><ele>257.0</ele><time>2026-05-02T05:34:15.482Z</time></trkpt><trkpt lat="43.1639634" lon="12.2769414"><ele>257.0</ele><time>2026-05-02T05:34:16.488Z</time></trkpt><trkpt lat="43.163963" lon="12.2768253"><ele>257.0</ele><time>2026-05-02T05:34:17.484Z</time></trkpt><trkpt lat="43.1639523" lon="12.2767326"><ele>257.0</ele><time>2026-05-02T05:34:18.484Z</time></trkpt><trkpt lat="43.1639129" lon="12.276579"><ele>257.0</ele><time>2026-05-02T05:34:20.486Z</time></trkpt><trkpt lat="43.1638081" lon="12.2765195"><ele>257.0</ele><time>2026-05-02T05:34:22.488Z</time></trkpt><trkpt lat="43.1637465" lon="12.2764743"><ele>257.5</ele><time>2026-05-02T05:34:23.487Z</time></trkpt><trkpt lat="43.1636572" lon="12.2763998"><ele>258.0</ele><time>2026-05-02T05:34:24.491Z</time></trkpt><trkpt lat="43.1635591" lon="12.2763161"><ele>258.5</ele><time>2026-05-02T05:34:25.486Z</time></trkpt><trkpt lat="43.1634506" lon="12.2762331"><ele>259.0</ele><time>2026-05-02T05:34:26.484Z</time></trkpt><trkpt lat="43.1633336" lon="12.2761576"><ele>259.0</ele><time>2026-05-02T05:34:27.484Z</time></trkpt><trkpt lat="43.1632168" lon="12.2760834"><ele>259.0</ele><time>2026-05-02T05:34:28.482Z</time></trkpt><trkpt lat="43.1630896" lon="12.276024"><ele>259.0</ele><time>2026-05-02T05:34:29.487Z</time></trkpt><trkpt lat="43.1629608" lon="12.2759819"><ele>259.0</ele><time>2026-05-02T05:34:30.484Z</time></trkpt><trkpt lat="43.1628396" lon="12.2759754"><ele>259.25</ele><time>2026-05-02T05:34:31.488Z</time></trkpt><trkpt lat="43.1627127" lon="12.2760044"><ele>259.5</ele><time>2026-05-02T05:34:32.49Z</time></trkpt><trkpt lat="43.1625886" lon="12.2760624"><ele>259.75</ele><time>2026-05-02T05:34:33.485Z</time></trkpt><trkpt lat="43.1624659" lon="12.2761288"><ele>260.0</ele><time>2026-05-02T05:34:34.488Z</time></trkpt><trkpt lat="43.1623459" lon="12.276185"><ele>260.0</ele><time>2026-05-02T05:34:35.482Z</time></trkpt><trkpt lat="43.1622248" lon="12.2762209"><ele>260.0</ele><time>2026-05-02T05:34:36.487Z</time></trkpt><trkpt lat="43.1621008" lon="12.276231"><ele>260.0</ele><time>2026-05-02T05:34:37.488Z</time></trkpt><trkpt lat="43.1619713" lon="12.2762099"><ele>260.0</ele><time>2026-05-02T05:34:38.489Z</time></trkpt><trkpt lat="43.161839" lon="12.2761804"><ele>260.0</ele><time>2026-05-02T05:34:39.491Z</time></trkpt><trkpt lat="43.1617013" lon="12.276149"><ele>260.0</ele><time>2026-05-02T05:34:40.488Z</time></trkpt><trkpt lat="43.1615736" lon="12.2761171"><ele>260.0</ele><time>2026-05-02T05:34:41.48Z</time></trkpt><trkpt lat="43.161464" lon="12.2760843"><ele>260.0</ele><time>2026-05-02T05:34:42.49Z</time></trkpt><trkpt lat="43.1613802" lon="12.2760661"><ele>262.1666666666667</ele><time>2026-05-02T05:34:43.487Z</time></trkpt><trkpt lat="43.1613032" lon="12.2760681"><ele>264.33333333333337</ele><time>2026-05-02T05:34:44.484Z</time></trkpt><trkpt lat="43.1612366" lon="12.2760815"><ele>266.5</ele><time>2026-05-02T05:34:45.482Z</time></trkpt><trkpt lat="43.1611815" lon="12.2761466"><ele>268.6666666666667</ele><time>2026-05-02T05:34:46.485Z</time></trkpt><trkpt lat="43.1611224" lon="12.2762252"><ele>270.8333333333333</ele><time>2026-05-02T05:34:47.498Z</time></trkpt><trkpt lat="43.1610584" lon="12.2763016"><ele>273.0</ele><time>2026-05-02T05:34:48.491Z</time></trkpt><trkpt lat="43.1609847" lon="12.2763855"><ele>273.0</ele><time>2026-05-02T05:34:49.489Z</time></trkpt><trkpt lat="43.1608815" lon="12.2764524"><ele>273.0</ele><time>2026-05-02T05:34:50.487Z</time></trkpt><trkpt lat="43.1607801" lon="12.2765211"><ele>273.0</ele><time>2026-05-02T05:34:51.485Z</time></trkpt><trkpt lat="43.1606696" lon="12.2765758"><ele>273.0</ele><time>2026-05-02T05:34:52.482Z</time></trkpt><trkpt lat="43.1605593" lon="12.2766409"><ele>273.0</ele><time>2026-05-02T05:34:53.481Z</time></trkpt><trkpt lat="43.16045" lon="12.2767099"><ele>273.0</ele><time>2026-05-02T05:34:54.483Z</time></trkpt><trkpt lat="43.1603439" lon="12.2767747"><ele>273.0</ele><time>2026-05-02T05:34:55.482Z</time></trkpt><trkpt lat="43.1602411" lon="12.2768497"><ele>273.0</ele><time>2026-05-02T05:34:56.486Z</time></trkpt><trkpt lat="43.1601403" lon="12.2769135"><ele>273.0</ele><time>2026-05-02T05:34:57.484Z</time></trkpt><trkpt lat="43.1600421" lon="12.2769468"><ele>273.0</ele><time>2026-05-02T05:34:58.491Z</time></trkpt><trkpt lat="43.1599395" lon="12.2769855"><ele>273.0</ele><time>2026-05-02T05:34:59.486Z</time></trkpt><trkpt lat="43.1598626" lon="12.2770279"><ele>273.0</ele><time>2026-05-02T05:35:00.482Z</time></trkpt><trkpt lat="43.159796" lon="12.277097"><ele>273.0</ele><time>2026-05-02T05:35:01.484Z</time></trkpt><trkpt lat="43.1597464" lon="12.2771738"><ele>273.0</ele><time>2026-05-02T05:35:02.483Z</time></trkpt><trkpt lat="43.1596897" lon="12.2772305"><ele>272.2</ele><time>2026-05-02T05:35:03.488Z</time></trkpt><trkpt lat="43.1596266" lon="12.2772691"><ele>271.4</ele><time>2026-05-02T05:35:04.492Z</time></trkpt><trkpt lat="43.1595426" lon="12.2773002"><ele>270.59999999999997</ele><time>2026-05-02T05:35:05.484Z</time></trkpt><trkpt lat="43.1594453" lon="12.2773203"><ele>269.8</ele><time>2026-05-02T05:35:06.494Z</time></trkpt><trkpt lat="43.1593378" lon="12.277341"><ele>269.0</ele><time>2026-05-02T05:35:07.484Z</time></trkpt><trkpt lat="43.159237" lon="12.2773624"><ele>269.0</ele><time>2026-05-02T05:35:08.485Z</time></trkpt><trkpt lat="43.1591485" lon="12.2773681"><ele>269.0</ele><time>2026-05-02T05:35:09.487Z</time></trkpt><trkpt lat="43.1590649" lon="12.2773774"><ele>269.0</ele><time>2026-05-02T05:35:10.487Z</time></trkpt><trkpt lat="43.1589784" lon="12.2774476"><ele>269.0</ele><time>2026-05-02T05:35:12.5Z</time></trkpt><trkpt lat="43.1589576" lon="12.2775929"><ele>269.0</ele><time>2026-05-02T05:35:14.48Z</time></trkpt><trkpt lat="43.15898" lon="12.2776973"><ele>269.4</ele><time>2026-05-02T05:35:15.493Z</time></trkpt><trkpt lat="43.1589848" lon="12.277815"><ele>269.79999999999995</ele><time>2026-05-02T05:35:16.483Z</time></trkpt><trkpt lat="43.1589633" lon="12.2779296"><ele>270.20000000000005</ele><time>2026-05-02T05:35:17.486Z</time></trkpt><trkpt lat="43.1589206" lon="12.2780309"><ele>270.6</ele><time>2026-05-02T05:35:18.49Z</time></trkpt><trkpt lat="43.1588571" lon="12.2781328"><ele>271.0</ele><time>2026-05-02T05:35:19.486Z</time></trkpt><trkpt lat="43.1587764" lon="12.2782229"><ele>269.2</ele><time>2026-05-02T05:35:20.488Z</time></trkpt><trkpt lat="43.1586789" lon="12.2783121"><ele>267.40000000000003</ele><time>2026-05-02T05:35:21.485Z</time></trkpt><trkpt lat="43.1586023" lon="12.2784034"><ele>265.6</ele><time>2026-05-02T05:35:22.481Z</time></trkpt><trkpt lat="43.1585313" lon="12.2785161"><ele>263.8</ele><time>2026-05-02T05:35:23.483Z</time></trkpt><trkpt lat="43.1584813" lon="12.2786474"><ele>262.0</ele><time>2026-05-02T05:35:24.483Z</time></trkpt><trkpt lat="43.1584553" lon="12.2787934"><ele>260.75</ele><time>2026-05-02T05:35:25.49Z</time></trkpt><trkpt lat="43.158439" lon="12.2789379"><ele>259.5</ele><time>2026-05-02T05:35:26.485Z</time></trkpt><trkpt lat="43.1584516" lon="12.2791228"><ele>258.25</ele><time>2026-05-02T05:35:27.482Z</time></trkpt><trkpt lat="43.1584701" lon="12.2793054"><ele>257.0</ele><time>2026-05-02T05:35:28.493Z</time></trkpt><trkpt lat="43.1584949" lon="12.2794962"><ele>257.0</ele><time>2026-05-02T05:35:29.482Z</time></trkpt><trkpt lat="43.1585154" lon="12.2797011"><ele>257.0</ele><time>2026-05-02T05:35:30.498Z</time></trkpt><trkpt lat="43.1585415" lon="12.2799143"><ele>257.0</ele><time>2026-05-02T05:35:31.482Z</time></trkpt><trkpt lat="43.1585694" lon="12.2801334"><ele>255.5</ele><time>2026-05-02T05:35:32.486Z</time></trkpt><trkpt lat="43.1585914" lon="12.2803273"><ele>254.0</ele><time>2026-05-02T05:35:33.482Z</time></trkpt><trkpt lat="43.1586101" lon="12.2804973"><ele>252.5</ele><time>2026-05-02T05:35:34.48Z</time></trkpt><trkpt lat="43.1586185" lon="12.2806469"><ele>251.0</ele><time>2026-05-02T05:35:35.492Z</time></trkpt><trkpt lat="43.1586083" lon="12.2807651"><ele>250.0</ele><time>2026-05-02T05:35:36.488Z</time></trkpt><trkpt lat="43.1585743" lon="12.2808679"><ele>249.00000000000003</ele><time>2026-05-02T05:35:37.49Z</time></trkpt><trkpt lat="43.1585128" lon="12.2809579"><ele>248.00000000000003</ele><time>2026-05-02T05:35:38.493Z</time></trkpt><trkpt lat="43.1584253" lon="12.2810375"><ele>247.0</ele><time>2026-05-02T05:35:39.485Z</time></trkpt><trkpt lat="43.1583172" lon="12.2811162"><ele>246.0</ele><time>2026-05-02T05:35:40.5Z</time></trkpt><trkpt lat="43.1582051" lon="12.281204"><ele>246.5</ele><time>2026-05-02T05:35:41.482Z</time></trkpt><trkpt lat="43.158089" lon="12.2812868"><ele>247.0</ele><time>2026-05-02T05:35:42.484Z</time></trkpt><trkpt lat="43.1579846" lon="12.2813687"><ele>247.5</ele><time>2026-05-02T05:35:43.484Z</time></trkpt><trkpt lat="43.1578952" lon="12.281447"><ele>248.0</ele><time>2026-05-02T05:35:44.483Z</time></trkpt><trkpt lat="43.1578077" lon="12.2815227"><ele>248.0</ele><time>2026-05-02T05:35:45.483Z</time></trkpt><trkpt lat="43.1577137" lon="12.2815913"><ele>248.0</ele><time>2026-05-02T05:35:46.489Z</time></trkpt><trkpt lat="43.1576133" lon="12.2816735"><ele>248.0</ele><time>2026-05-02T05:35:47.487Z</time></trkpt><trkpt lat="43.1575193" lon="12.2817669"><ele>248.0</ele><time>2026-05-02T05:35:48.482Z</time></trkpt><trkpt lat="43.157417" lon="12.281865"><ele>248.2</ele><time>2026-05-02T05:35:49.49Z</time></trkpt><trkpt lat="43.1573161" lon="12.2819684"><ele>248.4</ele><time>2026-05-02T05:35:50.486Z</time></trkpt><trkpt lat="43.1572194" lon="12.2820685"><ele>248.59999999999997</ele><time>2026-05-02T05:35:51.48Z</time></trkpt><trkpt lat="43.1571307" lon="12.2821579"><ele>248.79999999999998</ele><time>2026-05-02T05:35:52.49Z</time></trkpt><trkpt lat="43.1570553" lon="12.2822215"><ele>249.0</ele><time>2026-05-02T05:35:53.485Z</time></trkpt><trkpt lat="43.1569805" lon="12.2822514"><ele>249.0</ele><time>2026-05-02T05:35:54.489Z</time></trkpt><trkpt lat="43.1569137" lon="12.2821793"><ele>248.99999999999997</ele><time>2026-05-02T05:35:55.486Z</time></trkpt><trkpt lat="43.156855" lon="12.2820738"><ele>248.99999999999997</ele><time>2026-05-02T05:35:56.486Z</time></trkpt><trkpt lat="43.1567973" lon="12.2819452"><ele>249.0</ele><time>2026-05-02T05:35:57.484Z</time></trkpt><trkpt lat="43.1567304" lon="12.2818066"><ele>249.0</ele><time>2026-05-02T05:35:58.492Z</time></trkpt><trkpt lat="43.156672" lon="12.2816696"><ele>249.0</ele><time>2026-05-02T05:35:59.486Z</time></trkpt><trkpt lat="43.1566124" lon="12.2815093"><ele>248.99999999999997</ele><time>2026-05-02T05:36:00.483Z</time></trkpt><trkpt lat="43.1565629" lon="12.2813661"><ele>248.99999999999997</ele><time>2026-05-02T05:36:01.482Z</time></trkpt><trkpt lat="43.1565185" lon="12.2812373"><ele>249.0</ele><time>2026-05-02T05:36:02.482Z</time></trkpt><trkpt lat="43.1564693" lon="12.2811461"><ele>249.0</ele><time>2026-05-02T05:36:03.488Z</time></trkpt><trkpt lat="43.1564029" lon="12.2810722"><ele>249.79999999999998</ele><time>2026-05-02T05:36:04.485Z</time></trkpt><trkpt lat="43.1563246" lon="12.281014"><ele>250.59999999999997</ele><time>2026-05-02T05:36:05.5Z</time></trkpt><trkpt lat="43.1562361" lon="12.2809657"><ele>251.4</ele><time>2026-05-02T05:36:06.482Z</time></trkpt><trkpt lat="43.15614" lon="12.2809076"><ele>252.2</ele><time>2026-05-02T05:36:07.484Z</time></trkpt><trkpt lat="43.1560419" lon="12.2808568"><ele>253.0</ele><time>2026-05-02T05:36:08.488Z</time></trkpt><trkpt lat="43.1559468" lon="12.2808038"><ele>253.0</ele><time>2026-05-02T05:36:09.485Z</time></trkpt><trkpt lat="43.155851" lon="12.2807406"><ele>253.0</ele><time>2026-05-02T05:36:10.489Z</time></trkpt><trkpt lat="43.1557657" lon="12.2806642"><ele>253.0</ele><time>2026-05-02T05:36:11.484Z</time></trkpt><trkpt lat="43.1556758" lon="12.2805702"><ele>253.0</ele><time>2026-05-02T05:36:12.485Z</time></trkpt><trkpt lat="43.1555883" lon="12.280466"><ele>253.0</ele><time>2026-05-02T05:36:13.492Z</time></trkpt><trkpt lat="43.1554988" lon="12.2803449"><ele>253.75</ele><time>2026-05-02T05:36:14.491Z</time></trkpt><trkpt lat="43.1554042" lon="12.2802094"><ele>254.5</ele><time>2026-05-02T05:36:15.493Z</time></trkpt><trkpt lat="43.1553059" lon="12.2800549"><ele>255.25</ele><time>2026-05-02T05:36:16.487Z</time></trkpt><trkpt lat="43.1552102" lon="12.2798973"><ele>256.0</ele><time>2026-05-02T05:36:17.485Z</time></trkpt><trkpt lat="43.1551076" lon="12.2797361"><ele>255.33333333333331</ele><time>2026-05-02T05:36:18.486Z</time></trkpt><trkpt lat="43.1549949" lon="12.2795678"><ele>254.66666666666669</ele><time>2026-05-02T05:36:19.486Z</time></trkpt><trkpt lat="43.1548801" lon="12.2793999"><ele>254.0</ele><time>2026-05-02T05:36:20.486Z</time></trkpt><trkpt lat="43.1547694" lon="12.2792384"><ele>254.0</ele><time>2026-05-02T05:36:21.489Z</time></trkpt><trkpt lat="43.1546699" lon="12.2790866"><ele>254.0</ele><time>2026-05-02T05:36:22.485Z</time></trkpt><trkpt lat="43.1545707" lon="12.2789437"><ele>254.0</ele><time>2026-05-02T05:36:23.484Z</time></trkpt><trkpt lat="43.1544793" lon="12.2788112"><ele>254.0</ele><time>2026-05-02T05:36:24.484Z</time></trkpt><trkpt lat="43.1543871" lon="12.2786995"><ele>253.5</ele><time>2026-05-02T05:36:25.49Z</time></trkpt><trkpt lat="43.1542851" lon="12.2786005"><ele>253.0</ele><time>2026-05-02T05:36:26.49Z</time></trkpt><trkpt lat="43.1541609" lon="12.2785333"><ele>252.5</ele><time>2026-05-02T05:36:27.488Z</time></trkpt><trkpt lat="43.1540334" lon="12.2784708"><ele>252.0</ele><time>2026-05-02T05:36:28.49Z</time></trkpt><trkpt lat="43.1539055" lon="12.2784171"><ele>252.0</ele><time>2026-05-02T05:36:29.487Z</time></trkpt><trkpt lat="43.1537732" lon="12.2783774"><ele>252.0</ele><time>2026-05-02T05:36:30.49Z</time></trkpt><trkpt lat="43.1536376" lon="12.2783562"><ele>252.0</ele><time>2026-05-02T05:36:31.483Z</time></trkpt><trkpt lat="43.1534953" lon="12.2783375"><ele>252.0</ele><time>2026-05-02T05:36:32.492Z</time></trkpt><trkpt lat="43.1533464" lon="12.278312"><ele>250.33333333333331</ele><time>2026-05-02T05:36:33.483Z</time></trkpt><trkpt lat="43.1532007" lon="12.2782725"><ele>248.66666666666666</ele><time>2026-05-02T05:36:34.495Z</time></trkpt><trkpt lat="43.1530513" lon="12.2782334"><ele>247.0</ele><time>2026-05-02T05:36:35.483Z</time></trkpt><trkpt lat="43.1529004" lon="12.2782036"><ele>247.0</ele><time>2026-05-02T05:36:36.487Z</time></trkpt><trkpt lat="43.1527476" lon="12.278174"><ele>247.0</ele><time>2026-05-02T05:36:37.488Z</time></trkpt><trkpt lat="43.1525987" lon="12.2781425"><ele>247.0</ele><time>2026-05-02T05:36:38.483Z</time></trkpt><trkpt lat="43.1524541" lon="12.2781183"><ele>247.75</ele><time>2026-05-02T05:36:39.49Z</time></trkpt><trkpt lat="43.152321" lon="12.2781028"><ele>248.5</ele><time>2026-05-02T05:36:40.49Z</time></trkpt><trkpt lat="43.1521956" lon="12.2780852"><ele>249.25</ele><time>2026-05-02T05:36:41.485Z</time></trkpt><trkpt lat="43.1520702" lon="12.2780475"><ele>250.0</ele><time>2026-05-02T05:36:42.501Z</time></trkpt><trkpt lat="43.1519405" lon="12.2779957"><ele>250.0</ele><time>2026-05-02T05:36:43.483Z</time></trkpt><trkpt lat="43.1518105" lon="12.2779382"><ele>250.0</ele><time>2026-05-02T05:36:44.481Z</time></trkpt><trkpt lat="43.1516794" lon="12.277887"><ele>250.0</ele><time>2026-05-02T05:36:45.483Z</time></trkpt><trkpt lat="43.151552" lon="12.277842"><ele>250.0</ele><time>2026-05-02T05:36:46.483Z</time></trkpt><trkpt lat="43.1514378" lon="12.2778006"><ele>249.66666666666666</ele><time>2026-05-02T05:36:47.492Z</time></trkpt><trkpt lat="43.1513371" lon="12.2777582"><ele>249.33333333333331</ele><time>2026-05-02T05:36:48.487Z</time></trkpt><trkpt lat="43.1512468" lon="12.2777109"><ele>249.0</ele><time>2026-05-02T05:36:49.491Z</time></trkpt><trkpt lat="43.1511708" lon="12.2776525"><ele>248.66666666666669</ele><time>2026-05-02T05:36:50.484Z</time></trkpt><trkpt lat="43.1511164" lon="12.2775792"><ele>248.33333333333334</ele><time>2026-05-02T05:36:51.488Z</time></trkpt><trkpt lat="43.1510844" lon="12.277496"><ele>248.0</ele><time>2026-05-02T05:36:52.487Z</time></trkpt><trkpt lat="43.151068" lon="12.2774"><ele>248.00000000000003</ele><time>2026-05-02T05:36:53.484Z</time></trkpt><trkpt lat="43.1510762" lon="12.2773045"><ele>248.0</ele><time>2026-05-02T05:36:54.489Z</time></trkpt><trkpt lat="43.151104" lon="12.2772112"><ele>248.0</ele><time>2026-05-02T05:36:55.485Z</time></trkpt><trkpt lat="43.1511549" lon="12.277118"><ele>248.0</ele><time>2026-05-02T05:36:56.485Z</time></trkpt><trkpt lat="43.1512172" lon="12.2770212"><ele>248.00000000000003</ele><time>2026-05-02T05:36:57.487Z</time></trkpt><trkpt lat="43.1512608" lon="12.2769219"><ele>248.0</ele><time>2026-05-02T05:36:58.48Z</time></trkpt><trkpt lat="43.1512789" lon="12.2768146"><ele>248.60000000000002</ele><time>2026-05-02T05:36:59.487Z</time></trkpt><trkpt lat="43.1512713" lon="12.2767238"><ele>249.20000000000002</ele><time>2026-05-02T05:37:00.486Z</time></trkpt><trkpt lat="43.1511878" lon="12.2765931"><ele>249.8</ele><time>2026-05-02T05:37:02.485Z</time></trkpt><trkpt lat="43.151112" lon="12.2765419"><ele>250.4</ele><time>2026-05-02T05:37:03.487Z</time></trkpt><trkpt lat="43.151011" lon="12.2764998"><ele>251.0</ele><time>2026-05-02T05:37:04.482Z</time></trkpt><trkpt lat="43.1508955" lon="12.2764525"><ele>251.16666666666669</ele><time>2026-05-02T05:37:05.494Z</time></trkpt><trkpt lat="43.1507979" lon="12.2764102"><ele>251.33333333333334</ele><time>2026-05-02T05:37:06.483Z</time></trkpt><trkpt lat="43.150714" lon="12.276364"><ele>251.5</ele><time>2026-05-02T05:37:07.481Z</time></trkpt><trkpt lat="43.1506382" lon="12.2763357"><ele>251.66666666666669</ele><time>2026-05-02T05:37:08.485Z</time></trkpt><trkpt lat="43.1505727" lon="12.2763261"><ele>251.83333333333334</ele><time>2026-05-02T05:37:09.485Z</time></trkpt><trkpt lat="43.150498" lon="12.2763416"><ele>252.0</ele><time>2026-05-02T05:37:10.485Z</time></trkpt><trkpt lat="43.1504098" lon="12.2763739"><ele>251.0</ele><time>2026-05-02T05:37:11.486Z</time></trkpt><trkpt lat="43.1503092" lon="12.2764293"><ele>250.0</ele><time>2026-05-02T05:37:12.492Z</time></trkpt><trkpt lat="43.1501982" lon="12.2764894"><ele>249.0</ele><time>2026-05-02T05:37:13.486Z</time></trkpt><trkpt lat="43.1500735" lon="12.2765545"><ele>248.0</ele><time>2026-05-02T05:37:14.494Z</time></trkpt><trkpt lat="43.1499546" lon="12.2766236"><ele>248.0</ele><time>2026-05-02T05:37:15.486Z</time></trkpt><trkpt lat="43.1498391" lon="12.2766872"><ele>248.0</ele><time>2026-05-02T05:37:16.483Z</time></trkpt><trkpt lat="43.1497366" lon="12.2767419"><ele>248.0</ele><time>2026-05-02T05:37:17.483Z</time></trkpt><trkpt lat="43.1496247" lon="12.2767961"><ele>248.0</ele><time>2026-05-02T05:37:18.485Z</time></trkpt><trkpt lat="43.1495032" lon="12.2768519"><ele>248.0</ele><time>2026-05-02T05:37:19.482Z</time></trkpt><trkpt lat="43.1493832" lon="12.2769108"><ele>248.0</ele><time>2026-05-02T05:37:20.488Z</time></trkpt><trkpt lat="43.1492571" lon="12.2769759"><ele>248.0</ele><time>2026-05-02T05:37:21.482Z</time></trkpt><trkpt lat="43.1491392" lon="12.2770351"><ele>248.0</ele><time>2026-05-02T05:37:22.485Z</time></trkpt><trkpt lat="43.1490185" lon="12.2770929"><ele>247.60000000000002</ele><time>2026-05-02T05:37:23.483Z</time></trkpt><trkpt lat="43.1489008" lon="12.2771484"><ele>247.20000000000002</ele><time>2026-05-02T05:37:24.482Z</time></trkpt><trkpt lat="43.148793" lon="12.2772014"><ele>246.8</ele><time>2026-05-02T05:37:25.488Z</time></trkpt><trkpt lat="43.1486999" lon="12.2772423"><ele>246.4</ele><time>2026-05-02T05:37:26.483Z</time></trkpt><trkpt lat="43.1486168" lon="12.2772679"><ele>246.0</ele><time>2026-05-02T05:37:27.492Z</time></trkpt><trkpt lat="43.1485442" lon="12.2772741"><ele>245.8</ele><time>2026-05-02T05:37:28.483Z</time></trkpt><trkpt lat="43.1484646" lon="12.2772152"><ele>245.60000000000002</ele><time>2026-05-02T05:37:29.484Z</time></trkpt><trkpt lat="43.1483814" lon="12.2771474"><ele>245.4</ele><time>2026-05-02T05:37:30.486Z</time></trkpt><trkpt lat="43.1483008" lon="12.2770601"><ele>245.2</ele><time>2026-05-02T05:37:31.484Z</time></trkpt><trkpt lat="43.1482232" lon="12.2769941"><ele>245.0</ele><time>2026-05-02T05:37:32.484Z</time></trkpt><trkpt lat="43.1481474" lon="12.2769619"><ele>245.00000000000003</ele><time>2026-05-02T05:37:33.485Z</time></trkpt><trkpt lat="43.1480657" lon="12.276951"><ele>245.0</ele><time>2026-05-02T05:37:34.489Z</time></trkpt><trkpt lat="43.1479799" lon="12.2769461"><ele>245.0</ele><time>2026-05-02T05:37:35.49Z</time></trkpt><trkpt lat="43.1478881" lon="12.27692"><ele>245.0</ele><time>2026-05-02T05:37:36.486Z</time></trkpt><trkpt lat="43.1477999" lon="12.2768908"><ele>245.00000000000003</ele><time>2026-05-02T05:37:37.484Z</time></trkpt><trkpt lat="43.1477422" lon="12.2768405"><ele>245.0</ele><time>2026-05-02T05:37:38.488Z</time></trkpt><trkpt lat="43.1476902" lon="12.2767832"><ele>245.0</ele><time>2026-05-02T05:37:39.487Z</time></trkpt><trkpt lat="43.1476467" lon="12.2767009"><ele>245.0</ele><time>2026-05-02T05:37:40.492Z</time></trkpt><trkpt lat="43.1476115" lon="12.2765858"><ele>245.0</ele><time>2026-05-02T05:37:41.484Z</time></trkpt><trkpt lat="43.147581" lon="12.2764432"><ele>245.0</ele><time>2026-05-02T05:37:42.481Z</time></trkpt><trkpt lat="43.14753" lon="12.2762914"><ele>245.0</ele><time>2026-05-02T05:37:43.484Z</time></trkpt><trkpt lat="43.1474789" lon="12.2761329"><ele>245.25</ele><time>2026-05-02T05:37:44.486Z</time></trkpt><trkpt lat="43.1474269" lon="12.2759744"><ele>245.5</ele><time>2026-05-02T05:37:45.484Z</time></trkpt><trkpt lat="43.1473743" lon="12.2758124"><ele>245.75</ele><time>2026-05-02T05:37:46.489Z</time></trkpt><trkpt lat="43.1473228" lon="12.2756448"><ele>246.0</ele><time>2026-05-02T05:37:47.487Z</time></trkpt><trkpt lat="43.1472738" lon="12.275474"><ele>246.0</ele><time>2026-05-02T05:37:48.482Z</time></trkpt><trkpt lat="43.1472292" lon="12.2753035"><ele>246.00000000000003</ele><time>2026-05-02T05:37:49.487Z</time></trkpt><trkpt lat="43.1471906" lon="12.2751744"><ele>246.00000000000003</ele><time>2026-05-02T05:37:50.487Z</time></trkpt><trkpt lat="43.1471489" lon="12.2750637"><ele>246.0</ele><time>2026-05-02T05:37:51.49Z</time></trkpt><trkpt lat="43.1470949" lon="12.2749809"><ele>246.0</ele><time>2026-05-02T05:37:52.482Z</time></trkpt><trkpt lat="43.1470232" lon="12.2749178"><ele>246.0</ele><time>2026-05-02T05:37:53.481Z</time></trkpt><trkpt lat="43.1469282" lon="12.2748928"><ele>246.00000000000003</ele><time>2026-05-02T05:37:54.492Z</time></trkpt><trkpt lat="43.1468257" lon="12.2748945"><ele>246.00000000000003</ele><time>2026-05-02T05:37:55.495Z</time></trkpt><trkpt lat="43.1467102" lon="12.274924"><ele>246.0</ele><time>2026-05-02T05:37:56.493Z</time></trkpt><trkpt lat="43.1466039" lon="12.2749486"><ele>246.0</ele><time>2026-05-02T05:37:57.49Z</time></trkpt><trkpt lat="43.1464955" lon="12.2749472"><ele>245.25</ele><time>2026-05-02T05:37:58.49Z</time></trkpt><trkpt lat="43.1463884" lon="12.274936"><ele>244.5</ele><time>2026-05-02T05:37:59.487Z</time></trkpt><trkpt lat="43.1462809" lon="12.2749273"><ele>243.75</ele><time>2026-05-02T05:38:00.489Z</time></trkpt><trkpt lat="43.1461572" lon="12.2749039"><ele>243.0</ele><time>2026-05-02T05:38:01.489Z</time></trkpt><trkpt lat="43.14604" lon="12.2748758"><ele>243.0</ele><time>2026-05-02T05:38:02.485Z</time></trkpt><trkpt lat="43.1459163" lon="12.2748469"><ele>243.0</ele><time>2026-05-02T05:38:03.491Z</time></trkpt><trkpt lat="43.1458053" lon="12.2748163"><ele>243.0</ele><time>2026-05-02T05:38:04.486Z</time></trkpt><trkpt lat="43.1457035" lon="12.2747898"><ele>243.0</ele><time>2026-05-02T05:38:05.493Z</time></trkpt><trkpt lat="43.1456119" lon="12.2747442"><ele>243.0</ele><time>2026-05-02T05:38:06.488Z</time></trkpt><trkpt lat="43.1455236" lon="12.2746915"><ele>243.16666666666666</ele><time>2026-05-02T05:38:07.483Z</time></trkpt><trkpt lat="43.1454454" lon="12.2746243"><ele>243.33333333333331</ele><time>2026-05-02T05:38:08.487Z</time></trkpt><trkpt lat="43.1453822" lon="12.2745709"><ele>243.5</ele><time>2026-05-02T05:38:09.491Z</time></trkpt><trkpt lat="43.1453292" lon="12.2745119"><ele>243.66666666666666</ele><time>2026-05-02T05:38:10.495Z</time></trkpt><trkpt lat="43.145272" lon="12.2744416"><ele>243.83333333333331</ele><time>2026-05-02T05:38:11.49Z</time></trkpt><trkpt lat="43.1452136" lon="12.2743668"><ele>244.0</ele><time>2026-05-02T05:38:12.496Z</time></trkpt><trkpt lat="43.145159" lon="12.2742767"><ele>244.0</ele><time>2026-05-02T05:38:13.483Z</time></trkpt><trkpt lat="43.1451162" lon="12.274147"><ele>243.99999999999997</ele><time>2026-05-02T05:38:14.484Z</time></trkpt><trkpt lat="43.1450876" lon="12.2740229"><ele>243.99999999999997</ele><time>2026-05-02T05:38:15.482Z</time></trkpt><trkpt lat="43.1450713" lon="12.2738772"><ele>244.0</ele><time>2026-05-02T05:38:16.493Z</time></trkpt><trkpt lat="43.1450539" lon="12.273721"><ele>244.0</ele><time>2026-05-02T05:38:17.486Z</time></trkpt><trkpt lat="43.1450377" lon="12.2735629"><ele>245.0</ele><time>2026-05-02T05:38:18.496Z</time></trkpt><trkpt lat="43.1450255" lon="12.2734028"><ele>246.0</ele><time>2026-05-02T05:38:19.487Z</time></trkpt><trkpt lat="43.1450102" lon="12.273239"><ele>247.0</ele><time>2026-05-02T05:38:20.486Z</time></trkpt><trkpt lat="43.1449943" lon="12.273082"><ele>248.0</ele><time>2026-05-02T05:38:21.481Z</time></trkpt><trkpt lat="43.1449828" lon="12.2729264"><ele>248.4</ele><time>2026-05-02T05:38:22.491Z</time></trkpt><trkpt lat="43.1449678" lon="12.2727701"><ele>248.8</ele><time>2026-05-02T05:38:23.483Z</time></trkpt><trkpt lat="43.1449574" lon="12.2726176"><ele>249.2</ele><time>2026-05-02T05:38:24.484Z</time></trkpt><trkpt lat="43.144949" lon="12.2724732"><ele>249.6</ele><time>2026-05-02T05:38:25.496Z</time></trkpt><trkpt lat="43.144942" lon="12.2723244"><ele>250.0</ele><time>2026-05-02T05:38:26.482Z</time></trkpt><trkpt lat="43.1449372" lon="12.2721726"><ele>250.0</ele><time>2026-05-02T05:38:27.499Z</time></trkpt><trkpt lat="43.1449305" lon="12.2720247"><ele>250.0</ele><time>2026-05-02T05:38:28.484Z</time></trkpt><trkpt lat="43.1449324" lon="12.2718757"><ele>250.0</ele><time>2026-05-02T05:38:29.486Z</time></trkpt><trkpt lat="43.144933" lon="12.27173"><ele>250.0</ele><time>2026-05-02T05:38:30.483Z</time></trkpt><trkpt lat="43.1449507" lon="12.2716018"><ele>250.0</ele><time>2026-05-02T05:38:31.487Z</time></trkpt><trkpt lat="43.1449955" lon="12.2714657"><ele>249.4</ele><time>2026-05-02T05:38:32.49Z</time></trkpt><trkpt lat="43.1450518" lon="12.271323"><ele>248.8</ele><time>2026-05-02T05:38:33.49Z</time></trkpt><trkpt lat="43.1451114" lon="12.2711804"><ele>248.2</ele><time>2026-05-02T05:38:34.484Z</time></trkpt><trkpt lat="43.1451702" lon="12.271046"><ele>247.6</ele><time>2026-05-02T05:38:35.487Z</time></trkpt><trkpt lat="43.145214" lon="12.2709475"><ele>247.0</ele><time>2026-05-02T05:38:36.483Z</time></trkpt><trkpt lat="43.1452524" lon="12.2708459"><ele>247.0</ele><time>2026-05-02T05:38:37.492Z</time></trkpt><trkpt lat="43.145279" lon="12.2707156"><ele>247.0</ele><time>2026-05-02T05:38:38.486Z</time></trkpt><trkpt lat="43.1452976" lon="12.2705589"><ele>247.0</ele><time>2026-05-02T05:38:39.484Z</time></trkpt><trkpt lat="43.1453075" lon="12.2703838"><ele>247.0</ele><time>2026-05-02T05:38:40.483Z</time></trkpt><trkpt lat="43.1453125" lon="12.2701985"><ele>246.25</ele><time>2026-05-02T05:38:41.484Z</time></trkpt><trkpt lat="43.1453214" lon="12.2700204"><ele>245.5</ele><time>2026-05-02T05:38:42.488Z</time></trkpt><trkpt lat="43.1453322" lon="12.2698559"><ele>244.75</ele><time>2026-05-02T05:38:43.488Z</time></trkpt><trkpt lat="43.1453441" lon="12.2696958"><ele>244.0</ele><time>2026-05-02T05:38:44.485Z</time></trkpt><trkpt lat="43.1453567" lon="12.2695433"><ele>243.5</ele><time>2026-05-02T05:38:45.481Z</time></trkpt><trkpt lat="43.1453512" lon="12.2693942"><ele>243.0</ele><time>2026-05-02T05:38:46.488Z</time></trkpt><trkpt lat="43.145326" lon="12.2692405"><ele>242.5</ele><time>2026-05-02T05:38:47.49Z</time></trkpt><trkpt lat="43.1452767" lon="12.2690884"><ele>242.0</ele><time>2026-05-02T05:38:48.483Z</time></trkpt><trkpt lat="43.1452029" lon="12.2689506"><ele>241.75</ele><time>2026-05-02T05:38:49.481Z</time></trkpt><trkpt lat="43.1451062" lon="12.2688238"><ele>241.5</ele><time>2026-05-02T05:38:50.493Z</time></trkpt><trkpt lat="43.1449927" lon="12.2686956"><ele>241.25</ele><time>2026-05-02T05:38:51.483Z</time></trkpt><trkpt lat="43.1448756" lon="12.2685675"><ele>241.0</ele><time>2026-05-02T05:38:52.486Z</time></trkpt><trkpt lat="43.1447514" lon="12.2684407"><ele>240.33333333333331</ele><time>2026-05-02T05:38:53.485Z</time></trkpt><trkpt lat="43.1446155" lon="12.2683236"><ele>239.66666666666669</ele><time>2026-05-02T05:38:54.483Z</time></trkpt><trkpt lat="43.144479" lon="12.2682276"><ele>239.0</ele><time>2026-05-02T05:38:55.484Z</time></trkpt><trkpt lat="43.1443511" lon="12.2681384"><ele>239.0</ele><time>2026-05-02T05:38:56.485Z</time></trkpt><trkpt lat="43.1442255" lon="12.2680356"><ele>239.0</ele><time>2026-05-02T05:38:57.489Z</time></trkpt><trkpt lat="43.1441066" lon="12.2679015"><ele>239.0</ele><time>2026-05-02T05:38:58.487Z</time></trkpt><trkpt lat="43.1439994" lon="12.2677418"><ele>239.33333333333334</ele><time>2026-05-02T05:38:59.483Z</time></trkpt><trkpt lat="43.1438898" lon="12.2675808"><ele>239.66666666666669</ele><time>2026-05-02T05:39:00.484Z</time></trkpt><trkpt lat="43.1437873" lon="12.2674279"><ele>240.0</ele><time>2026-05-02T05:39:01.49Z</time></trkpt><trkpt lat="43.1436901" lon="12.2672866"><ele>240.5</ele><time>2026-05-02T05:39:02.485Z</time></trkpt><trkpt lat="43.143596" lon="12.2671571"><ele>241.0</ele><time>2026-05-02T05:39:03.483Z</time></trkpt><trkpt lat="43.1434985" lon="12.2670526"><ele>241.5</ele><time>2026-05-02T05:39:04.485Z</time></trkpt><trkpt lat="43.1433964" lon="12.2669849"><ele>242.0</ele><time>2026-05-02T05:39:05.484Z</time></trkpt><trkpt lat="43.1432867" lon="12.2669645"><ele>241.75</ele><time>2026-05-02T05:39:06.486Z</time></trkpt><trkpt lat="43.1431703" lon="12.2669812"><ele>241.5</ele><time>2026-05-02T05:39:07.488Z</time></trkpt><trkpt lat="43.1430437" lon="12.2669863"><ele>241.25</ele><time>2026-05-02T05:39:08.492Z</time></trkpt><trkpt lat="43.1429076" lon="12.2669762"><ele>241.0</ele><time>2026-05-02T05:39:09.484Z</time></trkpt><trkpt lat="43.1427641" lon="12.2669551"><ele>241.0</ele><time>2026-05-02T05:39:10.488Z</time></trkpt><trkpt lat="43.1426189" lon="12.2669231"><ele>241.0</ele><time>2026-05-02T05:39:11.493Z</time></trkpt><trkpt lat="43.1424765" lon="12.266892"><ele>241.0</ele><time>2026-05-02T05:39:12.491Z</time></trkpt><trkpt lat="43.142346" lon="12.2668558"><ele>241.0</ele><time>2026-05-02T05:39:13.494Z</time></trkpt><trkpt lat="43.1422551" lon="12.2668384"><ele>240.25</ele><time>2026-05-02T05:39:14.483Z</time></trkpt><trkpt lat="43.1421641" lon="12.2668341"><ele>239.5</ele><time>2026-05-02T05:39:15.489Z</time></trkpt><trkpt lat="43.1420526" lon="12.2669753"><ele>238.75</ele><time>2026-05-02T05:39:18.495Z</time></trkpt><trkpt lat="43.1419742" lon="12.2670611"><ele>238.0</ele><time>2026-05-02T05:39:19.499Z</time></trkpt><trkpt lat="43.1418844" lon="12.267169"><ele>238.25</ele><time>2026-05-02T05:39:20.499Z</time></trkpt><trkpt lat="43.1417863" lon="12.2672913"><ele>238.5</ele><time>2026-05-02T05:39:21.484Z</time></trkpt><trkpt lat="43.1416839" lon="12.2674241"><ele>238.75</ele><time>2026-05-02T05:39:22.481Z</time></trkpt><trkpt lat="43.1415777" lon="12.2675702"><ele>239.0</ele><time>2026-05-02T05:39:23.482Z</time></trkpt><trkpt lat="43.1414671" lon="12.2677171"><ele>239.33333333333334</ele><time>2026-05-02T05:39:24.486Z</time></trkpt><trkpt lat="43.1413532" lon="12.2678662"><ele>239.66666666666669</ele><time>2026-05-02T05:39:25.486Z</time></trkpt><trkpt lat="43.14124" lon="12.2680146"><ele>240.0</ele><time>2026-05-02T05:39:26.496Z</time></trkpt><trkpt lat="43.1411239" lon="12.2681625"><ele>239.33333333333331</ele><time>2026-05-02T05:39:27.491Z</time></trkpt><trkpt lat="43.1409979" lon="12.2683141"><ele>238.66666666666666</ele><time>2026-05-02T05:39:28.487Z</time></trkpt><trkpt lat="43.1408697" lon="12.2684687"><ele>238.0</ele><time>2026-05-02T05:39:29.491Z</time></trkpt><trkpt lat="43.1407508" lon="12.2686404"><ele>238.0</ele><time>2026-05-02T05:39:30.488Z</time></trkpt><trkpt lat="43.1406474" lon="12.2688174"><ele>238.0</ele><time>2026-05-02T05:39:31.49Z</time></trkpt><trkpt lat="43.140562" lon="12.2690104"><ele>238.0</ele><time>2026-05-02T05:39:32.49Z</time></trkpt><trkpt lat="43.1404825" lon="12.2691965"><ele>238.0</ele><time>2026-05-02T05:39:33.492Z</time></trkpt><trkpt lat="43.1403903" lon="12.269382"><ele>238.0</ele><time>2026-05-02T05:39:34.491Z</time></trkpt><trkpt lat="43.1402997" lon="12.2695608"><ele>238.0</ele><time>2026-05-02T05:39:35.487Z</time></trkpt><trkpt lat="43.1402197" lon="12.2697243"><ele>238.25</ele><time>2026-05-02T05:39:36.491Z</time></trkpt><trkpt lat="43.1401452" lon="12.269889"><ele>238.5</ele><time>2026-05-02T05:39:37.493Z</time></trkpt><trkpt lat="43.1400761" lon="12.2700487"><ele>238.75</ele><time>2026-05-02T05:39:38.484Z</time></trkpt><trkpt lat="43.1400153" lon="12.2701772"><ele>239.0</ele><time>2026-05-02T05:39:39.485Z</time></trkpt><trkpt lat="43.1399641" lon="12.2702655"><ele>239.0</ele><time>2026-05-02T05:39:40.486Z</time></trkpt><trkpt lat="43.1398963" lon="12.2703136"><ele>238.99999999999997</ele><time>2026-05-02T05:39:41.495Z</time></trkpt><trkpt lat="43.1398141" lon="12.2703122"><ele>238.99999999999997</ele><time>2026-05-02T05:39:42.487Z</time></trkpt><trkpt lat="43.1397129" lon="12.2702624"><ele>239.0</ele><time>2026-05-02T05:39:43.484Z</time></trkpt><trkpt lat="43.1396109" lon="12.2701708"><ele>239.0</ele><time>2026-05-02T05:39:44.489Z</time></trkpt><trkpt lat="43.139501" lon="12.2700523"><ele>238.66666666666669</ele><time>2026-05-02T05:39:45.494Z</time></trkpt><trkpt lat="43.1393787" lon="12.2699241"><ele>238.33333333333331</ele><time>2026-05-02T05:39:46.483Z</time></trkpt><trkpt lat="43.1392573" lon="12.2697963"><ele>238.0</ele><time>2026-05-02T05:39:47.499Z</time></trkpt><trkpt lat="43.1391329" lon="12.2696643"><ele>237.33333333333331</ele><time>2026-05-02T05:39:48.494Z</time></trkpt><trkpt lat="43.1390055" lon="12.2695296"><ele>236.66666666666669</ele><time>2026-05-02T05:39:49.481Z</time></trkpt><trkpt lat="43.1388771" lon="12.2693909"><ele>236.0</ele><time>2026-05-02T05:39:50.485Z</time></trkpt><trkpt lat="43.1387467" lon="12.2692464"><ele>236.0</ele><time>2026-05-02T05:39:51.482Z</time></trkpt><trkpt lat="43.1386176" lon="12.2690934"><ele>236.0</ele><time>2026-05-02T05:39:52.493Z</time></trkpt><trkpt lat="43.1384936" lon="12.2689302"><ele>236.0</ele><time>2026-05-02T05:39:53.488Z</time></trkpt><trkpt lat="43.138374" lon="12.2687584"><ele>236.0</ele><time>2026-05-02T05:39:54.482Z</time></trkpt><trkpt lat="43.138256" lon="12.2685886"><ele>236.0</ele><time>2026-05-02T05:39:55.486Z</time></trkpt><trkpt lat="43.1381405" lon="12.2684091"><ele>236.0</ele><time>2026-05-02T05:39:56.487Z</time></trkpt><trkpt lat="43.1380292" lon="12.2682259"><ele>236.33333333333334</ele><time>2026-05-02T05:39:57.493Z</time></trkpt><trkpt lat="43.137921" lon="12.2680391"><ele>236.66666666666669</ele><time>2026-05-02T05:39:58.488Z</time></trkpt><trkpt lat="43.1378162" lon="12.26784"><ele>237.0</ele><time>2026-05-02T05:39:59.483Z</time></trkpt><trkpt lat="43.1377101" lon="12.2676423"><ele>237.0</ele><time>2026-05-02T05:40:00.487Z</time></trkpt><trkpt lat="43.1376061" lon="12.2674455"><ele>237.0</ele><time>2026-05-02T05:40:01.489Z</time></trkpt><trkpt lat="43.1375012" lon="12.2672451"><ele>237.0</ele><time>2026-05-02T05:40:02.48Z</time></trkpt><trkpt lat="43.1373969" lon="12.2670448"><ele>236.0</ele><time>2026-05-02T05:40:03.484Z</time></trkpt><trkpt lat="43.1372936" lon="12.2668445"><ele>235.0</ele><time>2026-05-02T05:40:04.485Z</time></trkpt><trkpt lat="43.1371909" lon="12.2666436"><ele>234.0</ele><time>2026-05-02T05:40:05.481Z</time></trkpt><trkpt lat="43.1370841" lon="12.2664399"><ele>234.0</ele><time>2026-05-02T05:40:06.486Z</time></trkpt><trkpt lat="43.1369789" lon="12.2662407"><ele>234.0</ele><time>2026-05-02T05:40:07.484Z</time></trkpt><trkpt lat="43.1368711" lon="12.2660448"><ele>234.0</ele><time>2026-05-02T05:40:08.483Z</time></trkpt><trkpt lat="43.1367629" lon="12.265845"><ele>234.0</ele><time>2026-05-02T05:40:09.492Z</time></trkpt><trkpt lat="43.1366573" lon="12.2656439"><ele>234.0</ele><time>2026-05-02T05:40:10.487Z</time></trkpt><trkpt lat="43.136552" lon="12.2654482"><ele>234.0</ele><time>2026-05-02T05:40:11.485Z</time></trkpt><trkpt lat="43.1364484" lon="12.265247"><ele>233.66666666666669</ele><time>2026-05-02T05:40:12.484Z</time></trkpt><trkpt lat="43.1363435" lon="12.2650467"><ele>233.33333333333334</ele><time>2026-05-02T05:40:13.494Z</time></trkpt><trkpt lat="43.1362382" lon="12.2648537"><ele>233.0</ele><time>2026-05-02T05:40:14.483Z</time></trkpt><trkpt lat="43.1361326" lon="12.2646598"><ele>233.0</ele><time>2026-05-02T05:40:15.49Z</time></trkpt><trkpt lat="43.1360298" lon="12.2644696"><ele>233.0</ele><time>2026-05-02T05:40:16.489Z</time></trkpt><trkpt lat="43.1359314" lon="12.2642819"><ele>233.0</ele><time>2026-05-02T05:40:17.49Z</time></trkpt><trkpt lat="43.1358382" lon="12.2641084"><ele>233.0</ele><time>2026-05-02T05:40:18.497Z</time></trkpt><trkpt lat="43.1357611" lon="12.2639513"><ele>233.0</ele><time>2026-05-02T05:40:19.486Z</time></trkpt><trkpt lat="43.1356977" lon="12.2638107"><ele>233.0</ele><time>2026-05-02T05:40:20.485Z</time></trkpt><trkpt lat="43.1356515" lon="12.2636642"><ele>233.0</ele><time>2026-05-02T05:40:21.491Z</time></trkpt><trkpt lat="43.1356337" lon="12.2634954"><ele>233.25</ele><time>2026-05-02T05:40:22.487Z</time></trkpt><trkpt lat="43.1356284" lon="12.2633357"><ele>233.5</ele><time>2026-05-02T05:40:23.483Z</time></trkpt><trkpt lat="43.1356107" lon="12.2631811"><ele>233.75</ele><time>2026-05-02T05:40:24.49Z</time></trkpt><trkpt lat="43.1355722" lon="12.2630245"><ele>234.0</ele><time>2026-05-02T05:40:25.487Z</time></trkpt><trkpt lat="43.1355031" lon="12.2628841"><ele>234.0</ele><time>2026-05-02T05:40:26.488Z</time></trkpt><trkpt lat="43.1354088" lon="12.2627732"><ele>234.0</ele><time>2026-05-02T05:40:27.492Z</time></trkpt><trkpt lat="43.1353002" lon="12.2626972"><ele>234.0</ele><time>2026-05-02T05:40:28.484Z</time></trkpt><trkpt lat="43.135192" lon="12.2626689"><ele>234.0</ele><time>2026-05-02T05:40:29.489Z</time></trkpt><trkpt lat="43.1350984" lon="12.2626951"><ele>234.0</ele><time>2026-05-02T05:40:30.491Z</time></trkpt><trkpt lat="43.1350282" lon="12.2627756"><ele>233.99999999999997</ele><time>2026-05-02T05:40:31.487Z</time></trkpt><trkpt lat="43.1349886" lon="12.2628885"><ele>233.99999999999997</ele><time>2026-05-02T05:40:32.487Z</time></trkpt><trkpt lat="43.1349749" lon="12.263025"><ele>234.0</ele><time>2026-05-02T05:40:33.485Z</time></trkpt><trkpt lat="43.1349564" lon="12.2631701"><ele>234.0</ele><time>2026-05-02T05:40:34.489Z</time></trkpt><trkpt lat="43.1349096" lon="12.2632996"><ele>234.25</ele><time>2026-05-02T05:40:35.498Z</time></trkpt><trkpt lat="43.1348367" lon="12.2634017"><ele>234.5</ele><time>2026-05-02T05:40:36.487Z</time></trkpt><trkpt lat="43.1347409" lon="12.2634636"><ele>234.75</ele><time>2026-05-02T05:40:37.488Z</time></trkpt><trkpt lat="43.13463" lon="12.2634769"><ele>235.0</ele><time>2026-05-02T05:40:38.487Z</time></trkpt><trkpt lat="43.1345015" lon="12.2634482"><ele>235.0</ele><time>2026-05-02T05:40:39.486Z</time></trkpt><trkpt lat="43.1343636" lon="12.2633851"><ele>235.0</ele><time>2026-05-02T05:40:40.488Z</time></trkpt><trkpt lat="43.1342187" lon="12.2633088"><ele>235.0</ele><time>2026-05-02T05:40:41.483Z</time></trkpt><trkpt lat="43.1340754" lon="12.263222"><ele>235.0</ele><time>2026-05-02T05:40:42.495Z</time></trkpt><trkpt lat="43.1339264" lon="12.2631209"><ele>235.0</ele><time>2026-05-02T05:40:43.49Z</time></trkpt><trkpt lat="43.1337742" lon="12.263009"><ele>235.0</ele><time>2026-05-02T05:40:44.487Z</time></trkpt><trkpt lat="43.133622" lon="12.2628852"><ele>235.33333333333331</ele><time>2026-05-02T05:40:45.489Z</time></trkpt><trkpt lat="43.1334732" lon="12.2627485"><ele>235.66666666666669</ele><time>2026-05-02T05:40:46.489Z</time></trkpt><trkpt lat="43.1333297" lon="12.2626074"><ele>236.0</ele><time>2026-05-02T05:40:47.491Z</time></trkpt><trkpt lat="43.1331877" lon="12.2624723"><ele>236.0</ele><time>2026-05-02T05:40:48.49Z</time></trkpt><trkpt lat="43.1330603" lon="12.2623425"><ele>236.0</ele><time>2026-05-02T05:40:49.487Z</time></trkpt><trkpt lat="43.1329345" lon="12.2622134"><ele>236.0</ele><time>2026-05-02T05:40:50.484Z</time></trkpt><trkpt lat="43.1328289" lon="12.2621077"><ele>236.0</ele><time>2026-05-02T05:40:51.485Z</time></trkpt><trkpt lat="43.1327541" lon="12.2620017"><ele>235.5</ele><time>2026-05-02T05:40:52.487Z</time></trkpt><trkpt lat="43.1327002" lon="12.2618752"><ele>235.0</ele><time>2026-05-02T05:40:53.49Z</time></trkpt><trkpt lat="43.132672" lon="12.2617214"><ele>234.5</ele><time>2026-05-02T05:40:54.487Z</time></trkpt><trkpt lat="43.1326479" lon="12.2615515"><ele>234.0</ele><time>2026-05-02T05:40:55.492Z</time></trkpt><trkpt lat="43.1326214" lon="12.26139"><ele>234.0</ele><time>2026-05-02T05:40:56.484Z</time></trkpt><trkpt lat="43.1325687" lon="12.2612725"><ele>233.99999999999997</ele><time>2026-05-02T05:40:57.488Z</time></trkpt><trkpt lat="43.1324941" lon="12.2611967"><ele>233.99999999999997</ele><time>2026-05-02T05:40:58.489Z</time></trkpt><trkpt lat="43.1324089" lon="12.2611794"><ele>234.0</ele><time>2026-05-02T05:40:59.484Z</time></trkpt><trkpt lat="43.1323243" lon="12.2612132"><ele>234.0</ele><time>2026-05-02T05:41:00.491Z</time></trkpt><trkpt lat="43.1322469" lon="12.2612968"><ele>234.25</ele><time>2026-05-02T05:41:01.495Z</time></trkpt><trkpt lat="43.1321869" lon="12.2614142"><ele>234.5</ele><time>2026-05-02T05:41:02.499Z</time></trkpt><trkpt lat="43.1321422" lon="12.2615631"><ele>234.75</ele><time>2026-05-02T05:41:03.483Z</time></trkpt><trkpt lat="43.1321201" lon="12.2617247"><ele>235.0</ele><time>2026-05-02T05:41:04.492Z</time></trkpt><trkpt lat="43.1321287" lon="12.2618965"><ele>235.0</ele><time>2026-05-02T05:41:05.487Z</time></trkpt><trkpt lat="43.1321616" lon="12.2620686"><ele>235.0</ele><time>2026-05-02T05:41:06.488Z</time></trkpt><trkpt lat="43.1321919" lon="12.2622454"><ele>235.0</ele><time>2026-05-02T05:41:07.488Z</time></trkpt><trkpt lat="43.1321991" lon="12.2624274"><ele>235.0</ele><time>2026-05-02T05:41:08.489Z</time></trkpt><trkpt lat="43.1321781" lon="12.2626176"><ele>235.25</ele><time>2026-05-02T05:41:09.487Z</time></trkpt><trkpt lat="43.1321359" lon="12.2628079"><ele>235.5</ele><time>2026-05-02T05:41:10.49Z</time></trkpt><trkpt lat="43.1320816" lon="12.2629991"><ele>235.75</ele><time>2026-05-02T05:41:11.498Z</time></trkpt><trkpt lat="43.1320209" lon="12.263188"><ele>236.0</ele><time>2026-05-02T05:41:12.487Z</time></trkpt><trkpt lat="43.1319566" lon="12.2633761"><ele>236.4</ele><time>2026-05-02T05:41:13.499Z</time></trkpt><trkpt lat="43.1318984" lon="12.2635412"><ele>236.8</ele><time>2026-05-02T05:41:14.486Z</time></trkpt><trkpt lat="43.1318417" lon="12.2636773"><ele>237.20000000000002</ele><time>2026-05-02T05:41:15.485Z</time></trkpt><trkpt lat="43.1317932" lon="12.2637695"><ele>237.60000000000002</ele><time>2026-05-02T05:41:16.488Z</time></trkpt><trkpt lat="43.131691" lon="12.2638345"><ele>238.0</ele><time>2026-05-02T05:41:18.483Z</time></trkpt><trkpt lat="43.131585" lon="12.2638465"><ele>240.0</ele><time>2026-05-02T05:41:19.497Z</time></trkpt><trkpt lat="43.1314839" lon="12.2638854"><ele>242.0</ele><time>2026-05-02T05:41:20.483Z</time></trkpt><trkpt lat="43.1313741" lon="12.2639335"><ele>244.0</ele><time>2026-05-02T05:41:21.487Z</time></trkpt><trkpt lat="43.1312585" lon="12.2639775"><ele>246.0</ele><time>2026-05-02T05:41:22.483Z</time></trkpt><trkpt lat="43.1311384" lon="12.2640232"><ele>247.25</ele><time>2026-05-02T05:41:23.484Z</time></trkpt><trkpt lat="43.1310185" lon="12.2640697"><ele>248.5</ele><time>2026-05-02T05:41:24.483Z</time></trkpt><trkpt lat="43.1309033" lon="12.2641182"><ele>249.75</ele><time>2026-05-02T05:41:25.49Z</time></trkpt><trkpt lat="43.1307924" lon="12.2641528"><ele>251.0</ele><time>2026-05-02T05:41:26.499Z</time></trkpt><trkpt lat="43.1306906" lon="12.2641802"><ele>251.60000000000002</ele><time>2026-05-02T05:41:27.486Z</time></trkpt><trkpt lat="43.1305998" lon="12.2641867"><ele>252.20000000000002</ele><time>2026-05-02T05:41:28.484Z</time></trkpt><trkpt lat="43.1305256" lon="12.2641641"><ele>252.79999999999998</ele><time>2026-05-02T05:41:29.486Z</time></trkpt><trkpt lat="43.1304472" lon="12.2641218"><ele>253.39999999999998</ele><time>2026-05-02T05:41:30.484Z</time></trkpt><trkpt lat="43.1303603" lon="12.2640161"><ele>254.0</ele><time>2026-05-02T05:41:31.488Z</time></trkpt><trkpt lat="43.130268" lon="12.2639322"><ele>254.0</ele><time>2026-05-02T05:41:32.487Z</time></trkpt><trkpt lat="43.1301612" lon="12.2638551"><ele>254.0</ele><time>2026-05-02T05:41:33.487Z</time></trkpt><trkpt lat="43.1300441" lon="12.2638055"><ele>254.0</ele><time>2026-05-02T05:41:34.485Z</time></trkpt><trkpt lat="43.1299276" lon="12.2637782"><ele>254.0</ele><time>2026-05-02T05:41:35.483Z</time></trkpt><trkpt lat="43.1298093" lon="12.2637709"><ele>255.75</ele><time>2026-05-02T05:41:36.488Z</time></trkpt><trkpt lat="43.1296954" lon="12.263765"><ele>257.5</ele><time>2026-05-02T05:41:37.485Z</time></trkpt><trkpt lat="43.1295847" lon="12.2637572"><ele>259.25</ele><time>2026-05-02T05:41:38.486Z</time></trkpt><trkpt lat="43.1294706" lon="12.2637434"><ele>261.0</ele><time>2026-05-02T05:41:39.487Z</time></trkpt><trkpt lat="43.1293537" lon="12.263735"><ele>261.0</ele><time>2026-05-02T05:41:40.483Z</time></trkpt><trkpt lat="43.1292311" lon="12.263727"><ele>261.0</ele><time>2026-05-02T05:41:41.483Z</time></trkpt><trkpt lat="43.1291042" lon="12.2637204"><ele>261.0</ele><time>2026-05-02T05:41:42.492Z</time></trkpt><trkpt lat="43.1289777" lon="12.2637133"><ele>261.0</ele><time>2026-05-02T05:41:43.488Z</time></trkpt><trkpt lat="43.1288482" lon="12.2637113"><ele>260.25</ele><time>2026-05-02T05:41:44.487Z</time></trkpt><trkpt lat="43.1287121" lon="12.2637062"><ele>259.5</ele><time>2026-05-02T05:41:45.491Z</time></trkpt><trkpt lat="43.1285956" lon="12.2636685"><ele>258.75</ele><time>2026-05-02T05:41:46.486Z</time></trkpt><trkpt lat="43.1284621" lon="12.2636284"><ele>258.0</ele><time>2026-05-02T05:41:47.484Z</time></trkpt><trkpt lat="43.1283453" lon="12.2635802"><ele>258.0</ele><time>2026-05-02T05:41:48.485Z</time></trkpt><trkpt lat="43.1282359" lon="12.2635147"><ele>258.0</ele><time>2026-05-02T05:41:49.489Z</time></trkpt><trkpt lat="43.1281215" lon="12.2634366"><ele>258.0</ele><time>2026-05-02T05:41:50.486Z</time></trkpt><trkpt lat="43.1280158" lon="12.2633419"><ele>258.0</ele><time>2026-05-02T05:41:51.489Z</time></trkpt><trkpt lat="43.127906" lon="12.2632374"><ele>259.0</ele><time>2026-05-02T05:41:52.49Z</time></trkpt><trkpt lat="43.1277956" lon="12.2631319"><ele>260.0</ele><time>2026-05-02T05:41:53.488Z</time></trkpt><trkpt lat="43.127686" lon="12.263022"><ele>261.0</ele><time>2026-05-02T05:41:54.49Z</time></trkpt><trkpt lat="43.1275779" lon="12.2629111"><ele>262.0</ele><time>2026-05-02T05:41:55.486Z</time></trkpt><trkpt lat="43.1274742" lon="12.2627988"><ele>262.0</ele><time>2026-05-02T05:41:56.488Z</time></trkpt><trkpt lat="43.1273706" lon="12.2626879"><ele>262.0</ele><time>2026-05-02T05:41:57.496Z</time></trkpt><trkpt lat="43.1272649" lon="12.262579"><ele>262.0</ele><time>2026-05-02T05:41:58.484Z</time></trkpt><trkpt lat="43.1271609" lon="12.262472"><ele>262.0</ele><time>2026-05-02T05:41:59.488Z</time></trkpt><trkpt lat="43.1270558" lon="12.2623631"><ele>260.25</ele><time>2026-05-02T05:42:00.484Z</time></trkpt><trkpt lat="43.1269518" lon="12.2622548"><ele>258.5</ele><time>2026-05-02T05:42:01.484Z</time></trkpt><trkpt lat="43.1268503" lon="12.2621448"><ele>256.75</ele><time>2026-05-02T05:42:02.499Z</time></trkpt><trkpt lat="43.1267509" lon="12.2620419"><ele>255.0</ele><time>2026-05-02T05:42:03.486Z</time></trkpt><trkpt lat="43.1266473" lon="12.2619471"><ele>255.75</ele><time>2026-05-02T05:42:04.487Z</time></trkpt><trkpt lat="43.1265368" lon="12.2618677"><ele>256.5</ele><time>2026-05-02T05:42:05.48Z</time></trkpt><trkpt lat="43.1264198" lon="12.2617994"><ele>257.25</ele><time>2026-05-02T05:42:06.48Z</time></trkpt><trkpt lat="43.1262997" lon="12.2617372"><ele>258.0</ele><time>2026-05-02T05:42:07.483Z</time></trkpt><trkpt lat="43.1261845" lon="12.261665"><ele>258.0</ele><time>2026-05-02T05:42:08.484Z</time></trkpt><trkpt lat="43.1260652" lon="12.261586"><ele>258.0</ele><time>2026-05-02T05:42:09.483Z</time></trkpt><trkpt lat="43.1259399" lon="12.2615021"><ele>258.0</ele><time>2026-05-02T05:42:10.494Z</time></trkpt><trkpt lat="43.1258184" lon="12.2614127"><ele>258.0</ele><time>2026-05-02T05:42:11.487Z</time></trkpt><trkpt lat="43.1256979" lon="12.2613191"><ele>258.75</ele><time>2026-05-02T05:42:12.485Z</time></trkpt><trkpt lat="43.1255799" lon="12.2612253"><ele>259.5</ele><time>2026-05-02T05:42:13.49Z</time></trkpt><trkpt lat="43.1254644" lon="12.2611281"><ele>260.25</ele><time>2026-05-02T05:42:14.485Z</time></trkpt><trkpt lat="43.1253557" lon="12.2610307"><ele>261.0</ele><time>2026-05-02T05:42:15.485Z</time></trkpt><trkpt lat="43.1252714" lon="12.2609388"><ele>261.0</ele><time>2026-05-02T05:42:16.483Z</time></trkpt><trkpt lat="43.1252176" lon="12.2608555"><ele>261.0</ele><time>2026-05-02T05:42:17.487Z</time></trkpt><trkpt lat="43.1251891" lon="12.2607671"><ele>261.0</ele><time>2026-05-02T05:42:18.486Z</time></trkpt><trkpt lat="43.1251792" lon="12.2606492"><ele>261.0</ele><time>2026-05-02T05:42:19.491Z</time></trkpt><trkpt lat="43.1251718" lon="12.2605104"><ele>261.0</ele><time>2026-05-02T05:42:20.484Z</time></trkpt><trkpt lat="43.1251526" lon="12.260364"><ele>261.0</ele><time>2026-05-02T05:42:21.49Z</time></trkpt><trkpt lat="43.1251194" lon="12.2602269"><ele>260.8</ele><time>2026-05-02T05:42:22.49Z</time></trkpt><trkpt lat="43.125078" lon="12.2601022"><ele>260.6</ele><time>2026-05-02T05:42:23.486Z</time></trkpt><trkpt lat="43.1250277" lon="12.25998"><ele>260.4</ele><time>2026-05-02T05:42:24.494Z</time></trkpt><trkpt lat="43.1249671" lon="12.2598549"><ele>260.2</ele><time>2026-05-02T05:42:25.488Z</time></trkpt><trkpt lat="43.1248966" lon="12.259728"><ele>260.0</ele><time>2026-05-02T05:42:26.487Z</time></trkpt><trkpt lat="43.124816" lon="12.2595982"><ele>261.0</ele><time>2026-05-02T05:42:27.487Z</time></trkpt><trkpt lat="43.124728" lon="12.259471"><ele>262.0</ele><time>2026-05-02T05:42:28.483Z</time></trkpt><trkpt lat="43.1246362" lon="12.2593446"><ele>263.0</ele><time>2026-05-02T05:42:29.484Z</time></trkpt><trkpt lat="43.1245495" lon="12.2592152"><ele>264.0</ele><time>2026-05-02T05:42:30.482Z</time></trkpt><trkpt lat="43.1244689" lon="12.2590767"><ele>263.0</ele><time>2026-05-02T05:42:31.49Z</time></trkpt><trkpt lat="43.1243926" lon="12.2589335"><ele>262.0</ele><time>2026-05-02T05:42:32.486Z</time></trkpt><trkpt lat="43.1243189" lon="12.258781"><ele>261.0</ele><time>2026-05-02T05:42:33.489Z</time></trkpt><trkpt lat="43.1242515" lon="12.2586279"><ele>260.0</ele><time>2026-05-02T05:42:34.489Z</time></trkpt><trkpt lat="43.1241934" lon="12.2584829"><ele>260.0</ele><time>2026-05-02T05:42:35.487Z</time></trkpt><trkpt lat="43.1241444" lon="12.2583366"><ele>260.0</ele><time>2026-05-02T05:42:36.484Z</time></trkpt><trkpt lat="43.1241173" lon="12.2581827"><ele>260.0</ele><time>2026-05-02T05:42:37.484Z</time></trkpt><trkpt lat="43.1241002" lon="12.2580283"><ele>260.0</ele><time>2026-05-02T05:42:38.49Z</time></trkpt><trkpt lat="43.1240735" lon="12.2578905"><ele>259.8</ele><time>2026-05-02T05:42:39.482Z</time></trkpt><trkpt lat="43.1240298" lon="12.2577637"><ele>259.6</ele><time>2026-05-02T05:42:40.491Z</time></trkpt><trkpt lat="43.1239734" lon="12.2576448"><ele>259.4</ele><time>2026-05-02T05:42:41.485Z</time></trkpt><trkpt lat="43.1239052" lon="12.257528"><ele>259.2</ele><time>2026-05-02T05:42:42.498Z</time></trkpt><trkpt lat="43.1238301" lon="12.2574089"><ele>259.0</ele><time>2026-05-02T05:42:43.485Z</time></trkpt><trkpt lat="43.1237523" lon="12.2572807"><ele>259.0</ele><time>2026-05-02T05:42:44.488Z</time></trkpt><trkpt lat="43.1236781" lon="12.2571451"><ele>259.0</ele><time>2026-05-02T05:42:45.491Z</time></trkpt><trkpt lat="43.1236114" lon="12.2570073"><ele>259.0</ele><time>2026-05-02T05:42:46.486Z</time></trkpt><trkpt lat="43.1235521" lon="12.2568719"><ele>259.0</ele><time>2026-05-02T05:42:47.491Z</time></trkpt><trkpt lat="43.1234987" lon="12.2567459"><ele>259.0</ele><time>2026-05-02T05:42:48.483Z</time></trkpt><trkpt lat="43.1234515" lon="12.2566195"><ele>259.0</ele><time>2026-05-02T05:42:49.482Z</time></trkpt><trkpt lat="43.1234223" lon="12.2564759"><ele>259.0</ele><time>2026-05-02T05:42:50.491Z</time></trkpt><trkpt lat="43.1234129" lon="12.2563143"><ele>259.0</ele><time>2026-05-02T05:42:51.486Z</time></trkpt><trkpt lat="43.1234169" lon="12.2561432"><ele>258.75</ele><time>2026-05-02T05:42:52.484Z</time></trkpt><trkpt lat="43.1234229" lon="12.2559799"><ele>258.5</ele><time>2026-05-02T05:42:53.482Z</time></trkpt><trkpt lat="43.1234217" lon="12.2558256"><ele>258.25</ele><time>2026-05-02T05:42:54.489Z</time></trkpt><trkpt lat="43.123409" lon="12.2556708"><ele>258.0</ele><time>2026-05-02T05:42:55.489Z</time></trkpt><trkpt lat="43.1233844" lon="12.2555107"><ele>258.0</ele><time>2026-05-02T05:42:56.484Z</time></trkpt><trkpt lat="43.1233571" lon="12.2553466"><ele>258.0</ele><time>2026-05-02T05:42:57.492Z</time></trkpt><trkpt lat="43.1233307" lon="12.2551796"><ele>258.0</ele><time>2026-05-02T05:42:58.493Z</time></trkpt><trkpt lat="43.1233071" lon="12.2550093"><ele>258.0</ele><time>2026-05-02T05:42:59.489Z</time></trkpt><trkpt lat="43.1232871" lon="12.2548296"><ele>257.0</ele><time>2026-05-02T05:43:00.495Z</time></trkpt><trkpt lat="43.1232631" lon="12.2546414"><ele>256.0</ele><time>2026-05-02T05:43:01.494Z</time></trkpt><trkpt lat="43.1232368" lon="12.2544535"><ele>255.0</ele><time>2026-05-02T05:43:02.489Z</time></trkpt><trkpt lat="43.1232118" lon="12.2542644"><ele>254.0</ele><time>2026-05-02T05:43:03.487Z</time></trkpt><trkpt lat="43.1231896" lon="12.2540841"><ele>256.75</ele><time>2026-05-02T05:43:04.484Z</time></trkpt><trkpt lat="43.1231743" lon="12.2539017"><ele>259.5</ele><time>2026-05-02T05:43:05.491Z</time></trkpt><trkpt lat="43.1231705" lon="12.2537048"><ele>262.25</ele><time>2026-05-02T05:43:06.481Z</time></trkpt><trkpt lat="43.1231771" lon="12.2535157"><ele>265.0</ele><time>2026-05-02T05:43:07.483Z</time></trkpt><trkpt lat="43.123186" lon="12.2533496"><ele>265.0</ele><time>2026-05-02T05:43:08.492Z</time></trkpt><trkpt lat="43.1231911" lon="12.2531962"><ele>265.0</ele><time>2026-05-02T05:43:09.485Z</time></trkpt><trkpt lat="43.1231882" lon="12.2530455"><ele>265.0</ele><time>2026-05-02T05:43:10.493Z</time></trkpt><trkpt lat="43.123176" lon="12.2528947"><ele>265.0</ele><time>2026-05-02T05:43:11.486Z</time></trkpt><trkpt lat="43.1231552" lon="12.2527513"><ele>265.0</ele><time>2026-05-02T05:43:12.485Z</time></trkpt><trkpt lat="43.1231268" lon="12.2526132"><ele>263.0</ele><time>2026-05-02T05:43:13.494Z</time></trkpt><trkpt lat="43.1230887" lon="12.2524856"><ele>261.0</ele><time>2026-05-02T05:43:14.489Z</time></trkpt><trkpt lat="43.1230416" lon="12.252371"><ele>259.0</ele><time>2026-05-02T05:43:15.485Z</time></trkpt><trkpt lat="43.1229861" lon="12.2522635"><ele>257.0</ele><time>2026-05-02T05:43:16.494Z</time></trkpt><trkpt lat="43.1229201" lon="12.2521573"><ele>255.0</ele><time>2026-05-02T05:43:17.487Z</time></trkpt><trkpt lat="43.122845" lon="12.2520499"><ele>252.0</ele><time>2026-05-02T05:43:18.488Z</time></trkpt><trkpt lat="43.1227582" lon="12.2519437"><ele>249.0</ele><time>2026-05-02T05:43:19.489Z</time></trkpt><trkpt lat="43.122655" lon="12.2518365"><ele>246.0</ele><time>2026-05-02T05:43:20.481Z</time></trkpt><trkpt lat="43.122548" lon="12.2517228"><ele>243.0</ele><time>2026-05-02T05:43:21.49Z</time></trkpt><trkpt lat="43.1224468" lon="12.2516008"><ele>242.25</ele><time>2026-05-02T05:43:22.484Z</time></trkpt><trkpt lat="43.1223501" lon="12.251469"><ele>241.5</ele><time>2026-05-02T05:43:23.49Z</time></trkpt><trkpt lat="43.1222614" lon="12.2513426"><ele>240.75</ele><time>2026-05-02T05:43:24.483Z</time></trkpt><trkpt lat="43.1221787" lon="12.2512343"><ele>240.0</ele><time>2026-05-02T05:43:25.483Z</time></trkpt><trkpt lat="43.1220973" lon="12.251154"><ele>240.0</ele><time>2026-05-02T05:43:26.483Z</time></trkpt><trkpt lat="43.1220084" lon="12.251086"><ele>240.0</ele><time>2026-05-02T05:43:27.485Z</time></trkpt><trkpt lat="43.1219048" lon="12.2510317"><ele>240.0</ele><time>2026-05-02T05:43:28.49Z</time></trkpt><trkpt lat="43.1217884" lon="12.2509867"><ele>240.0</ele><time>2026-05-02T05:43:29.483Z</time></trkpt><trkpt lat="43.1216617" lon="12.250957"><ele>240.0</ele><time>2026-05-02T05:43:30.49Z</time></trkpt><trkpt lat="43.1215265" lon="12.2509373"><ele>240.0</ele><time>2026-05-02T05:43:31.483Z</time></trkpt><trkpt lat="43.1213854" lon="12.250917"><ele>240.0</ele><time>2026-05-02T05:43:32.49Z</time></trkpt><trkpt lat="43.1212435" lon="12.2508641"><ele>240.0</ele><time>2026-05-02T05:43:33.488Z</time></trkpt><trkpt lat="43.1211083" lon="12.2508016"><ele>240.0</ele><time>2026-05-02T05:43:34.484Z</time></trkpt><trkpt lat="43.1209808" lon="12.2507381"><ele>240.0</ele><time>2026-05-02T05:43:35.491Z</time></trkpt><trkpt lat="43.120857" lon="12.25068"><ele>240.0</ele><time>2026-05-02T05:43:36.486Z</time></trkpt><trkpt lat="43.1207361" lon="12.2506303"><ele>240.0</ele><time>2026-05-02T05:43:37.488Z</time></trkpt><trkpt lat="43.1206199" lon="12.250582"><ele>240.0</ele><time>2026-05-02T05:43:38.493Z</time></trkpt><trkpt lat="43.1205077" lon="12.250523"><ele>240.0</ele><time>2026-05-02T05:43:39.486Z</time></trkpt><trkpt lat="43.1204064" lon="12.2504322"><ele>240.0</ele><time>2026-05-02T05:43:40.486Z</time></trkpt><trkpt lat="43.1203077" lon="12.2503252"><ele>240.0</ele><time>2026-05-02T05:43:41.486Z</time></trkpt><trkpt lat="43.1202096" lon="12.2502108"><ele>240.0</ele><time>2026-05-02T05:43:42.484Z</time></trkpt><trkpt lat="43.1201174" lon="12.250087"><ele>240.0</ele><time>2026-05-02T05:43:43.488Z</time></trkpt><trkpt lat="43.1200245" lon="12.2499676"><ele>240.0</ele><time>2026-05-02T05:43:44.489Z</time></trkpt><trkpt lat="43.1199253" lon="12.2498422"><ele>240.0</ele><time>2026-05-02T05:43:45.49Z</time></trkpt><trkpt lat="43.1198208" lon="12.2496848"><ele>239.5</ele><time>2026-05-02T05:43:46.487Z</time></trkpt><trkpt lat="43.1197178" lon="12.2495323"><ele>239.0</ele><time>2026-05-02T05:43:47.494Z</time></trkpt><trkpt lat="43.1196265" lon="12.2493915"><ele>238.5</ele><time>2026-05-02T05:43:48.487Z</time></trkpt><trkpt lat="43.119549" lon="12.2492706"><ele>238.0</ele><time>2026-05-02T05:43:49.486Z</time></trkpt><trkpt lat="43.1194854" lon="12.2491748"><ele>237.99999999999997</ele><time>2026-05-02T05:43:50.486Z</time></trkpt><trkpt lat="43.1194247" lon="12.249098"><ele>238.0</ele><time>2026-05-02T05:43:51.489Z</time></trkpt><trkpt lat="43.1193613" lon="12.2490305"><ele>238.0</ele><time>2026-05-02T05:43:52.493Z</time></trkpt><trkpt lat="43.1192898" lon="12.2489675"><ele>238.0</ele><time>2026-05-02T05:43:53.486Z</time></trkpt><trkpt lat="43.1192121" lon="12.2489071"><ele>237.99999999999997</ele><time>2026-05-02T05:43:54.487Z</time></trkpt><trkpt lat="43.11913" lon="12.2488616"><ele>238.0</ele><time>2026-05-02T05:43:55.489Z</time></trkpt><trkpt lat="43.1190361" lon="12.2488347"><ele>237.25</ele><time>2026-05-02T05:43:56.49Z</time></trkpt><trkpt lat="43.1189234" lon="12.2488162"><ele>236.5</ele><time>2026-05-02T05:43:57.488Z</time></trkpt><trkpt lat="43.1187948" lon="12.2487895"><ele>235.75</ele><time>2026-05-02T05:43:58.491Z</time></trkpt><trkpt lat="43.1186596" lon="12.2487477"><ele>235.0</ele><time>2026-05-02T05:43:59.487Z</time></trkpt><trkpt lat="43.1185225" lon="12.2487012"><ele>235.0</ele><time>2026-05-02T05:44:00.484Z</time></trkpt><trkpt lat="43.1183881" lon="12.2486512"><ele>235.0</ele><time>2026-05-02T05:44:01.483Z</time></trkpt><trkpt lat="43.1182588" lon="12.2486018"><ele>235.0</ele><time>2026-05-02T05:44:02.486Z</time></trkpt><trkpt lat="43.1181416" lon="12.2485576"><ele>235.0</ele><time>2026-05-02T05:44:03.488Z</time></trkpt><trkpt lat="43.1180399" lon="12.2485184"><ele>234.66666666666666</ele><time>2026-05-02T05:44:04.488Z</time></trkpt><trkpt lat="43.1179498" lon="12.2484732"><ele>234.33333333333331</ele><time>2026-05-02T05:44:05.494Z</time></trkpt><trkpt lat="43.1178684" lon="12.2484331"><ele>234.0</ele><time>2026-05-02T05:44:06.485Z</time></trkpt><trkpt lat="43.1177883" lon="12.2484028"><ele>233.66666666666669</ele><time>2026-05-02T05:44:07.485Z</time></trkpt><trkpt lat="43.1177038" lon="12.2483852"><ele>233.33333333333334</ele><time>2026-05-02T05:44:08.491Z</time></trkpt><trkpt lat="43.1176101" lon="12.248384"><ele>233.0</ele><time>2026-05-02T05:44:09.489Z</time></trkpt><trkpt lat="43.1175076" lon="12.2483984"><ele>233.0</ele><time>2026-05-02T05:44:10.493Z</time></trkpt><trkpt lat="43.1173979" lon="12.24843"><ele>233.0</ele><time>2026-05-02T05:44:11.489Z</time></trkpt><trkpt lat="43.1172909" lon="12.2484635"><ele>233.0</ele><time>2026-05-02T05:44:12.488Z</time></trkpt><trkpt lat="43.1171788" lon="12.2484848"><ele>233.0</ele><time>2026-05-02T05:44:13.494Z</time></trkpt><trkpt lat="43.1170535" lon="12.2484813"><ele>233.0</ele><time>2026-05-02T05:44:14.497Z</time></trkpt><trkpt lat="43.1169181" lon="12.2484571"><ele>233.0</ele><time>2026-05-02T05:44:15.486Z</time></trkpt><trkpt lat="43.116777" lon="12.2484218"><ele>233.0</ele><time>2026-05-02T05:44:16.49Z</time></trkpt><trkpt lat="43.1166304" lon="12.2483935"><ele>233.0</ele><time>2026-05-02T05:44:17.494Z</time></trkpt><trkpt lat="43.1164778" lon="12.24837"><ele>233.25</ele><time>2026-05-02T05:44:18.487Z</time></trkpt><trkpt lat="43.1163263" lon="12.2483464"><ele>233.5</ele><time>2026-05-02T05:44:19.49Z</time></trkpt><trkpt lat="43.1161785" lon="12.2483216"><ele>233.75</ele><time>2026-05-02T05:44:20.487Z</time></trkpt><trkpt lat="43.1160309" lon="12.2483059"><ele>234.0</ele><time>2026-05-02T05:44:21.495Z</time></trkpt><trkpt lat="43.1158872" lon="12.2482867"><ele>234.0</ele><time>2026-05-02T05:44:22.484Z</time></trkpt><trkpt lat="43.1157467" lon="12.2482757"><ele>234.0</ele><time>2026-05-02T05:44:23.49Z</time></trkpt><trkpt lat="43.1156029" lon="12.2482633"><ele>234.0</ele><time>2026-05-02T05:44:24.492Z</time></trkpt><trkpt lat="43.1154596" lon="12.2482433"><ele>234.0</ele><time>2026-05-02T05:44:25.487Z</time></trkpt><trkpt lat="43.1153212" lon="12.2482187"><ele>234.0</ele><time>2026-05-02T05:44:26.488Z</time></trkpt><trkpt lat="43.1151913" lon="12.2481979"><ele>234.0</ele><time>2026-05-02T05:44:27.493Z</time></trkpt><trkpt lat="43.1150676" lon="12.248165"><ele>234.0</ele><time>2026-05-02T05:44:28.486Z</time></trkpt><trkpt lat="43.1149423" lon="12.2481014"><ele>234.0</ele><time>2026-05-02T05:44:29.486Z</time></trkpt><trkpt lat="43.1148194" lon="12.2480085"><ele>233.25</ele><time>2026-05-02T05:44:30.49Z</time></trkpt><trkpt lat="43.1147111" lon="12.2479062"><ele>232.5</ele><time>2026-05-02T05:44:31.487Z</time></trkpt><trkpt lat="43.1146163" lon="12.2478134"><ele>231.75</ele><time>2026-05-02T05:44:32.495Z</time></trkpt><trkpt lat="43.1145195" lon="12.2477276"><ele>231.0</ele><time>2026-05-02T05:44:33.488Z</time></trkpt><trkpt lat="43.1144137" lon="12.2476444"><ele>231.0</ele><time>2026-05-02T05:44:34.497Z</time></trkpt><trkpt lat="43.1143056" lon="12.2475684"><ele>231.00000000000003</ele><time>2026-05-02T05:44:35.483Z</time></trkpt><trkpt lat="43.1141948" lon="12.2475056"><ele>231.00000000000003</ele><time>2026-05-02T05:44:36.486Z</time></trkpt><trkpt lat="43.114093" lon="12.2474607"><ele>231.0</ele><time>2026-05-02T05:44:37.487Z</time></trkpt><trkpt lat="43.1139978" lon="12.2474401"><ele>231.0</ele><time>2026-05-02T05:44:38.487Z</time></trkpt><trkpt lat="43.1139005" lon="12.2474281"><ele>231.20000000000002</ele><time>2026-05-02T05:44:39.495Z</time></trkpt><trkpt lat="43.1137947" lon="12.2474407"><ele>231.40000000000003</ele><time>2026-05-02T05:44:40.498Z</time></trkpt><trkpt lat="43.1136953" lon="12.2474613"><ele>231.6</ele><time>2026-05-02T05:44:41.486Z</time></trkpt><trkpt lat="43.1135885" lon="12.247486"><ele>231.8</ele><time>2026-05-02T05:44:42.496Z</time></trkpt><trkpt lat="43.1134747" lon="12.2475036"><ele>232.0</ele><time>2026-05-02T05:44:43.485Z</time></trkpt><trkpt lat="43.1133544" lon="12.2475284"><ele>231.5</ele><time>2026-05-02T05:44:44.485Z</time></trkpt><trkpt lat="43.1132289" lon="12.247552"><ele>231.0</ele><time>2026-05-02T05:44:45.487Z</time></trkpt><trkpt lat="43.113103" lon="12.2475725"><ele>230.5</ele><time>2026-05-02T05:44:46.486Z</time></trkpt><trkpt lat="43.1129745" lon="12.2475911"><ele>230.0</ele><time>2026-05-02T05:44:47.487Z</time></trkpt><trkpt lat="43.1128442" lon="12.2476092"><ele>230.0</ele><time>2026-05-02T05:44:48.483Z</time></trkpt><trkpt lat="43.1127156" lon="12.247625"><ele>230.0</ele><time>2026-05-02T05:44:49.485Z</time></trkpt><trkpt lat="43.1125806" lon="12.2476494"><ele>230.0</ele><time>2026-05-02T05:44:50.484Z</time></trkpt><trkpt lat="43.1124407" lon="12.2476744"><ele>230.0</ele><time>2026-05-02T05:44:51.482Z</time></trkpt><trkpt lat="43.1123032" lon="12.2476973"><ele>229.75</ele><time>2026-05-02T05:44:52.489Z</time></trkpt><trkpt lat="43.1121755" lon="12.2477135"><ele>229.5</ele><time>2026-05-02T05:44:53.484Z</time></trkpt><trkpt lat="43.1120585" lon="12.2477279"><ele>229.25</ele><time>2026-05-02T05:44:54.483Z</time></trkpt><trkpt lat="43.111945" lon="12.2477403"><ele>229.0</ele><time>2026-05-02T05:44:55.483Z</time></trkpt><trkpt lat="43.1118292" lon="12.2477589"><ele>229.0</ele><time>2026-05-02T05:44:56.489Z</time></trkpt><trkpt lat="43.1117108" lon="12.2477882"><ele>229.0</ele><time>2026-05-02T05:44:57.483Z</time></trkpt><trkpt lat="43.111592" lon="12.2478338"><ele>229.0</ele><time>2026-05-02T05:44:58.491Z</time></trkpt><trkpt lat="43.1114706" lon="12.2478861"><ele>229.0</ele><time>2026-05-02T05:44:59.488Z</time></trkpt><trkpt lat="43.1113419" lon="12.2479305"><ele>229.0</ele><time>2026-05-02T05:45:00.484Z</time></trkpt><trkpt lat="43.1112064" lon="12.2479648"><ele>229.0</ele><time>2026-05-02T05:45:01.489Z</time></trkpt><trkpt lat="43.1110689" lon="12.2479942"><ele>229.0</ele><time>2026-05-02T05:45:02.486Z</time></trkpt><trkpt lat="43.110933" lon="12.2480332"><ele>229.0</ele><time>2026-05-02T05:45:03.484Z</time></trkpt><trkpt lat="43.110801" lon="12.2480787"><ele>228.25</ele><time>2026-05-02T05:45:04.485Z</time></trkpt><trkpt lat="43.1106741" lon="12.2481195"><ele>227.5</ele><time>2026-05-02T05:45:05.486Z</time></trkpt><trkpt lat="43.110542" lon="12.2481523"><ele>226.75</ele><time>2026-05-02T05:45:06.485Z</time></trkpt><trkpt lat="43.1104067" lon="12.2481735"><ele>226.0</ele><time>2026-05-02T05:45:07.488Z</time></trkpt><trkpt lat="43.1102738" lon="12.2481788"><ele>226.25</ele><time>2026-05-02T05:45:08.485Z</time></trkpt><trkpt lat="43.1101448" lon="12.2481647"><ele>226.5</ele><time>2026-05-02T05:45:09.487Z</time></trkpt><trkpt lat="43.1100173" lon="12.2481339"><ele>226.75</ele><time>2026-05-02T05:45:10.487Z</time></trkpt><trkpt lat="43.1098908" lon="12.2480886"><ele>227.0</ele><time>2026-05-02T05:45:11.484Z</time></trkpt><trkpt lat="43.1097649" lon="12.2480462"><ele>227.0</ele><time>2026-05-02T05:45:12.487Z</time></trkpt><trkpt lat="43.1096373" lon="12.248018"><ele>227.0</ele><time>2026-05-02T05:45:13.492Z</time></trkpt><trkpt lat="43.1095075" lon="12.2479984"><ele>227.0</ele><time>2026-05-02T05:45:14.485Z</time></trkpt><trkpt lat="43.1093754" lon="12.2479947"><ele>227.0</ele><time>2026-05-02T05:45:15.488Z</time></trkpt><trkpt lat="43.1092433" lon="12.2479945"><ele>227.0</ele><time>2026-05-02T05:45:16.487Z</time></trkpt><trkpt lat="43.1091029" lon="12.2480154"><ele>227.0</ele><time>2026-05-02T05:45:17.49Z</time></trkpt><trkpt lat="43.1089702" lon="12.248032"><ele>227.0</ele><time>2026-05-02T05:45:18.49Z</time></trkpt><trkpt lat="43.1088387" lon="12.2480498"><ele>227.0</ele><time>2026-05-02T05:45:19.484Z</time></trkpt><trkpt lat="43.1087091" lon="12.2480565"><ele>227.25</ele><time>2026-05-02T05:45:20.489Z</time></trkpt><trkpt lat="43.1085837" lon="12.2480592"><ele>227.5</ele><time>2026-05-02T05:45:21.484Z</time></trkpt><trkpt lat="43.108464" lon="12.2480632"><ele>227.75</ele><time>2026-05-02T05:45:22.484Z</time></trkpt><trkpt lat="43.108354" lon="12.2480686"><ele>228.0</ele><time>2026-05-02T05:45:23.483Z</time></trkpt><trkpt lat="43.1082509" lon="12.2480687"><ele>227.60000000000002</ele><time>2026-05-02T05:45:24.488Z</time></trkpt><trkpt lat="43.1081529" lon="12.2480716"><ele>227.20000000000002</ele><time>2026-05-02T05:45:25.485Z</time></trkpt><trkpt lat="43.108063" lon="12.2480781"><ele>226.8</ele><time>2026-05-02T05:45:26.486Z</time></trkpt><trkpt lat="43.1079796" lon="12.248089"><ele>226.4</ele><time>2026-05-02T05:45:27.488Z</time></trkpt><trkpt lat="43.107889" lon="12.24811"><ele>226.0</ele><time>2026-05-02T05:45:28.489Z</time></trkpt><trkpt lat="43.1077877" lon="12.2481393"><ele>226.75</ele><time>2026-05-02T05:45:29.489Z</time></trkpt><trkpt lat="43.1076788" lon="12.248184"><ele>227.5</ele><time>2026-05-02T05:45:30.488Z</time></trkpt><trkpt lat="43.1075672" lon="12.2482422"><ele>228.25</ele><time>2026-05-02T05:45:31.486Z</time></trkpt><trkpt lat="43.1074608" lon="12.2483169"><ele>229.0</ele><time>2026-05-02T05:45:32.487Z</time></trkpt><trkpt lat="43.1073657" lon="12.2484168"><ele>229.0</ele><time>2026-05-02T05:45:33.492Z</time></trkpt><trkpt lat="43.1072791" lon="12.2485363"><ele>229.0</ele><time>2026-05-02T05:45:34.497Z</time></trkpt><trkpt lat="43.1071887" lon="12.2486609"><ele>229.0</ele><time>2026-05-02T05:45:35.493Z</time></trkpt><trkpt lat="43.1070941" lon="12.248793"><ele>229.0</ele><time>2026-05-02T05:45:36.494Z</time></trkpt><trkpt lat="43.1069953" lon="12.2489221"><ele>229.25</ele><time>2026-05-02T05:45:37.491Z</time></trkpt><trkpt lat="43.1068962" lon="12.2490516"><ele>229.5</ele><time>2026-05-02T05:45:38.484Z</time></trkpt><trkpt lat="43.1067977" lon="12.2491802"><ele>229.75</ele><time>2026-05-02T05:45:39.487Z</time></trkpt><trkpt lat="43.1067042" lon="12.2493089"><ele>230.0</ele><time>2026-05-02T05:45:40.49Z</time></trkpt><trkpt lat="43.1066178" lon="12.2494404"><ele>229.0</ele><time>2026-05-02T05:45:41.487Z</time></trkpt><trkpt lat="43.1065382" lon="12.2495771"><ele>228.0</ele><time>2026-05-02T05:45:42.492Z</time></trkpt><trkpt lat="43.1064647" lon="12.2497282"><ele>227.0</ele><time>2026-05-02T05:45:43.49Z</time></trkpt><trkpt lat="43.1064011" lon="12.2498748"><ele>226.0</ele><time>2026-05-02T05:45:44.49Z</time></trkpt><trkpt lat="43.1063479" lon="12.250019"><ele>226.0</ele><time>2026-05-02T05:45:45.492Z</time></trkpt><trkpt lat="43.1063048" lon="12.2501571"><ele>226.0</ele><time>2026-05-02T05:45:46.488Z</time></trkpt><trkpt lat="43.106266" lon="12.2503049"><ele>226.0</ele><time>2026-05-02T05:45:47.491Z</time></trkpt><trkpt lat="43.1062301" lon="12.2504611"><ele>226.0</ele><time>2026-05-02T05:45:48.49Z</time></trkpt><trkpt lat="43.1061939" lon="12.2506248"><ele>227.0</ele><time>2026-05-02T05:45:49.491Z</time></trkpt><trkpt lat="43.1061557" lon="12.2507927"><ele>228.0</ele><time>2026-05-02T05:45:50.489Z</time></trkpt><trkpt lat="43.1061164" lon="12.2509642"><ele>229.0</ele><time>2026-05-02T05:45:51.492Z</time></trkpt><trkpt lat="43.106078" lon="12.2511368"><ele>230.0</ele><time>2026-05-02T05:45:52.486Z</time></trkpt><trkpt lat="43.1060403" lon="12.2512948"><ele>230.0</ele><time>2026-05-02T05:45:53.492Z</time></trkpt><trkpt lat="43.1060107" lon="12.2514387"><ele>230.0</ele><time>2026-05-02T05:45:54.493Z</time></trkpt><trkpt lat="43.1059855" lon="12.2515677"><ele>230.0</ele><time>2026-05-02T05:45:55.488Z</time></trkpt><trkpt lat="43.1059627" lon="12.2516803"><ele>230.0</ele><time>2026-05-02T05:45:56.489Z</time></trkpt><trkpt lat="43.1059409" lon="12.2517806"><ele>230.0</ele><time>2026-05-02T05:45:57.491Z</time></trkpt><trkpt lat="43.1059142" lon="12.2518913"><ele>230.5</ele><time>2026-05-02T05:45:58.487Z</time></trkpt><trkpt lat="43.105883" lon="12.2520253"><ele>231.0</ele><time>2026-05-02T05:45:59.49Z</time></trkpt><trkpt lat="43.1058502" lon="12.2521838"><ele>231.5</ele><time>2026-05-02T05:46:00.491Z</time></trkpt><trkpt lat="43.1058182" lon="12.2523584"><ele>232.0</ele><time>2026-05-02T05:46:01.497Z</time></trkpt><trkpt lat="43.1057861" lon="12.2525432"><ele>232.25</ele><time>2026-05-02T05:46:02.487Z</time></trkpt><trkpt lat="43.1057525" lon="12.2527437"><ele>232.5</ele><time>2026-05-02T05:46:03.489Z</time></trkpt><trkpt lat="43.1057226" lon="12.2529127"><ele>232.75</ele><time>2026-05-02T05:46:04.494Z</time></trkpt><trkpt lat="43.1057085" lon="12.2530506"><ele>233.0</ele><time>2026-05-02T05:46:05.492Z</time></trkpt><trkpt lat="43.105685" lon="12.2531798"><ele>232.00000000000003</ele><time>2026-05-02T05:46:06.483Z</time></trkpt><trkpt lat="43.1056403" lon="12.2532962"><ele>231.0</ele><time>2026-05-02T05:46:08.486Z</time></trkpt><trkpt lat="43.1055892" lon="12.2532348"><ele>230.0</ele><time>2026-05-02T05:46:10.499Z</time></trkpt><trkpt lat="43.1055846" lon="12.2531451"><ele>229.0</ele><time>2026-05-02T05:46:11.482Z</time></trkpt><trkpt lat="43.1055935" lon="12.2530179"><ele>228.00000000000003</ele><time>2026-05-02T05:46:12.498Z</time></trkpt><trkpt lat="43.1056132" lon="12.2528694"><ele>227.0</ele><time>2026-05-02T05:46:13.488Z</time></trkpt><trkpt lat="43.105633" lon="12.2527001"><ele>226.75</ele><time>2026-05-02T05:46:14.483Z</time></trkpt><trkpt lat="43.1056478" lon="12.2525123"><ele>226.5</ele><time>2026-05-02T05:46:15.491Z</time></trkpt><trkpt lat="43.1056624" lon="12.2523087"><ele>226.25</ele><time>2026-05-02T05:46:16.482Z</time></trkpt><trkpt lat="43.1056792" lon="12.2521023"><ele>226.0</ele><time>2026-05-02T05:46:17.488Z</time></trkpt><trkpt lat="43.1056957" lon="12.2518857"><ele>226.0</ele><time>2026-05-02T05:46:18.485Z</time></trkpt><trkpt lat="43.105711" lon="12.2516561"><ele>226.0</ele><time>2026-05-02T05:46:19.497Z</time></trkpt><trkpt lat="43.105724" lon="12.2514209"><ele>226.0</ele><time>2026-05-02T05:46:20.496Z</time></trkpt><trkpt lat="43.1057371" lon="12.2511835"><ele>226.0</ele><time>2026-05-02T05:46:21.487Z</time></trkpt><trkpt lat="43.105755" lon="12.2509424"><ele>226.0</ele><time>2026-05-02T05:46:22.502Z</time></trkpt><trkpt lat="43.1057738" lon="12.2507143"><ele>226.0</ele><time>2026-05-02T05:46:23.494Z</time></trkpt><trkpt lat="43.1057879" lon="12.2504687"><ele>226.0</ele><time>2026-05-02T05:46:24.492Z</time></trkpt><trkpt lat="43.105816" lon="12.2502372"><ele>226.0</ele><time>2026-05-02T05:46:25.492Z</time></trkpt><trkpt lat="43.1058336" lon="12.2500102"><ele>226.0</ele><time>2026-05-02T05:46:26.496Z</time></trkpt><trkpt lat="43.105853" lon="12.2497915"><ele>225.75</ele><time>2026-05-02T05:46:27.497Z</time></trkpt><trkpt lat="43.1058663" lon="12.2495836"><ele>225.5</ele><time>2026-05-02T05:46:28.487Z</time></trkpt><trkpt lat="43.1058843" lon="12.2493975"><ele>225.25</ele><time>2026-05-02T05:46:29.493Z</time></trkpt><trkpt lat="43.1059141" lon="12.2492234"><ele>225.0</ele><time>2026-05-02T05:46:30.486Z</time></trkpt><trkpt lat="43.1059706" lon="12.2490626"><ele>225.0</ele><time>2026-05-02T05:46:31.485Z</time></trkpt><trkpt lat="43.1060544" lon="12.2489355"><ele>225.0</ele><time>2026-05-02T05:46:32.486Z</time></trkpt><trkpt lat="43.1061663" lon="12.2488312"><ele>225.0</ele><time>2026-05-02T05:46:33.486Z</time></trkpt><trkpt lat="43.1062847" lon="12.2487312"><ele>225.0</ele><time>2026-05-02T05:46:34.485Z</time></trkpt><trkpt lat="43.1064071" lon="12.2486285"><ele>225.0</ele><time>2026-05-02T05:46:35.487Z</time></trkpt><trkpt lat="43.1065267" lon="12.2485214"><ele>225.0</ele><time>2026-05-02T05:46:36.486Z</time></trkpt><trkpt lat="43.1066428" lon="12.2484059"><ele>225.0</ele><time>2026-05-02T05:46:37.488Z</time></trkpt><trkpt lat="43.1067473" lon="12.2482725"><ele>225.0</ele><time>2026-05-02T05:46:38.486Z</time></trkpt><trkpt lat="43.1068326" lon="12.2481197"><ele>225.25</ele><time>2026-05-02T05:46:39.486Z</time></trkpt><trkpt lat="43.1068967" lon="12.2479544"><ele>225.5</ele><time>2026-05-02T05:46:40.484Z</time></trkpt><trkpt lat="43.1069315" lon="12.2477763"><ele>225.75</ele><time>2026-05-02T05:46:41.481Z</time></trkpt><trkpt lat="43.1069294" lon="12.2475932"><ele>226.0</ele><time>2026-05-02T05:46:42.49Z</time></trkpt><trkpt lat="43.1068963" lon="12.2474156"><ele>225.75</ele><time>2026-05-02T05:46:43.497Z</time></trkpt><trkpt lat="43.1068485" lon="12.2472441"><ele>225.5</ele><time>2026-05-02T05:46:44.493Z</time></trkpt><trkpt lat="43.1067974" lon="12.2470694"><ele>225.25</ele><time>2026-05-02T05:46:45.487Z</time></trkpt><trkpt lat="43.1067483" lon="12.2468879"><ele>225.0</ele><time>2026-05-02T05:46:46.495Z</time></trkpt><trkpt lat="43.1066947" lon="12.2466979"><ele>225.0</ele><time>2026-05-02T05:46:47.491Z</time></trkpt><trkpt lat="43.1066491" lon="12.246497"><ele>225.0</ele><time>2026-05-02T05:46:48.49Z</time></trkpt><trkpt lat="43.1066083" lon="12.2462881"><ele>225.0</ele><time>2026-05-02T05:46:49.489Z</time></trkpt><trkpt lat="43.1065766" lon="12.2460781"><ele>224.66666666666669</ele><time>2026-05-02T05:46:50.489Z</time></trkpt><trkpt lat="43.1065476" lon="12.2458616"><ele>224.33333333333334</ele><time>2026-05-02T05:46:51.486Z</time></trkpt><trkpt lat="43.1065179" lon="12.2456468"><ele>224.0</ele><time>2026-05-02T05:46:52.486Z</time></trkpt><trkpt lat="43.1064929" lon="12.2454297"><ele>224.0</ele><time>2026-05-02T05:46:53.482Z</time></trkpt><trkpt lat="43.1064683" lon="12.2452117"><ele>224.0</ele><time>2026-05-02T05:46:54.489Z</time></trkpt><trkpt lat="43.1064475" lon="12.2450087"><ele>224.0</ele><time>2026-05-02T05:46:55.49Z</time></trkpt><trkpt lat="43.1064325" lon="12.244828"><ele>224.0</ele><time>2026-05-02T05:46:56.484Z</time></trkpt><trkpt lat="43.1064289" lon="12.2446703"><ele>225.0</ele><time>2026-05-02T05:46:57.498Z</time></trkpt><trkpt lat="43.1064567" lon="12.2445324"><ele>226.0</ele><time>2026-05-02T05:46:58.488Z</time></trkpt><trkpt lat="43.10652" lon="12.2444083"><ele>227.0</ele><time>2026-05-02T05:46:59.49Z</time></trkpt><trkpt lat="43.1066208" lon="12.2443127"><ele>228.0</ele><time>2026-05-02T05:47:00.489Z</time></trkpt><trkpt lat="43.106741" lon="12.2442346"><ele>228.25</ele><time>2026-05-02T05:47:01.49Z</time></trkpt><trkpt lat="43.1068715" lon="12.2441607"><ele>228.5</ele><time>2026-05-02T05:47:02.482Z</time></trkpt><trkpt lat="43.1070104" lon="12.2440786"><ele>228.75</ele><time>2026-05-02T05:47:03.487Z</time></trkpt><trkpt lat="43.1071509" lon="12.2439946"><ele>229.0</ele><time>2026-05-02T05:47:04.484Z</time></trkpt><trkpt lat="43.1072941" lon="12.2439054"><ele>232.33333333333331</ele><time>2026-05-02T05:47:05.485Z</time></trkpt><trkpt lat="43.1074396" lon="12.2438097"><ele>235.66666666666669</ele><time>2026-05-02T05:47:06.49Z</time></trkpt><trkpt lat="43.1075862" lon="12.2437067"><ele>239.0</ele><time>2026-05-02T05:47:07.488Z</time></trkpt><trkpt lat="43.1077335" lon="12.2435986"><ele>239.0</ele><time>2026-05-02T05:47:08.49Z</time></trkpt><trkpt lat="43.1078808" lon="12.2434847"><ele>239.0</ele><time>2026-05-02T05:47:09.484Z</time></trkpt><trkpt lat="43.1080267" lon="12.2433702"><ele>239.0</ele><time>2026-05-02T05:47:10.488Z</time></trkpt><trkpt lat="43.1081721" lon="12.2432527"><ele>237.0</ele><time>2026-05-02T05:47:11.509Z</time></trkpt><trkpt lat="43.1083171" lon="12.243142"><ele>235.0</ele><time>2026-05-02T05:47:12.498Z</time></trkpt><trkpt lat="43.1084592" lon="12.2430429"><ele>233.0</ele><time>2026-05-02T05:47:13.488Z</time></trkpt><trkpt lat="43.1085994" lon="12.2429519"><ele>235.75</ele><time>2026-05-02T05:47:14.484Z</time></trkpt><trkpt lat="43.1087375" lon="12.2428946"><ele>238.5</ele><time>2026-05-02T05:47:15.483Z</time></trkpt><trkpt lat="43.1088775" lon="12.2428734"><ele>241.25</ele><time>2026-05-02T05:47:16.484Z</time></trkpt><trkpt lat="43.1090234" lon="12.2428936"><ele>244.0</ele><time>2026-05-02T05:47:17.487Z</time></trkpt><trkpt lat="43.1091765" lon="12.242943"><ele>244.0</ele><time>2026-05-02T05:47:18.485Z</time></trkpt><trkpt lat="43.1093345" lon="12.2429942"><ele>244.0</ele><time>2026-05-02T05:47:19.485Z</time></trkpt><trkpt lat="43.1094978" lon="12.2430296"><ele>244.0</ele><time>2026-05-02T05:47:20.488Z</time></trkpt><trkpt lat="43.1096629" lon="12.2430501"><ele>244.0</ele><time>2026-05-02T05:47:21.492Z</time></trkpt><trkpt lat="43.1098274" lon="12.2430488"><ele>244.0</ele><time>2026-05-02T05:47:22.495Z</time></trkpt><trkpt lat="43.1099953" lon="12.2430242"><ele>244.0</ele><time>2026-05-02T05:47:23.486Z</time></trkpt><trkpt lat="43.1101548" lon="12.2429669"><ele>242.66666666666666</ele><time>2026-05-02T05:47:24.486Z</time></trkpt><trkpt lat="43.1103101" lon="12.2428832"><ele>241.33333333333331</ele><time>2026-05-02T05:47:25.487Z</time></trkpt><trkpt lat="43.110457" lon="12.2427793"><ele>240.0</ele><time>2026-05-02T05:47:26.482Z</time></trkpt><trkpt lat="43.1106026" lon="12.2426658"><ele>236.66666666666669</ele><time>2026-05-02T05:47:27.49Z</time></trkpt><trkpt lat="43.1107545" lon="12.2425505"><ele>233.33333333333334</ele><time>2026-05-02T05:47:28.488Z</time></trkpt><trkpt lat="43.110906" lon="12.2424397"><ele>230.0</ele><time>2026-05-02T05:47:29.497Z</time></trkpt><trkpt lat="43.1110589" lon="12.2423294"><ele>232.0</ele><time>2026-05-02T05:47:30.491Z</time></trkpt><trkpt lat="43.1112116" lon="12.2422214"><ele>234.0</ele><time>2026-05-02T05:47:31.491Z</time></trkpt><trkpt lat="43.1113657" lon="12.2421138"><ele>236.0</ele><time>2026-05-02T05:47:32.5Z</time></trkpt><trkpt lat="43.1115158" lon="12.2420044"><ele>233.0</ele><time>2026-05-02T05:47:33.485Z</time></trkpt><trkpt lat="43.1116693" lon="12.2419"><ele>230.0</ele><time>2026-05-02T05:47:34.491Z</time></trkpt><trkpt lat="43.1118235" lon="12.2417968"><ele>227.0</ele><time>2026-05-02T05:47:35.491Z</time></trkpt><trkpt lat="43.1119754" lon="12.241695"><ele>227.0</ele><time>2026-05-02T05:47:36.486Z</time></trkpt><trkpt lat="43.1121334" lon="12.2415893"><ele>227.0</ele><time>2026-05-02T05:47:37.484Z</time></trkpt><trkpt lat="43.1123007" lon="12.2414686"><ele>227.0</ele><time>2026-05-02T05:47:38.49Z</time></trkpt><trkpt lat="43.1124784" lon="12.2413393"><ele>228.33333333333334</ele><time>2026-05-02T05:47:39.486Z</time></trkpt><trkpt lat="43.1126498" lon="12.2412172"><ele>229.66666666666669</ele><time>2026-05-02T05:47:40.483Z</time></trkpt><trkpt lat="43.1128221" lon="12.2410956"><ele>231.0</ele><time>2026-05-02T05:47:41.488Z</time></trkpt><trkpt lat="43.1129912" lon="12.2409781"><ele>231.0</ele><time>2026-05-02T05:47:42.482Z</time></trkpt><trkpt lat="43.1131596" lon="12.2408608"><ele>231.0</ele><time>2026-05-02T05:47:43.486Z</time></trkpt><trkpt lat="43.1133236" lon="12.240742"><ele>231.0</ele><time>2026-05-02T05:47:44.494Z</time></trkpt><trkpt lat="43.1134862" lon="12.240619"><ele>230.0</ele><time>2026-05-02T05:47:45.487Z</time></trkpt><trkpt lat="43.113649" lon="12.240498"><ele>229.0</ele><time>2026-05-02T05:47:46.487Z</time></trkpt><trkpt lat="43.1138087" lon="12.2403756"><ele>228.0</ele><time>2026-05-02T05:47:47.487Z</time></trkpt><trkpt lat="43.1139644" lon="12.2402519"><ele>228.66666666666669</ele><time>2026-05-02T05:47:48.484Z</time></trkpt><trkpt lat="43.1141171" lon="12.2401244"><ele>229.33333333333334</ele><time>2026-05-02T05:47:49.487Z</time></trkpt><trkpt lat="43.1142682" lon="12.2400016"><ele>230.0</ele><time>2026-05-02T05:47:50.487Z</time></trkpt><trkpt lat="43.1144138" lon="12.2398852"><ele>233.0</ele><time>2026-05-02T05:47:51.485Z</time></trkpt><trkpt lat="43.114558" lon="12.2397748"><ele>236.0</ele><time>2026-05-02T05:47:52.499Z</time></trkpt><trkpt lat="43.1146992" lon="12.2396693"><ele>239.0</ele><time>2026-05-02T05:47:53.484Z</time></trkpt><trkpt lat="43.1148327" lon="12.2395948"><ele>240.25</ele><time>2026-05-02T05:47:54.485Z</time></trkpt><trkpt lat="43.114971" lon="12.2395668"><ele>241.5</ele><time>2026-05-02T05:47:55.49Z</time></trkpt><trkpt lat="43.1151211" lon="12.2395732"><ele>242.75</ele><time>2026-05-02T05:47:56.491Z</time></trkpt><trkpt lat="43.1152751" lon="12.2395934"><ele>244.0</ele><time>2026-05-02T05:47:57.49Z</time></trkpt><trkpt lat="43.1154429" lon="12.2396217"><ele>244.0</ele><time>2026-05-02T05:47:58.492Z</time></trkpt><trkpt lat="43.1156076" lon="12.2396523"><ele>244.0</ele><time>2026-05-02T05:47:59.485Z</time></trkpt><trkpt lat="43.1157686" lon="12.239683"><ele>244.0</ele><time>2026-05-02T05:48:00.487Z</time></trkpt><trkpt lat="43.1159273" lon="12.2396963"><ele>245.33333333333331</ele><time>2026-05-02T05:48:01.506Z</time></trkpt><trkpt lat="43.1160799" lon="12.239687"><ele>246.66666666666669</ele><time>2026-05-02T05:48:02.502Z</time></trkpt><trkpt lat="43.1162331" lon="12.2396517"><ele>248.0</ele><time>2026-05-02T05:48:03.49Z</time></trkpt><trkpt lat="43.1163815" lon="12.2395893"><ele>248.0</ele><time>2026-05-02T05:48:04.485Z</time></trkpt><trkpt lat="43.1165235" lon="12.2395164"><ele>248.0</ele><time>2026-05-02T05:48:05.486Z</time></trkpt><trkpt lat="43.1166686" lon="12.2394411"><ele>248.0</ele><time>2026-05-02T05:48:06.488Z</time></trkpt><trkpt lat="43.1168193" lon="12.2393679"><ele>247.5</ele><time>2026-05-02T05:48:07.485Z</time></trkpt><trkpt lat="43.1169608" lon="12.2392862"><ele>247.0</ele><time>2026-05-02T05:48:08.495Z</time></trkpt><trkpt lat="43.1170945" lon="12.2391909"><ele>246.5</ele><time>2026-05-02T05:48:09.488Z</time></trkpt><trkpt lat="43.1172153" lon="12.2390894"><ele>246.0</ele><time>2026-05-02T05:48:10.486Z</time></trkpt><trkpt lat="43.1173187" lon="12.2389667"><ele>243.5</ele><time>2026-05-02T05:48:11.489Z</time></trkpt><trkpt lat="43.117407" lon="12.2388198"><ele>241.0</ele><time>2026-05-02T05:48:12.492Z</time></trkpt><trkpt lat="43.1174763" lon="12.2386459"><ele>238.5</ele><time>2026-05-02T05:48:13.491Z</time></trkpt><trkpt lat="43.1175352" lon="12.2384571"><ele>236.0</ele><time>2026-05-02T05:48:14.488Z</time></trkpt><trkpt lat="43.1175903" lon="12.2382585"><ele>235.66666666666669</ele><time>2026-05-02T05:48:15.489Z</time></trkpt><trkpt lat="43.1176425" lon="12.2380573"><ele>235.33333333333331</ele><time>2026-05-02T05:48:16.49Z</time></trkpt><trkpt lat="43.1176856" lon="12.2378533"><ele>235.0</ele><time>2026-05-02T05:48:17.491Z</time></trkpt><trkpt lat="43.1177109" lon="12.2376491"><ele>235.0</ele><time>2026-05-02T05:48:18.49Z</time></trkpt><trkpt lat="43.1177317" lon="12.2374377"><ele>235.0</ele><time>2026-05-02T05:48:19.486Z</time></trkpt><trkpt lat="43.1177546" lon="12.2372258"><ele>235.0</ele><time>2026-05-02T05:48:20.495Z</time></trkpt><trkpt lat="43.1177951" lon="12.2370262"><ele>236.33333333333331</ele><time>2026-05-02T05:48:21.49Z</time></trkpt><trkpt lat="43.1178613" lon="12.2368346"><ele>237.66666666666669</ele><time>2026-05-02T05:48:22.492Z</time></trkpt><trkpt lat="43.1179491" lon="12.2366553"><ele>239.0</ele><time>2026-05-02T05:48:23.489Z</time></trkpt><trkpt lat="43.1180484" lon="12.2364797"><ele>240.33333333333334</ele><time>2026-05-02T05:48:24.49Z</time></trkpt><trkpt lat="43.1181471" lon="12.2363049"><ele>241.66666666666669</ele><time>2026-05-02T05:48:25.491Z</time></trkpt><trkpt lat="43.1182447" lon="12.2361258"><ele>243.0</ele><time>2026-05-02T05:48:26.49Z</time></trkpt><trkpt lat="43.1183403" lon="12.2359429"><ele>241.0</ele><time>2026-05-02T05:48:27.486Z</time></trkpt><trkpt lat="43.1184317" lon="12.2357582"><ele>239.0</ele><time>2026-05-02T05:48:28.506Z</time></trkpt><trkpt lat="43.1185219" lon="12.235577"><ele>237.0</ele><time>2026-05-02T05:48:29.487Z</time></trkpt><trkpt lat="43.1186073" lon="12.2353938"><ele>237.0</ele><time>2026-05-02T05:48:30.49Z</time></trkpt><trkpt lat="43.1186898" lon="12.2352125"><ele>237.0</ele><time>2026-05-02T05:48:31.487Z</time></trkpt><trkpt lat="43.1187689" lon="12.2350329"><ele>237.0</ele><time>2026-05-02T05:48:32.486Z</time></trkpt><trkpt lat="43.1188404" lon="12.2348429"><ele>237.0</ele><time>2026-05-02T05:48:33.486Z</time></trkpt><trkpt lat="43.1188882" lon="12.2346472"><ele>237.0</ele><time>2026-05-02T05:48:34.487Z</time></trkpt><trkpt lat="43.1189181" lon="12.2344411"><ele>237.0</ele><time>2026-05-02T05:48:35.487Z</time></trkpt><trkpt lat="43.1189316" lon="12.2342307"><ele>237.0</ele><time>2026-05-02T05:48:36.482Z</time></trkpt><trkpt lat="43.1189327" lon="12.234019"><ele>237.0</ele><time>2026-05-02T05:48:37.486Z</time></trkpt><trkpt lat="43.1189268" lon="12.233807"><ele>237.0</ele><time>2026-05-02T05:48:38.487Z</time></trkpt><trkpt lat="43.1189124" lon="12.2335942"><ele>237.66666666666669</ele><time>2026-05-02T05:48:39.489Z</time></trkpt><trkpt lat="43.1188927" lon="12.2333847"><ele>238.33333333333334</ele><time>2026-05-02T05:48:40.488Z</time></trkpt><trkpt lat="43.1188717" lon="12.2331812"><ele>239.0</ele><time>2026-05-02T05:48:41.485Z</time></trkpt><trkpt lat="43.1188484" lon="12.2329818"><ele>240.5</ele><time>2026-05-02T05:48:42.484Z</time></trkpt><trkpt lat="43.1188223" lon="12.2327961"><ele>242.0</ele><time>2026-05-02T05:48:43.494Z</time></trkpt><trkpt lat="43.1188021" lon="12.2326279"><ele>243.5</ele><time>2026-05-02T05:48:44.483Z</time></trkpt><trkpt lat="43.1188066" lon="12.2324752"><ele>245.0</ele><time>2026-05-02T05:48:45.49Z</time></trkpt><trkpt lat="43.118852" lon="12.2323325"><ele>245.25</ele><time>2026-05-02T05:48:46.489Z</time></trkpt><trkpt lat="43.1189347" lon="12.2322137"><ele>245.5</ele><time>2026-05-02T05:48:47.49Z</time></trkpt><trkpt lat="43.119043" lon="12.2321134"><ele>245.75</ele><time>2026-05-02T05:48:48.498Z</time></trkpt><trkpt lat="43.1191658" lon="12.2320273"><ele>246.0</ele><time>2026-05-02T05:48:49.494Z</time></trkpt><trkpt lat="43.1193025" lon="12.2319388"><ele>246.0</ele><time>2026-05-02T05:48:50.495Z</time></trkpt><trkpt lat="43.1194443" lon="12.2318477"><ele>246.0</ele><time>2026-05-02T05:48:51.495Z</time></trkpt><trkpt lat="43.1195904" lon="12.231759"><ele>246.0</ele><time>2026-05-02T05:48:52.488Z</time></trkpt><trkpt lat="43.1197411" lon="12.2316778"><ele>246.0</ele><time>2026-05-02T05:48:53.485Z</time></trkpt><trkpt lat="43.1198924" lon="12.2316149"><ele>246.0</ele><time>2026-05-02T05:48:54.486Z</time></trkpt><trkpt lat="43.12005" lon="12.2315631"><ele>246.0</ele><time>2026-05-02T05:48:55.489Z</time></trkpt><trkpt lat="43.120212" lon="12.2315287"><ele>244.33333333333331</ele><time>2026-05-02T05:48:56.493Z</time></trkpt><trkpt lat="43.1203776" lon="12.2315064"><ele>242.66666666666666</ele><time>2026-05-02T05:48:57.493Z</time></trkpt><trkpt lat="43.1205444" lon="12.2315011"><ele>241.0</ele><time>2026-05-02T05:48:58.49Z</time></trkpt><trkpt lat="43.1207122" lon="12.2315127"><ele>241.0</ele><time>2026-05-02T05:48:59.489Z</time></trkpt><trkpt lat="43.1208779" lon="12.2315346"><ele>241.0</ele><time>2026-05-02T05:49:00.497Z</time></trkpt><trkpt lat="43.1210428" lon="12.2315604"><ele>241.0</ele><time>2026-05-02T05:49:01.486Z</time></trkpt><trkpt lat="43.1212064" lon="12.2315922"><ele>241.0</ele><time>2026-05-02T05:49:02.488Z</time></trkpt><trkpt lat="43.1213696" lon="12.2316304"><ele>241.0</ele><time>2026-05-02T05:49:03.498Z</time></trkpt><trkpt lat="43.1215313" lon="12.2316743"><ele>241.0</ele><time>2026-05-02T05:49:04.49Z</time></trkpt><trkpt lat="43.1216892" lon="12.2317285"><ele>242.0</ele><time>2026-05-02T05:49:05.495Z</time></trkpt><trkpt lat="43.1218441" lon="12.2317938"><ele>243.0</ele><time>2026-05-02T05:49:06.49Z</time></trkpt><trkpt lat="43.1219939" lon="12.2318752"><ele>244.0</ele><time>2026-05-02T05:49:07.497Z</time></trkpt><trkpt lat="43.1221411" lon="12.2319695"><ele>244.0</ele><time>2026-05-02T05:49:08.488Z</time></trkpt><trkpt lat="43.1222782" lon="12.2320879"><ele>244.0</ele><time>2026-05-02T05:49:09.498Z</time></trkpt><trkpt lat="43.1224169" lon="12.2322089"><ele>244.0</ele><time>2026-05-02T05:49:10.488Z</time></trkpt><trkpt lat="43.1225555" lon="12.2323293"><ele>242.0</ele><time>2026-05-02T05:49:11.494Z</time></trkpt><trkpt lat="43.1226941" lon="12.2324406"><ele>240.0</ele><time>2026-05-02T05:49:12.494Z</time></trkpt><trkpt lat="43.1228297" lon="12.2325531"><ele>238.0</ele><time>2026-05-02T05:49:13.491Z</time></trkpt><trkpt lat="43.1229591" lon="12.2326612"><ele>238.0</ele><time>2026-05-02T05:49:14.486Z</time></trkpt><trkpt lat="43.1230798" lon="12.2327632"><ele>238.0</ele><time>2026-05-02T05:49:15.493Z</time></trkpt><trkpt lat="43.1231897" lon="12.2328658"><ele>238.0</ele><time>2026-05-02T05:49:16.488Z</time></trkpt><trkpt lat="43.1233048" lon="12.2329698"><ele>238.0</ele><time>2026-05-02T05:49:17.486Z</time></trkpt><trkpt lat="43.123428" lon="12.2330701"><ele>237.0</ele><time>2026-05-02T05:49:18.486Z</time></trkpt><trkpt lat="43.1235585" lon="12.2331561"><ele>236.0</ele><time>2026-05-02T05:49:19.486Z</time></trkpt><trkpt lat="43.1236994" lon="12.2332266"><ele>235.0</ele><time>2026-05-02T05:49:20.49Z</time></trkpt><trkpt lat="43.1238429" lon="12.2332875"><ele>234.0</ele><time>2026-05-02T05:49:21.487Z</time></trkpt><trkpt lat="43.1239994" lon="12.2333502"><ele>235.33333333333331</ele><time>2026-05-02T05:49:22.492Z</time></trkpt><trkpt lat="43.1241535" lon="12.2334104"><ele>236.66666666666666</ele><time>2026-05-02T05:49:23.49Z</time></trkpt><trkpt lat="43.1243111" lon="12.2334669"><ele>238.0</ele><time>2026-05-02T05:49:24.499Z</time></trkpt><trkpt lat="43.1244689" lon="12.2335278"><ele>238.0</ele><time>2026-05-02T05:49:25.485Z</time></trkpt><trkpt lat="43.1246251" lon="12.2335878"><ele>238.0</ele><time>2026-05-02T05:49:26.493Z</time></trkpt><trkpt lat="43.1247849" lon="12.2336485"><ele>238.0</ele><time>2026-05-02T05:49:27.489Z</time></trkpt><trkpt lat="43.1249454" lon="12.2337089"><ele>238.66666666666666</ele><time>2026-05-02T05:49:28.486Z</time></trkpt><trkpt lat="43.1251062" lon="12.2337708"><ele>239.33333333333331</ele><time>2026-05-02T05:49:29.494Z</time></trkpt><trkpt lat="43.1252569" lon="12.2338247"><ele>240.0</ele><time>2026-05-02T05:49:30.489Z</time></trkpt><trkpt lat="43.1253945" lon="12.2338774"><ele>240.0</ele><time>2026-05-02T05:49:31.499Z</time></trkpt><trkpt lat="43.1255274" lon="12.2339271"><ele>240.0</ele><time>2026-05-02T05:49:32.485Z</time></trkpt><trkpt lat="43.1256243" lon="12.2339703"><ele>240.0</ele><time>2026-05-02T05:49:33.493Z</time></trkpt><trkpt lat="43.1257127" lon="12.2340303"><ele>240.0</ele><time>2026-05-02T05:49:34.49Z</time></trkpt><trkpt lat="43.1257869" lon="12.2341075"><ele>240.0</ele><time>2026-05-02T05:49:35.484Z</time></trkpt><trkpt lat="43.1258415" lon="12.2342002"><ele>239.0</ele><time>2026-05-02T05:49:36.489Z</time></trkpt><trkpt lat="43.1258772" lon="12.2343088"><ele>238.0</ele><time>2026-05-02T05:49:37.493Z</time></trkpt><trkpt lat="43.1259219" lon="12.234376"><ele>237.0</ele><time>2026-05-02T05:49:38.487Z</time></trkpt><trkpt lat="43.1260377" lon="12.2344076"><ele>236.0</ele><time>2026-05-02T05:49:40.49Z</time></trkpt><trkpt lat="43.12612" lon="12.2343478"><ele>235.0</ele><time>2026-05-02T05:49:41.489Z</time></trkpt><trkpt lat="43.1262363" lon="12.2344011"><ele>235.0</ele><time>2026-05-02T05:49:43.495Z</time></trkpt><trkpt lat="43.1262936" lon="12.2345026"><ele>235.0</ele><time>2026-05-02T05:49:44.489Z</time></trkpt><trkpt lat="43.1263531" lon="12.234615"><ele>235.0</ele><time>2026-05-02T05:49:45.487Z</time></trkpt><trkpt lat="43.1264086" lon="12.2347379"><ele>235.0</ele><time>2026-05-02T05:49:46.492Z</time></trkpt><trkpt lat="43.1264627" lon="12.2348662"><ele>235.0</ele><time>2026-05-02T05:49:47.488Z</time></trkpt><trkpt lat="43.126506" lon="12.2349701"><ele>234.49999999999997</ele><time>2026-05-02T05:49:48.488Z</time></trkpt><trkpt lat="43.1265466" lon="12.2350691"><ele>234.0</ele><time>2026-05-02T05:49:49.489Z</time></trkpt><trkpt lat="43.1265836" lon="12.2351634"><ele>233.5</ele><time>2026-05-02T05:49:50.488Z</time></trkpt><trkpt lat="43.1266227" lon="12.2352587"><ele>233.0</ele><time>2026-05-02T05:49:51.492Z</time></trkpt><trkpt lat="43.1266625" lon="12.2353619"><ele>232.49999999999997</ele><time>2026-05-02T05:49:52.489Z</time></trkpt><trkpt lat="43.1267058" lon="12.2354659"><ele>232.0</ele><time>2026-05-02T05:49:53.493Z</time></trkpt><trkpt lat="43.1267453" lon="12.2355766"><ele>232.0</ele><time>2026-05-02T05:49:54.486Z</time></trkpt><trkpt lat="43.1267859" lon="12.2356811"><ele>232.0</ele><time>2026-05-02T05:49:55.493Z</time></trkpt><trkpt lat="43.1268289" lon="12.2357986"><ele>232.0</ele><time>2026-05-02T05:49:56.492Z</time></trkpt><trkpt lat="43.1268742" lon="12.2359244"><ele>232.0</ele><time>2026-05-02T05:49:57.491Z</time></trkpt><trkpt lat="43.1269174" lon="12.2360523"><ele>232.0</ele><time>2026-05-02T05:49:58.496Z</time></trkpt><trkpt lat="43.1269587" lon="12.2361774"><ele>232.0</ele><time>2026-05-02T05:49:59.493Z</time></trkpt><trkpt lat="43.1269973" lon="12.2362882"><ele>232.0</ele><time>2026-05-02T05:50:00.489Z</time></trkpt><trkpt lat="43.1270368" lon="12.2364002"><ele>232.0</ele><time>2026-05-02T05:50:01.487Z</time></trkpt><trkpt lat="43.1270795" lon="12.2364921"><ele>232.0</ele><time>2026-05-02T05:50:02.488Z</time></trkpt><trkpt lat="43.1271679" lon="12.2366272"><ele>232.0</ele><time>2026-05-02T05:50:04.486Z</time></trkpt><trkpt lat="43.1272186" lon="12.2367034"><ele>231.6</ele><time>2026-05-02T05:50:05.492Z</time></trkpt><trkpt lat="43.1272761" lon="12.2367946"><ele>231.2</ele><time>2026-05-02T05:50:06.488Z</time></trkpt><trkpt lat="43.1273354" lon="12.2368914"><ele>230.8</ele><time>2026-05-02T05:50:07.488Z</time></trkpt><trkpt lat="43.1273995" lon="12.2370054"><ele>230.4</ele><time>2026-05-02T05:50:08.492Z</time></trkpt><trkpt lat="43.1274615" lon="12.2371317"><ele>230.0</ele><time>2026-05-02T05:50:09.49Z</time></trkpt><trkpt lat="43.1275209" lon="12.2372705"><ele>230.0</ele><time>2026-05-02T05:50:10.488Z</time></trkpt><trkpt lat="43.1275778" lon="12.2374158"><ele>230.0</ele><time>2026-05-02T05:50:11.492Z</time></trkpt><trkpt lat="43.1276355" lon="12.2375584"><ele>230.0</ele><time>2026-05-02T05:50:12.493Z</time></trkpt><trkpt lat="43.1276919" lon="12.2376949"><ele>230.0</ele><time>2026-05-02T05:50:13.49Z</time></trkpt><trkpt lat="43.1277427" lon="12.2378151"><ele>230.00000000000003</ele><time>2026-05-02T05:50:14.487Z</time></trkpt><trkpt lat="43.127793" lon="12.2379059"><ele>230.0</ele><time>2026-05-02T05:50:15.485Z</time></trkpt><trkpt lat="43.1278526" lon="12.2379522"><ele>230.0</ele><time>2026-05-02T05:50:16.487Z</time></trkpt><trkpt lat="43.1279187" lon="12.2379469"><ele>230.0</ele><time>2026-05-02T05:50:17.493Z</time></trkpt><trkpt lat="43.1279955" lon="12.2378926"><ele>230.00000000000003</ele><time>2026-05-02T05:50:18.502Z</time></trkpt><trkpt lat="43.1280914" lon="12.2378055"><ele>230.0</ele><time>2026-05-02T05:50:19.49Z</time></trkpt><trkpt lat="43.1282049" lon="12.2376974"><ele>230.0</ele><time>2026-05-02T05:50:20.495Z</time></trkpt><trkpt lat="43.128324" lon="12.2375842"><ele>230.0</ele><time>2026-05-02T05:50:21.487Z</time></trkpt><trkpt lat="43.1284516" lon="12.2374644"><ele>230.0</ele><time>2026-05-02T05:50:22.483Z</time></trkpt><trkpt lat="43.1285871" lon="12.2373374"><ele>229.66666666666669</ele><time>2026-05-02T05:50:23.488Z</time></trkpt><trkpt lat="43.1287228" lon="12.2372118"><ele>229.33333333333331</ele><time>2026-05-02T05:50:24.484Z</time></trkpt><trkpt lat="43.1288653" lon="12.2370773"><ele>229.0</ele><time>2026-05-02T05:50:25.485Z</time></trkpt><trkpt lat="43.1290116" lon="12.2369438"><ele>229.33333333333331</ele><time>2026-05-02T05:50:26.494Z</time></trkpt><trkpt lat="43.129159" lon="12.2368069"><ele>229.66666666666669</ele><time>2026-05-02T05:50:27.492Z</time></trkpt><trkpt lat="43.1293059" lon="12.2366663"><ele>230.0</ele><time>2026-05-02T05:50:28.488Z</time></trkpt><trkpt lat="43.1294487" lon="12.2365264"><ele>230.33333333333334</ele><time>2026-05-02T05:50:29.492Z</time></trkpt><trkpt lat="43.1295917" lon="12.2363833"><ele>230.66666666666669</ele><time>2026-05-02T05:50:30.486Z</time></trkpt><trkpt lat="43.1297344" lon="12.2362445"><ele>231.0</ele><time>2026-05-02T05:50:31.485Z</time></trkpt><trkpt lat="43.1298778" lon="12.2361064"><ele>231.0</ele><time>2026-05-02T05:50:32.495Z</time></trkpt><trkpt lat="43.1300186" lon="12.2359693"><ele>231.0</ele><time>2026-05-02T05:50:33.486Z</time></trkpt><trkpt lat="43.1301591" lon="12.235833"><ele>231.0</ele><time>2026-05-02T05:50:34.483Z</time></trkpt><trkpt lat="43.1302975" lon="12.2356959"><ele>231.0</ele><time>2026-05-02T05:50:35.493Z</time></trkpt><trkpt lat="43.130438" lon="12.2355607"><ele>231.0</ele><time>2026-05-02T05:50:36.496Z</time></trkpt><trkpt lat="43.1305781" lon="12.23543"><ele>231.0</ele><time>2026-05-02T05:50:37.484Z</time></trkpt><trkpt lat="43.1307114" lon="12.2352963"><ele>231.0</ele><time>2026-05-02T05:50:38.493Z</time></trkpt><trkpt lat="43.1308466" lon="12.2351677"><ele>231.0</ele><time>2026-05-02T05:50:39.485Z</time></trkpt><trkpt lat="43.1309771" lon="12.2350452"><ele>231.0</ele><time>2026-05-02T05:50:40.487Z</time></trkpt><trkpt lat="43.1311061" lon="12.2349173"><ele>231.0</ele><time>2026-05-02T05:50:41.493Z</time></trkpt><trkpt lat="43.1312387" lon="12.2347908"><ele>231.0</ele><time>2026-05-02T05:50:42.489Z</time></trkpt><trkpt lat="43.1313623" lon="12.2346658"><ele>231.0</ele><time>2026-05-02T05:50:43.487Z</time></trkpt><trkpt lat="43.1314821" lon="12.2345541"><ele>230.75</ele><time>2026-05-02T05:50:44.501Z</time></trkpt><trkpt lat="43.131596" lon="12.2344531"><ele>230.5</ele><time>2026-05-02T05:50:45.502Z</time></trkpt><trkpt lat="43.131707" lon="12.2343822"><ele>230.25</ele><time>2026-05-02T05:50:46.488Z</time></trkpt><trkpt lat="43.1318225" lon="12.2343472"><ele>230.0</ele><time>2026-05-02T05:50:47.493Z</time></trkpt><trkpt lat="43.1319423" lon="12.2343426"><ele>230.0</ele><time>2026-05-02T05:50:48.487Z</time></trkpt><trkpt lat="43.1320645" lon="12.2344001"><ele>230.0</ele><time>2026-05-02T05:50:49.485Z</time></trkpt><trkpt lat="43.1321919" lon="12.2344754"><ele>230.0</ele><time>2026-05-02T05:50:50.488Z</time></trkpt><trkpt lat="43.1323237" lon="12.2345641"><ele>230.0</ele><time>2026-05-02T05:50:51.5Z</time></trkpt><trkpt lat="43.1324628" lon="12.2346569"><ele>230.0</ele><time>2026-05-02T05:50:52.488Z</time></trkpt><trkpt lat="43.1326061" lon="12.2347406"><ele>230.0</ele><time>2026-05-02T05:50:53.494Z</time></trkpt><trkpt lat="43.1327487" lon="12.2348342"><ele>230.0</ele><time>2026-05-02T05:50:54.487Z</time></trkpt><trkpt lat="43.1329032" lon="12.2349167"><ele>230.0</ele><time>2026-05-02T05:50:55.494Z</time></trkpt><trkpt lat="43.1330614" lon="12.2349977"><ele>230.0</ele><time>2026-05-02T05:50:56.489Z</time></trkpt><trkpt lat="43.1332196" lon="12.2350846"><ele>230.0</ele><time>2026-05-02T05:50:57.489Z</time></trkpt><trkpt lat="43.1333822" lon="12.2351759"><ele>229.66666666666669</ele><time>2026-05-02T05:50:58.484Z</time></trkpt><trkpt lat="43.1335457" lon="12.2352703"><ele>229.33333333333331</ele><time>2026-05-02T05:50:59.488Z</time></trkpt><trkpt lat="43.1336964" lon="12.2353563"><ele>229.0</ele><time>2026-05-02T05:51:00.484Z</time></trkpt><trkpt lat="43.1338384" lon="12.2354383"><ele>229.0</ele><time>2026-05-02T05:51:01.489Z</time></trkpt><trkpt lat="43.1339711" lon="12.235511"><ele>229.0</ele><time>2026-05-02T05:51:02.495Z</time></trkpt><trkpt lat="43.1341008" lon="12.2355768"><ele>229.0</ele><time>2026-05-02T05:51:03.488Z</time></trkpt><trkpt lat="43.1342242" lon="12.2356363"><ele>229.0</ele><time>2026-05-02T05:51:04.49Z</time></trkpt><trkpt lat="43.1343386" lon="12.2356889"><ele>229.25</ele><time>2026-05-02T05:51:05.487Z</time></trkpt><trkpt lat="43.1344441" lon="12.2357424"><ele>229.5</ele><time>2026-05-02T05:51:06.484Z</time></trkpt><trkpt lat="43.1345453" lon="12.2358018"><ele>229.75</ele><time>2026-05-02T05:51:07.496Z</time></trkpt><trkpt lat="43.1346548" lon="12.2358604"><ele>230.0</ele><time>2026-05-02T05:51:08.49Z</time></trkpt><trkpt lat="43.1347747" lon="12.2359244"><ele>230.25</ele><time>2026-05-02T05:51:09.485Z</time></trkpt><trkpt lat="43.1349037" lon="12.2359935"><ele>230.5</ele><time>2026-05-02T05:51:10.486Z</time></trkpt><trkpt lat="43.1350373" lon="12.2360667"><ele>230.75</ele><time>2026-05-02T05:51:11.487Z</time></trkpt><trkpt lat="43.1351732" lon="12.2361473"><ele>231.0</ele><time>2026-05-02T05:51:12.494Z</time></trkpt><trkpt lat="43.1353064" lon="12.2362284"><ele>231.0</ele><time>2026-05-02T05:51:13.49Z</time></trkpt><trkpt lat="43.1354266" lon="12.2363046"><ele>231.0</ele><time>2026-05-02T05:51:14.485Z</time></trkpt><trkpt lat="43.1355334" lon="12.2363722"><ele>231.0</ele><time>2026-05-02T05:51:15.486Z</time></trkpt><trkpt lat="43.1356515" lon="12.2364457"><ele>231.0</ele><time>2026-05-02T05:51:16.487Z</time></trkpt><trkpt lat="43.1357813" lon="12.2365101"><ele>230.66666666666669</ele><time>2026-05-02T05:51:17.493Z</time></trkpt><trkpt lat="43.1359182" lon="12.2365738"><ele>230.33333333333334</ele><time>2026-05-02T05:51:18.49Z</time></trkpt><trkpt lat="43.1360638" lon="12.2366502"><ele>230.0</ele><time>2026-05-02T05:51:19.5Z</time></trkpt><trkpt lat="43.1362106" lon="12.2367289"><ele>230.0</ele><time>2026-05-02T05:51:20.492Z</time></trkpt><trkpt lat="43.1363635" lon="12.2368097"><ele>230.0</ele><time>2026-05-02T05:51:21.484Z</time></trkpt><trkpt lat="43.1365212" lon="12.2368955"><ele>230.0</ele><time>2026-05-02T05:51:22.488Z</time></trkpt><trkpt lat="43.1366801" lon="12.2369844"><ele>230.33333333333334</ele><time>2026-05-02T05:51:23.49Z</time></trkpt><trkpt lat="43.1368396" lon="12.2370687"><ele>230.66666666666669</ele><time>2026-05-02T05:51:24.485Z</time></trkpt><trkpt lat="43.1369971" lon="12.2371514"><ele>231.0</ele><time>2026-05-02T05:51:25.496Z</time></trkpt><trkpt lat="43.1371543" lon="12.2372352"><ele>230.66666666666669</ele><time>2026-05-02T05:51:26.488Z</time></trkpt><trkpt lat="43.1373081" lon="12.2373182"><ele>230.33333333333334</ele><time>2026-05-02T05:51:27.489Z</time></trkpt><trkpt lat="43.1374629" lon="12.2374016"><ele>230.0</ele><time>2026-05-02T05:51:28.51Z</time></trkpt><trkpt lat="43.1376135" lon="12.2374853"><ele>231.33333333333334</ele><time>2026-05-02T05:51:29.502Z</time></trkpt><trkpt lat="43.1377646" lon="12.237572"><ele>232.66666666666669</ele><time>2026-05-02T05:51:30.496Z</time></trkpt><trkpt lat="43.1379135" lon="12.237654"><ele>234.0</ele><time>2026-05-02T05:51:31.491Z</time></trkpt><trkpt lat="43.1380552" lon="12.237735"><ele>234.0</ele><time>2026-05-02T05:51:32.484Z</time></trkpt><trkpt lat="43.1381833" lon="12.2378072"><ele>234.0</ele><time>2026-05-02T05:51:33.484Z</time></trkpt><trkpt lat="43.1383033" lon="12.2378722"><ele>234.0</ele><time>2026-05-02T05:51:34.488Z</time></trkpt><trkpt lat="43.138402" lon="12.2379265"><ele>234.0</ele><time>2026-05-02T05:51:35.492Z</time></trkpt><trkpt lat="43.138484" lon="12.237976"><ele>234.2</ele><time>2026-05-02T05:51:36.49Z</time></trkpt><trkpt lat="43.1385767" lon="12.2380338"><ele>234.39999999999998</ele><time>2026-05-02T05:51:38.494Z</time></trkpt><trkpt lat="43.1386735" lon="12.2380177"><ele>234.6</ele><time>2026-05-02T05:51:42.49Z</time></trkpt><trkpt lat="43.1387476" lon="12.2378565"><ele>234.8</ele><time>2026-05-02T05:51:44.5Z</time></trkpt><trkpt lat="43.1387714" lon="12.2377345"><ele>235.0</ele><time>2026-05-02T05:51:45.489Z</time></trkpt><trkpt lat="43.1387987" lon="12.2375889"><ele>235.0</ele><time>2026-05-02T05:51:46.495Z</time></trkpt><trkpt lat="43.1388348" lon="12.2374253"><ele>235.0</ele><time>2026-05-02T05:51:47.491Z</time></trkpt><trkpt lat="43.1388759" lon="12.2372568"><ele>235.0</ele><time>2026-05-02T05:51:48.493Z</time></trkpt><trkpt lat="43.1389135" lon="12.2370739"><ele>235.0</ele><time>2026-05-02T05:51:49.491Z</time></trkpt><trkpt lat="43.1389592" lon="12.2368815"><ele>235.0</ele><time>2026-05-02T05:51:50.491Z</time></trkpt><trkpt lat="43.1390084" lon="12.236681"><ele>235.0</ele><time>2026-05-02T05:51:51.493Z</time></trkpt><trkpt lat="43.1390584" lon="12.2364813"><ele>235.0</ele><time>2026-05-02T05:51:52.49Z</time></trkpt><trkpt lat="43.1391095" lon="12.2362703"><ele>235.0</ele><time>2026-05-02T05:51:53.489Z</time></trkpt><trkpt lat="43.1391627" lon="12.2360567"><ele>235.0</ele><time>2026-05-02T05:51:54.491Z</time></trkpt><trkpt lat="43.1392137" lon="12.2358435"><ele>235.0</ele><time>2026-05-02T05:51:55.491Z</time></trkpt><trkpt lat="43.1392683" lon="12.2356293"><ele>235.0</ele><time>2026-05-02T05:51:56.489Z</time></trkpt><trkpt lat="43.1393248" lon="12.2354093"><ele>235.0</ele><time>2026-05-02T05:51:57.494Z</time></trkpt><trkpt lat="43.1393748" lon="12.235191"><ele>235.0</ele><time>2026-05-02T05:51:58.495Z</time></trkpt><trkpt lat="43.1394278" lon="12.2349781"><ele>235.0</ele><time>2026-05-02T05:51:59.49Z</time></trkpt><trkpt lat="43.1394797" lon="12.2347609"><ele>235.0</ele><time>2026-05-02T05:52:00.494Z</time></trkpt><trkpt lat="43.1395299" lon="12.2345513"><ele>235.0</ele><time>2026-05-02T05:52:01.496Z</time></trkpt><trkpt lat="43.1395814" lon="12.2343361"><ele>235.0</ele><time>2026-05-02T05:52:02.487Z</time></trkpt><trkpt lat="43.1396375" lon="12.2341166"><ele>235.0</ele><time>2026-05-02T05:52:03.5Z</time></trkpt><trkpt lat="43.139688" lon="12.2338978"><ele>235.0</ele><time>2026-05-02T05:52:04.486Z</time></trkpt><trkpt lat="43.1397375" lon="12.2336866"><ele>235.0</ele><time>2026-05-02T05:52:05.487Z</time></trkpt><trkpt lat="43.1397903" lon="12.2334778"><ele>235.0</ele><time>2026-05-02T05:52:06.491Z</time></trkpt><trkpt lat="43.1398414" lon="12.2332705"><ele>235.0</ele><time>2026-05-02T05:52:07.487Z</time></trkpt><trkpt lat="43.1398903" lon="12.2330653"><ele>235.33333333333331</ele><time>2026-05-02T05:52:08.495Z</time></trkpt><trkpt lat="43.1399336" lon="12.2328614"><ele>235.66666666666669</ele><time>2026-05-02T05:52:09.491Z</time></trkpt><trkpt lat="43.1399745" lon="12.2326622"><ele>236.0</ele><time>2026-05-02T05:52:10.484Z</time></trkpt><trkpt lat="43.1400205" lon="12.2324559"><ele>236.0</ele><time>2026-05-02T05:52:11.485Z</time></trkpt><trkpt lat="43.1400694" lon="12.2322498"><ele>236.0</ele><time>2026-05-02T05:52:12.487Z</time></trkpt><trkpt lat="43.1401235" lon="12.2320413"><ele>236.0</ele><time>2026-05-02T05:52:13.484Z</time></trkpt><trkpt lat="43.140175" lon="12.2318334"><ele>236.0</ele><time>2026-05-02T05:52:14.488Z</time></trkpt><trkpt lat="43.1402273" lon="12.2316222"><ele>236.0</ele><time>2026-05-02T05:52:15.487Z</time></trkpt><trkpt lat="43.1402776" lon="12.231405"><ele>236.0</ele><time>2026-05-02T05:52:16.484Z</time></trkpt><trkpt lat="43.1403353" lon="12.2311834"><ele>236.0</ele><time>2026-05-02T05:52:17.495Z</time></trkpt><trkpt lat="43.1403965" lon="12.2309514"><ele>236.0</ele><time>2026-05-02T05:52:18.49Z</time></trkpt><trkpt lat="43.1404555" lon="12.2307127"><ele>236.0</ele><time>2026-05-02T05:52:19.486Z</time></trkpt><trkpt lat="43.1405114" lon="12.2304852"><ele>236.0</ele><time>2026-05-02T05:52:20.491Z</time></trkpt><trkpt lat="43.1405607" lon="12.2302701"><ele>236.0</ele><time>2026-05-02T05:52:21.49Z</time></trkpt><trkpt lat="43.1406084" lon="12.2300707"><ele>236.0</ele><time>2026-05-02T05:52:22.485Z</time></trkpt><trkpt lat="43.140659" lon="12.2298832"><ele>235.75</ele><time>2026-05-02T05:52:23.483Z</time></trkpt><trkpt lat="43.1407065" lon="12.2297109"><ele>235.5</ele><time>2026-05-02T05:52:24.493Z</time></trkpt><trkpt lat="43.1407529" lon="12.2295432"><ele>235.25</ele><time>2026-05-02T05:52:25.49Z</time></trkpt><trkpt lat="43.1408002" lon="12.2293678"><ele>235.0</ele><time>2026-05-02T05:52:26.484Z</time></trkpt><trkpt lat="43.1408456" lon="12.229185"><ele>234.75</ele><time>2026-05-02T05:52:27.49Z</time></trkpt><trkpt lat="43.1408889" lon="12.2289942"><ele>234.5</ele><time>2026-05-02T05:52:28.496Z</time></trkpt><trkpt lat="43.140933" lon="12.2288107"><ele>234.25</ele><time>2026-05-02T05:52:29.49Z</time></trkpt><trkpt lat="43.1409744" lon="12.2286362"><ele>234.0</ele><time>2026-05-02T05:52:30.486Z</time></trkpt><trkpt lat="43.1410099" lon="12.2284944"><ele>234.33333333333334</ele><time>2026-05-02T05:52:31.495Z</time></trkpt><trkpt lat="43.1410341" lon="12.2283975"><ele>234.66666666666669</ele><time>2026-05-02T05:52:32.491Z</time></trkpt><trkpt lat="43.1410584" lon="12.228293"><ele>235.0</ele><time>2026-05-02T05:52:34.492Z</time></trkpt><trkpt lat="43.1410919" lon="12.2281874"><ele>235.33333333333334</ele><time>2026-05-02T05:52:37.486Z</time></trkpt><trkpt lat="43.1411139" lon="12.2281055"><ele>235.66666666666669</ele><time>2026-05-02T05:52:38.487Z</time></trkpt><trkpt lat="43.1411455" lon="12.2279863"><ele>236.0</ele><time>2026-05-02T05:52:39.493Z</time></trkpt><trkpt lat="43.1411786" lon="12.2278574"><ele>236.0</ele><time>2026-05-02T05:52:40.494Z</time></trkpt><trkpt lat="43.1412162" lon="12.2277079"><ele>236.0</ele><time>2026-05-02T05:52:41.486Z</time></trkpt><trkpt lat="43.1412625" lon="12.2275453"><ele>236.0</ele><time>2026-05-02T05:52:42.486Z</time></trkpt><trkpt lat="43.1413129" lon="12.2273819"><ele>236.0</ele><time>2026-05-02T05:52:43.489Z</time></trkpt><trkpt lat="43.1413697" lon="12.2272181"><ele>236.0</ele><time>2026-05-02T05:52:44.488Z</time></trkpt><trkpt lat="43.1414423" lon="12.2270871"><ele>236.00000000000003</ele><time>2026-05-02T05:52:45.485Z</time></trkpt><trkpt lat="43.1415357" lon="12.2269853"><ele>236.00000000000003</ele><time>2026-05-02T05:52:46.485Z</time></trkpt><trkpt lat="43.1416311" lon="12.2269126"><ele>236.0</ele><time>2026-05-02T05:52:47.492Z</time></trkpt><trkpt lat="43.1417132" lon="12.2268431"><ele>236.0</ele><time>2026-05-02T05:52:48.494Z</time></trkpt><trkpt lat="43.1417671" lon="12.2267461"><ele>236.4</ele><time>2026-05-02T05:52:49.494Z</time></trkpt><trkpt lat="43.1418001" lon="12.2266229"><ele>236.8</ele><time>2026-05-02T05:52:50.489Z</time></trkpt><trkpt lat="43.1418369" lon="12.2265003"><ele>237.20000000000002</ele><time>2026-05-02T05:52:51.495Z</time></trkpt><trkpt lat="43.1418924" lon="12.2263824"><ele>237.60000000000002</ele><time>2026-05-02T05:52:52.489Z</time></trkpt><trkpt lat="43.1419318" lon="12.2262561"><ele>238.0</ele><time>2026-05-02T05:52:53.492Z</time></trkpt><trkpt lat="43.1419465" lon="12.2261212"><ele>237.99999999999997</ele><time>2026-05-02T05:52:54.49Z</time></trkpt><trkpt lat="43.1419537" lon="12.2259869"><ele>238.0</ele><time>2026-05-02T05:52:55.487Z</time></trkpt><trkpt lat="43.1419761" lon="12.2258697"><ele>238.0</ele><time>2026-05-02T05:52:56.489Z</time></trkpt><trkpt lat="43.1420213" lon="12.2257904"><ele>238.0</ele><time>2026-05-02T05:52:57.497Z</time></trkpt><trkpt lat="43.1420933" lon="12.2257492"><ele>237.99999999999997</ele><time>2026-05-02T05:52:58.495Z</time></trkpt><trkpt lat="43.1421841" lon="12.2257395"><ele>238.0</ele><time>2026-05-02T05:52:59.495Z</time></trkpt><trkpt lat="43.1422832" lon="12.2257274"><ele>238.0</ele><time>2026-05-02T05:53:00.487Z</time></trkpt><trkpt lat="43.1423775" lon="12.225683"><ele>238.0</ele><time>2026-05-02T05:53:01.493Z</time></trkpt><trkpt lat="43.1424661" lon="12.2256014"><ele>238.0</ele><time>2026-05-02T05:53:02.491Z</time></trkpt><trkpt lat="43.1425464" lon="12.2254818"><ele>238.0</ele><time>2026-05-02T05:53:03.492Z</time></trkpt><trkpt lat="43.1426248" lon="12.2253455"><ele>237.75</ele><time>2026-05-02T05:53:04.494Z</time></trkpt><trkpt lat="43.1427052" lon="12.2251981"><ele>237.5</ele><time>2026-05-02T05:53:05.504Z</time></trkpt><trkpt lat="43.1427904" lon="12.2250417"><ele>237.25</ele><time>2026-05-02T05:53:06.494Z</time></trkpt><trkpt lat="43.1428821" lon="12.2248834"><ele>237.0</ele><time>2026-05-02T05:53:07.492Z</time></trkpt><trkpt lat="43.1429786" lon="12.2247227"><ele>237.0</ele><time>2026-05-02T05:53:08.487Z</time></trkpt><trkpt lat="43.1430811" lon="12.2245641"><ele>237.0</ele><time>2026-05-02T05:53:09.491Z</time></trkpt><trkpt lat="43.1431803" lon="12.2244002"><ele>237.0</ele><time>2026-05-02T05:53:10.49Z</time></trkpt><trkpt lat="43.1432839" lon="12.2242354"><ele>238.33333333333331</ele><time>2026-05-02T05:53:11.494Z</time></trkpt><trkpt lat="43.1433913" lon="12.2240847"><ele>239.66666666666666</ele><time>2026-05-02T05:53:12.488Z</time></trkpt><trkpt lat="43.1435133" lon="12.2239422"><ele>241.0</ele><time>2026-05-02T05:53:13.492Z</time></trkpt><trkpt lat="43.1436312" lon="12.2238014"><ele>241.0</ele><time>2026-05-02T05:53:14.49Z</time></trkpt><trkpt lat="43.1437596" lon="12.2236619"><ele>241.0</ele><time>2026-05-02T05:53:15.487Z</time></trkpt><trkpt lat="43.1438853" lon="12.2235162"><ele>241.0</ele><time>2026-05-02T05:53:16.495Z</time></trkpt><trkpt lat="43.1440109" lon="12.2233649"><ele>241.33333333333331</ele><time>2026-05-02T05:53:17.49Z</time></trkpt><trkpt lat="43.1441338" lon="12.2232195"><ele>241.66666666666669</ele><time>2026-05-02T05:53:18.493Z</time></trkpt><trkpt lat="43.1442573" lon="12.2230763"><ele>242.0</ele><time>2026-05-02T05:53:19.496Z</time></trkpt><trkpt lat="43.1443867" lon="12.2229447"><ele>242.0</ele><time>2026-05-02T05:53:20.506Z</time></trkpt><trkpt lat="43.144519" lon="12.2228215"><ele>242.0</ele><time>2026-05-02T05:53:21.486Z</time></trkpt><trkpt lat="43.1446569" lon="12.2227098"><ele>242.0</ele><time>2026-05-02T05:53:22.496Z</time></trkpt><trkpt lat="43.1447962" lon="12.2226015"><ele>242.0</ele><time>2026-05-02T05:53:23.489Z</time></trkpt><trkpt lat="43.1449447" lon="12.2224881"><ele>242.0</ele><time>2026-05-02T05:53:24.487Z</time></trkpt><trkpt lat="43.1450888" lon="12.2223859"><ele>242.0</ele><time>2026-05-02T05:53:25.485Z</time></trkpt><trkpt lat="43.145242" lon="12.2222882"><ele>242.0</ele><time>2026-05-02T05:53:26.487Z</time></trkpt><trkpt lat="43.1453921" lon="12.2221861"><ele>242.0</ele><time>2026-05-02T05:53:27.495Z</time></trkpt><trkpt lat="43.1455465" lon="12.2220914"><ele>242.0</ele><time>2026-05-02T05:53:28.492Z</time></trkpt><trkpt lat="43.1457004" lon="12.2219999"><ele>242.0</ele><time>2026-05-02T05:53:29.491Z</time></trkpt><trkpt lat="43.1458489" lon="12.2219038"><ele>242.0</ele><time>2026-05-02T05:53:30.485Z</time></trkpt><trkpt lat="43.1459978" lon="12.2218095"><ele>242.0</ele><time>2026-05-02T05:53:31.485Z</time></trkpt><trkpt lat="43.1461442" lon="12.2217112"><ele>242.0</ele><time>2026-05-02T05:53:32.485Z</time></trkpt><trkpt lat="43.1462862" lon="12.2216058"><ele>242.0</ele><time>2026-05-02T05:53:33.486Z</time></trkpt><trkpt lat="43.1464352" lon="12.2214978"><ele>242.0</ele><time>2026-05-02T05:53:34.487Z</time></trkpt><trkpt lat="43.1465833" lon="12.2213928"><ele>242.66666666666669</ele><time>2026-05-02T05:53:35.496Z</time></trkpt><trkpt lat="43.1467325" lon="12.2212879"><ele>243.33333333333331</ele><time>2026-05-02T05:53:36.486Z</time></trkpt><trkpt lat="43.1468791" lon="12.2211875"><ele>244.0</ele><time>2026-05-02T05:53:37.494Z</time></trkpt><trkpt lat="43.1470272" lon="12.2210952"><ele>244.0</ele><time>2026-05-02T05:53:38.488Z</time></trkpt><trkpt lat="43.1471727" lon="12.2210004"><ele>244.0</ele><time>2026-05-02T05:53:39.485Z</time></trkpt><trkpt lat="43.1473159" lon="12.2209038"><ele>244.0</ele><time>2026-05-02T05:53:40.486Z</time></trkpt><trkpt lat="43.1474596" lon="12.2208078"><ele>244.0</ele><time>2026-05-02T05:53:41.486Z</time></trkpt><trkpt lat="43.1476032" lon="12.2207113"><ele>244.0</ele><time>2026-05-02T05:53:42.487Z</time></trkpt><trkpt lat="43.1477367" lon="12.2206278"><ele>244.0</ele><time>2026-05-02T05:53:43.494Z</time></trkpt><trkpt lat="43.1478539" lon="12.2205547"><ele>244.0</ele><time>2026-05-02T05:53:44.493Z</time></trkpt><trkpt lat="43.1479577" lon="12.2204924"><ele>243.83333333333331</ele><time>2026-05-02T05:53:45.505Z</time></trkpt><trkpt lat="43.1480545" lon="12.22045"><ele>243.66666666666666</ele><time>2026-05-02T05:53:46.485Z</time></trkpt><trkpt lat="43.1481323" lon="12.220428"><ele>243.5</ele><time>2026-05-02T05:53:47.49Z</time></trkpt><trkpt lat="43.1482019" lon="12.2204237"><ele>243.33333333333331</ele><time>2026-05-02T05:53:48.489Z</time></trkpt><trkpt lat="43.1482806" lon="12.2205274"><ele>243.16666666666666</ele><time>2026-05-02T05:53:50.503Z</time></trkpt><trkpt lat="43.148322" lon="12.2205999"><ele>243.0</ele><time>2026-05-02T05:53:51.489Z</time></trkpt><trkpt lat="43.1483753" lon="12.2206732"><ele>243.60000000000002</ele><time>2026-05-02T05:53:52.49Z</time></trkpt><trkpt lat="43.1484089" lon="12.2208291"><ele>244.20000000000002</ele><time>2026-05-02T05:53:53.495Z</time></trkpt><trkpt lat="43.1484611" lon="12.2209219"><ele>244.8</ele><time>2026-05-02T05:53:54.486Z</time></trkpt><trkpt lat="43.1485441" lon="12.2209856"><ele>245.4</ele><time>2026-05-02T05:53:55.487Z</time></trkpt><trkpt lat="43.1486308" lon="12.2210298"><ele>246.0</ele><time>2026-05-02T05:53:56.489Z</time></trkpt><trkpt lat="43.1487539" lon="12.2210591"><ele>246.0</ele><time>2026-05-02T05:53:57.491Z</time></trkpt><trkpt lat="43.148867" lon="12.2210916"><ele>246.0</ele><time>2026-05-02T05:53:58.488Z</time></trkpt><trkpt lat="43.148994" lon="12.2211327"><ele>246.0</ele><time>2026-05-02T05:53:59.487Z</time></trkpt><trkpt lat="43.1491227" lon="12.2211858"><ele>246.0</ele><time>2026-05-02T05:54:00.487Z</time></trkpt><trkpt lat="43.1492561" lon="12.2212414"><ele>246.0</ele><time>2026-05-02T05:54:01.496Z</time></trkpt><trkpt lat="43.1493944" lon="12.221293"><ele>246.0</ele><time>2026-05-02T05:54:02.487Z</time></trkpt><trkpt lat="43.1495362" lon="12.2213414"><ele>246.0</ele><time>2026-05-02T05:54:03.487Z</time></trkpt><trkpt lat="43.1496821" lon="12.2213834"><ele>246.0</ele><time>2026-05-02T05:54:04.49Z</time></trkpt><trkpt lat="43.1498291" lon="12.2214153"><ele>245.66666666666669</ele><time>2026-05-02T05:54:05.49Z</time></trkpt><trkpt lat="43.1499772" lon="12.221447"><ele>245.33333333333334</ele><time>2026-05-02T05:54:06.489Z</time></trkpt><trkpt lat="43.150125" lon="12.2214801"><ele>245.0</ele><time>2026-05-02T05:54:07.49Z</time></trkpt><trkpt lat="43.1502748" lon="12.2215166"><ele>245.66666666666669</ele><time>2026-05-02T05:54:08.488Z</time></trkpt><trkpt lat="43.1504241" lon="12.2215576"><ele>246.33333333333331</ele><time>2026-05-02T05:54:09.487Z</time></trkpt><trkpt lat="43.1505742" lon="12.2215994"><ele>247.0</ele><time>2026-05-02T05:54:10.495Z</time></trkpt><trkpt lat="43.1507195" lon="12.2216393"><ele>247.0</ele><time>2026-05-02T05:54:11.487Z</time></trkpt><trkpt lat="43.1508624" lon="12.2216837"><ele>247.0</ele><time>2026-05-02T05:54:12.487Z</time></trkpt><trkpt lat="43.1510097" lon="12.2217288"><ele>247.0</ele><time>2026-05-02T05:54:13.499Z</time></trkpt><trkpt lat="43.1511591" lon="12.2217742"><ele>247.0</ele><time>2026-05-02T05:54:14.49Z</time></trkpt><trkpt lat="43.1513131" lon="12.2218244"><ele>247.0</ele><time>2026-05-02T05:54:15.488Z</time></trkpt><trkpt lat="43.151468" lon="12.2218687"><ele>247.0</ele><time>2026-05-02T05:54:16.488Z</time></trkpt><trkpt lat="43.1516237" lon="12.221915"><ele>247.33333333333331</ele><time>2026-05-02T05:54:17.487Z</time></trkpt><trkpt lat="43.1517819" lon="12.221965"><ele>247.66666666666669</ele><time>2026-05-02T05:54:18.487Z</time></trkpt><trkpt lat="43.1519374" lon="12.2220174"><ele>248.0</ele><time>2026-05-02T05:54:19.49Z</time></trkpt><trkpt lat="43.1520943" lon="12.222066"><ele>248.0</ele><time>2026-05-02T05:54:20.503Z</time></trkpt><trkpt lat="43.1522477" lon="12.2221138"><ele>248.0</ele><time>2026-05-02T05:54:21.486Z</time></trkpt><trkpt lat="43.1524021" lon="12.2221544"><ele>248.0</ele><time>2026-05-02T05:54:22.499Z</time></trkpt><trkpt lat="43.1525572" lon="12.2221943"><ele>248.0</ele><time>2026-05-02T05:54:23.491Z</time></trkpt><trkpt lat="43.1527125" lon="12.2222382"><ele>248.0</ele><time>2026-05-02T05:54:24.494Z</time></trkpt><trkpt lat="43.1528651" lon="12.2222758"><ele>248.0</ele><time>2026-05-02T05:54:25.493Z</time></trkpt><trkpt lat="43.1530104" lon="12.2223157"><ele>249.0</ele><time>2026-05-02T05:54:26.489Z</time></trkpt><trkpt lat="43.1531476" lon="12.2223618"><ele>250.0</ele><time>2026-05-02T05:54:27.488Z</time></trkpt><trkpt lat="43.1532751" lon="12.2224116"><ele>251.0</ele><time>2026-05-02T05:54:28.488Z</time></trkpt><trkpt lat="43.1534006" lon="12.2224717"><ele>252.0</ele><time>2026-05-02T05:54:29.496Z</time></trkpt><trkpt lat="43.153522" lon="12.222547"><ele>252.0</ele><time>2026-05-02T05:54:30.489Z</time></trkpt><trkpt lat="43.1536369" lon="12.2226436"><ele>252.0</ele><time>2026-05-02T05:54:31.486Z</time></trkpt><trkpt lat="43.1537438" lon="12.2227572"><ele>252.0</ele><time>2026-05-02T05:54:32.488Z</time></trkpt><trkpt lat="43.1538526" lon="12.2228813"><ele>252.0</ele><time>2026-05-02T05:54:33.491Z</time></trkpt><trkpt lat="43.1539547" lon="12.2229875"><ele>251.5</ele><time>2026-05-02T05:54:34.493Z</time></trkpt><trkpt lat="43.1540602" lon="12.2230786"><ele>251.0</ele><time>2026-05-02T05:54:35.495Z</time></trkpt><trkpt lat="43.1541783" lon="12.2231397"><ele>250.5</ele><time>2026-05-02T05:54:36.497Z</time></trkpt><trkpt lat="43.1543081" lon="12.2231724"><ele>250.0</ele><time>2026-05-02T05:54:37.487Z</time></trkpt><trkpt lat="43.1544465" lon="12.2231832"><ele>251.25</ele><time>2026-05-02T05:54:38.494Z</time></trkpt><trkpt lat="43.1545903" lon="12.2231898"><ele>252.5</ele><time>2026-05-02T05:54:39.487Z</time></trkpt><trkpt lat="43.1547327" lon="12.2232033"><ele>253.75</ele><time>2026-05-02T05:54:40.487Z</time></trkpt><trkpt lat="43.1548714" lon="12.2232253"><ele>255.0</ele><time>2026-05-02T05:54:41.491Z</time></trkpt><trkpt lat="43.1550078" lon="12.223243"><ele>255.5</ele><time>2026-05-02T05:54:42.51Z</time></trkpt><trkpt lat="43.1551414" lon="12.2232672"><ele>256.0</ele><time>2026-05-02T05:54:43.49Z</time></trkpt><trkpt lat="43.1552692" lon="12.2232924"><ele>256.5</ele><time>2026-05-02T05:54:44.493Z</time></trkpt><trkpt lat="43.1553871" lon="12.2233132"><ele>257.0</ele><time>2026-05-02T05:54:45.485Z</time></trkpt><trkpt lat="43.1555024" lon="12.223338"><ele>257.0</ele><time>2026-05-02T05:54:46.492Z</time></trkpt><trkpt lat="43.1556201" lon="12.2233701"><ele>257.0</ele><time>2026-05-02T05:54:47.489Z</time></trkpt><trkpt lat="43.1557429" lon="12.2234195"><ele>257.0</ele><time>2026-05-02T05:54:48.498Z</time></trkpt><trkpt lat="43.1558716" lon="12.2234698"><ele>257.0</ele><time>2026-05-02T05:54:49.493Z</time></trkpt><trkpt lat="43.1560005" lon="12.2235179"><ele>256.75</ele><time>2026-05-02T05:54:50.496Z</time></trkpt><trkpt lat="43.1561313" lon="12.2235672"><ele>256.5</ele><time>2026-05-02T05:54:51.488Z</time></trkpt><trkpt lat="43.1562634" lon="12.2236024"><ele>256.25</ele><time>2026-05-02T05:54:52.492Z</time></trkpt><trkpt lat="43.1563976" lon="12.2236112"><ele>256.0</ele><time>2026-05-02T05:54:53.493Z</time></trkpt><trkpt lat="43.156538" lon="12.2236302"><ele>255.25</ele><time>2026-05-02T05:54:54.494Z</time></trkpt><trkpt lat="43.1566672" lon="12.2236462"><ele>254.5</ele><time>2026-05-02T05:54:55.489Z</time></trkpt><trkpt lat="43.1567961" lon="12.2236616"><ele>253.75</ele><time>2026-05-02T05:54:56.493Z</time></trkpt><trkpt lat="43.1569167" lon="12.2236722"><ele>253.0</ele><time>2026-05-02T05:54:57.487Z</time></trkpt><trkpt lat="43.1570384" lon="12.2236846"><ele>252.99999999999997</ele><time>2026-05-02T05:54:58.496Z</time></trkpt><trkpt lat="43.1571369" lon="12.2236959"><ele>253.0</ele><time>2026-05-02T05:54:59.488Z</time></trkpt><trkpt lat="43.1572283" lon="12.223707"><ele>253.0</ele><time>2026-05-02T05:55:00.499Z</time></trkpt><trkpt lat="43.157301" lon="12.2237131"><ele>253.0</ele><time>2026-05-02T05:55:01.489Z</time></trkpt><trkpt lat="43.1573785" lon="12.2237198"><ele>252.99999999999997</ele><time>2026-05-02T05:55:02.489Z</time></trkpt><trkpt lat="43.1574565" lon="12.22373"><ele>253.0</ele><time>2026-05-02T05:55:03.493Z</time></trkpt><trkpt lat="43.1575512" lon="12.2237699"><ele>253.2</ele><time>2026-05-02T05:55:04.489Z</time></trkpt><trkpt lat="43.1576505" lon="12.2238078"><ele>253.4</ele><time>2026-05-02T05:55:05.494Z</time></trkpt><trkpt lat="43.1577494" lon="12.223848"><ele>253.59999999999997</ele><time>2026-05-02T05:55:06.49Z</time></trkpt><trkpt lat="43.1578298" lon="12.2238887"><ele>253.79999999999998</ele><time>2026-05-02T05:55:07.492Z</time></trkpt><trkpt lat="43.1579168" lon="12.2239405"><ele>254.0</ele><time>2026-05-02T05:55:08.486Z</time></trkpt><trkpt lat="43.1580016" lon="12.2240018"><ele>254.25</ele><time>2026-05-02T05:55:09.497Z</time></trkpt><trkpt lat="43.1580896" lon="12.2240739"><ele>254.5</ele><time>2026-05-02T05:55:10.494Z</time></trkpt><trkpt lat="43.1581813" lon="12.2241639"><ele>254.75</ele><time>2026-05-02T05:55:11.488Z</time></trkpt><trkpt lat="43.1582883" lon="12.2242735"><ele>255.0</ele><time>2026-05-02T05:55:12.488Z</time></trkpt><trkpt lat="43.1584141" lon="12.2243838"><ele>255.0</ele><time>2026-05-02T05:55:13.495Z</time></trkpt><trkpt lat="43.1585253" lon="12.2244722"><ele>255.0</ele><time>2026-05-02T05:55:14.486Z</time></trkpt><trkpt lat="43.1586233" lon="12.2245515"><ele>255.0</ele><time>2026-05-02T05:55:15.497Z</time></trkpt><trkpt lat="43.1587178" lon="12.2246131"><ele>255.0</ele><time>2026-05-02T05:55:16.485Z</time></trkpt><trkpt lat="43.1588095" lon="12.2246571"><ele>255.0</ele><time>2026-05-02T05:55:17.49Z</time></trkpt><trkpt lat="43.1589028" lon="12.2247079"><ele>255.0</ele><time>2026-05-02T05:55:18.497Z</time></trkpt><trkpt lat="43.1589869" lon="12.2247378"><ele>255.0</ele><time>2026-05-02T05:55:19.49Z</time></trkpt><trkpt lat="43.1590543" lon="12.2247607"><ele>255.0</ele><time>2026-05-02T05:55:20.487Z</time></trkpt><trkpt lat="43.1591278" lon="12.2247936"><ele>255.0</ele><time>2026-05-02T05:55:21.496Z</time></trkpt><trkpt lat="43.1592013" lon="12.224839"><ele>255.0</ele><time>2026-05-02T05:55:22.488Z</time></trkpt><trkpt lat="43.159276" lon="12.2248879"><ele>255.0</ele><time>2026-05-02T05:55:23.492Z</time></trkpt><trkpt lat="43.1593601" lon="12.2249291"><ele>255.4</ele><time>2026-05-02T05:55:24.499Z</time></trkpt><trkpt lat="43.1594664" lon="12.2249391"><ele>255.8</ele><time>2026-05-02T05:55:26.494Z</time></trkpt><trkpt lat="43.1595674" lon="12.2248389"><ele>256.2</ele><time>2026-05-02T05:55:28.5Z</time></trkpt><trkpt lat="43.1596203" lon="12.2247553"><ele>256.6</ele><time>2026-05-02T05:55:29.497Z</time></trkpt><trkpt lat="43.1596813" lon="12.2246539"><ele>257.0</ele><time>2026-05-02T05:55:30.49Z</time></trkpt><trkpt lat="43.1597503" lon="12.2245405"><ele>256.5</ele><time>2026-05-02T05:55:31.491Z</time></trkpt><trkpt lat="43.1598241" lon="12.2244171"><ele>256.0</ele><time>2026-05-02T05:55:32.486Z</time></trkpt><trkpt lat="43.1599019" lon="12.224289"><ele>255.5</ele><time>2026-05-02T05:55:33.487Z</time></trkpt><trkpt lat="43.1599798" lon="12.2241545"><ele>255.0</ele><time>2026-05-02T05:55:34.486Z</time></trkpt><trkpt lat="43.1600567" lon="12.2240266"><ele>255.25</ele><time>2026-05-02T05:55:35.487Z</time></trkpt><trkpt lat="43.1601338" lon="12.2238923"><ele>255.5</ele><time>2026-05-02T05:55:36.496Z</time></trkpt><trkpt lat="43.1602103" lon="12.2237604"><ele>255.75</ele><time>2026-05-02T05:55:37.486Z</time></trkpt><trkpt lat="43.1602891" lon="12.223626"><ele>256.0</ele><time>2026-05-02T05:55:38.498Z</time></trkpt><trkpt lat="43.1603656" lon="12.2235043"><ele>256.0</ele><time>2026-05-02T05:55:39.496Z</time></trkpt><trkpt lat="43.1604583" lon="12.2233762"><ele>256.0</ele><time>2026-05-02T05:55:40.494Z</time></trkpt><trkpt lat="43.1605704" lon="12.2232306"><ele>256.0</ele><time>2026-05-02T05:55:41.489Z</time></trkpt><trkpt lat="43.1607023" lon="12.2230759"><ele>255.75</ele><time>2026-05-02T05:55:42.5Z</time></trkpt><trkpt lat="43.1608222" lon="12.2229601"><ele>255.5</ele><time>2026-05-02T05:55:43.49Z</time></trkpt><trkpt lat="43.1609329" lon="12.2228776"><ele>255.25</ele><time>2026-05-02T05:55:44.486Z</time></trkpt><trkpt lat="43.1610385" lon="12.2228308"><ele>255.0</ele><time>2026-05-02T05:55:45.486Z</time></trkpt><trkpt lat="43.1611489" lon="12.2228102"><ele>255.0</ele><time>2026-05-02T05:55:46.492Z</time></trkpt><trkpt lat="43.1612476" lon="12.222814"><ele>255.0</ele><time>2026-05-02T05:55:47.489Z</time></trkpt><trkpt lat="43.1613227" lon="12.2228126"><ele>255.0</ele><time>2026-05-02T05:55:48.488Z</time></trkpt><trkpt lat="43.1613826" lon="12.222785"><ele>255.0</ele><time>2026-05-02T05:55:49.49Z</time></trkpt><trkpt lat="43.1614455" lon="12.2226385"><ele>255.0</ele><time>2026-05-02T05:55:51.494Z</time></trkpt><trkpt lat="43.1614945" lon="12.2224891"><ele>255.4</ele><time>2026-05-02T05:55:53.491Z</time></trkpt><trkpt lat="43.161617" lon="12.2224444"><ele>255.8</ele><time>2026-05-02T05:55:55.492Z</time></trkpt><trkpt lat="43.1617061" lon="12.2224739"><ele>256.2</ele><time>2026-05-02T05:55:56.489Z</time></trkpt><trkpt lat="43.161811" lon="12.2225142"><ele>256.6</ele><time>2026-05-02T05:55:57.495Z</time></trkpt><trkpt lat="43.1619188" lon="12.2225496"><ele>257.0</ele><time>2026-05-02T05:55:58.492Z</time></trkpt><trkpt lat="43.1620345" lon="12.2225484"><ele>257.0</ele><time>2026-05-02T05:55:59.49Z</time></trkpt><trkpt lat="43.1621561" lon="12.2225298"><ele>257.0</ele><time>2026-05-02T05:56:00.488Z</time></trkpt><trkpt lat="43.162281" lon="12.2224991"><ele>257.0</ele><time>2026-05-02T05:56:01.491Z</time></trkpt><trkpt lat="43.1624177" lon="12.2224481"><ele>257.0</ele><time>2026-05-02T05:56:02.495Z</time></trkpt><trkpt lat="43.1625558" lon="12.2223996"><ele>257.0</ele><time>2026-05-02T05:56:03.485Z</time></trkpt><trkpt lat="43.1626946" lon="12.2223512"><ele>257.0</ele><time>2026-05-02T05:56:04.491Z</time></trkpt><trkpt lat="43.1628293" lon="12.2222964"><ele>257.0</ele><time>2026-05-02T05:56:05.492Z</time></trkpt><trkpt lat="43.1629648" lon="12.222241"><ele>257.0</ele><time>2026-05-02T05:56:06.49Z</time></trkpt><trkpt lat="43.1630898" lon="12.2221842"><ele>256.6</ele><time>2026-05-02T05:56:07.487Z</time></trkpt><trkpt lat="43.1632034" lon="12.2221281"><ele>256.2</ele><time>2026-05-02T05:56:08.499Z</time></trkpt><trkpt lat="43.1633021" lon="12.2220852"><ele>255.8</ele><time>2026-05-02T05:56:09.489Z</time></trkpt><trkpt lat="43.1633837" lon="12.2220535"><ele>255.4</ele><time>2026-05-02T05:56:10.49Z</time></trkpt><trkpt lat="43.1634836" lon="12.2220191"><ele>255.0</ele><time>2026-05-02T05:56:12.49Z</time></trkpt><trkpt lat="43.1635924" lon="12.2219922"><ele>255.0</ele><time>2026-05-02T05:56:15.498Z</time></trkpt><trkpt lat="43.1636548" lon="12.2219594"><ele>255.0</ele><time>2026-05-02T05:56:16.496Z</time></trkpt><trkpt lat="43.163742" lon="12.2218854"><ele>255.0</ele><time>2026-05-02T05:56:17.499Z</time></trkpt><trkpt lat="43.1638335" lon="12.2218055"><ele>255.0</ele><time>2026-05-02T05:56:18.491Z</time></trkpt><trkpt lat="43.1639486" lon="12.2216937"><ele>255.0</ele><time>2026-05-02T05:56:19.488Z</time></trkpt><trkpt lat="43.1640709" lon="12.2216014"><ele>255.5</ele><time>2026-05-02T05:56:20.485Z</time></trkpt><trkpt lat="43.1641978" lon="12.2214978"><ele>256.0</ele><time>2026-05-02T05:56:21.488Z</time></trkpt><trkpt lat="43.1643184" lon="12.2213981"><ele>256.5</ele><time>2026-05-02T05:56:22.487Z</time></trkpt><trkpt lat="43.1644269" lon="12.2213013"><ele>257.0</ele><time>2026-05-02T05:56:23.488Z</time></trkpt><trkpt lat="43.164526" lon="12.2212233"><ele>257.0</ele><time>2026-05-02T05:56:24.494Z</time></trkpt><trkpt lat="43.1646373" lon="12.2211327"><ele>257.0</ele><time>2026-05-02T05:56:25.49Z</time></trkpt><trkpt lat="43.1647568" lon="12.221045"><ele>257.0</ele><time>2026-05-02T05:56:26.492Z</time></trkpt><trkpt lat="43.1648769" lon="12.2209537"><ele>257.0</ele><time>2026-05-02T05:56:27.486Z</time></trkpt><trkpt lat="43.1650085" lon="12.2208717"><ele>257.33333333333337</ele><time>2026-05-02T05:56:28.491Z</time></trkpt><trkpt lat="43.1651451" lon="12.2207904"><ele>257.6666666666667</ele><time>2026-05-02T05:56:29.491Z</time></trkpt><trkpt lat="43.1652899" lon="12.2207166"><ele>258.0</ele><time>2026-05-02T05:56:30.486Z</time></trkpt><trkpt lat="43.1654292" lon="12.2206335"><ele>258.3333333333333</ele><time>2026-05-02T05:56:31.497Z</time></trkpt><trkpt lat="43.1655686" lon="12.2205596"><ele>258.66666666666663</ele><time>2026-05-02T05:56:32.488Z</time></trkpt><trkpt lat="43.165719" lon="12.2204841"><ele>259.0</ele><time>2026-05-02T05:56:33.495Z</time></trkpt><trkpt lat="43.16587" lon="12.2204023"><ele>259.0</ele><time>2026-05-02T05:56:34.491Z</time></trkpt><trkpt lat="43.1660175" lon="12.2203228"><ele>259.0</ele><time>2026-05-02T05:56:35.487Z</time></trkpt><trkpt lat="43.166167" lon="12.2202393"><ele>259.0</ele><time>2026-05-02T05:56:36.494Z</time></trkpt><trkpt lat="43.1663191" lon="12.2201505"><ele>259.0</ele><time>2026-05-02T05:56:37.497Z</time></trkpt><trkpt lat="43.1664694" lon="12.2200677"><ele>259.0</ele><time>2026-05-02T05:56:38.494Z</time></trkpt><trkpt lat="43.1666235" lon="12.2199836"><ele>259.0</ele><time>2026-05-02T05:56:39.497Z</time></trkpt><trkpt lat="43.1667761" lon="12.2199009"><ele>259.3333333333333</ele><time>2026-05-02T05:56:40.49Z</time></trkpt><trkpt lat="43.166928" lon="12.2198179"><ele>259.6666666666667</ele><time>2026-05-02T05:56:41.498Z</time></trkpt><trkpt lat="43.1670784" lon="12.2197375"><ele>260.0</ele><time>2026-05-02T05:56:42.486Z</time></trkpt><trkpt lat="43.1672305" lon="12.2196548"><ele>260.33333333333337</ele><time>2026-05-02T05:56:43.49Z</time></trkpt><trkpt lat="43.1673806" lon="12.2195718"><ele>260.6666666666667</ele><time>2026-05-02T05:56:44.487Z</time></trkpt><trkpt lat="43.1675302" lon="12.2194908"><ele>261.0</ele><time>2026-05-02T05:56:45.486Z</time></trkpt><trkpt lat="43.167676" lon="12.2194082"><ele>261.0</ele><time>2026-05-02T05:56:46.487Z</time></trkpt><trkpt lat="43.1678234" lon="12.2193305"><ele>261.0</ele><time>2026-05-02T05:56:47.492Z</time></trkpt><trkpt lat="43.167971" lon="12.2192526"><ele>261.0</ele><time>2026-05-02T05:56:48.501Z</time></trkpt><trkpt lat="43.1681154" lon="12.2191747"><ele>261.6666666666667</ele><time>2026-05-02T05:56:49.488Z</time></trkpt><trkpt lat="43.1682632" lon="12.2190944"><ele>262.33333333333337</ele><time>2026-05-02T05:56:50.495Z</time></trkpt><trkpt lat="43.1684103" lon="12.2190148"><ele>263.0</ele><time>2026-05-02T05:56:51.495Z</time></trkpt><trkpt lat="43.1685538" lon="12.2189352"><ele>263.0</ele><time>2026-05-02T05:56:52.492Z</time></trkpt><trkpt lat="43.1686989" lon="12.2188572"><ele>263.0</ele><time>2026-05-02T05:56:53.491Z</time></trkpt><trkpt lat="43.1688408" lon="12.2187791"><ele>263.0</ele><time>2026-05-02T05:56:54.49Z</time></trkpt><trkpt lat="43.1689771" lon="12.2187023"><ele>264.0</ele><time>2026-05-02T05:56:55.487Z</time></trkpt><trkpt lat="43.1691158" lon="12.2186256"><ele>265.0</ele><time>2026-05-02T05:56:56.486Z</time></trkpt><trkpt lat="43.1692449" lon="12.2185541"><ele>266.0</ele><time>2026-05-02T05:56:57.493Z</time></trkpt><trkpt lat="43.1693626" lon="12.218487"><ele>267.0</ele><time>2026-05-02T05:56:58.497Z</time></trkpt><trkpt lat="43.1694762" lon="12.2184226"><ele>267.0</ele><time>2026-05-02T05:56:59.484Z</time></trkpt><trkpt lat="43.1695787" lon="12.218364"><ele>267.0</ele><time>2026-05-02T05:57:00.484Z</time></trkpt><trkpt lat="43.1696659" lon="12.2183188"><ele>267.0</ele><time>2026-05-02T05:57:01.488Z</time></trkpt><trkpt lat="43.1697353" lon="12.2182817"><ele>267.0</ele><time>2026-05-02T05:57:02.491Z</time></trkpt><trkpt lat="43.1698167" lon="12.2182168"><ele>267.0</ele><time>2026-05-02T05:57:04.486Z</time></trkpt><trkpt lat="43.1698372" lon="12.2180981"><ele>266.6666666666667</ele><time>2026-05-02T05:57:07.488Z</time></trkpt><trkpt lat="43.1697839" lon="12.2180024"><ele>266.33333333333337</ele><time>2026-05-02T05:57:10.49Z</time></trkpt><trkpt lat="43.1697115" lon="12.2179093"><ele>266.0</ele><time>2026-05-02T05:57:12.496Z</time></trkpt><trkpt lat="43.1694764" lon="12.2176013"><ele>266.0</ele><time>2026-05-02T05:57:13.486Z</time></trkpt><trkpt lat="43.1693373" lon="12.2174071"><ele>266.0</ele><time>2026-05-02T05:57:14.488Z</time></trkpt><trkpt lat="43.169227" lon="12.2172624"><ele>266.0</ele><time>2026-05-02T05:57:15.488Z</time></trkpt><trkpt lat="43.1691227" lon="12.2171251"><ele>265.0</ele><time>2026-05-02T05:57:16.49Z</time></trkpt><trkpt lat="43.1690112" lon="12.216975"><ele>264.0</ele><time>2026-05-02T05:57:17.506Z</time></trkpt><trkpt lat="43.1688969" lon="12.2168186"><ele>263.0</ele><time>2026-05-02T05:57:18.492Z</time></trkpt><trkpt lat="43.1687805" lon="12.2166617"><ele>263.0</ele><time>2026-05-02T05:57:19.488Z</time></trkpt><trkpt lat="43.1686662" lon="12.2165077"><ele>263.0</ele><time>2026-05-02T05:57:20.491Z</time></trkpt><trkpt lat="43.1685521" lon="12.2163536"><ele>263.0</ele><time>2026-05-02T05:57:21.491Z</time></trkpt><trkpt lat="43.1684427" lon="12.2162034"><ele>262.75</ele><time>2026-05-02T05:57:22.495Z</time></trkpt><trkpt lat="43.1683366" lon="12.2160605"><ele>262.5</ele><time>2026-05-02T05:57:23.492Z</time></trkpt><trkpt lat="43.1682339" lon="12.2159159"><ele>262.25</ele><time>2026-05-02T05:57:24.5Z</time></trkpt><trkpt lat="43.1681383" lon="12.2157801"><ele>262.0</ele><time>2026-05-02T05:57:25.492Z</time></trkpt><trkpt lat="43.1680466" lon="12.2156526"><ele>262.0</ele><time>2026-05-02T05:57:26.491Z</time></trkpt><trkpt lat="43.1679649" lon="12.2155325"><ele>262.0</ele><time>2026-05-02T05:57:27.49Z</time></trkpt><trkpt lat="43.1678914" lon="12.2154286"><ele>262.0</ele><time>2026-05-02T05:57:28.487Z</time></trkpt><trkpt lat="43.1678303" lon="12.2153443"><ele>262.0</ele><time>2026-05-02T05:57:29.487Z</time></trkpt><trkpt lat="43.1677857" lon="12.2152753"><ele>262.0</ele><time>2026-05-02T05:57:30.489Z</time></trkpt><trkpt lat="43.1677317" lon="12.2151636"><ele>262.0</ele><time>2026-05-02T05:57:32.49Z</time></trkpt><trkpt lat="43.1677782" lon="12.2150768"><ele>262.0</ele><time>2026-05-02T05:57:35.488Z</time></trkpt><trkpt lat="43.1678576" lon="12.2150508"><ele>262.0</ele><time>2026-05-02T05:57:38.496Z</time></trkpt><trkpt lat="43.167944" lon="12.2150315"><ele>262.0</ele><time>2026-05-02T05:57:40.492Z</time></trkpt><trkpt lat="43.168137" lon="12.2149867"><ele>262.0</ele><time>2026-05-02T05:57:41.49Z</time></trkpt><trkpt lat="43.1684061" lon="12.214939"><ele>262.5</ele><time>2026-05-02T05:57:42.492Z</time></trkpt><trkpt lat="43.1685317" lon="12.2149078"><ele>263.0</ele><time>2026-05-02T05:57:43.491Z</time></trkpt><trkpt lat="43.1686769" lon="12.214867"><ele>263.5</ele><time>2026-05-02T05:57:44.492Z</time></trkpt><trkpt lat="43.1688313" lon="12.2148316"><ele>264.0</ele><time>2026-05-02T05:57:45.488Z</time></trkpt><trkpt lat="43.1689915" lon="12.2148052"><ele>264.6666666666667</ele><time>2026-05-02T05:57:46.492Z</time></trkpt><trkpt lat="43.1691597" lon="12.2147882"><ele>265.33333333333337</ele><time>2026-05-02T05:57:47.492Z</time></trkpt><trkpt lat="43.1693419" lon="12.2147862"><ele>266.0</ele><time>2026-05-02T05:57:48.493Z</time></trkpt><trkpt lat="43.1695402" lon="12.2147861"><ele>266.0</ele><time>2026-05-02T05:57:49.49Z</time></trkpt><trkpt lat="43.1697458" lon="12.2147855"><ele>266.0</ele><time>2026-05-02T05:57:50.5Z</time></trkpt><trkpt lat="43.1699522" lon="12.214786"><ele>266.0</ele><time>2026-05-02T05:57:51.495Z</time></trkpt><trkpt lat="43.1701593" lon="12.2147881"><ele>267.0</ele><time>2026-05-02T05:57:52.491Z</time></trkpt><trkpt lat="43.1703635" lon="12.2147897"><ele>268.0</ele><time>2026-05-02T05:57:53.495Z</time></trkpt><trkpt lat="43.1705622" lon="12.2147898"><ele>269.0</ele><time>2026-05-02T05:57:54.491Z</time></trkpt><trkpt lat="43.1707441" lon="12.2147866"><ele>270.0</ele><time>2026-05-02T05:57:55.495Z</time></trkpt><trkpt lat="43.1709106" lon="12.2147741"><ele>271.0</ele><time>2026-05-02T05:57:56.488Z</time></trkpt><trkpt lat="43.1710789" lon="12.2147511"><ele>272.0</ele><time>2026-05-02T05:57:57.491Z</time></trkpt><trkpt lat="43.1712511" lon="12.2147329"><ele>272.0</ele><time>2026-05-02T05:57:58.49Z</time></trkpt><trkpt lat="43.1714362" lon="12.2147389"><ele>272.0</ele><time>2026-05-02T05:57:59.494Z</time></trkpt><trkpt lat="43.1716271" lon="12.2147666"><ele>272.0</ele><time>2026-05-02T05:58:00.49Z</time></trkpt><trkpt lat="43.1718465" lon="12.2148025"><ele>273.33333333333337</ele><time>2026-05-02T05:58:01.498Z</time></trkpt><trkpt lat="43.1720633" lon="12.2148376"><ele>274.6666666666667</ele><time>2026-05-02T05:58:02.496Z</time></trkpt><trkpt lat="43.1722663" lon="12.2148558"><ele>276.0</ele><time>2026-05-02T05:58:03.495Z</time></trkpt><trkpt lat="43.1724695" lon="12.2148715"><ele>277.3333333333333</ele><time>2026-05-02T05:58:04.5Z</time></trkpt><trkpt lat="43.1726675" lon="12.2148994"><ele>278.66666666666663</ele><time>2026-05-02T05:58:05.49Z</time></trkpt><trkpt lat="43.1728491" lon="12.2149386"><ele>280.0</ele><time>2026-05-02T05:58:06.495Z</time></trkpt><trkpt lat="43.173024" lon="12.2149756"><ele>280.0</ele><time>2026-05-02T05:58:07.504Z</time></trkpt><trkpt lat="43.1731873" lon="12.215013"><ele>280.0</ele><time>2026-05-02T05:58:08.495Z</time></trkpt><trkpt lat="43.1733311" lon="12.2150533"><ele>280.0</ele><time>2026-05-02T05:58:09.493Z</time></trkpt><trkpt lat="43.1734522" lon="12.2150967"><ele>280.0</ele><time>2026-05-02T05:58:10.498Z</time></trkpt><trkpt lat="43.173547" lon="12.2151355"><ele>280.66666666666663</ele><time>2026-05-02T05:58:11.491Z</time></trkpt><trkpt lat="43.1736227" lon="12.2151621"><ele>281.3333333333333</ele><time>2026-05-02T05:58:12.49Z</time></trkpt><trkpt lat="43.1737283" lon="12.2151626"><ele>282.0</ele><time>2026-05-02T05:58:14.489Z</time></trkpt><trkpt lat="43.1737799" lon="12.2150868"><ele>282.6666666666667</ele><time>2026-05-02T05:58:16.494Z</time></trkpt><trkpt lat="43.1738248" lon="12.2149814"><ele>283.33333333333337</ele><time>2026-05-02T05:58:18.495Z</time></trkpt><trkpt lat="43.1739057" lon="12.2149534"><ele>284.0</ele><time>2026-05-02T05:58:20.495Z</time></trkpt><trkpt lat="43.174003" lon="12.2150056"><ele>284.83333333333337</ele><time>2026-05-02T05:58:22.507Z</time></trkpt><trkpt lat="43.1740647" lon="12.2150254"><ele>285.6666666666667</ele><time>2026-05-02T05:58:23.497Z</time></trkpt><trkpt lat="43.1741357" lon="12.215025"><ele>286.5</ele><time>2026-05-02T05:58:24.498Z</time></trkpt><trkpt lat="43.1742157" lon="12.2150003"><ele>287.3333333333333</ele><time>2026-05-02T05:58:25.493Z</time></trkpt><trkpt lat="43.1743084" lon="12.2149644"><ele>288.16666666666663</ele><time>2026-05-02T05:58:26.496Z</time></trkpt><trkpt lat="43.174402" lon="12.2149256"><ele>289.0</ele><time>2026-05-02T05:58:27.492Z</time></trkpt><trkpt lat="43.1744991" lon="12.2149009"><ele>289.0</ele><time>2026-05-02T05:58:28.495Z</time></trkpt><trkpt lat="43.1746073" lon="12.214901"><ele>289.0</ele><time>2026-05-02T05:58:29.494Z</time></trkpt><trkpt lat="43.174724" lon="12.2149178"><ele>289.0</ele><time>2026-05-02T05:58:30.499Z</time></trkpt><trkpt lat="43.1748381" lon="12.214931"><ele>289.0</ele><time>2026-05-02T05:58:31.492Z</time></trkpt><trkpt lat="43.1749524" lon="12.2149201"><ele>290.0</ele><time>2026-05-02T05:58:32.496Z</time></trkpt><trkpt lat="43.1750677" lon="12.2148952"><ele>291.0</ele><time>2026-05-02T05:58:33.491Z</time></trkpt><trkpt lat="43.1751858" lon="12.2148337"><ele>292.0</ele><time>2026-05-02T05:58:34.488Z</time></trkpt><trkpt lat="43.1753033" lon="12.2147554"><ele>293.0</ele><time>2026-05-02T05:58:35.495Z</time></trkpt><trkpt lat="43.1754049" lon="12.214663"><ele>293.4</ele><time>2026-05-02T05:58:36.496Z</time></trkpt><trkpt lat="43.1754912" lon="12.2145658"><ele>293.8</ele><time>2026-05-02T05:58:37.486Z</time></trkpt><trkpt lat="43.1755746" lon="12.2144866"><ele>294.2</ele><time>2026-05-02T05:58:38.495Z</time></trkpt><trkpt lat="43.1756695" lon="12.214432"><ele>294.6</ele><time>2026-05-02T05:58:39.501Z</time></trkpt><trkpt lat="43.1757719" lon="12.2143881"><ele>295.0</ele><time>2026-05-02T05:58:40.488Z</time></trkpt><trkpt lat="43.1758855" lon="12.2143422"><ele>297.2</ele><time>2026-05-02T05:58:41.494Z</time></trkpt><trkpt lat="43.1760019" lon="12.2142941"><ele>299.4</ele><time>2026-05-02T05:58:42.488Z</time></trkpt><trkpt lat="43.1761105" lon="12.214242"><ele>301.6</ele><time>2026-05-02T05:58:43.488Z</time></trkpt><trkpt lat="43.1762101" lon="12.2141929"><ele>303.8</ele><time>2026-05-02T05:58:44.491Z</time></trkpt><trkpt lat="43.1762914" lon="12.2141416"><ele>306.0</ele><time>2026-05-02T05:58:45.486Z</time></trkpt><trkpt lat="43.1763602" lon="12.2140754"><ele>306.40000000000003</ele><time>2026-05-02T05:58:46.494Z</time></trkpt><trkpt lat="43.1764181" lon="12.2139834"><ele>306.8</ele><time>2026-05-02T05:58:47.493Z</time></trkpt><trkpt lat="43.1764676" lon="12.2138754"><ele>307.20000000000005</ele><time>2026-05-02T05:58:48.49Z</time></trkpt><trkpt lat="43.1765259" lon="12.2137658"><ele>307.6</ele><time>2026-05-02T05:58:49.493Z</time></trkpt><trkpt lat="43.1766046" lon="12.2136489"><ele>308.0</ele><time>2026-05-02T05:58:50.487Z</time></trkpt><trkpt lat="43.1766875" lon="12.2135302"><ele>309.75</ele><time>2026-05-02T05:58:51.488Z</time></trkpt><trkpt lat="43.1767636" lon="12.2134003"><ele>311.5</ele><time>2026-05-02T05:58:52.491Z</time></trkpt><trkpt lat="43.1768427" lon="12.2132771"><ele>313.25</ele><time>2026-05-02T05:58:53.489Z</time></trkpt><trkpt lat="43.1769323" lon="12.213159"><ele>315.0</ele><time>2026-05-02T05:58:54.492Z</time></trkpt><trkpt lat="43.1770319" lon="12.2130392"><ele>315.0</ele><time>2026-05-02T05:58:55.494Z</time></trkpt><trkpt lat="43.1771329" lon="12.2129181"><ele>315.0</ele><time>2026-05-02T05:58:56.489Z</time></trkpt><trkpt lat="43.1772238" lon="12.2127844"><ele>315.0</ele><time>2026-05-02T05:58:57.491Z</time></trkpt><trkpt lat="43.177302" lon="12.2126592"><ele>315.0</ele><time>2026-05-02T05:58:58.494Z</time></trkpt><trkpt lat="43.1773764" lon="12.2125686"><ele>316.6</ele><time>2026-05-02T05:58:59.498Z</time></trkpt><trkpt lat="43.1774587" lon="12.2125233"><ele>318.2</ele><time>2026-05-02T05:59:00.491Z</time></trkpt><trkpt lat="43.1775557" lon="12.2124964"><ele>319.79999999999995</ele><time>2026-05-02T05:59:01.494Z</time></trkpt><trkpt lat="43.177662" lon="12.2124854"><ele>321.4</ele><time>2026-05-02T05:59:02.49Z</time></trkpt><trkpt lat="43.1777788" lon="12.2124822"><ele>323.0</ele><time>2026-05-02T05:59:03.496Z</time></trkpt><trkpt lat="43.1779005" lon="12.2124967"><ele>323.0</ele><time>2026-05-02T05:59:04.488Z</time></trkpt><trkpt lat="43.1780229" lon="12.2125245"><ele>323.0</ele><time>2026-05-02T05:59:05.488Z</time></trkpt><trkpt lat="43.1781443" lon="12.2125635"><ele>323.0</ele><time>2026-05-02T05:59:06.499Z</time></trkpt><trkpt lat="43.1782636" lon="12.2126013"><ele>323.0</ele><time>2026-05-02T05:59:07.493Z</time></trkpt><trkpt lat="43.1783839" lon="12.2126383"><ele>325.0</ele><time>2026-05-02T05:59:08.494Z</time></trkpt><trkpt lat="43.1785037" lon="12.2126803"><ele>327.0</ele><time>2026-05-02T05:59:09.492Z</time></trkpt><trkpt lat="43.1786244" lon="12.2127336"><ele>329.0</ele><time>2026-05-02T05:59:10.491Z</time></trkpt><trkpt lat="43.1787418" lon="12.2127929"><ele>331.0</ele><time>2026-05-02T05:59:11.498Z</time></trkpt><trkpt lat="43.17885" lon="12.2128534"><ele>331.0</ele><time>2026-05-02T05:59:12.494Z</time></trkpt><trkpt lat="43.1789487" lon="12.2128974"><ele>331.0</ele><time>2026-05-02T05:59:13.491Z</time></trkpt><trkpt lat="43.179048" lon="12.2129424"><ele>331.0</ele><time>2026-05-02T05:59:14.495Z</time></trkpt><trkpt lat="43.1791426" lon="12.2129996"><ele>331.0</ele><time>2026-05-02T05:59:15.488Z</time></trkpt><trkpt lat="43.1792438" lon="12.2130671"><ele>331.0</ele><time>2026-05-02T05:59:16.501Z</time></trkpt><trkpt lat="43.1793395" lon="12.2131172"><ele>333.0</ele><time>2026-05-02T05:59:17.493Z</time></trkpt><trkpt lat="43.1794416" lon="12.21314"><ele>335.0</ele><time>2026-05-02T05:59:18.492Z</time></trkpt><trkpt lat="43.1795396" lon="12.2131264"><ele>337.0</ele><time>2026-05-02T05:59:19.49Z</time></trkpt><trkpt lat="43.1796412" lon="12.2130783"><ele>339.0</ele><time>2026-05-02T05:59:20.492Z</time></trkpt><trkpt lat="43.1797403" lon="12.2129986"><ele>341.0</ele><time>2026-05-02T05:59:21.492Z</time></trkpt><trkpt lat="43.1798393" lon="12.2129068"><ele>343.20000000000005</ele><time>2026-05-02T05:59:22.491Z</time></trkpt><trkpt lat="43.1799173" lon="12.2128216"><ele>345.40000000000003</ele><time>2026-05-02T05:59:23.488Z</time></trkpt><trkpt lat="43.1799762" lon="12.2127639"><ele>347.6</ele><time>2026-05-02T05:59:24.494Z</time></trkpt><trkpt lat="43.1800958" lon="12.2127431"><ele>349.8</ele><time>2026-05-02T05:59:26.489Z</time></trkpt><trkpt lat="43.1801728" lon="12.2127637"><ele>352.0</ele><time>2026-05-02T05:59:27.502Z</time></trkpt><trkpt lat="43.1802601" lon="12.2127753"><ele>352.0</ele><time>2026-05-02T05:59:28.489Z</time></trkpt><trkpt lat="43.1803562" lon="12.2127779"><ele>352.0</ele><time>2026-05-02T05:59:29.488Z</time></trkpt><trkpt lat="43.1804583" lon="12.2127759"><ele>352.0</ele><time>2026-05-02T05:59:30.488Z</time></trkpt><trkpt lat="43.1805639" lon="12.2127769"><ele>352.0</ele><time>2026-05-02T05:59:31.497Z</time></trkpt><trkpt lat="43.1806685" lon="12.2127789"><ele>352.0</ele><time>2026-05-02T05:59:32.494Z</time></trkpt><trkpt lat="43.1807759" lon="12.2127763"><ele>354.20000000000005</ele><time>2026-05-02T05:59:33.494Z</time></trkpt><trkpt lat="43.1808864" lon="12.2127662"><ele>356.4</ele><time>2026-05-02T05:59:34.492Z</time></trkpt><trkpt lat="43.1809956" lon="12.212753"><ele>358.6</ele><time>2026-05-02T05:59:35.498Z</time></trkpt><trkpt lat="43.1811036" lon="12.212745"><ele>360.79999999999995</ele><time>2026-05-02T05:59:36.489Z</time></trkpt><trkpt lat="43.1812158" lon="12.2127466"><ele>363.0</ele><time>2026-05-02T05:59:37.491Z</time></trkpt><trkpt lat="43.1813254" lon="12.2127542"><ele>363.0</ele><time>2026-05-02T05:59:38.489Z</time></trkpt><trkpt lat="43.181436" lon="12.2127626"><ele>363.0</ele><time>2026-05-02T05:59:39.488Z</time></trkpt><trkpt lat="43.181551" lon="12.2127652"><ele>363.0</ele><time>2026-05-02T05:59:40.49Z</time></trkpt><trkpt lat="43.1816653" lon="12.2127594"><ele>363.0</ele><time>2026-05-02T05:59:41.492Z</time></trkpt><trkpt lat="43.1817727" lon="12.2127426"><ele>363.0</ele><time>2026-05-02T05:59:42.494Z</time></trkpt><trkpt lat="43.1818767" lon="12.2127164"><ele>365.59999999999997</ele><time>2026-05-02T05:59:43.495Z</time></trkpt><trkpt lat="43.1819817" lon="12.2126743"><ele>368.2</ele><time>2026-05-02T05:59:44.491Z</time></trkpt><trkpt lat="43.1820766" lon="12.2126256"><ele>370.8</ele><time>2026-05-02T05:59:45.493Z</time></trkpt><trkpt lat="43.1821498" lon="12.2125607"><ele>373.4</ele><time>2026-05-02T05:59:46.49Z</time></trkpt><trkpt lat="43.1822094" lon="12.2124747"><ele>376.0</ele><time>2026-05-02T05:59:47.49Z</time></trkpt><trkpt lat="43.1822562" lon="12.2123641"><ele>376.16666666666663</ele><time>2026-05-02T05:59:48.499Z</time></trkpt><trkpt lat="43.1822982" lon="12.2122429"><ele>376.3333333333333</ele><time>2026-05-02T05:59:49.49Z</time></trkpt><trkpt lat="43.1823423" lon="12.2121469"><ele>376.5</ele><time>2026-05-02T05:59:50.491Z</time></trkpt><trkpt lat="43.1823985" lon="12.2120712"><ele>376.6666666666667</ele><time>2026-05-02T05:59:51.489Z</time></trkpt><trkpt lat="43.1824571" lon="12.2120182"><ele>376.83333333333337</ele><time>2026-05-02T05:59:52.496Z</time></trkpt><trkpt lat="43.1825374" lon="12.2120448"><ele>377.0</ele><time>2026-05-02T05:59:54.496Z</time></trkpt><trkpt lat="43.1826103" lon="12.2121806"><ele>378.25</ele><time>2026-05-02T05:59:56.496Z</time></trkpt><trkpt lat="43.182628" lon="12.2123028"><ele>379.5</ele><time>2026-05-02T05:59:57.499Z</time></trkpt><trkpt lat="43.1826426" lon="12.2124572"><ele>380.75</ele><time>2026-05-02T05:59:58.499Z</time></trkpt><trkpt lat="43.1826572" lon="12.2126338"><ele>382.0</ele><time>2026-05-02T05:59:59.49Z</time></trkpt><trkpt lat="43.1826773" lon="12.2128337"><ele>382.25</ele><time>2026-05-02T06:00:00.5Z</time></trkpt><trkpt lat="43.182707" lon="12.2130178"><ele>382.5</ele><time>2026-05-02T06:00:01.489Z</time></trkpt><trkpt lat="43.1827393" lon="12.2131789"><ele>382.75</ele><time>2026-05-02T06:00:02.492Z</time></trkpt><trkpt lat="43.1827774" lon="12.2133104"><ele>383.0</ele><time>2026-05-02T06:00:03.49Z</time></trkpt><trkpt lat="43.1828312" lon="12.2134326"><ele>381.79999999999995</ele><time>2026-05-02T06:00:04.491Z</time></trkpt><trkpt lat="43.1829027" lon="12.2135436"><ele>380.6</ele><time>2026-05-02T06:00:05.488Z</time></trkpt><trkpt lat="43.1829852" lon="12.2136528"><ele>379.4</ele><time>2026-05-02T06:00:06.488Z</time></trkpt><trkpt lat="43.1830689" lon="12.2137517"><ele>378.20000000000005</ele><time>2026-05-02T06:00:07.49Z</time></trkpt><trkpt lat="43.1831471" lon="12.2138289"><ele>377.0</ele><time>2026-05-02T06:00:08.488Z</time></trkpt><trkpt lat="43.1832253" lon="12.2138807"><ele>380.20000000000005</ele><time>2026-05-02T06:00:09.488Z</time></trkpt><trkpt lat="43.1833033" lon="12.2139002"><ele>383.4</ele><time>2026-05-02T06:00:10.497Z</time></trkpt><trkpt lat="43.1833835" lon="12.2138862"><ele>386.6</ele><time>2026-05-02T06:00:11.489Z</time></trkpt><trkpt lat="43.183473" lon="12.2138461"><ele>389.79999999999995</ele><time>2026-05-02T06:00:12.487Z</time></trkpt><trkpt lat="43.1835702" lon="12.2137823"><ele>393.0</ele><time>2026-05-02T06:00:13.496Z</time></trkpt><trkpt lat="43.1836761" lon="12.2137052"><ele>393.0</ele><time>2026-05-02T06:00:14.489Z</time></trkpt><trkpt lat="43.1837715" lon="12.2136331"><ele>393.0</ele><time>2026-05-02T06:00:15.491Z</time></trkpt><trkpt lat="43.1838447" lon="12.2135642"><ele>393.0</ele><time>2026-05-02T06:00:16.494Z</time></trkpt><trkpt lat="43.1839027" lon="12.2134804"><ele>393.0</ele><time>2026-05-02T06:00:17.493Z</time></trkpt><trkpt lat="43.1839449" lon="12.2133876"><ele>393.0</ele><time>2026-05-02T06:00:18.491Z</time></trkpt><trkpt lat="43.1839776" lon="12.2133083"><ele>393.0</ele><time>2026-05-02T06:00:19.499Z</time></trkpt><trkpt lat="43.18409" lon="12.2132243"><ele>393.79999999999995</ele><time>2026-05-02T06:00:21.49Z</time></trkpt><trkpt lat="43.1841809" lon="12.2131883"><ele>394.6</ele><time>2026-05-02T06:00:22.493Z</time></trkpt><trkpt lat="43.1842836" lon="12.2131379"><ele>395.4</ele><time>2026-05-02T06:00:23.497Z</time></trkpt><trkpt lat="43.1843882" lon="12.213081"><ele>396.20000000000005</ele><time>2026-05-02T06:00:24.493Z</time></trkpt><trkpt lat="43.1844811" lon="12.2130124"><ele>397.0</ele><time>2026-05-02T06:00:25.495Z</time></trkpt><trkpt lat="43.1845511" lon="12.2129487"><ele>397.33333333333337</ele><time>2026-05-02T06:00:26.499Z</time></trkpt><trkpt lat="43.184593" lon="12.2128128"><ele>397.6666666666667</ele><time>2026-05-02T06:00:28.489Z</time></trkpt><trkpt lat="43.1845818" lon="12.2127215"><ele>398.0</ele><time>2026-05-02T06:00:29.488Z</time></trkpt><trkpt lat="43.1845618" lon="12.212615"><ele>398.33333333333337</ele><time>2026-05-02T06:00:30.486Z</time></trkpt><trkpt lat="43.1845412" lon="12.2124928"><ele>398.6666666666667</ele><time>2026-05-02T06:00:31.494Z</time></trkpt><trkpt lat="43.1845323" lon="12.2123651"><ele>399.0</ele><time>2026-05-02T06:00:32.488Z</time></trkpt><trkpt lat="43.1845442" lon="12.2122415"><ele>399.0</ele><time>2026-05-02T06:00:33.489Z</time></trkpt><trkpt lat="43.1845766" lon="12.2121462"><ele>399.0</ele><time>2026-05-02T06:00:34.497Z</time></trkpt><trkpt lat="43.1846267" lon="12.2120833"><ele>399.0</ele><time>2026-05-02T06:00:35.492Z</time></trkpt><trkpt lat="43.184691" lon="12.2120287"><ele>399.0</ele><time>2026-05-02T06:00:36.489Z</time></trkpt><trkpt lat="43.184787" lon="12.2119843"><ele>399.0</ele><time>2026-05-02T06:00:37.493Z</time></trkpt><trkpt lat="43.1848932" lon="12.2119413"><ele>399.0</ele><time>2026-05-02T06:00:38.489Z</time></trkpt><trkpt lat="43.1849999" lon="12.2118904"><ele>401.5</ele><time>2026-05-02T06:00:39.491Z</time></trkpt><trkpt lat="43.185109" lon="12.2118358"><ele>404.0</ele><time>2026-05-02T06:00:40.492Z</time></trkpt><trkpt lat="43.1852267" lon="12.2117936"><ele>406.5</ele><time>2026-05-02T06:00:41.495Z</time></trkpt><trkpt lat="43.1853458" lon="12.2117746"><ele>409.0</ele><time>2026-05-02T06:00:42.487Z</time></trkpt><trkpt lat="43.1854637" lon="12.2117491"><ele>409.0</ele><time>2026-05-02T06:00:43.49Z</time></trkpt><trkpt lat="43.1855786" lon="12.2117118"><ele>409.0</ele><time>2026-05-02T06:00:44.49Z</time></trkpt><trkpt lat="43.1856945" lon="12.211678"><ele>409.0</ele><time>2026-05-02T06:00:45.489Z</time></trkpt><trkpt lat="43.1857865" lon="12.2116377"><ele>409.0</ele><time>2026-05-02T06:00:46.495Z</time></trkpt><trkpt lat="43.1858644" lon="12.2116006"><ele>409.0</ele><time>2026-05-02T06:00:47.493Z</time></trkpt><trkpt lat="43.1859366" lon="12.2115766"><ele>410.50000000000006</ele><time>2026-05-02T06:00:48.491Z</time></trkpt><trkpt lat="43.1859982" lon="12.2115959"><ele>412.0</ele><time>2026-05-02T06:00:49.501Z</time></trkpt><trkpt lat="43.1860649" lon="12.2116282"><ele>413.5</ele><time>2026-05-02T06:00:50.495Z</time></trkpt><trkpt lat="43.1861347" lon="12.211679"><ele>415.0</ele><time>2026-05-02T06:00:51.493Z</time></trkpt><trkpt lat="43.1862033" lon="12.2117471"><ele>416.50000000000006</ele><time>2026-05-02T06:00:52.488Z</time></trkpt><trkpt lat="43.1862803" lon="12.2118238"><ele>418.0</ele><time>2026-05-02T06:00:53.493Z</time></trkpt><trkpt lat="43.1863677" lon="12.2119088"><ele>418.00000000000006</ele><time>2026-05-02T06:00:54.49Z</time></trkpt><trkpt lat="43.1864452" lon="12.211981"><ele>418.0</ele><time>2026-05-02T06:00:55.496Z</time></trkpt><trkpt lat="43.1865146" lon="12.2120291"><ele>418.0</ele><time>2026-05-02T06:00:56.491Z</time></trkpt><trkpt lat="43.186585" lon="12.2120416"><ele>418.0</ele><time>2026-05-02T06:00:57.497Z</time></trkpt><trkpt lat="43.1866859" lon="12.2119562"><ele>418.00000000000006</ele><time>2026-05-02T06:00:59.492Z</time></trkpt><trkpt lat="43.1867075" lon="12.2118683"><ele>418.0</ele><time>2026-05-02T06:01:00.491Z</time></trkpt><trkpt lat="43.1867142" lon="12.2117564"><ele>420.79999999999995</ele><time>2026-05-02T06:01:01.496Z</time></trkpt><trkpt lat="43.1867072" lon="12.2116302"><ele>423.6</ele><time>2026-05-02T06:01:02.493Z</time></trkpt><trkpt lat="43.1866956" lon="12.2115047"><ele>426.40000000000003</ele><time>2026-05-02T06:01:03.5Z</time></trkpt><trkpt lat="43.1866971" lon="12.2114091"><ele>429.20000000000005</ele><time>2026-05-02T06:01:04.489Z</time></trkpt><trkpt lat="43.1867352" lon="12.2112894"><ele>432.0</ele><time>2026-05-02T06:01:06.496Z</time></trkpt><trkpt lat="43.1868435" lon="12.2112472"><ele>432.40000000000003</ele><time>2026-05-02T06:01:08.493Z</time></trkpt><trkpt lat="43.1869256" lon="12.2112513"><ele>432.80000000000007</ele><time>2026-05-02T06:01:09.502Z</time></trkpt><trkpt lat="43.1870125" lon="12.2112403"><ele>433.2</ele><time>2026-05-02T06:01:10.497Z</time></trkpt><trkpt lat="43.1871068" lon="12.2112122"><ele>433.6</ele><time>2026-05-02T06:01:11.496Z</time></trkpt><trkpt lat="43.1872002" lon="12.2111947"><ele>434.0</ele><time>2026-05-02T06:01:12.493Z</time></trkpt><trkpt lat="43.1872991" lon="12.2111983"><ele>436.6</ele><time>2026-05-02T06:01:13.497Z</time></trkpt><trkpt lat="43.1873996" lon="12.2112155"><ele>439.2</ele><time>2026-05-02T06:01:14.493Z</time></trkpt><trkpt lat="43.187491" lon="12.2112157"><ele>441.80000000000007</ele><time>2026-05-02T06:01:15.486Z</time></trkpt><trkpt lat="43.1875773" lon="12.2111208"><ele>444.40000000000003</ele><time>2026-05-02T06:01:17.489Z</time></trkpt><trkpt lat="43.1875934" lon="12.2110219"><ele>447.0</ele><time>2026-05-02T06:01:18.498Z</time></trkpt><trkpt lat="43.1875939" lon="12.2109086"><ele>447.0</ele><time>2026-05-02T06:01:19.492Z</time></trkpt><trkpt lat="43.1875808" lon="12.2107761"><ele>447.00000000000006</ele><time>2026-05-02T06:01:20.488Z</time></trkpt><trkpt lat="43.1875514" lon="12.2106484"><ele>447.00000000000006</ele><time>2026-05-02T06:01:21.493Z</time></trkpt><trkpt lat="43.1875175" lon="12.2105396"><ele>447.0</ele><time>2026-05-02T06:01:22.494Z</time></trkpt><trkpt lat="43.1874991" lon="12.2104265"><ele>447.0</ele><time>2026-05-02T06:01:23.494Z</time></trkpt><trkpt lat="43.1874972" lon="12.2103001"><ele>447.40000000000003</ele><time>2026-05-02T06:01:24.493Z</time></trkpt><trkpt lat="43.1875051" lon="12.2101702"><ele>447.80000000000007</ele><time>2026-05-02T06:01:25.496Z</time></trkpt><trkpt lat="43.1875251" lon="12.2100513"><ele>448.2</ele><time>2026-05-02T06:01:26.492Z</time></trkpt><trkpt lat="43.1875548" lon="12.2099574"><ele>448.6</ele><time>2026-05-02T06:01:27.497Z</time></trkpt><trkpt lat="43.1876469" lon="12.2098705"><ele>449.0</ele><time>2026-05-02T06:01:29.49Z</time></trkpt><trkpt lat="43.1877466" lon="12.2099184"><ele>448.99999999999994</ele><time>2026-05-02T06:01:31.5Z</time></trkpt><trkpt lat="43.1878427" lon="12.2100288"><ele>449.0</ele><time>2026-05-02T06:01:33.496Z</time></trkpt><trkpt lat="43.1879014" lon="12.2100859"><ele>449.0</ele><time>2026-05-02T06:01:34.494Z</time></trkpt><trkpt lat="43.187951" lon="12.2101565"><ele>449.0</ele><time>2026-05-02T06:01:35.501Z</time></trkpt><trkpt lat="43.1879955" lon="12.2102423"><ele>448.99999999999994</ele><time>2026-05-02T06:01:36.493Z</time></trkpt><trkpt lat="43.1880434" lon="12.2103159"><ele>449.0</ele><time>2026-05-02T06:01:37.502Z</time></trkpt><trkpt lat="43.1881037" lon="12.2103643"><ele>450.6</ele><time>2026-05-02T06:01:38.492Z</time></trkpt><trkpt lat="43.1881854" lon="12.2103912"><ele>452.2</ele><time>2026-05-02T06:01:39.488Z</time></trkpt><trkpt lat="43.1882778" lon="12.2104139"><ele>453.80000000000007</ele><time>2026-05-02T06:01:40.502Z</time></trkpt><trkpt lat="43.1883815" lon="12.2104318"><ele>455.40000000000003</ele><time>2026-05-02T06:01:41.512Z</time></trkpt><trkpt lat="43.1885066" lon="12.2104441"><ele>457.0</ele><time>2026-05-02T06:01:42.492Z</time></trkpt><trkpt lat="43.1886308" lon="12.2104484"><ele>457.0</ele><time>2026-05-02T06:01:43.495Z</time></trkpt><trkpt lat="43.1887496" lon="12.2104373"><ele>457.00000000000006</ele><time>2026-05-02T06:01:44.497Z</time></trkpt><trkpt lat="43.1888541" lon="12.2104095"><ele>457.00000000000006</ele><time>2026-05-02T06:01:45.495Z</time></trkpt><trkpt lat="43.1889469" lon="12.2103573"><ele>457.0</ele><time>2026-05-02T06:01:46.492Z</time></trkpt><trkpt lat="43.1890337" lon="12.2102929"><ele>457.0</ele><time>2026-05-02T06:01:47.494Z</time></trkpt><trkpt lat="43.1891107" lon="12.210242"><ele>457.6666666666667</ele><time>2026-05-02T06:01:48.489Z</time></trkpt><trkpt lat="43.1891799" lon="12.2102151"><ele>458.33333333333337</ele><time>2026-05-02T06:01:49.502Z</time></trkpt><trkpt lat="43.1892435" lon="12.2102206"><ele>459.0</ele><time>2026-05-02T06:01:50.497Z</time></trkpt><trkpt lat="43.1893179" lon="12.210262"><ele>459.66666666666663</ele><time>2026-05-02T06:01:51.493Z</time></trkpt><trkpt lat="43.1894062" lon="12.210307"><ele>460.3333333333333</ele><time>2026-05-02T06:01:52.491Z</time></trkpt><trkpt lat="43.189505" lon="12.2103619"><ele>461.0</ele><time>2026-05-02T06:01:53.495Z</time></trkpt><trkpt lat="43.1896246" lon="12.2104089"><ele>461.0</ele><time>2026-05-02T06:01:54.496Z</time></trkpt><trkpt lat="43.1897344" lon="12.2104367"><ele>461.0</ele><time>2026-05-02T06:01:55.49Z</time></trkpt><trkpt lat="43.1898067" lon="12.2104277"><ele>461.0</ele><time>2026-05-02T06:01:56.494Z</time></trkpt><trkpt lat="43.1898461" lon="12.2103173"><ele>461.0</ele><time>2026-05-02T06:01:58.487Z</time></trkpt><trkpt lat="43.1898057" lon="12.2101433"><ele>461.0</ele><time>2026-05-02T06:02:00.492Z</time></trkpt><trkpt lat="43.1897716" lon="12.2100371"><ele>461.0</ele><time>2026-05-02T06:02:01.498Z</time></trkpt><trkpt lat="43.1897416" lon="12.2099085"><ele>461.0</ele><time>2026-05-02T06:02:02.497Z</time></trkpt><trkpt lat="43.1897238" lon="12.2097589"><ele>461.0</ele><time>2026-05-02T06:02:03.491Z</time></trkpt><trkpt lat="43.1897096" lon="12.2096187"><ele>461.0</ele><time>2026-05-02T06:02:04.492Z</time></trkpt><trkpt lat="43.1896839" lon="12.2095182"><ele>461.0</ele><time>2026-05-02T06:02:05.498Z</time></trkpt><trkpt lat="43.1896457" lon="12.2094262"><ele>460.3333333333333</ele><time>2026-05-02T06:02:06.506Z</time></trkpt><trkpt lat="43.1895938" lon="12.2093467"><ele>459.66666666666663</ele><time>2026-05-02T06:02:07.502Z</time></trkpt><trkpt lat="43.1895407" lon="12.2092676"><ele>459.0</ele><time>2026-05-02T06:02:08.495Z</time></trkpt><trkpt lat="43.1895066" lon="12.2091763"><ele>458.33333333333337</ele><time>2026-05-02T06:02:09.491Z</time></trkpt><trkpt lat="43.1894888" lon="12.2090647"><ele>457.6666666666667</ele><time>2026-05-02T06:02:10.491Z</time></trkpt><trkpt lat="43.1894803" lon="12.2089227"><ele>457.0</ele><time>2026-05-02T06:02:11.49Z</time></trkpt><trkpt lat="43.1894761" lon="12.2087632"><ele>456.5</ele><time>2026-05-02T06:02:12.492Z</time></trkpt><trkpt lat="43.1894751" lon="12.2085924"><ele>456.0</ele><time>2026-05-02T06:02:13.492Z</time></trkpt><trkpt lat="43.1894728" lon="12.208416"><ele>455.5</ele><time>2026-05-02T06:02:14.495Z</time></trkpt><trkpt lat="43.189463" lon="12.2082533"><ele>455.0</ele><time>2026-05-02T06:02:15.492Z</time></trkpt><trkpt lat="43.1894529" lon="12.2081006"><ele>455.0</ele><time>2026-05-02T06:02:16.494Z</time></trkpt><trkpt lat="43.1894429" lon="12.2079491"><ele>455.0</ele><time>2026-05-02T06:02:17.491Z</time></trkpt><trkpt lat="43.1894332" lon="12.207793"><ele>455.0</ele><time>2026-05-02T06:02:18.491Z</time></trkpt><trkpt lat="43.1894292" lon="12.2076335"><ele>455.0</ele><time>2026-05-02T06:02:19.5Z</time></trkpt><trkpt lat="43.1894229" lon="12.2074752"><ele>455.75</ele><time>2026-05-02T06:02:20.495Z</time></trkpt><trkpt lat="43.1894135" lon="12.2073132"><ele>456.5</ele><time>2026-05-02T06:02:21.497Z</time></trkpt><trkpt lat="43.189399" lon="12.2071495"><ele>457.25</ele><time>2026-05-02T06:02:22.492Z</time></trkpt><trkpt lat="43.189375" lon="12.2069974"><ele>458.0</ele><time>2026-05-02T06:02:23.495Z</time></trkpt><trkpt lat="43.1893528" lon="12.206856"><ele>458.0</ele><time>2026-05-02T06:02:24.495Z</time></trkpt><trkpt lat="43.1893398" lon="12.2066996"><ele>457.99999999999994</ele><time>2026-05-02T06:02:25.494Z</time></trkpt><trkpt lat="43.1893261" lon="12.2065401"><ele>457.99999999999994</ele><time>2026-05-02T06:02:26.491Z</time></trkpt><trkpt lat="43.1893081" lon="12.2063919"><ele>458.0</ele><time>2026-05-02T06:02:27.497Z</time></trkpt><trkpt lat="43.1892803" lon="12.2062672"><ele>458.0</ele><time>2026-05-02T06:02:28.492Z</time></trkpt><trkpt lat="43.1892623" lon="12.2061556"><ele>458.0</ele><time>2026-05-02T06:02:29.495Z</time></trkpt><trkpt lat="43.1892822" lon="12.2060167"><ele>457.99999999999994</ele><time>2026-05-02T06:02:31.493Z</time></trkpt><trkpt lat="43.1893575" lon="12.2059274"><ele>457.99999999999994</ele><time>2026-05-02T06:02:33.488Z</time></trkpt><trkpt lat="43.1894192" lon="12.2058901"><ele>458.0</ele><time>2026-05-02T06:02:34.498Z</time></trkpt><trkpt lat="43.1894989" lon="12.2058471"><ele>458.0</ele><time>2026-05-02T06:02:35.503Z</time></trkpt><trkpt lat="43.1895879" lon="12.2057745"><ele>458.0</ele><time>2026-05-02T06:02:36.497Z</time></trkpt><trkpt lat="43.1896698" lon="12.2056978"><ele>458.0</ele><time>2026-05-02T06:02:37.494Z</time></trkpt><trkpt lat="43.1897645" lon="12.2056039"><ele>458.0</ele><time>2026-05-02T06:02:38.502Z</time></trkpt><trkpt lat="43.1898684" lon="12.2055067"><ele>458.0</ele><time>2026-05-02T06:02:39.508Z</time></trkpt><trkpt lat="43.1899734" lon="12.2054045"><ele>460.25</ele><time>2026-05-02T06:02:40.495Z</time></trkpt><trkpt lat="43.1900887" lon="12.2053116"><ele>462.5</ele><time>2026-05-02T06:02:41.494Z</time></trkpt><trkpt lat="43.1902034" lon="12.2052233"><ele>464.75</ele><time>2026-05-02T06:02:42.501Z</time></trkpt><trkpt lat="43.1903157" lon="12.2051423"><ele>467.0</ele><time>2026-05-02T06:02:43.49Z</time></trkpt><trkpt lat="43.190419" lon="12.2050575"><ele>467.0</ele><time>2026-05-02T06:02:44.489Z</time></trkpt><trkpt lat="43.1905139" lon="12.2049812"><ele>467.00000000000006</ele><time>2026-05-02T06:02:45.505Z</time></trkpt><trkpt lat="43.1906007" lon="12.2049038"><ele>467.00000000000006</ele><time>2026-05-02T06:02:46.493Z</time></trkpt><trkpt lat="43.1906827" lon="12.2048273"><ele>467.0</ele><time>2026-05-02T06:02:47.49Z</time></trkpt><trkpt lat="43.1907601" lon="12.2047544"><ele>467.0</ele><time>2026-05-02T06:02:48.49Z</time></trkpt><trkpt lat="43.1908386" lon="12.2047072"><ele>468.0</ele><time>2026-05-02T06:02:49.505Z</time></trkpt><trkpt lat="43.1909148" lon="12.2046801"><ele>469.00000000000006</ele><time>2026-05-02T06:02:50.493Z</time></trkpt><trkpt lat="43.1909856" lon="12.2046708"><ele>470.00000000000006</ele><time>2026-05-02T06:02:51.497Z</time></trkpt><trkpt lat="43.1910948" lon="12.2046877"><ele>471.0</ele><time>2026-05-02T06:02:52.494Z</time></trkpt><trkpt lat="43.191199" lon="12.2047097"><ele>472.0</ele><time>2026-05-02T06:02:53.489Z</time></trkpt><trkpt lat="43.1912937" lon="12.2047251"><ele>472.0</ele><time>2026-05-02T06:02:54.498Z</time></trkpt><trkpt lat="43.1914215" lon="12.2047517"><ele>472.0</ele><time>2026-05-02T06:02:55.496Z</time></trkpt><trkpt lat="43.1915317" lon="12.2047604"><ele>472.0</ele><time>2026-05-02T06:02:56.499Z</time></trkpt><trkpt lat="43.1916433" lon="12.2047804"><ele>472.0</ele><time>2026-05-02T06:02:57.493Z</time></trkpt><trkpt lat="43.1917529" lon="12.2047966"><ele>474.0</ele><time>2026-05-02T06:02:58.49Z</time></trkpt><trkpt lat="43.1918476" lon="12.204819"><ele>476.00000000000006</ele><time>2026-05-02T06:02:59.498Z</time></trkpt><trkpt lat="43.191927" lon="12.2048167"><ele>478.00000000000006</ele><time>2026-05-02T06:03:00.489Z</time></trkpt><trkpt lat="43.1919954" lon="12.2048005"><ele>480.0</ele><time>2026-05-02T06:03:01.493Z</time></trkpt><trkpt lat="43.1920603" lon="12.2047015"><ele>482.0</ele><time>2026-05-02T06:03:03.494Z</time></trkpt><trkpt lat="43.1921166" lon="12.2045402"><ele>481.99999999999994</ele><time>2026-05-02T06:03:05.492Z</time></trkpt><trkpt lat="43.1921565" lon="12.2044544"><ele>482.0</ele><time>2026-05-02T06:03:06.491Z</time></trkpt><trkpt lat="43.1922065" lon="12.2043699"><ele>482.0</ele><time>2026-05-02T06:03:07.499Z</time></trkpt><trkpt lat="43.1922596" lon="12.2042923"><ele>482.0</ele><time>2026-05-02T06:03:08.49Z</time></trkpt><trkpt lat="43.1923193" lon="12.2042061"><ele>481.99999999999994</ele><time>2026-05-02T06:03:09.494Z</time></trkpt><trkpt lat="43.19238" lon="12.2041108"><ele>482.0</ele><time>2026-05-02T06:03:10.503Z</time></trkpt><trkpt lat="43.192438" lon="12.2040157"><ele>485.20000000000005</ele><time>2026-05-02T06:03:11.5Z</time></trkpt><trkpt lat="43.1924986" lon="12.2039207"><ele>488.40000000000003</ele><time>2026-05-02T06:03:12.497Z</time></trkpt><trkpt lat="43.1925663" lon="12.20383"><ele>491.59999999999997</ele><time>2026-05-02T06:03:13.504Z</time></trkpt><trkpt lat="43.192641" lon="12.2037393"><ele>494.79999999999995</ele><time>2026-05-02T06:03:14.489Z</time></trkpt><trkpt lat="43.1927245" lon="12.2036598"><ele>498.0</ele><time>2026-05-02T06:03:15.497Z</time></trkpt><trkpt lat="43.1928091" lon="12.2035944"><ele>498.0</ele><time>2026-05-02T06:03:16.49Z</time></trkpt><trkpt lat="43.1928929" lon="12.2035428"><ele>498.0</ele><time>2026-05-02T06:03:17.497Z</time></trkpt><trkpt lat="43.192972" lon="12.2035101"><ele>498.0</ele><time>2026-05-02T06:03:18.494Z</time></trkpt><trkpt lat="43.1930383" lon="12.2035019"><ele>498.0</ele><time>2026-05-02T06:03:19.491Z</time></trkpt><trkpt lat="43.1931171" lon="12.203509"><ele>498.0</ele><time>2026-05-02T06:03:21.489Z</time></trkpt><trkpt lat="43.1932306" lon="12.2034932"><ele>498.0</ele><time>2026-05-02T06:03:23.508Z</time></trkpt><trkpt lat="43.1933053" lon="12.2034678"><ele>499.79999999999995</ele><time>2026-05-02T06:03:24.511Z</time></trkpt><trkpt lat="43.1933807" lon="12.2034299"><ele>501.59999999999997</ele><time>2026-05-02T06:03:25.491Z</time></trkpt><trkpt lat="43.1934437" lon="12.2033917"><ele>503.40000000000003</ele><time>2026-05-02T06:03:26.491Z</time></trkpt><trkpt lat="43.1935265" lon="12.2033176"><ele>505.20000000000005</ele><time>2026-05-02T06:03:28.49Z</time></trkpt><trkpt lat="43.1935936" lon="12.203205"><ele>507.0</ele><time>2026-05-02T06:03:30.495Z</time></trkpt><trkpt lat="43.1936124" lon="12.2030209"><ele>507.0</ele><time>2026-05-02T06:03:32.496Z</time></trkpt><trkpt lat="43.1936123" lon="12.2029045"><ele>507.00000000000006</ele><time>2026-05-02T06:03:33.494Z</time></trkpt><trkpt lat="43.1936299" lon="12.2027826"><ele>507.00000000000006</ele><time>2026-05-02T06:03:34.488Z</time></trkpt><trkpt lat="43.1936646" lon="12.202661"><ele>507.0</ele><time>2026-05-02T06:03:35.5Z</time></trkpt><trkpt lat="43.1937043" lon="12.2025413"><ele>507.0</ele><time>2026-05-02T06:03:36.505Z</time></trkpt><trkpt lat="43.1937404" lon="12.2024249"><ele>506.75</ele><time>2026-05-02T06:03:37.491Z</time></trkpt><trkpt lat="43.1937744" lon="12.202275"><ele>506.5</ele><time>2026-05-02T06:03:38.5Z</time></trkpt><trkpt lat="43.1938086" lon="12.2021252"><ele>506.25</ele><time>2026-05-02T06:03:39.495Z</time></trkpt><trkpt lat="43.1938424" lon="12.2019741"><ele>506.0</ele><time>2026-05-02T06:03:40.49Z</time></trkpt><trkpt lat="43.1938779" lon="12.2018207"><ele>506.0</ele><time>2026-05-02T06:03:41.499Z</time></trkpt><trkpt lat="43.1939201" lon="12.2016576"><ele>506.0</ele><time>2026-05-02T06:03:42.492Z</time></trkpt><trkpt lat="43.1939631" lon="12.2014735"><ele>506.0</ele><time>2026-05-02T06:03:43.492Z</time></trkpt><trkpt lat="43.1940091" lon="12.2012799"><ele>506.0</ele><time>2026-05-02T06:03:44.494Z</time></trkpt><trkpt lat="43.1940622" lon="12.201077"><ele>509.75</ele><time>2026-05-02T06:03:45.486Z</time></trkpt><trkpt lat="43.194126" lon="12.2008772"><ele>513.5</ele><time>2026-05-02T06:03:46.495Z</time></trkpt><trkpt lat="43.1942028" lon="12.2006974"><ele>517.25</ele><time>2026-05-02T06:03:47.495Z</time></trkpt><trkpt lat="43.1942722" lon="12.2005437"><ele>521.0</ele><time>2026-05-02T06:03:48.488Z</time></trkpt><trkpt lat="43.1943216" lon="12.2004045"><ele>523.2</ele><time>2026-05-02T06:03:49.495Z</time></trkpt><trkpt lat="43.1943615" lon="12.2002651"><ele>525.4000000000001</ele><time>2026-05-02T06:03:50.495Z</time></trkpt><trkpt lat="43.194356" lon="12.2001298"><ele>527.6</ele><time>2026-05-02T06:03:51.491Z</time></trkpt><trkpt lat="43.19433" lon="12.1999943"><ele>529.8000000000001</ele><time>2026-05-02T06:03:52.494Z</time></trkpt><trkpt lat="43.1942839" lon="12.1998641"><ele>532.0</ele><time>2026-05-02T06:03:53.494Z</time></trkpt><trkpt lat="43.194216" lon="12.1997278"><ele>532.0</ele><time>2026-05-02T06:03:54.497Z</time></trkpt><trkpt lat="43.1941406" lon="12.199586"><ele>532.0</ele><time>2026-05-02T06:03:55.494Z</time></trkpt><trkpt lat="43.1940606" lon="12.19944"><ele>532.0</ele><time>2026-05-02T06:03:56.492Z</time></trkpt><trkpt lat="43.1939807" lon="12.1992924"><ele>532.0</ele><time>2026-05-02T06:03:57.491Z</time></trkpt><trkpt lat="43.1939091" lon="12.1991368"><ele>534.0</ele><time>2026-05-02T06:03:58.496Z</time></trkpt><trkpt lat="43.1938481" lon="12.1989642"><ele>536.0</ele><time>2026-05-02T06:03:59.497Z</time></trkpt><trkpt lat="43.1937953" lon="12.1987808"><ele>538.0</ele><time>2026-05-02T06:04:00.497Z</time></trkpt><trkpt lat="43.1937437" lon="12.198592"><ele>540.0</ele><time>2026-05-02T06:04:01.495Z</time></trkpt><trkpt lat="43.1936893" lon="12.1984048"><ele>540.0</ele><time>2026-05-02T06:04:02.499Z</time></trkpt><trkpt lat="43.1936304" lon="12.1982316"><ele>540.0</ele><time>2026-05-02T06:04:03.497Z</time></trkpt><trkpt lat="43.1935717" lon="12.1980805"><ele>540.0</ele><time>2026-05-02T06:04:04.492Z</time></trkpt><trkpt lat="43.1935257" lon="12.1979452"><ele>540.0</ele><time>2026-05-02T06:04:05.494Z</time></trkpt><trkpt lat="43.1935052" lon="12.1978092"><ele>542.2</ele><time>2026-05-02T06:04:06.492Z</time></trkpt><trkpt lat="43.193516" lon="12.1976947"><ele>544.4</ele><time>2026-05-02T06:04:07.489Z</time></trkpt><trkpt lat="43.1935549" lon="12.1975878"><ele>546.6</ele><time>2026-05-02T06:04:08.493Z</time></trkpt><trkpt lat="43.193613" lon="12.1974817"><ele>548.8</ele><time>2026-05-02T06:04:09.493Z</time></trkpt><trkpt lat="43.193671" lon="12.197368"><ele>551.0</ele><time>2026-05-02T06:04:10.495Z</time></trkpt><trkpt lat="43.1937089" lon="12.1972382"><ele>552.6</ele><time>2026-05-02T06:04:11.491Z</time></trkpt><trkpt lat="43.1937217" lon="12.1970966"><ele>554.2</ele><time>2026-05-02T06:04:12.488Z</time></trkpt><trkpt lat="43.1937163" lon="12.1969464"><ele>555.8</ele><time>2026-05-02T06:04:13.494Z</time></trkpt><trkpt lat="43.1936946" lon="12.1967928"><ele>557.4</ele><time>2026-05-02T06:04:14.504Z</time></trkpt><trkpt lat="43.1936582" lon="12.1966455"><ele>559.0</ele><time>2026-05-02T06:04:15.495Z</time></trkpt><trkpt lat="43.1936029" lon="12.1965114"><ele>558.25</ele><time>2026-05-02T06:04:16.496Z</time></trkpt><trkpt lat="43.1935348" lon="12.1963906"><ele>557.5</ele><time>2026-05-02T06:04:17.497Z</time></trkpt><trkpt lat="43.1934556" lon="12.196279"><ele>556.75</ele><time>2026-05-02T06:04:18.494Z</time></trkpt><trkpt lat="43.1933688" lon="12.1961674"><ele>556.0</ele><time>2026-05-02T06:04:19.496Z</time></trkpt><trkpt lat="43.1932886" lon="12.1960482"><ele>556.0</ele><time>2026-05-02T06:04:20.496Z</time></trkpt><trkpt lat="43.1932115" lon="12.1959252"><ele>556.0</ele><time>2026-05-02T06:04:21.582Z</time></trkpt><trkpt lat="43.1931534" lon="12.1957611"><ele>556.0</ele><time>2026-05-02T06:04:22.576Z</time></trkpt><trkpt lat="43.193101" lon="12.1955944"><ele>556.0</ele><time>2026-05-02T06:04:23.573Z</time></trkpt><trkpt lat="43.1930486" lon="12.1954313"><ele>557.75</ele><time>2026-05-02T06:04:24.579Z</time></trkpt><trkpt lat="43.1929901" lon="12.1952872"><ele>559.5</ele><time>2026-05-02T06:04:25.581Z</time></trkpt><trkpt lat="43.1929078" lon="12.1951606"><ele>561.25</ele><time>2026-05-02T06:04:26.572Z</time></trkpt><trkpt lat="43.1928063" lon="12.1950356"><ele>563.0</ele><time>2026-05-02T06:04:27.578Z</time></trkpt><trkpt lat="43.1927134" lon="12.1949243"><ele>560.75</ele><time>2026-05-02T06:04:28.58Z</time></trkpt><trkpt lat="43.1926417" lon="12.1948137"><ele>558.5</ele><time>2026-05-02T06:04:29.579Z</time></trkpt><trkpt lat="43.1925845" lon="12.1946813"><ele>556.25</ele><time>2026-05-02T06:04:30.579Z</time></trkpt><trkpt lat="43.1925338" lon="12.1945263"><ele>554.0</ele><time>2026-05-02T06:04:31.585Z</time></trkpt><trkpt lat="43.1924851" lon="12.1943749"><ele>554.0</ele><time>2026-05-02T06:04:32.577Z</time></trkpt><trkpt lat="43.192431" lon="12.1942267"><ele>554.0</ele><time>2026-05-02T06:04:33.572Z</time></trkpt><trkpt lat="43.192371" lon="12.1940808"><ele>554.0</ele><time>2026-05-02T06:04:34.579Z</time></trkpt><trkpt lat="43.1923007" lon="12.1939475"><ele>554.0</ele><time>2026-05-02T06:04:35.578Z</time></trkpt><trkpt lat="43.1922229" lon="12.1938232"><ele>552.5</ele><time>2026-05-02T06:04:36.575Z</time></trkpt><trkpt lat="43.1921394" lon="12.1937076"><ele>551.0</ele><time>2026-05-02T06:04:37.573Z</time></trkpt><trkpt lat="43.192055" lon="12.1935973"><ele>549.5</ele><time>2026-05-02T06:04:38.574Z</time></trkpt><trkpt lat="43.1919772" lon="12.1934836"><ele>548.0</ele><time>2026-05-02T06:04:39.574Z</time></trkpt><trkpt lat="43.1919093" lon="12.193363"><ele>548.0</ele><time>2026-05-02T06:04:40.575Z</time></trkpt><trkpt lat="43.1918513" lon="12.1932374"><ele>548.0</ele><time>2026-05-02T06:04:41.577Z</time></trkpt><trkpt lat="43.1918066" lon="12.1931227"><ele>548.0</ele><time>2026-05-02T06:04:42.58Z</time></trkpt><trkpt lat="43.1917727" lon="12.1930195"><ele>548.0</ele><time>2026-05-02T06:04:43.582Z</time></trkpt><trkpt lat="43.1917523" lon="12.1929219"><ele>548.0</ele><time>2026-05-02T06:04:44.582Z</time></trkpt><trkpt lat="43.19175" lon="12.1928231"><ele>548.0</ele><time>2026-05-02T06:04:45.578Z</time></trkpt><trkpt lat="43.1917645" lon="12.1927156"><ele>547.8</ele><time>2026-05-02T06:04:46.576Z</time></trkpt><trkpt lat="43.1917893" lon="12.1925888"><ele>547.5999999999999</ele><time>2026-05-02T06:04:47.572Z</time></trkpt><trkpt lat="43.1918282" lon="12.1924588"><ele>547.4000000000001</ele><time>2026-05-02T06:04:48.577Z</time></trkpt><trkpt lat="43.1918859" lon="12.1923247"><ele>547.2</ele><time>2026-05-02T06:04:49.58Z</time></trkpt><trkpt lat="43.1919539" lon="12.1921913"><ele>547.0</ele><time>2026-05-02T06:04:50.579Z</time></trkpt><trkpt lat="43.1920571" lon="12.1920678"><ele>547.0</ele><time>2026-05-02T06:04:51.584Z</time></trkpt><trkpt lat="43.1921666" lon="12.1919529"><ele>547.0</ele><time>2026-05-02T06:04:52.567Z</time></trkpt><trkpt lat="43.1922812" lon="12.1918352"><ele>547.0</ele><time>2026-05-02T06:04:53.57Z</time></trkpt><trkpt lat="43.1923955" lon="12.1917129"><ele>547.0</ele><time>2026-05-02T06:04:54.572Z</time></trkpt><trkpt lat="43.1925036" lon="12.1915969"><ele>547.25</ele><time>2026-05-02T06:04:55.571Z</time></trkpt><trkpt lat="43.192598" lon="12.1914983"><ele>547.5</ele><time>2026-05-02T06:04:56.57Z</time></trkpt><trkpt lat="43.1926969" lon="12.1914238"><ele>547.75</ele><time>2026-05-02T06:04:57.571Z</time></trkpt><trkpt lat="43.1928065" lon="12.1913688"><ele>548.0</ele><time>2026-05-02T06:04:58.576Z</time></trkpt><trkpt lat="43.1929277" lon="12.1913246"><ele>548.0</ele><time>2026-05-02T06:04:59.584Z</time></trkpt><trkpt lat="43.1930583" lon="12.1912757"><ele>548.0</ele><time>2026-05-02T06:05:00.575Z</time></trkpt><trkpt lat="43.1931964" lon="12.1912203"><ele>548.0</ele><time>2026-05-02T06:05:01.579Z</time></trkpt><trkpt lat="43.1933358" lon="12.1911644"><ele>548.0</ele><time>2026-05-02T06:05:02.572Z</time></trkpt><trkpt lat="43.1934789" lon="12.1911073"><ele>548.0</ele><time>2026-05-02T06:05:03.577Z</time></trkpt><trkpt lat="43.1936233" lon="12.1910522"><ele>548.0</ele><time>2026-05-02T06:05:04.578Z</time></trkpt><trkpt lat="43.1937692" lon="12.1909949"><ele>548.0</ele><time>2026-05-02T06:05:05.573Z</time></trkpt><trkpt lat="43.193909" lon="12.1909395"><ele>548.0</ele><time>2026-05-02T06:05:06.577Z</time></trkpt><trkpt lat="43.1940297" lon="12.1908742"><ele>548.25</ele><time>2026-05-02T06:05:07.575Z</time></trkpt><trkpt lat="43.194133" lon="12.1907943"><ele>548.5</ele><time>2026-05-02T06:05:08.587Z</time></trkpt><trkpt lat="43.1942223" lon="12.1907073"><ele>548.75</ele><time>2026-05-02T06:05:09.574Z</time></trkpt><trkpt lat="43.1943004" lon="12.1905891"><ele>549.0</ele><time>2026-05-02T06:05:10.581Z</time></trkpt><trkpt lat="43.1943682" lon="12.1904495"><ele>549.0</ele><time>2026-05-02T06:05:11.573Z</time></trkpt><trkpt lat="43.194421" lon="12.1902936"><ele>549.0</ele><time>2026-05-02T06:05:12.574Z</time></trkpt><trkpt lat="43.1944624" lon="12.1901308"><ele>549.0</ele><time>2026-05-02T06:05:13.576Z</time></trkpt><trkpt lat="43.1945004" lon="12.189966"><ele>549.0</ele><time>2026-05-02T06:05:14.572Z</time></trkpt><trkpt lat="43.1945417" lon="12.1897989"><ele>549.5</ele><time>2026-05-02T06:05:15.578Z</time></trkpt><trkpt lat="43.1946037" lon="12.1896513"><ele>550.0</ele><time>2026-05-02T06:05:16.589Z</time></trkpt><trkpt lat="43.1946858" lon="12.1895238"><ele>550.5</ele><time>2026-05-02T06:05:17.575Z</time></trkpt><trkpt lat="43.1947858" lon="12.1893954"><ele>551.0</ele><time>2026-05-02T06:05:18.575Z</time></trkpt><trkpt lat="43.194895" lon="12.1892647"><ele>551.75</ele><time>2026-05-02T06:05:19.583Z</time></trkpt><trkpt lat="43.1950067" lon="12.1891291"><ele>552.5</ele><time>2026-05-02T06:05:20.572Z</time></trkpt><trkpt lat="43.1951122" lon="12.1889941"><ele>553.25</ele><time>2026-05-02T06:05:21.591Z</time></trkpt><trkpt lat="43.1952002" lon="12.1888584"><ele>554.0</ele><time>2026-05-02T06:05:22.576Z</time></trkpt><trkpt lat="43.1952806" lon="12.1887032"><ele>554.0</ele><time>2026-05-02T06:05:23.573Z</time></trkpt><trkpt lat="43.1953495" lon="12.1885335"><ele>554.0</ele><time>2026-05-02T06:05:24.577Z</time></trkpt><trkpt lat="43.1954082" lon="12.1883634"><ele>554.0</ele><time>2026-05-02T06:05:25.573Z</time></trkpt><trkpt lat="43.1954577" lon="12.1882098"><ele>554.0</ele><time>2026-05-02T06:05:26.575Z</time></trkpt><trkpt lat="43.1955103" lon="12.1880759"><ele>553.25</ele><time>2026-05-02T06:05:27.572Z</time></trkpt><trkpt lat="43.1955809" lon="12.187956"><ele>552.5</ele><time>2026-05-02T06:05:28.577Z</time></trkpt><trkpt lat="43.1956667" lon="12.1878311"><ele>551.75</ele><time>2026-05-02T06:05:29.577Z</time></trkpt><trkpt lat="43.1957593" lon="12.1876872"><ele>551.0</ele><time>2026-05-02T06:05:30.588Z</time></trkpt><trkpt lat="43.195852" lon="12.1875421"><ele>551.0</ele><time>2026-05-02T06:05:31.584Z</time></trkpt><trkpt lat="43.1959395" lon="12.1873977"><ele>551.0</ele><time>2026-05-02T06:05:32.573Z</time></trkpt><trkpt lat="43.1960236" lon="12.1872613"><ele>551.0</ele><time>2026-05-02T06:05:33.579Z</time></trkpt><trkpt lat="43.1961002" lon="12.1871401"><ele>551.0</ele><time>2026-05-02T06:05:34.576Z</time></trkpt><trkpt lat="43.1961653" lon="12.1870301"><ele>549.4</ele><time>2026-05-02T06:05:35.576Z</time></trkpt><trkpt lat="43.196216" lon="12.1869302"><ele>547.8</ele><time>2026-05-02T06:05:36.576Z</time></trkpt><trkpt lat="43.1962527" lon="12.1868243"><ele>546.1999999999999</ele><time>2026-05-02T06:05:37.575Z</time></trkpt><trkpt lat="43.1962763" lon="12.1867008"><ele>544.6</ele><time>2026-05-02T06:05:38.582Z</time></trkpt><trkpt lat="43.1962837" lon="12.1865663"><ele>543.0</ele><time>2026-05-02T06:05:39.577Z</time></trkpt><trkpt lat="43.1962759" lon="12.1864261"><ele>541.5</ele><time>2026-05-02T06:05:40.583Z</time></trkpt><trkpt lat="43.1962615" lon="12.186306"><ele>540.0</ele><time>2026-05-02T06:05:41.577Z</time></trkpt><trkpt lat="43.1962487" lon="12.1862143"><ele>538.5</ele><time>2026-05-02T06:05:42.575Z</time></trkpt><trkpt lat="43.1962275" lon="12.1861185"><ele>537.0</ele><time>2026-05-02T06:05:44.58Z</time></trkpt><trkpt lat="43.196207" lon="12.1860224"><ele>535.5</ele><time>2026-05-02T06:07:09.585Z</time></trkpt><trkpt lat="43.1961745" lon="12.1858516"><ele>534.0</ele><time>2026-05-02T06:07:11.587Z</time></trkpt><trkpt lat="43.19615" lon="12.1857238"><ele>532.25</ele><time>2026-05-02T06:07:12.588Z</time></trkpt><trkpt lat="43.1961228" lon="12.1855722"><ele>530.5</ele><time>2026-05-02T06:07:13.57Z</time></trkpt><trkpt lat="43.1960916" lon="12.1854001"><ele>528.75</ele><time>2026-05-02T06:07:14.58Z</time></trkpt><trkpt lat="43.1960634" lon="12.1852324"><ele>527.0</ele><time>2026-05-02T06:07:15.575Z</time></trkpt><trkpt lat="43.1960382" lon="12.185062"><ele>527.0</ele><time>2026-05-02T06:07:16.579Z</time></trkpt><trkpt lat="43.1960213" lon="12.1848856"><ele>527.0</ele><time>2026-05-02T06:07:17.586Z</time></trkpt><trkpt lat="43.196006" lon="12.1847103"><ele>527.0</ele><time>2026-05-02T06:07:18.58Z</time></trkpt><trkpt lat="43.1959935" lon="12.1845492"><ele>527.0</ele><time>2026-05-02T06:07:19.573Z</time></trkpt><trkpt lat="43.195989" lon="12.1844116"><ele>526.3333333333333</ele><time>2026-05-02T06:07:20.573Z</time></trkpt><trkpt lat="43.1959946" lon="12.1842933"><ele>525.6666666666666</ele><time>2026-05-02T06:07:21.584Z</time></trkpt><trkpt lat="43.196013" lon="12.1841975"><ele>525.0</ele><time>2026-05-02T06:07:22.577Z</time></trkpt><trkpt lat="43.1960566" lon="12.1841055"><ele>524.3333333333334</ele><time>2026-05-02T06:07:23.578Z</time></trkpt><trkpt lat="43.1961211" lon="12.1840059"><ele>523.6666666666667</ele><time>2026-05-02T06:07:24.585Z</time></trkpt><trkpt lat="43.196208" lon="12.1839084"><ele>523.0</ele><time>2026-05-02T06:07:25.579Z</time></trkpt><trkpt lat="43.1963133" lon="12.1837982"><ele>521.5</ele><time>2026-05-02T06:07:26.59Z</time></trkpt><trkpt lat="43.1964141" lon="12.1836775"><ele>520.0</ele><time>2026-05-02T06:07:27.577Z</time></trkpt><trkpt lat="43.1965067" lon="12.183562"><ele>518.5</ele><time>2026-05-02T06:07:28.576Z</time></trkpt><trkpt lat="43.1965842" lon="12.1834637"><ele>517.0</ele><time>2026-05-02T06:07:29.574Z</time></trkpt><trkpt lat="43.1966621" lon="12.1834021"><ele>516.4</ele><time>2026-05-02T06:07:30.592Z</time></trkpt><trkpt lat="43.1967432" lon="12.1833766"><ele>515.8000000000001</ele><time>2026-05-02T06:07:31.587Z</time></trkpt><trkpt lat="43.196852" lon="12.1833812"><ele>515.2</ele><time>2026-05-02T06:07:32.578Z</time></trkpt><trkpt lat="43.196974" lon="12.1834072"><ele>514.6</ele><time>2026-05-02T06:07:33.576Z</time></trkpt><trkpt lat="43.1970821" lon="12.1834275"><ele>514.0</ele><time>2026-05-02T06:07:34.578Z</time></trkpt><trkpt lat="43.1971655" lon="12.1834257"><ele>514.0</ele><time>2026-05-02T06:07:35.579Z</time></trkpt><trkpt lat="43.1972327" lon="12.1833941"><ele>514.0</ele><time>2026-05-02T06:07:36.642Z</time></trkpt><trkpt lat="43.1972949" lon="12.1833312"><ele>514.0</ele><time>2026-05-02T06:07:37.583Z</time></trkpt><trkpt lat="43.197361" lon="12.1832365"><ele>514.0</ele><time>2026-05-02T06:07:38.582Z</time></trkpt><trkpt lat="43.1974205" lon="12.1831163"><ele>514.0</ele><time>2026-05-02T06:07:39.585Z</time></trkpt><trkpt lat="43.1974826" lon="12.1829758"><ele>512.25</ele><time>2026-05-02T06:07:40.573Z</time></trkpt><trkpt lat="43.1975474" lon="12.1828161"><ele>510.5</ele><time>2026-05-02T06:07:41.578Z</time></trkpt><trkpt lat="43.1976118" lon="12.182646"><ele>508.75</ele><time>2026-05-02T06:07:42.574Z</time></trkpt><trkpt lat="43.1976793" lon="12.1824633"><ele>507.0</ele><time>2026-05-02T06:07:43.571Z</time></trkpt><trkpt lat="43.1977424" lon="12.1822751"><ele>506.5</ele><time>2026-05-02T06:07:44.579Z</time></trkpt><trkpt lat="43.1978008" lon="12.1820838"><ele>506.0</ele><time>2026-05-02T06:07:45.593Z</time></trkpt><trkpt lat="43.1978475" lon="12.181902"><ele>505.5</ele><time>2026-05-02T06:07:46.587Z</time></trkpt><trkpt lat="43.1978821" lon="12.1817278"><ele>505.0</ele><time>2026-05-02T06:07:47.577Z</time></trkpt><trkpt lat="43.1979024" lon="12.1815638"><ele>506.25</ele><time>2026-05-02T06:07:48.585Z</time></trkpt><trkpt lat="43.1978996" lon="12.1814136"><ele>507.5</ele><time>2026-05-02T06:07:49.581Z</time></trkpt><trkpt lat="43.1978686" lon="12.1812674"><ele>508.75</ele><time>2026-05-02T06:07:50.589Z</time></trkpt><trkpt lat="43.1978159" lon="12.1811243"><ele>510.0</ele><time>2026-05-02T06:07:51.575Z</time></trkpt><trkpt lat="43.1977517" lon="12.1809769"><ele>510.0</ele><time>2026-05-02T06:07:52.579Z</time></trkpt><trkpt lat="43.1976849" lon="12.1808238"><ele>510.0</ele><time>2026-05-02T06:07:53.582Z</time></trkpt><trkpt lat="43.19763" lon="12.1806671"><ele>510.0</ele><time>2026-05-02T06:07:54.585Z</time></trkpt><trkpt lat="43.1975986" lon="12.1805247"><ele>510.0</ele><time>2026-05-02T06:07:55.591Z</time></trkpt><trkpt lat="43.1975969" lon="12.1804029"><ele>510.5</ele><time>2026-05-02T06:07:56.575Z</time></trkpt><trkpt lat="43.1976208" lon="12.180293"><ele>511.0</ele><time>2026-05-02T06:07:57.575Z</time></trkpt><trkpt lat="43.1976636" lon="12.1801992"><ele>511.5</ele><time>2026-05-02T06:07:58.581Z</time></trkpt><trkpt lat="43.1977243" lon="12.1801093"><ele>512.0</ele><time>2026-05-02T06:07:59.574Z</time></trkpt><trkpt lat="43.1977971" lon="12.1800242"><ele>512.5</ele><time>2026-05-02T06:08:00.577Z</time></trkpt><trkpt lat="43.1978766" lon="12.1799488"><ele>513.0</ele><time>2026-05-02T06:08:01.587Z</time></trkpt><trkpt lat="43.1979616" lon="12.1798727"><ele>514.75</ele><time>2026-05-02T06:08:02.582Z</time></trkpt><trkpt lat="43.1980542" lon="12.1797882"><ele>516.5</ele><time>2026-05-02T06:08:03.58Z</time></trkpt><trkpt lat="43.1981486" lon="12.1796886"><ele>518.25</ele><time>2026-05-02T06:08:04.575Z</time></trkpt><trkpt lat="43.1982444" lon="12.1795572"><ele>520.0</ele><time>2026-05-02T06:08:05.577Z</time></trkpt><trkpt lat="43.1983344" lon="12.1793947"><ele>520.0</ele><time>2026-05-02T06:08:06.574Z</time></trkpt><trkpt lat="43.198417" lon="12.1792149"><ele>520.0</ele><time>2026-05-02T06:08:07.575Z</time></trkpt><trkpt lat="43.1984881" lon="12.179035"><ele>520.0</ele><time>2026-05-02T06:08:08.577Z</time></trkpt><trkpt lat="43.1985392" lon="12.1788919"><ele>520.0</ele><time>2026-05-02T06:08:09.581Z</time></trkpt><trkpt lat="43.1985721" lon="12.1787942"><ele>520.4</ele><time>2026-05-02T06:08:10.573Z</time></trkpt><trkpt lat="43.1986157" lon="12.1786565"><ele>520.8</ele><time>2026-05-02T06:08:12.573Z</time></trkpt><trkpt lat="43.1986427" lon="12.1785755"><ele>521.2</ele><time>2026-05-02T06:08:13.574Z</time></trkpt><trkpt lat="43.1986752" lon="12.1784705"><ele>521.6</ele><time>2026-05-02T06:08:14.586Z</time></trkpt><trkpt lat="43.1987095" lon="12.1783439"><ele>522.0</ele><time>2026-05-02T06:08:15.576Z</time></trkpt><trkpt lat="43.1987471" lon="12.1781986"><ele>522.25</ele><time>2026-05-02T06:08:16.585Z</time></trkpt><trkpt lat="43.1987895" lon="12.1780412"><ele>522.5</ele><time>2026-05-02T06:08:17.577Z</time></trkpt><trkpt lat="43.1988401" lon="12.1778712"><ele>522.75</ele><time>2026-05-02T06:08:18.579Z</time></trkpt><trkpt lat="43.1988946" lon="12.1776908"><ele>523.0</ele><time>2026-05-02T06:08:19.574Z</time></trkpt><trkpt lat="43.1989524" lon="12.177499"><ele>527.6666666666667</ele><time>2026-05-02T06:08:20.577Z</time></trkpt><trkpt lat="43.1990129" lon="12.1773022"><ele>532.3333333333334</ele><time>2026-05-02T06:08:21.58Z</time></trkpt><trkpt lat="43.1990752" lon="12.1771058"><ele>537.0</ele><time>2026-05-02T06:08:22.579Z</time></trkpt><trkpt lat="43.1991358" lon="12.1769091"><ele>537.0</ele><time>2026-05-02T06:08:23.576Z</time></trkpt><trkpt lat="43.199186" lon="12.1767113"><ele>537.0</ele><time>2026-05-02T06:08:24.578Z</time></trkpt><trkpt lat="43.1992254" lon="12.1765129"><ele>537.0</ele><time>2026-05-02T06:08:25.575Z</time></trkpt><trkpt lat="43.1992541" lon="12.1763143"><ele>538.5</ele><time>2026-05-02T06:08:26.573Z</time></trkpt><trkpt lat="43.1992639" lon="12.1761134"><ele>540.0</ele><time>2026-05-02T06:08:27.58Z</time></trkpt><trkpt lat="43.1992602" lon="12.1759139"><ele>541.5</ele><time>2026-05-02T06:08:28.58Z</time></trkpt><trkpt lat="43.1992593" lon="12.1757176"><ele>543.0</ele><time>2026-05-02T06:08:29.574Z</time></trkpt><trkpt lat="43.1992718" lon="12.1755303"><ele>545.0</ele><time>2026-05-02T06:08:30.579Z</time></trkpt><trkpt lat="43.1992946" lon="12.1753778"><ele>547.0</ele><time>2026-05-02T06:08:31.576Z</time></trkpt><trkpt lat="43.1993328" lon="12.1752658"><ele>549.0</ele><time>2026-05-02T06:08:32.582Z</time></trkpt><trkpt lat="43.1993858" lon="12.1751762"><ele>551.0</ele><time>2026-05-02T06:08:33.584Z</time></trkpt><trkpt lat="43.1994479" lon="12.1750938"><ele>553.0</ele><time>2026-05-02T06:08:34.585Z</time></trkpt><trkpt lat="43.1995159" lon="12.1750186"><ele>553.0</ele><time>2026-05-02T06:08:35.585Z</time></trkpt><trkpt lat="43.1995869" lon="12.1749467"><ele>553.0</ele><time>2026-05-02T06:08:36.576Z</time></trkpt><trkpt lat="43.1996526" lon="12.1748845"><ele>553.0</ele><time>2026-05-02T06:08:37.581Z</time></trkpt><trkpt lat="43.1997053" lon="12.1748323"><ele>553.0</ele><time>2026-05-02T06:08:38.575Z</time></trkpt><trkpt lat="43.1997668" lon="12.1747305"><ele>553.0</ele><time>2026-05-02T06:08:40.584Z</time></trkpt><trkpt lat="43.1998533" lon="12.1746355"><ele>553.0</ele><time>2026-05-02T06:09:50.583Z</time></trkpt><trkpt lat="43.1999127" lon="12.1745713"><ele>555.8</ele><time>2026-05-02T06:09:51.582Z</time></trkpt><trkpt lat="43.1999827" lon="12.1744999"><ele>558.5999999999999</ele><time>2026-05-02T06:09:52.581Z</time></trkpt><trkpt lat="43.2000564" lon="12.1744226"><ele>561.4000000000001</ele><time>2026-05-02T06:09:53.577Z</time></trkpt><trkpt lat="43.2001349" lon="12.1743311"><ele>564.2</ele><time>2026-05-02T06:09:54.576Z</time></trkpt><trkpt lat="43.2002224" lon="12.1742242"><ele>567.0</ele><time>2026-05-02T06:09:55.58Z</time></trkpt><trkpt lat="43.200303" lon="12.174105"><ele>570.0</ele><time>2026-05-02T06:09:56.588Z</time></trkpt><trkpt lat="43.200373" lon="12.1739664"><ele>573.0</ele><time>2026-05-02T06:09:57.577Z</time></trkpt><trkpt lat="43.2004331" lon="12.1738219"><ele>576.0</ele><time>2026-05-02T06:09:58.58Z</time></trkpt><trkpt lat="43.2004922" lon="12.1736981"><ele>579.0</ele><time>2026-05-02T06:09:59.576Z</time></trkpt><trkpt lat="43.2005599" lon="12.1735961"><ele>579.0</ele><time>2026-05-02T06:10:00.58Z</time></trkpt><trkpt lat="43.2006636" lon="12.1735142"><ele>579.0</ele><time>2026-05-02T06:10:01.583Z</time></trkpt><trkpt lat="43.2007848" lon="12.1734403"><ele>579.0</ele><time>2026-05-02T06:10:02.578Z</time></trkpt><trkpt lat="43.200917" lon="12.1733684"><ele>579.0</ele><time>2026-05-02T06:10:03.591Z</time></trkpt><trkpt lat="43.2010567" lon="12.173305"><ele>578.3333333333334</ele><time>2026-05-02T06:10:04.574Z</time></trkpt><trkpt lat="43.2012063" lon="12.1732437"><ele>577.6666666666667</ele><time>2026-05-02T06:10:05.577Z</time></trkpt><trkpt lat="43.201355" lon="12.173177"><ele>577.0</ele><time>2026-05-02T06:10:06.585Z</time></trkpt><trkpt lat="43.2014977" lon="12.1731067"><ele>578.6666666666667</ele><time>2026-05-02T06:10:07.585Z</time></trkpt><trkpt lat="43.2016363" lon="12.1730376"><ele>580.3333333333334</ele><time>2026-05-02T06:10:08.582Z</time></trkpt><trkpt lat="43.2017855" lon="12.1729794"><ele>582.0</ele><time>2026-05-02T06:10:09.579Z</time></trkpt><trkpt lat="43.2019303" lon="12.1729302"><ele>582.0</ele><time>2026-05-02T06:10:10.575Z</time></trkpt><trkpt lat="43.2020636" lon="12.1728924"><ele>582.0</ele><time>2026-05-02T06:10:11.576Z</time></trkpt><trkpt lat="43.2021819" lon="12.1728492"><ele>582.0</ele><time>2026-05-02T06:10:12.577Z</time></trkpt><trkpt lat="43.2022981" lon="12.1728105"><ele>582.0</ele><time>2026-05-02T06:10:13.575Z</time></trkpt><trkpt lat="43.2024052" lon="12.1727724"><ele>580.4</ele><time>2026-05-02T06:10:14.581Z</time></trkpt><trkpt lat="43.2025106" lon="12.1727309"><ele>578.8000000000001</ele><time>2026-05-02T06:10:15.595Z</time></trkpt><trkpt lat="43.2026055" lon="12.1726846"><ele>577.2</ele><time>2026-05-02T06:10:16.584Z</time></trkpt><trkpt lat="43.2026833" lon="12.1726353"><ele>575.6</ele><time>2026-05-02T06:10:17.579Z</time></trkpt><trkpt lat="43.2027349" lon="12.1725731"><ele>574.0</ele><time>2026-05-02T06:10:18.577Z</time></trkpt><trkpt lat="43.2027771" lon="12.1724277"><ele>573.0</ele><time>2026-05-02T06:10:20.586Z</time></trkpt><trkpt lat="43.2027572" lon="12.1723419"><ele>572.0</ele><time>2026-05-02T06:10:21.58Z</time></trkpt><trkpt lat="43.2027199" lon="12.1722462"><ele>571.0</ele><time>2026-05-02T06:10:22.591Z</time></trkpt><trkpt lat="43.2026792" lon="12.1721338"><ele>570.0</ele><time>2026-05-02T06:10:23.578Z</time></trkpt><trkpt lat="43.2026452" lon="12.1720181"><ele>569.0</ele><time>2026-05-02T06:10:24.585Z</time></trkpt><trkpt lat="43.2026061" lon="12.1719052"><ele>568.0</ele><time>2026-05-02T06:10:25.593Z</time></trkpt><trkpt lat="43.2025469" lon="12.1717958"><ele>568.0</ele><time>2026-05-02T06:10:26.585Z</time></trkpt><trkpt lat="43.2024629" lon="12.1716886"><ele>568.0</ele><time>2026-05-02T06:10:27.58Z</time></trkpt><trkpt lat="43.2023661" lon="12.1715795"><ele>568.0</ele><time>2026-05-02T06:10:28.58Z</time></trkpt><trkpt lat="43.2022486" lon="12.1714624"><ele>568.0</ele><time>2026-05-02T06:10:29.594Z</time></trkpt><trkpt lat="43.2021227" lon="12.1713433"><ele>567.0</ele><time>2026-05-02T06:10:30.574Z</time></trkpt><trkpt lat="43.2019913" lon="12.1712143"><ele>566.0</ele><time>2026-05-02T06:10:31.575Z</time></trkpt><trkpt lat="43.2018633" lon="12.1710833"><ele>565.0</ele><time>2026-05-02T06:10:32.572Z</time></trkpt><trkpt lat="43.2017375" lon="12.1709574"><ele>565.0</ele><time>2026-05-02T06:10:33.581Z</time></trkpt><trkpt lat="43.2016172" lon="12.170838"><ele>565.0</ele><time>2026-05-02T06:10:34.574Z</time></trkpt><trkpt lat="43.2014957" lon="12.1707125"><ele>565.0</ele><time>2026-05-02T06:10:35.58Z</time></trkpt><trkpt lat="43.2013719" lon="12.1705813"><ele>567.0</ele><time>2026-05-02T06:10:36.577Z</time></trkpt><trkpt lat="43.2012582" lon="12.1704583"><ele>569.0</ele><time>2026-05-02T06:10:37.582Z</time></trkpt><trkpt lat="43.2011677" lon="12.1703494"><ele>571.0</ele><time>2026-05-02T06:10:38.581Z</time></trkpt><trkpt lat="43.2011017" lon="12.1702465"><ele>573.0</ele><time>2026-05-02T06:10:39.577Z</time></trkpt><trkpt lat="43.2010671" lon="12.170133"><ele>573.0</ele><time>2026-05-02T06:10:40.582Z</time></trkpt><trkpt lat="43.2010562" lon="12.1700062"><ele>573.0</ele><time>2026-05-02T06:10:41.573Z</time></trkpt><trkpt lat="43.2010655" lon="12.169859"><ele>573.0</ele><time>2026-05-02T06:10:42.582Z</time></trkpt><trkpt lat="43.2010916" lon="12.1697008"><ele>573.0</ele><time>2026-05-02T06:10:43.586Z</time></trkpt><trkpt lat="43.2011126" lon="12.1695491"><ele>573.0</ele><time>2026-05-02T06:10:44.575Z</time></trkpt><trkpt lat="43.2011176" lon="12.1693996"><ele>572.0</ele><time>2026-05-02T06:10:45.579Z</time></trkpt><trkpt lat="43.2011026" lon="12.1692549"><ele>571.0</ele><time>2026-05-02T06:10:46.578Z</time></trkpt><trkpt lat="43.2010721" lon="12.1691078"><ele>570.0</ele><time>2026-05-02T06:10:47.583Z</time></trkpt><trkpt lat="43.2010241" lon="12.1689585"><ele>569.0</ele><time>2026-05-02T06:10:48.584Z</time></trkpt><trkpt lat="43.200964" lon="12.1687977"><ele>567.6666666666666</ele><time>2026-05-02T06:10:49.581Z</time></trkpt><trkpt lat="43.2008972" lon="12.1686185"><ele>566.3333333333334</ele><time>2026-05-02T06:10:50.575Z</time></trkpt><trkpt lat="43.2008201" lon="12.1684266"><ele>565.0</ele><time>2026-05-02T06:10:51.587Z</time></trkpt><trkpt lat="43.2007233" lon="12.16821"><ele>567.3333333333334</ele><time>2026-05-02T06:10:52.574Z</time></trkpt><trkpt lat="43.2006321" lon="12.1680073"><ele>569.6666666666666</ele><time>2026-05-02T06:10:53.58Z</time></trkpt><trkpt lat="43.2005494" lon="12.1677868"><ele>572.0</ele><time>2026-05-02T06:10:54.582Z</time></trkpt><trkpt lat="43.2004774" lon="12.1675332"><ele>570.3333333333333</ele><time>2026-05-02T06:10:55.576Z</time></trkpt><trkpt lat="43.2004141" lon="12.1672633"><ele>568.6666666666666</ele><time>2026-05-02T06:10:56.58Z</time></trkpt><trkpt lat="43.2003609" lon="12.1670203"><ele>567.0</ele><time>2026-05-02T06:10:57.572Z</time></trkpt><trkpt lat="43.2003208" lon="12.1668103"><ele>567.0</ele><time>2026-05-02T06:10:58.574Z</time></trkpt><trkpt lat="43.2002912" lon="12.1666335"><ele>567.0</ele><time>2026-05-02T06:10:59.573Z</time></trkpt><trkpt lat="43.200268" lon="12.1664852"><ele>567.0</ele><time>2026-05-02T06:11:00.573Z</time></trkpt><trkpt lat="43.200249" lon="12.1663572"><ele>567.0</ele><time>2026-05-02T06:11:01.575Z</time></trkpt><trkpt lat="43.200244" lon="12.1662363"><ele>567.0</ele><time>2026-05-02T06:11:02.577Z</time></trkpt><trkpt lat="43.2002536" lon="12.166114"><ele>565.6</ele><time>2026-05-02T06:11:03.572Z</time></trkpt><trkpt lat="43.200273" lon="12.1659933"><ele>564.2</ele><time>2026-05-02T06:11:04.576Z</time></trkpt><trkpt lat="43.2003023" lon="12.1658766"><ele>562.8</ele><time>2026-05-02T06:11:05.578Z</time></trkpt><trkpt lat="43.2003407" lon="12.1657545"><ele>561.4</ele><time>2026-05-02T06:11:06.576Z</time></trkpt><trkpt lat="43.2003836" lon="12.1656307"><ele>560.0</ele><time>2026-05-02T06:11:07.578Z</time></trkpt><trkpt lat="43.2004224" lon="12.1655201"><ele>558.6</ele><time>2026-05-02T06:11:08.575Z</time></trkpt><trkpt lat="43.2004552" lon="12.1654079"><ele>557.2</ele><time>2026-05-02T06:11:09.582Z</time></trkpt><trkpt lat="43.2004789" lon="12.1652861"><ele>555.8</ele><time>2026-05-02T06:11:10.574Z</time></trkpt><trkpt lat="43.2004939" lon="12.165152"><ele>554.4</ele><time>2026-05-02T06:11:11.575Z</time></trkpt><trkpt lat="43.200491" lon="12.165012"><ele>553.0</ele><time>2026-05-02T06:11:12.571Z</time></trkpt><trkpt lat="43.2004748" lon="12.1648658"><ele>551.5</ele><time>2026-05-02T06:11:13.582Z</time></trkpt><trkpt lat="43.2004463" lon="12.1647161"><ele>550.0</ele><time>2026-05-02T06:11:14.585Z</time></trkpt><trkpt lat="43.2004087" lon="12.1645563"><ele>548.5</ele><time>2026-05-02T06:11:15.578Z</time></trkpt><trkpt lat="43.2003649" lon="12.1643882"><ele>547.0</ele><time>2026-05-02T06:11:16.576Z</time></trkpt><trkpt lat="43.2003217" lon="12.1642129"><ele>546.5</ele><time>2026-05-02T06:11:17.576Z</time></trkpt><trkpt lat="43.2002909" lon="12.1640172"><ele>546.0</ele><time>2026-05-02T06:11:18.582Z</time></trkpt><trkpt lat="43.2002667" lon="12.1638145"><ele>545.5</ele><time>2026-05-02T06:11:19.576Z</time></trkpt><trkpt lat="43.20025" lon="12.1636191"><ele>545.0</ele><time>2026-05-02T06:11:20.574Z</time></trkpt><trkpt lat="43.200246" lon="12.163446"><ele>545.0</ele><time>2026-05-02T06:11:21.574Z</time></trkpt><trkpt lat="43.2002542" lon="12.163292"><ele>545.0</ele><time>2026-05-02T06:11:22.586Z</time></trkpt><trkpt lat="43.200271" lon="12.1631594"><ele>545.0</ele><time>2026-05-02T06:11:23.579Z</time></trkpt><trkpt lat="43.200303" lon="12.1630412"><ele>545.0</ele><time>2026-05-02T06:11:24.575Z</time></trkpt><trkpt lat="43.2003547" lon="12.1629345"><ele>545.0</ele><time>2026-05-02T06:11:25.577Z</time></trkpt><trkpt lat="43.2004285" lon="12.1628239"><ele>546.75</ele><time>2026-05-02T06:11:26.58Z</time></trkpt><trkpt lat="43.2005189" lon="12.1627066"><ele>548.5</ele><time>2026-05-02T06:11:27.574Z</time></trkpt><trkpt lat="43.200621" lon="12.16258"><ele>550.25</ele><time>2026-05-02T06:11:28.586Z</time></trkpt><trkpt lat="43.2007322" lon="12.1624451"><ele>552.0</ele><time>2026-05-02T06:11:29.606Z</time></trkpt><trkpt lat="43.2008461" lon="12.1623026"><ele>545.3333333333334</ele><time>2026-05-02T06:11:30.592Z</time></trkpt><trkpt lat="43.2009652" lon="12.1621535"><ele>538.6666666666667</ele><time>2026-05-02T06:11:31.577Z</time></trkpt><trkpt lat="43.2010781" lon="12.1620066"><ele>532.0</ele><time>2026-05-02T06:11:32.581Z</time></trkpt><trkpt lat="43.2011748" lon="12.1618738"><ele>532.0</ele><time>2026-05-02T06:11:33.578Z</time></trkpt><trkpt lat="43.2012673" lon="12.1617478"><ele>532.0</ele><time>2026-05-02T06:11:34.581Z</time></trkpt><trkpt lat="43.2013687" lon="12.1616201"><ele>532.0</ele><time>2026-05-02T06:11:35.577Z</time></trkpt><trkpt lat="43.2014881" lon="12.1614885"><ele>532.0</ele><time>2026-05-02T06:11:36.594Z</time></trkpt><trkpt lat="43.2016183" lon="12.1613623"><ele>531.75</ele><time>2026-05-02T06:11:37.59Z</time></trkpt><trkpt lat="43.2017463" lon="12.1612433"><ele>531.5</ele><time>2026-05-02T06:11:38.574Z</time></trkpt><trkpt lat="43.2018643" lon="12.1611297"><ele>531.25</ele><time>2026-05-02T06:11:39.574Z</time></trkpt><trkpt lat="43.2019811" lon="12.1610104"><ele>531.0</ele><time>2026-05-02T06:11:40.584Z</time></trkpt><trkpt lat="43.2020953" lon="12.1608857"><ele>531.0</ele><time>2026-05-02T06:11:41.592Z</time></trkpt><trkpt lat="43.2022045" lon="12.1607529"><ele>531.0</ele><time>2026-05-02T06:11:42.576Z</time></trkpt><trkpt lat="43.2023094" lon="12.1606021"><ele>531.0</ele><time>2026-05-02T06:11:43.577Z</time></trkpt><trkpt lat="43.2024082" lon="12.1604367"><ele>530.0</ele><time>2026-05-02T06:11:44.584Z</time></trkpt><trkpt lat="43.2025003" lon="12.1602643"><ele>529.0</ele><time>2026-05-02T06:11:45.577Z</time></trkpt><trkpt lat="43.2025828" lon="12.1600854"><ele>528.0</ele><time>2026-05-02T06:11:46.592Z</time></trkpt><trkpt lat="43.2026506" lon="12.1599059"><ele>528.25</ele><time>2026-05-02T06:11:47.577Z</time></trkpt><trkpt lat="43.2027049" lon="12.1597257"><ele>528.5</ele><time>2026-05-02T06:11:48.581Z</time></trkpt><trkpt lat="43.2027497" lon="12.1595475"><ele>528.75</ele><time>2026-05-02T06:11:49.575Z</time></trkpt><trkpt lat="43.2027889" lon="12.1593667"><ele>529.0</ele><time>2026-05-02T06:11:50.58Z</time></trkpt><trkpt lat="43.2028174" lon="12.1591907"><ele>530.75</ele><time>2026-05-02T06:11:51.576Z</time></trkpt><trkpt lat="43.2028321" lon="12.1590113"><ele>532.5</ele><time>2026-05-02T06:11:52.584Z</time></trkpt><trkpt lat="43.2028281" lon="12.1588412"><ele>534.25</ele><time>2026-05-02T06:11:53.581Z</time></trkpt><trkpt lat="43.2028008" lon="12.1586868"><ele>536.0</ele><time>2026-05-02T06:11:54.581Z</time></trkpt><trkpt lat="43.2027546" lon="12.1585381"><ele>536.0</ele><time>2026-05-02T06:11:55.592Z</time></trkpt><trkpt lat="43.2026923" lon="12.1583966"><ele>536.0</ele><time>2026-05-02T06:11:56.59Z</time></trkpt><trkpt lat="43.202621" lon="12.1582473"><ele>536.0</ele><time>2026-05-02T06:11:57.585Z</time></trkpt><trkpt lat="43.2025514" lon="12.1580801"><ele>536.0</ele><time>2026-05-02T06:11:58.576Z</time></trkpt><trkpt lat="43.2024842" lon="12.1578989"><ele>537.25</ele><time>2026-05-02T06:11:59.583Z</time></trkpt><trkpt lat="43.2024165" lon="12.1577088"><ele>538.5</ele><time>2026-05-02T06:12:00.579Z</time></trkpt><trkpt lat="43.2023539" lon="12.1575226"><ele>539.75</ele><time>2026-05-02T06:12:01.58Z</time></trkpt><trkpt lat="43.2023026" lon="12.1573639"><ele>541.0</ele><time>2026-05-02T06:12:02.581Z</time></trkpt><trkpt lat="43.2022682" lon="12.1572404"><ele>542.6666666666667</ele><time>2026-05-02T06:12:03.583Z</time></trkpt><trkpt lat="43.2022629" lon="12.1571515"><ele>544.3333333333334</ele><time>2026-05-02T06:12:04.588Z</time></trkpt><trkpt lat="43.2023225" lon="12.1570324"><ele>546.0</ele><time>2026-05-02T06:12:06.578Z</time></trkpt><trkpt lat="43.2023814" lon="12.1569718"><ele>547.6666666666666</ele><time>2026-05-02T06:12:07.583Z</time></trkpt><trkpt lat="43.2024542" lon="12.1569189"><ele>549.3333333333333</ele><time>2026-05-02T06:12:08.593Z</time></trkpt><trkpt lat="43.2025298" lon="12.1568683"><ele>551.0</ele><time>2026-05-02T06:12:09.588Z</time></trkpt><trkpt lat="43.2026029" lon="12.1568011"><ele>551.0</ele><time>2026-05-02T06:12:10.584Z</time></trkpt><trkpt lat="43.2026617" lon="12.1567137"><ele>551.0</ele><time>2026-05-02T06:12:11.576Z</time></trkpt><trkpt lat="43.2026938" lon="12.1566261"><ele>551.0</ele><time>2026-05-02T06:12:12.587Z</time></trkpt><trkpt lat="43.2026755" lon="12.1565088"><ele>551.0</ele><time>2026-05-02T06:12:14.578Z</time></trkpt><trkpt lat="43.2025769" lon="12.1564055"><ele>551.0</ele><time>2026-05-02T06:12:16.592Z</time></trkpt><trkpt lat="43.2025027" lon="12.156356"><ele>552.4</ele><time>2026-05-02T06:12:17.596Z</time></trkpt><trkpt lat="43.2024207" lon="12.1563025"><ele>553.8</ele><time>2026-05-02T06:12:18.583Z</time></trkpt><trkpt lat="43.2023267" lon="12.1562405"><ele>555.1999999999999</ele><time>2026-05-02T06:12:19.587Z</time></trkpt><trkpt lat="43.2022288" lon="12.1561685"><ele>556.6</ele><time>2026-05-02T06:12:20.584Z</time></trkpt><trkpt lat="43.2021302" lon="12.156092"><ele>558.0</ele><time>2026-05-02T06:12:21.581Z</time></trkpt><trkpt lat="43.2020302" lon="12.1560092"><ele>559.0</ele><time>2026-05-02T06:12:22.575Z</time></trkpt><trkpt lat="43.2019425" lon="12.1559203"><ele>560.0</ele><time>2026-05-02T06:12:23.576Z</time></trkpt><trkpt lat="43.2018782" lon="12.1558106"><ele>561.0</ele><time>2026-05-02T06:12:24.576Z</time></trkpt><trkpt lat="43.2018225" lon="12.1556791"><ele>562.0</ele><time>2026-05-02T06:12:25.577Z</time></trkpt><trkpt lat="43.2017648" lon="12.1555276"><ele>563.0</ele><time>2026-05-02T06:12:26.577Z</time></trkpt><trkpt lat="43.2017039" lon="12.1553688"><ele>563.0</ele><time>2026-05-02T06:12:27.585Z</time></trkpt><trkpt lat="43.2016447" lon="12.1552348"><ele>563.0</ele><time>2026-05-02T06:12:28.574Z</time></trkpt><trkpt lat="43.2015845" lon="12.1551235"><ele>563.0</ele><time>2026-05-02T06:12:29.573Z</time></trkpt><trkpt lat="43.2015153" lon="12.1550197"><ele>563.0</ele><time>2026-05-02T06:12:30.577Z</time></trkpt><trkpt lat="43.201432" lon="12.1549227"><ele>563.0</ele><time>2026-05-02T06:12:31.579Z</time></trkpt><trkpt lat="43.2013386" lon="12.1548264"><ele>563.8</ele><time>2026-05-02T06:12:32.579Z</time></trkpt><trkpt lat="43.201242" lon="12.1547374"><ele>564.5999999999999</ele><time>2026-05-02T06:12:33.582Z</time></trkpt><trkpt lat="43.2011665" lon="12.154649"><ele>565.4000000000001</ele><time>2026-05-02T06:12:34.58Z</time></trkpt><trkpt lat="43.201121" lon="12.1545577"><ele>566.2</ele><time>2026-05-02T06:12:35.582Z</time></trkpt><trkpt lat="43.2010957" lon="12.1544422"><ele>567.0</ele><time>2026-05-02T06:12:36.583Z</time></trkpt><trkpt lat="43.20108" lon="12.1542978"><ele>567.0</ele><time>2026-05-02T06:12:37.587Z</time></trkpt><trkpt lat="43.2010709" lon="12.1541301"><ele>567.0</ele><time>2026-05-02T06:12:38.582Z</time></trkpt><trkpt lat="43.2010638" lon="12.1539486"><ele>567.0</ele><time>2026-05-02T06:12:39.584Z</time></trkpt><trkpt lat="43.2010595" lon="12.1537706"><ele>567.0</ele><time>2026-05-02T06:12:40.582Z</time></trkpt><trkpt lat="43.2010579" lon="12.1536112"><ele>567.0</ele><time>2026-05-02T06:12:41.581Z</time></trkpt><trkpt lat="43.2010499" lon="12.1534717"><ele>567.0</ele><time>2026-05-02T06:12:42.575Z</time></trkpt><trkpt lat="43.2010316" lon="12.1533294"><ele>567.0</ele><time>2026-05-02T06:12:43.579Z</time></trkpt><trkpt lat="43.2010013" lon="12.1531769"><ele>567.0</ele><time>2026-05-02T06:12:44.578Z</time></trkpt><trkpt lat="43.2009606" lon="12.1530144"><ele>567.0</ele><time>2026-05-02T06:12:45.574Z</time></trkpt><trkpt lat="43.2009122" lon="12.1528472"><ele>565.8000000000001</ele><time>2026-05-02T06:12:46.577Z</time></trkpt><trkpt lat="43.2008674" lon="12.1526922"><ele>564.6</ele><time>2026-05-02T06:12:47.585Z</time></trkpt><trkpt lat="43.2008364" lon="12.152553"><ele>563.4000000000001</ele><time>2026-05-02T06:12:48.578Z</time></trkpt><trkpt lat="43.2008281" lon="12.1524255"><ele>562.2</ele><time>2026-05-02T06:12:49.578Z</time></trkpt><trkpt lat="43.2008416" lon="12.1523044"><ele>561.0</ele><time>2026-05-02T06:12:50.581Z</time></trkpt><trkpt lat="43.2008741" lon="12.1521769"><ele>557.75</ele><time>2026-05-02T06:12:51.587Z</time></trkpt><trkpt lat="43.2009254" lon="12.1520385"><ele>554.5</ele><time>2026-05-02T06:12:52.581Z</time></trkpt><trkpt lat="43.2009908" lon="12.1518962"><ele>551.25</ele><time>2026-05-02T06:12:53.578Z</time></trkpt><trkpt lat="43.2010625" lon="12.1517482"><ele>548.0</ele><time>2026-05-02T06:12:54.577Z</time></trkpt><trkpt lat="43.201137" lon="12.1515931"><ele>544.25</ele><time>2026-05-02T06:12:55.572Z</time></trkpt><trkpt lat="43.2012134" lon="12.1514265"><ele>540.5</ele><time>2026-05-02T06:12:56.575Z</time></trkpt><trkpt lat="43.2012848" lon="12.1512544"><ele>536.75</ele><time>2026-05-02T06:12:57.588Z</time></trkpt><trkpt lat="43.2013476" lon="12.1510824"><ele>533.0</ele><time>2026-05-02T06:12:58.576Z</time></trkpt><trkpt lat="43.2014023" lon="12.1509008"><ele>533.0</ele><time>2026-05-02T06:12:59.573Z</time></trkpt><trkpt lat="43.2014489" lon="12.1507102"><ele>533.0</ele><time>2026-05-02T06:13:00.574Z</time></trkpt><trkpt lat="43.2014895" lon="12.1505122"><ele>533.0</ele><time>2026-05-02T06:13:01.575Z</time></trkpt><trkpt lat="43.2015197" lon="12.1503106"><ele>533.0</ele><time>2026-05-02T06:13:02.58Z</time></trkpt><trkpt lat="43.2015426" lon="12.1501026"><ele>535.25</ele><time>2026-05-02T06:13:03.59Z</time></trkpt><trkpt lat="43.2015613" lon="12.1499167"><ele>537.5</ele><time>2026-05-02T06:13:04.573Z</time></trkpt><trkpt lat="43.2015846" lon="12.1497386"><ele>539.75</ele><time>2026-05-02T06:13:05.577Z</time></trkpt><trkpt lat="43.2016176" lon="12.1495679"><ele>542.0</ele><time>2026-05-02T06:13:06.579Z</time></trkpt><trkpt lat="43.2016586" lon="12.1494057"><ele>542.0</ele><time>2026-05-02T06:13:07.581Z</time></trkpt><trkpt lat="43.2017094" lon="12.1492506"><ele>542.0</ele><time>2026-05-02T06:13:08.578Z</time></trkpt><trkpt lat="43.2017774" lon="12.1491032"><ele>542.0</ele><time>2026-05-02T06:13:09.58Z</time></trkpt><trkpt lat="43.2018699" lon="12.1489552"><ele>542.0</ele><time>2026-05-02T06:13:10.596Z</time></trkpt><trkpt lat="43.2019789" lon="12.1488057"><ele>539.75</ele><time>2026-05-02T06:13:11.587Z</time></trkpt><trkpt lat="43.2020855" lon="12.1486568"><ele>537.5</ele><time>2026-05-02T06:13:12.582Z</time></trkpt><trkpt lat="43.2021792" lon="12.1485181"><ele>535.25</ele><time>2026-05-02T06:13:13.576Z</time></trkpt><trkpt lat="43.202264" lon="12.1483876"><ele>533.0</ele><time>2026-05-02T06:13:14.575Z</time></trkpt><trkpt lat="43.2023453" lon="12.1482646"><ele>531.8</ele><time>2026-05-02T06:13:15.575Z</time></trkpt><trkpt lat="43.2024131" lon="12.1481575"><ele>530.5999999999999</ele><time>2026-05-02T06:13:16.573Z</time></trkpt><trkpt lat="43.2024662" lon="12.1480699"><ele>529.4000000000001</ele><time>2026-05-02T06:13:17.584Z</time></trkpt><trkpt lat="43.2025264" lon="12.147962"><ele>528.2</ele><time>2026-05-02T06:13:19.582Z</time></trkpt><trkpt lat="43.2026058" lon="12.1478328"><ele>527.0</ele><time>2026-05-02T06:14:11.59Z</time></trkpt><trkpt lat="43.202664" lon="12.147744"><ele>527.0</ele><time>2026-05-02T06:14:12.582Z</time></trkpt><trkpt lat="43.2027345" lon="12.1476332"><ele>527.0</ele><time>2026-05-02T06:14:13.579Z</time></trkpt><trkpt lat="43.2028152" lon="12.1475147"><ele>527.0</ele><time>2026-05-02T06:14:14.575Z</time></trkpt><trkpt lat="43.2029022" lon="12.1474007"><ele>527.0</ele><time>2026-05-02T06:14:15.579Z</time></trkpt><trkpt lat="43.2029979" lon="12.1473044"><ele>526.6</ele><time>2026-05-02T06:14:16.584Z</time></trkpt><trkpt lat="43.2031044" lon="12.1472315"><ele>526.2</ele><time>2026-05-02T06:14:17.58Z</time></trkpt><trkpt lat="43.2032231" lon="12.1471722"><ele>525.8</ele><time>2026-05-02T06:14:18.578Z</time></trkpt><trkpt lat="43.2033244" lon="12.1471249"><ele>525.4</ele><time>2026-05-02T06:14:19.576Z</time></trkpt><trkpt lat="43.2034107" lon="12.1470794"><ele>525.0</ele><time>2026-05-02T06:14:20.581Z</time></trkpt><trkpt lat="43.2034829" lon="12.1470252"><ele>525.0</ele><time>2026-05-02T06:14:21.584Z</time></trkpt><trkpt lat="43.2035462" lon="12.1469413"><ele>525.0</ele><time>2026-05-02T06:14:22.581Z</time></trkpt><trkpt lat="43.2036015" lon="12.146823"><ele>525.0</ele><time>2026-05-02T06:14:23.573Z</time></trkpt><trkpt lat="43.2036547" lon="12.1466739"><ele>525.0</ele><time>2026-05-02T06:14:24.578Z</time></trkpt><trkpt lat="43.2037051" lon="12.1465053"><ele>525.0</ele><time>2026-05-02T06:14:25.589Z</time></trkpt><trkpt lat="43.2037599" lon="12.1463337"><ele>524.75</ele><time>2026-05-02T06:14:26.591Z</time></trkpt><trkpt lat="43.2038232" lon="12.1461785"><ele>524.5</ele><time>2026-05-02T06:14:27.586Z</time></trkpt><trkpt lat="43.2038962" lon="12.146034"><ele>524.25</ele><time>2026-05-02T06:14:28.58Z</time></trkpt><trkpt lat="43.203974" lon="12.1458997"><ele>524.0</ele><time>2026-05-02T06:14:29.576Z</time></trkpt><trkpt lat="43.2040493" lon="12.1457852"><ele>520.6</ele><time>2026-05-02T06:14:30.586Z</time></trkpt><trkpt lat="43.2041249" lon="12.1456951"><ele>517.2</ele><time>2026-05-02T06:14:31.582Z</time></trkpt><trkpt lat="43.2042019" lon="12.1456357"><ele>513.8000000000001</ele><time>2026-05-02T06:14:32.578Z</time></trkpt><trkpt lat="43.2042764" lon="12.1456057"><ele>510.40000000000003</ele><time>2026-05-02T06:14:33.578Z</time></trkpt><trkpt lat="43.2043627" lon="12.1456018"><ele>507.0</ele><time>2026-05-02T06:14:34.574Z</time></trkpt><trkpt lat="43.2044686" lon="12.1456198"><ele>507.0</ele><time>2026-05-02T06:14:35.582Z</time></trkpt><trkpt lat="43.2045927" lon="12.1456381"><ele>507.0</ele><time>2026-05-02T06:14:36.586Z</time></trkpt><trkpt lat="43.2047316" lon="12.1456407"><ele>507.0</ele><time>2026-05-02T06:14:37.584Z</time></trkpt><trkpt lat="43.2048774" lon="12.1456301"><ele>507.0</ele><time>2026-05-02T06:14:38.578Z</time></trkpt><trkpt lat="43.2050324" lon="12.1456116"><ele>507.0</ele><time>2026-05-02T06:14:39.579Z</time></trkpt><trkpt lat="43.2051904" lon="12.1455972"><ele>507.0</ele><time>2026-05-02T06:14:40.582Z</time></trkpt><trkpt lat="43.2053524" lon="12.1455874"><ele>507.0</ele><time>2026-05-02T06:14:41.585Z</time></trkpt><trkpt lat="43.2055155" lon="12.1455883"><ele>509.0</ele><time>2026-05-02T06:14:42.577Z</time></trkpt><trkpt lat="43.205683" lon="12.1455981"><ele>511.0</ele><time>2026-05-02T06:14:43.579Z</time></trkpt><trkpt lat="43.2058532" lon="12.1456112"><ele>513.0</ele><time>2026-05-02T06:14:44.576Z</time></trkpt><trkpt lat="43.2060235" lon="12.1456282"><ele>513.0</ele><time>2026-05-02T06:14:45.593Z</time></trkpt><trkpt lat="43.2061831" lon="12.1456598"><ele>513.0</ele><time>2026-05-02T06:14:46.584Z</time></trkpt><trkpt lat="43.206333" lon="12.1457214"><ele>513.0</ele><time>2026-05-02T06:14:47.59Z</time></trkpt><trkpt lat="43.2064717" lon="12.1458112"><ele>519.6666666666666</ele><time>2026-05-02T06:14:48.577Z</time></trkpt><trkpt lat="43.2066004" lon="12.1459249"><ele>526.3333333333333</ele><time>2026-05-02T06:14:49.578Z</time></trkpt><trkpt lat="43.2067277" lon="12.1460418"><ele>533.0</ele><time>2026-05-02T06:14:50.582Z</time></trkpt><trkpt lat="43.2068627" lon="12.1461514"><ele>533.0</ele><time>2026-05-02T06:14:51.581Z</time></trkpt><trkpt lat="43.2070027" lon="12.1462478"><ele>533.0</ele><time>2026-05-02T06:14:52.585Z</time></trkpt><trkpt lat="43.2071452" lon="12.1463315"><ele>533.0</ele><time>2026-05-02T06:14:53.579Z</time></trkpt><trkpt lat="43.2072895" lon="12.1464148"><ele>537.0</ele><time>2026-05-02T06:14:54.584Z</time></trkpt><trkpt lat="43.2074417" lon="12.1464908"><ele>541.0</ele><time>2026-05-02T06:14:55.581Z</time></trkpt><trkpt lat="43.2075919" lon="12.1465678"><ele>545.0</ele><time>2026-05-02T06:14:56.584Z</time></trkpt><trkpt lat="43.2077363" lon="12.1466416"><ele>545.0</ele><time>2026-05-02T06:14:57.589Z</time></trkpt><trkpt lat="43.2078788" lon="12.1467118"><ele>545.0</ele><time>2026-05-02T06:14:58.581Z</time></trkpt><trkpt lat="43.2080197" lon="12.1467737"><ele>545.0</ele><time>2026-05-02T06:14:59.582Z</time></trkpt><trkpt lat="43.208156" lon="12.1468172"><ele>545.0</ele><time>2026-05-02T06:15:00.579Z</time></trkpt><trkpt lat="43.208285" lon="12.1468307"><ele>549.0</ele><time>2026-05-02T06:15:01.576Z</time></trkpt><trkpt lat="43.2084172" lon="12.1468132"><ele>553.0</ele><time>2026-05-02T06:15:02.578Z</time></trkpt><trkpt lat="43.2085522" lon="12.1467671"><ele>557.0</ele><time>2026-05-02T06:15:03.581Z</time></trkpt><trkpt lat="43.2086925" lon="12.1467138"><ele>561.0</ele><time>2026-05-02T06:15:04.579Z</time></trkpt><trkpt lat="43.2088356" lon="12.1466602"><ele>561.0</ele><time>2026-05-02T06:15:05.585Z</time></trkpt><trkpt lat="43.208982" lon="12.1466136"><ele>561.0</ele><time>2026-05-02T06:15:06.582Z</time></trkpt><trkpt lat="43.2091324" lon="12.1465673"><ele>561.0</ele><time>2026-05-02T06:15:07.581Z</time></trkpt><trkpt lat="43.209286" lon="12.1465267"><ele>564.6666666666666</ele><time>2026-05-02T06:15:08.58Z</time></trkpt><trkpt lat="43.2094422" lon="12.1464902"><ele>568.3333333333333</ele><time>2026-05-02T06:15:09.58Z</time></trkpt><trkpt lat="43.2095945" lon="12.146464"><ele>572.0</ele><time>2026-05-02T06:15:10.582Z</time></trkpt><trkpt lat="43.2097473" lon="12.1464478"><ele>574.0</ele><time>2026-05-02T06:15:11.581Z</time></trkpt><trkpt lat="43.2098998" lon="12.1464427"><ele>576.0</ele><time>2026-05-02T06:15:12.584Z</time></trkpt><trkpt lat="43.2100555" lon="12.1464485"><ele>578.0</ele><time>2026-05-02T06:15:13.576Z</time></trkpt><trkpt lat="43.2102125" lon="12.1464644"><ele>578.0</ele><time>2026-05-02T06:15:14.581Z</time></trkpt><trkpt lat="43.2103703" lon="12.1464836"><ele>578.0</ele><time>2026-05-02T06:15:15.58Z</time></trkpt><trkpt lat="43.2105271" lon="12.1465045"><ele>578.0</ele><time>2026-05-02T06:15:16.585Z</time></trkpt><trkpt lat="43.2106812" lon="12.1465212"><ele>579.3333333333333</ele><time>2026-05-02T06:15:17.579Z</time></trkpt><trkpt lat="43.2108368" lon="12.1465351"><ele>580.6666666666666</ele><time>2026-05-02T06:15:18.578Z</time></trkpt><trkpt lat="43.2109972" lon="12.1465369"><ele>582.0</ele><time>2026-05-02T06:15:19.582Z</time></trkpt><trkpt lat="43.2111586" lon="12.1465196"><ele>582.0</ele><time>2026-05-02T06:15:20.581Z</time></trkpt><trkpt lat="43.2113239" lon="12.1464966"><ele>582.0</ele><time>2026-05-02T06:15:21.586Z</time></trkpt><trkpt lat="43.2114845" lon="12.14647"><ele>582.0</ele><time>2026-05-02T06:15:22.583Z</time></trkpt><trkpt lat="43.211641" lon="12.1464518"><ele>583.5</ele><time>2026-05-02T06:15:23.584Z</time></trkpt><trkpt lat="43.2117917" lon="12.1464364"><ele>585.0</ele><time>2026-05-02T06:15:24.576Z</time></trkpt><trkpt lat="43.2119324" lon="12.1464152"><ele>586.5</ele><time>2026-05-02T06:15:25.58Z</time></trkpt><trkpt lat="43.2120465" lon="12.1463797"><ele>588.0</ele><time>2026-05-02T06:15:26.582Z</time></trkpt><trkpt lat="43.2121423" lon="12.146315"><ele>588.0</ele><time>2026-05-02T06:15:27.582Z</time></trkpt><trkpt lat="43.212229" lon="12.1462297"><ele>588.0</ele><time>2026-05-02T06:15:28.588Z</time></trkpt><trkpt lat="43.212309" lon="12.1461686"><ele>588.0</ele><time>2026-05-02T06:15:29.576Z</time></trkpt><trkpt lat="43.2123975" lon="12.1461452"><ele>588.0</ele><time>2026-05-02T06:15:30.586Z</time></trkpt><trkpt lat="43.2124973" lon="12.1461506"><ele>588.0</ele><time>2026-05-02T06:15:31.577Z</time></trkpt><trkpt lat="43.2126074" lon="12.1461514"><ele>590.0</ele><time>2026-05-02T06:15:32.582Z</time></trkpt><trkpt lat="43.212719" lon="12.1461358"><ele>592.0</ele><time>2026-05-02T06:15:33.59Z</time></trkpt><trkpt lat="43.2128329" lon="12.1460994"><ele>594.0</ele><time>2026-05-02T06:15:34.576Z</time></trkpt><trkpt lat="43.2129525" lon="12.1460561"><ele>596.0</ele><time>2026-05-02T06:15:35.582Z</time></trkpt><trkpt lat="43.2130755" lon="12.1460197"><ele>596.75</ele><time>2026-05-02T06:15:36.577Z</time></trkpt><trkpt lat="43.2132023" lon="12.1459869"><ele>597.5</ele><time>2026-05-02T06:15:37.584Z</time></trkpt><trkpt lat="43.2133338" lon="12.1459578"><ele>598.25</ele><time>2026-05-02T06:15:38.59Z</time></trkpt><trkpt lat="43.2134675" lon="12.1459266"><ele>599.0</ele><time>2026-05-02T06:15:39.573Z</time></trkpt><trkpt lat="43.2136032" lon="12.1458959"><ele>599.0</ele><time>2026-05-02T06:15:40.582Z</time></trkpt><trkpt lat="43.2137406" lon="12.145865"><ele>599.0</ele><time>2026-05-02T06:15:41.497Z</time></trkpt><trkpt lat="43.2138802" lon="12.1458325"><ele>599.0</ele><time>2026-05-02T06:15:42.501Z</time></trkpt><trkpt lat="43.2140146" lon="12.1458027"><ele>599.0</ele><time>2026-05-02T06:15:43.498Z</time></trkpt><trkpt lat="43.2141512" lon="12.1457717"><ele>599.25</ele><time>2026-05-02T06:15:44.492Z</time></trkpt><trkpt lat="43.2142801" lon="12.1457468"><ele>599.5</ele><time>2026-05-02T06:15:45.503Z</time></trkpt><trkpt lat="43.2143966" lon="12.1457182"><ele>599.75</ele><time>2026-05-02T06:15:46.498Z</time></trkpt><trkpt lat="43.214495" lon="12.1456794"><ele>600.0</ele><time>2026-05-02T06:15:47.492Z</time></trkpt><trkpt lat="43.214584" lon="12.1456173"><ele>600.6</ele><time>2026-05-02T06:15:48.492Z</time></trkpt><trkpt lat="43.214665" lon="12.1455388"><ele>601.2</ele><time>2026-05-02T06:15:49.491Z</time></trkpt><trkpt lat="43.2147409" lon="12.145441"><ele>601.8</ele><time>2026-05-02T06:15:50.494Z</time></trkpt><trkpt lat="43.2148099" lon="12.1453302"><ele>602.4</ele><time>2026-05-02T06:15:51.496Z</time></trkpt><trkpt lat="43.214868" lon="12.1452065"><ele>603.0</ele><time>2026-05-02T06:15:52.501Z</time></trkpt><trkpt lat="43.2149215" lon="12.145071"><ele>603.0</ele><time>2026-05-02T06:15:53.492Z</time></trkpt><trkpt lat="43.2149744" lon="12.1449307"><ele>603.0</ele><time>2026-05-02T06:15:54.492Z</time></trkpt><trkpt lat="43.2150285" lon="12.1447859"><ele>603.0</ele><time>2026-05-02T06:15:55.496Z</time></trkpt><trkpt lat="43.2150822" lon="12.144637"><ele>603.0</ele><time>2026-05-02T06:15:56.493Z</time></trkpt><trkpt lat="43.2151342" lon="12.1444858"><ele>602.5</ele><time>2026-05-02T06:15:57.496Z</time></trkpt><trkpt lat="43.2151868" lon="12.1443312"><ele>602.0</ele><time>2026-05-02T06:15:58.492Z</time></trkpt><trkpt lat="43.2152424" lon="12.1441753"><ele>601.5</ele><time>2026-05-02T06:15:59.497Z</time></trkpt><trkpt lat="43.2152999" lon="12.1440285"><ele>601.0</ele><time>2026-05-02T06:16:00.503Z</time></trkpt><trkpt lat="43.2153616" lon="12.1438843"><ele>600.75</ele><time>2026-05-02T06:16:01.494Z</time></trkpt><trkpt lat="43.2154265" lon="12.1437392"><ele>600.5</ele><time>2026-05-02T06:16:02.496Z</time></trkpt><trkpt lat="43.2155008" lon="12.1435906"><ele>600.25</ele><time>2026-05-02T06:16:03.496Z</time></trkpt><trkpt lat="43.2155754" lon="12.1434478"><ele>600.0</ele><time>2026-05-02T06:16:04.508Z</time></trkpt><trkpt lat="43.2156502" lon="12.1433093"><ele>601.75</ele><time>2026-05-02T06:16:05.501Z</time></trkpt><trkpt lat="43.2157228" lon="12.1431734"><ele>603.5</ele><time>2026-05-02T06:16:06.492Z</time></trkpt><trkpt lat="43.215798" lon="12.1430371"><ele>605.25</ele><time>2026-05-02T06:16:07.493Z</time></trkpt><trkpt lat="43.2158746" lon="12.1429029"><ele>607.0</ele><time>2026-05-02T06:16:08.499Z</time></trkpt><trkpt lat="43.2159415" lon="12.1427848"><ele>607.0</ele><time>2026-05-02T06:16:09.504Z</time></trkpt><trkpt lat="43.2159987" lon="12.1426882"><ele>607.0</ele><time>2026-05-02T06:16:10.509Z</time></trkpt><trkpt lat="43.2160462" lon="12.1426108"><ele>607.0</ele><time>2026-05-02T06:16:11.496Z</time></trkpt><trkpt lat="43.2160967" lon="12.1425387"><ele>607.0</ele><time>2026-05-02T06:16:12.494Z</time></trkpt><trkpt lat="43.2161477" lon="12.1424753"><ele>607.0</ele><time>2026-05-02T06:16:13.504Z</time></trkpt><trkpt lat="43.2162145" lon="12.1424074"><ele>607.0</ele><time>2026-05-02T06:16:14.493Z</time></trkpt><trkpt lat="43.2162919" lon="12.1423411"><ele>606.0</ele><time>2026-05-02T06:16:15.497Z</time></trkpt><trkpt lat="43.2163799" lon="12.1422851"><ele>605.0</ele><time>2026-05-02T06:16:16.496Z</time></trkpt><trkpt lat="43.2164755" lon="12.1422427"><ele>604.0</ele><time>2026-05-02T06:16:17.498Z</time></trkpt><trkpt lat="43.2165814" lon="12.1421979"><ele>603.0</ele><time>2026-05-02T06:16:18.503Z</time></trkpt><trkpt lat="43.2166933" lon="12.1421675"><ele>602.0</ele><time>2026-05-02T06:16:19.492Z</time></trkpt><trkpt lat="43.216808" lon="12.1421436"><ele>602.0</ele><time>2026-05-02T06:16:20.495Z</time></trkpt><trkpt lat="43.2169231" lon="12.1421321"><ele>602.0</ele><time>2026-05-02T06:16:21.507Z</time></trkpt><trkpt lat="43.2170368" lon="12.1421294"><ele>602.0</ele><time>2026-05-02T06:16:22.5Z</time></trkpt><trkpt lat="43.2171481" lon="12.142123"><ele>602.0</ele><time>2026-05-02T06:16:23.494Z</time></trkpt><trkpt lat="43.2172586" lon="12.1421214"><ele>602.0</ele><time>2026-05-02T06:16:24.496Z</time></trkpt><trkpt lat="43.2173724" lon="12.1421304"><ele>602.0</ele><time>2026-05-02T06:16:25.491Z</time></trkpt><trkpt lat="43.2174899" lon="12.1421446"><ele>602.0</ele><time>2026-05-02T06:16:26.499Z</time></trkpt><trkpt lat="43.2176109" lon="12.142171"><ele>602.0</ele><time>2026-05-02T06:16:27.504Z</time></trkpt><trkpt lat="43.2177363" lon="12.1421967"><ele>602.0</ele><time>2026-05-02T06:16:28.495Z</time></trkpt><trkpt lat="43.2178683" lon="12.1422233"><ele>602.0</ele><time>2026-05-02T06:16:29.497Z</time></trkpt><trkpt lat="43.2180007" lon="12.1422472"><ele>602.0</ele><time>2026-05-02T06:16:30.493Z</time></trkpt><trkpt lat="43.218133" lon="12.1422681"><ele>602.0</ele><time>2026-05-02T06:16:31.493Z</time></trkpt><trkpt lat="43.2182628" lon="12.1422889"><ele>601.75</ele><time>2026-05-02T06:16:32.502Z</time></trkpt><trkpt lat="43.2183948" lon="12.1423046"><ele>601.5</ele><time>2026-05-02T06:16:33.507Z</time></trkpt><trkpt lat="43.2185221" lon="12.1423237"><ele>601.25</ele><time>2026-05-02T06:16:34.495Z</time></trkpt><trkpt lat="43.2186472" lon="12.1423516"><ele>601.0</ele><time>2026-05-02T06:16:35.494Z</time></trkpt><trkpt lat="43.2187745" lon="12.142373"><ele>604.0</ele><time>2026-05-02T06:16:36.501Z</time></trkpt><trkpt lat="43.2188955" lon="12.1423901"><ele>607.0</ele><time>2026-05-02T06:16:37.498Z</time></trkpt><trkpt lat="43.2190278" lon="12.1424149"><ele>610.0</ele><time>2026-05-02T06:16:38.502Z</time></trkpt><trkpt lat="43.2191608" lon="12.1424434"><ele>613.0</ele><time>2026-05-02T06:16:39.495Z</time></trkpt><trkpt lat="43.2192929" lon="12.1424776"><ele>613.0</ele><time>2026-05-02T06:16:40.493Z</time></trkpt><trkpt lat="43.2194279" lon="12.1425189"><ele>613.0</ele><time>2026-05-02T06:16:41.49Z</time></trkpt><trkpt lat="43.2195652" lon="12.1425705"><ele>613.0</ele><time>2026-05-02T06:16:42.497Z</time></trkpt><trkpt lat="43.2197023" lon="12.1426231"><ele>613.0</ele><time>2026-05-02T06:16:43.491Z</time></trkpt><trkpt lat="43.2198374" lon="12.1426722"><ele>612.6666666666667</ele><time>2026-05-02T06:16:44.498Z</time></trkpt><trkpt lat="43.2199514" lon="12.1427073"><ele>612.3333333333334</ele><time>2026-05-02T06:16:45.489Z</time></trkpt><trkpt lat="43.2200495" lon="12.1427319"><ele>612.0</ele><time>2026-05-02T06:16:46.497Z</time></trkpt><trkpt lat="43.2201341" lon="12.1427431"><ele>611.6666666666666</ele><time>2026-05-02T06:16:47.495Z</time></trkpt><trkpt lat="43.220209" lon="12.1427311"><ele>611.3333333333333</ele><time>2026-05-02T06:16:48.505Z</time></trkpt><trkpt lat="43.2202698" lon="12.1427012"><ele>611.0</ele><time>2026-05-02T06:16:49.517Z</time></trkpt><trkpt lat="43.2203184" lon="12.1425876"><ele>611.0</ele><time>2026-05-02T06:16:51.51Z</time></trkpt><trkpt lat="43.2202681" lon="12.1424296"><ele>611.0</ele><time>2026-05-02T06:16:53.492Z</time></trkpt><trkpt lat="43.2202118" lon="12.1423381"><ele>611.0</ele><time>2026-05-02T06:16:54.494Z</time></trkpt><trkpt lat="43.2201292" lon="12.1422331"><ele>611.0</ele><time>2026-05-02T06:16:55.49Z</time></trkpt><trkpt lat="43.2200472" lon="12.1421084"><ele>611.0</ele><time>2026-05-02T06:16:56.498Z</time></trkpt><trkpt lat="43.2199807" lon="12.1419863"><ele>611.0</ele><time>2026-05-02T06:16:57.49Z</time></trkpt><trkpt lat="43.2199238" lon="12.141857"><ele>611.0</ele><time>2026-05-02T06:16:58.498Z</time></trkpt><trkpt lat="43.2198731" lon="12.141709"><ele>611.0</ele><time>2026-05-02T06:16:59.493Z</time></trkpt><trkpt lat="43.2198287" lon="12.1415627"><ele>611.0</ele><time>2026-05-02T06:17:00.487Z</time></trkpt><trkpt lat="43.2197901" lon="12.1414256"><ele>607.6</ele><time>2026-05-02T06:17:01.491Z</time></trkpt><trkpt lat="43.2197602" lon="12.1412953"><ele>604.2</ele><time>2026-05-02T06:17:02.491Z</time></trkpt><trkpt lat="43.2197411" lon="12.1411732"><ele>600.8</ele><time>2026-05-02T06:17:03.496Z</time></trkpt><trkpt lat="43.2197337" lon="12.1410507"><ele>597.4</ele><time>2026-05-02T06:17:04.498Z</time></trkpt><trkpt lat="43.2197366" lon="12.1409134"><ele>594.0</ele><time>2026-05-02T06:17:05.49Z</time></trkpt><trkpt lat="43.21974" lon="12.1407678"><ele>592.0</ele><time>2026-05-02T06:17:06.506Z</time></trkpt><trkpt lat="43.2197333" lon="12.1406216"><ele>590.0</ele><time>2026-05-02T06:17:07.494Z</time></trkpt><trkpt lat="43.2197274" lon="12.1404884"><ele>588.0</ele><time>2026-05-02T06:17:08.496Z</time></trkpt><trkpt lat="43.2197289" lon="12.1403707"><ele>586.0</ele><time>2026-05-02T06:17:09.496Z</time></trkpt><trkpt lat="43.219743" lon="12.1402456"><ele>584.0</ele><time>2026-05-02T06:17:10.494Z</time></trkpt><trkpt lat="43.2197725" lon="12.1401161"><ele>584.0</ele><time>2026-05-02T06:17:11.496Z</time></trkpt><trkpt lat="43.2198137" lon="12.1399752"><ele>584.0</ele><time>2026-05-02T06:17:12.513Z</time></trkpt><trkpt lat="43.2198575" lon="12.1398452"><ele>584.0</ele><time>2026-05-02T06:17:13.494Z</time></trkpt><trkpt lat="43.2199102" lon="12.1397292"><ele>584.0</ele><time>2026-05-02T06:17:14.497Z</time></trkpt><trkpt lat="43.2199599" lon="12.1396295"><ele>584.0</ele><time>2026-05-02T06:17:15.486Z</time></trkpt><trkpt lat="43.2200035" lon="12.1395368"><ele>585.2</ele><time>2026-05-02T06:17:16.499Z</time></trkpt><trkpt lat="43.2201278" lon="12.1394523"><ele>586.4</ele><time>2026-05-02T06:17:18.49Z</time></trkpt><trkpt lat="43.2202199" lon="12.1394403"><ele>587.6</ele><time>2026-05-02T06:17:19.492Z</time></trkpt><trkpt lat="43.2203096" lon="12.1394347"><ele>588.8</ele><time>2026-05-02T06:17:20.493Z</time></trkpt><trkpt lat="43.2203814" lon="12.1394186"><ele>590.0</ele><time>2026-05-02T06:17:21.492Z</time></trkpt><trkpt lat="43.220462" lon="12.1393251"><ele>590.0</ele><time>2026-05-02T06:17:23.49Z</time></trkpt><trkpt lat="43.2204353" lon="12.1391651"><ele>590.0</ele><time>2026-05-02T06:17:25.497Z</time></trkpt><trkpt lat="43.2203733" lon="12.13907"><ele>590.0</ele><time>2026-05-02T06:17:26.495Z</time></trkpt><trkpt lat="43.2203339" lon="12.1389879"><ele>590.0</ele><time>2026-05-02T06:17:27.496Z</time></trkpt><trkpt lat="43.2202944" lon="12.1388845"><ele>590.0</ele><time>2026-05-02T06:17:28.494Z</time></trkpt><trkpt lat="43.2202489" lon="12.138753"><ele>587.8</ele><time>2026-05-02T06:17:29.492Z</time></trkpt><trkpt lat="43.2201952" lon="12.1386129"><ele>585.6</ele><time>2026-05-02T06:17:30.501Z</time></trkpt><trkpt lat="43.2201445" lon="12.1384867"><ele>583.4</ele><time>2026-05-02T06:17:31.489Z</time></trkpt><trkpt lat="43.2200964" lon="12.1383656"><ele>581.2</ele><time>2026-05-02T06:17:32.494Z</time></trkpt><trkpt lat="43.2200611" lon="12.138239"><ele>579.0</ele><time>2026-05-02T06:17:33.502Z</time></trkpt><trkpt lat="43.2200476" lon="12.138116"><ele>578.5</ele><time>2026-05-02T06:17:34.505Z</time></trkpt><trkpt lat="43.2200428" lon="12.1379963"><ele>578.0</ele><time>2026-05-02T06:17:35.489Z</time></trkpt><trkpt lat="43.2200605" lon="12.1378762"><ele>577.5</ele><time>2026-05-02T06:17:36.494Z</time></trkpt><trkpt lat="43.2200973" lon="12.137773"><ele>577.0</ele><time>2026-05-02T06:17:37.497Z</time></trkpt><trkpt lat="43.2201564" lon="12.1376791"><ele>576.5</ele><time>2026-05-02T06:17:38.504Z</time></trkpt><trkpt lat="43.2202314" lon="12.1375983"><ele>576.0</ele><time>2026-05-02T06:17:39.5Z</time></trkpt><trkpt lat="43.2203231" lon="12.1375181"><ele>576.0</ele><time>2026-05-02T06:17:40.494Z</time></trkpt><trkpt lat="43.2204038" lon="12.137435"><ele>576.0</ele><time>2026-05-02T06:17:41.493Z</time></trkpt><trkpt lat="43.2204631" lon="12.1373376"><ele>576.0</ele><time>2026-05-02T06:17:42.488Z</time></trkpt><trkpt lat="43.2205186" lon="12.1372309"><ele>576.0</ele><time>2026-05-02T06:17:43.491Z</time></trkpt><trkpt lat="43.2205749" lon="12.1371008"><ele>576.0</ele><time>2026-05-02T06:17:44.505Z</time></trkpt><trkpt lat="43.2206323" lon="12.1369636"><ele>575.75</ele><time>2026-05-02T06:17:45.508Z</time></trkpt><trkpt lat="43.2206995" lon="12.1367757"><ele>575.5</ele><time>2026-05-02T06:17:46.501Z</time></trkpt><trkpt lat="43.2207364" lon="12.1366155"><ele>575.25</ele><time>2026-05-02T06:17:47.491Z</time></trkpt><trkpt lat="43.2207722" lon="12.136477"><ele>575.0</ele><time>2026-05-02T06:17:48.502Z</time></trkpt><trkpt lat="43.2207858" lon="12.1363545"><ele>575.0</ele><time>2026-05-02T06:17:49.489Z</time></trkpt><trkpt lat="43.2207935" lon="12.1362486"><ele>575.0</ele><time>2026-05-02T06:17:50.488Z</time></trkpt><trkpt lat="43.2207997" lon="12.1361343"><ele>575.0</ele><time>2026-05-02T06:17:51.493Z</time></trkpt><trkpt lat="43.2207828" lon="12.1360509"><ele>575.0</ele><time>2026-05-02T06:17:52.494Z</time></trkpt><trkpt lat="43.2207463" lon="12.1359488"><ele>575.0</ele><time>2026-05-02T06:17:53.501Z</time></trkpt><trkpt lat="43.2206989" lon="12.1358471"><ele>575.0</ele><time>2026-05-02T06:17:54.493Z</time></trkpt><trkpt lat="43.2206579" lon="12.1357455"><ele>570.3333333333333</ele><time>2026-05-02T06:17:55.495Z</time></trkpt><trkpt lat="43.2206129" lon="12.1356565"><ele>565.6666666666666</ele><time>2026-05-02T06:17:56.491Z</time></trkpt><trkpt lat="43.2205494" lon="12.1355944"><ele>561.0</ele><time>2026-05-02T06:17:57.497Z</time></trkpt><trkpt lat="43.2204778" lon="12.1355332"><ele>556.3333333333334</ele><time>2026-05-02T06:17:58.51Z</time></trkpt><trkpt lat="43.2204065" lon="12.135474"><ele>551.6666666666667</ele><time>2026-05-02T06:17:59.506Z</time></trkpt><trkpt lat="43.2203351" lon="12.1354309"><ele>547.0</ele><time>2026-05-02T06:18:00.5Z</time></trkpt><trkpt lat="43.2202538" lon="12.1354295"><ele>547.0</ele><time>2026-05-02T06:18:01.489Z</time></trkpt><trkpt lat="43.2201492" lon="12.1354377"><ele>547.0</ele><time>2026-05-02T06:18:02.488Z</time></trkpt><trkpt lat="43.2200447" lon="12.1354385"><ele>547.0</ele><time>2026-05-02T06:18:03.494Z</time></trkpt><trkpt lat="43.2199512" lon="12.1354269"><ele>547.0</ele><time>2026-05-02T06:18:04.497Z</time></trkpt><trkpt lat="43.2198671" lon="12.1353833"><ele>547.0</ele><time>2026-05-02T06:18:05.489Z</time></trkpt><trkpt lat="43.2197969" lon="12.1353233"><ele>543.3333333333334</ele><time>2026-05-02T06:18:06.496Z</time></trkpt><trkpt lat="43.2197446" lon="12.1352542"><ele>539.6666666666667</ele><time>2026-05-02T06:18:07.501Z</time></trkpt><trkpt lat="43.219714" lon="12.1351686"><ele>536.0</ele><time>2026-05-02T06:18:08.494Z</time></trkpt><trkpt lat="43.2196939" lon="12.1350764"><ele>532.3333333333334</ele><time>2026-05-02T06:18:09.496Z</time></trkpt><trkpt lat="43.2196403" lon="12.134971"><ele>528.6666666666666</ele><time>2026-05-02T06:18:11.503Z</time></trkpt><trkpt lat="43.2195368" lon="12.1349822"><ele>525.0</ele><time>2026-05-02T06:18:13.502Z</time></trkpt><trkpt lat="43.2194422" lon="12.1350385"><ele>525.0</ele><time>2026-05-02T06:18:15.489Z</time></trkpt><trkpt lat="43.2194205" lon="12.1349377"><ele>525.0</ele><time>2026-05-02T06:18:18.497Z</time></trkpt><trkpt lat="43.2195178" lon="12.1348253"><ele>525.0</ele><time>2026-05-02T06:18:20.495Z</time></trkpt><trkpt lat="43.219592" lon="12.1347704"><ele>525.0</ele><time>2026-05-02T06:18:21.503Z</time></trkpt><trkpt lat="43.2196677" lon="12.1347165"><ele>525.0</ele><time>2026-05-02T06:18:22.495Z</time></trkpt><trkpt lat="43.2197401" lon="12.1347088"><ele>525.0</ele><time>2026-05-02T06:18:23.492Z</time></trkpt><trkpt lat="43.2198041" lon="12.1346995"><ele>523.2</ele><time>2026-05-02T06:18:24.494Z</time></trkpt><trkpt lat="43.219833" lon="12.1345984"><ele>521.4</ele><time>2026-05-02T06:18:26.502Z</time></trkpt><trkpt lat="43.219779" lon="12.1344991"><ele>519.6</ele><time>2026-05-02T06:18:28.496Z</time></trkpt><trkpt lat="43.2196689" lon="12.1343715"><ele>517.8</ele><time>2026-05-02T06:18:30.509Z</time></trkpt><trkpt lat="43.2195968" lon="12.1342713"><ele>516.0</ele><time>2026-05-02T06:18:31.495Z</time></trkpt><trkpt lat="43.2195319" lon="12.1341763"><ele>517.0</ele><time>2026-05-02T06:18:32.5Z</time></trkpt><trkpt lat="43.2194758" lon="12.1340548"><ele>518.0</ele><time>2026-05-02T06:18:33.49Z</time></trkpt><trkpt lat="43.2194234" lon="12.1339235"><ele>519.0</ele><time>2026-05-02T06:18:34.492Z</time></trkpt><trkpt lat="43.2193767" lon="12.1337666"><ele>520.0</ele><time>2026-05-02T06:18:35.492Z</time></trkpt><trkpt lat="43.2193286" lon="12.1335893"><ele>520.0</ele><time>2026-05-02T06:18:36.502Z</time></trkpt><trkpt lat="43.2192853" lon="12.1334264"><ele>520.0</ele><time>2026-05-02T06:18:37.49Z</time></trkpt><trkpt lat="43.21925" lon="12.1332771"><ele>520.0</ele><time>2026-05-02T06:18:38.499Z</time></trkpt><trkpt lat="43.219225" lon="12.133123"><ele>520.0</ele><time>2026-05-02T06:18:39.491Z</time></trkpt><trkpt lat="43.2192119" lon="12.1329553"><ele>520.0</ele><time>2026-05-02T06:18:40.495Z</time></trkpt><trkpt lat="43.2192085" lon="12.1327922"><ele>520.0</ele><time>2026-05-02T06:18:41.491Z</time></trkpt><trkpt lat="43.2192042" lon="12.1326554"><ele>520.0</ele><time>2026-05-02T06:18:42.507Z</time></trkpt><trkpt lat="43.2191851" lon="12.132546"><ele>520.0</ele><time>2026-05-02T06:18:43.501Z</time></trkpt><trkpt lat="43.2191442" lon="12.1324281"><ele>520.0</ele><time>2026-05-02T06:18:44.493Z</time></trkpt><trkpt lat="43.2190918" lon="12.132285"><ele>519.0</ele><time>2026-05-02T06:18:45.501Z</time></trkpt><trkpt lat="43.2190335" lon="12.1321349"><ele>518.0</ele><time>2026-05-02T06:18:46.496Z</time></trkpt><trkpt lat="43.21898" lon="12.1320021"><ele>517.0</ele><time>2026-05-02T06:18:47.491Z</time></trkpt><trkpt lat="43.218932" lon="12.1318865"><ele>516.0</ele><time>2026-05-02T06:18:48.49Z</time></trkpt><trkpt lat="43.2188903" lon="12.1317822"><ele>515.0</ele><time>2026-05-02T06:18:49.492Z</time></trkpt><trkpt lat="43.2188529" lon="12.1316973"><ele>511.66666666666663</ele><time>2026-05-02T06:18:50.492Z</time></trkpt><trkpt lat="43.2187824" lon="12.1315861"><ele>508.3333333333333</ele><time>2026-05-02T06:18:52.492Z</time></trkpt><trkpt lat="43.2186986" lon="12.1315828"><ele>505.0</ele><time>2026-05-02T06:18:54.502Z</time></trkpt><trkpt lat="43.2186348" lon="12.131674"><ele>501.66666666666663</ele><time>2026-05-02T06:18:56.49Z</time></trkpt><trkpt lat="43.2185966" lon="12.1317561"><ele>498.3333333333333</ele><time>2026-05-02T06:18:57.501Z</time></trkpt><trkpt lat="43.2185567" lon="12.1318544"><ele>495.0</ele><time>2026-05-02T06:18:58.499Z</time></trkpt><trkpt lat="43.2185252" lon="12.1319477"><ele>495.0</ele><time>2026-05-02T06:18:59.495Z</time></trkpt><trkpt lat="43.218509" lon="12.1320377"><ele>495.0</ele><time>2026-05-02T06:19:00.491Z</time></trkpt><trkpt lat="43.2185054" lon="12.1321878"><ele>495.0</ele><time>2026-05-02T06:19:02.503Z</time></trkpt><trkpt lat="43.2184331" lon="12.1322331"><ele>495.0</ele><time>2026-05-02T06:19:05.5Z</time></trkpt><trkpt lat="43.2184009" lon="12.1321372"><ele>495.0</ele><time>2026-05-02T06:19:07.497Z</time></trkpt><trkpt lat="43.2183725" lon="12.1320593"><ele>495.0</ele><time>2026-05-02T06:19:08.502Z</time></trkpt><trkpt lat="43.218334" lon="12.1319464"><ele>495.0</ele><time>2026-05-02T06:19:09.503Z</time></trkpt><trkpt lat="43.2182881" lon="12.1318147"><ele>495.0</ele><time>2026-05-02T06:19:10.499Z</time></trkpt><trkpt lat="43.2182503" lon="12.1317003"><ele>495.0</ele><time>2026-05-02T06:19:11.493Z</time></trkpt><trkpt lat="43.2182198" lon="12.1315713"><ele>495.0</ele><time>2026-05-02T06:19:12.5Z</time></trkpt><trkpt lat="43.218206" lon="12.1314094"><ele>495.0</ele><time>2026-05-02T06:19:13.497Z</time></trkpt><trkpt lat="43.2181928" lon="12.1312344"><ele>493.8</ele><time>2026-05-02T06:19:14.501Z</time></trkpt><trkpt lat="43.2181732" lon="12.1310876"><ele>492.6</ele><time>2026-05-02T06:19:15.491Z</time></trkpt><trkpt lat="43.218159" lon="12.1309594"><ele>491.4</ele><time>2026-05-02T06:19:16.496Z</time></trkpt><trkpt lat="43.2181505" lon="12.1308316"><ele>490.2</ele><time>2026-05-02T06:19:17.503Z</time></trkpt><trkpt lat="43.218154" lon="12.1307042"><ele>489.0</ele><time>2026-05-02T06:19:18.495Z</time></trkpt><trkpt lat="43.2181676" lon="12.130597"><ele>486.2</ele><time>2026-05-02T06:19:19.498Z</time></trkpt><trkpt lat="43.2181729" lon="12.1304473"><ele>483.4</ele><time>2026-05-02T06:19:21.499Z</time></trkpt><trkpt lat="43.2180901" lon="12.1303449"><ele>480.6</ele><time>2026-05-02T06:19:23.503Z</time></trkpt><trkpt lat="43.2180188" lon="12.130295"><ele>477.8</ele><time>2026-05-02T06:19:24.497Z</time></trkpt><trkpt lat="43.2179464" lon="12.1302378"><ele>475.0</ele><time>2026-05-02T06:19:25.491Z</time></trkpt><trkpt lat="43.2178778" lon="12.1301686"><ele>473.00000000000006</ele><time>2026-05-02T06:19:26.493Z</time></trkpt><trkpt lat="43.2178275" lon="12.1300849"><ele>471.0</ele><time>2026-05-02T06:19:27.513Z</time></trkpt><trkpt lat="43.2177741" lon="12.1300102"><ele>469.0</ele><time>2026-05-02T06:19:28.496Z</time></trkpt><trkpt lat="43.2177271" lon="12.1299244"><ele>467.0</ele><time>2026-05-02T06:19:29.498Z</time></trkpt><trkpt lat="43.2176902" lon="12.1298503"><ele>465.00000000000006</ele><time>2026-05-02T06:19:30.503Z</time></trkpt><trkpt lat="43.2176133" lon="12.1297465"><ele>463.0</ele><time>2026-05-02T06:19:32.5Z</time></trkpt><trkpt lat="43.2175081" lon="12.129764"><ele>461.83333333333337</ele><time>2026-05-02T06:19:34.492Z</time></trkpt><trkpt lat="43.2174401" lon="12.1298143"><ele>460.6666666666667</ele><time>2026-05-02T06:19:35.494Z</time></trkpt><trkpt lat="43.2173664" lon="12.1298817"><ele>459.5</ele><time>2026-05-02T06:19:36.491Z</time></trkpt><trkpt lat="43.2172972" lon="12.129957"><ele>458.33333333333337</ele><time>2026-05-02T06:19:37.493Z</time></trkpt><trkpt lat="43.2172507" lon="12.1300505"><ele>457.1666666666667</ele><time>2026-05-02T06:19:38.498Z</time></trkpt><trkpt lat="43.2172092" lon="12.1301502"><ele>456.0</ele><time>2026-05-02T06:19:39.491Z</time></trkpt><trkpt lat="43.2171725" lon="12.1302589"><ele>453.4</ele><time>2026-05-02T06:19:40.506Z</time></trkpt><trkpt lat="43.2171405" lon="12.1303622"><ele>450.8</ele><time>2026-05-02T06:19:41.493Z</time></trkpt><trkpt lat="43.2171052" lon="12.1304452"><ele>448.19999999999993</ele><time>2026-05-02T06:19:42.5Z</time></trkpt><trkpt lat="43.2170421" lon="12.1305432"><ele>445.59999999999997</ele><time>2026-05-02T06:19:44.502Z</time></trkpt><trkpt lat="43.2169804" lon="12.1305044"><ele>443.0</ele><time>2026-05-02T06:19:46.495Z</time></trkpt><trkpt lat="43.2169258" lon="12.1303262"><ele>443.0</ele><time>2026-05-02T06:19:48.505Z</time></trkpt><trkpt lat="43.2168978" lon="12.1301848"><ele>442.99999999999994</ele><time>2026-05-02T06:19:49.5Z</time></trkpt><trkpt lat="43.2168651" lon="12.1300426"><ele>442.99999999999994</ele><time>2026-05-02T06:19:50.496Z</time></trkpt><trkpt lat="43.2168212" lon="12.1299181"><ele>443.0</ele><time>2026-05-02T06:19:51.496Z</time></trkpt><trkpt lat="43.2167834" lon="12.1297866"><ele>443.0</ele><time>2026-05-02T06:19:52.491Z</time></trkpt><trkpt lat="43.2167452" lon="12.1296613"><ele>442.4</ele><time>2026-05-02T06:19:53.494Z</time></trkpt><trkpt lat="43.2167194" lon="12.1295303"><ele>441.79999999999995</ele><time>2026-05-02T06:19:54.493Z</time></trkpt><trkpt lat="43.2167097" lon="12.1294016"><ele>441.2</ele><time>2026-05-02T06:19:55.5Z</time></trkpt><trkpt lat="43.2167122" lon="12.1292543"><ele>440.6</ele><time>2026-05-02T06:19:56.489Z</time></trkpt><trkpt lat="43.216716" lon="12.1290979"><ele>440.0</ele><time>2026-05-02T06:19:57.498Z</time></trkpt><trkpt lat="43.2167408" lon="12.1289128"><ele>437.8</ele><time>2026-05-02T06:19:58.497Z</time></trkpt><trkpt lat="43.2167641" lon="12.1287488"><ele>435.6</ele><time>2026-05-02T06:19:59.496Z</time></trkpt><trkpt lat="43.2167912" lon="12.1285958"><ele>433.4</ele><time>2026-05-02T06:20:00.495Z</time></trkpt><trkpt lat="43.2168217" lon="12.1284515"><ele>431.2</ele><time>2026-05-02T06:20:01.501Z</time></trkpt><trkpt lat="43.2168456" lon="12.1283179"><ele>429.0</ele><time>2026-05-02T06:20:02.497Z</time></trkpt><trkpt lat="43.2168706" lon="12.1281917"><ele>427.3333333333333</ele><time>2026-05-02T06:20:03.499Z</time></trkpt><trkpt lat="43.2168906" lon="12.1280753"><ele>425.66666666666663</ele><time>2026-05-02T06:20:04.492Z</time></trkpt><trkpt lat="43.2169134" lon="12.1279772"><ele>424.0</ele><time>2026-05-02T06:20:05.489Z</time></trkpt><trkpt lat="43.2169491" lon="12.1278836"><ele>422.3333333333333</ele><time>2026-05-02T06:20:06.503Z</time></trkpt><trkpt lat="43.2169986" lon="12.1277886"><ele>420.66666666666663</ele><time>2026-05-02T06:20:07.491Z</time></trkpt><trkpt lat="43.2170493" lon="12.1277085"><ele>419.0</ele><time>2026-05-02T06:20:08.497Z</time></trkpt><trkpt lat="43.2171193" lon="12.1276111"><ele>419.0</ele><time>2026-05-02T06:20:10.505Z</time></trkpt><trkpt lat="43.2171188" lon="12.1274949"><ele>419.0</ele><time>2026-05-02T06:20:12.494Z</time></trkpt><trkpt lat="43.2170293" lon="12.1273682"><ele>419.0</ele><time>2026-05-02T06:20:14.499Z</time></trkpt><trkpt lat="43.2169219" lon="12.1272833"><ele>419.0</ele><time>2026-05-02T06:20:15.503Z</time></trkpt><trkpt lat="43.2168296" lon="12.1272116"><ele>419.0</ele><time>2026-05-02T06:20:16.497Z</time></trkpt><trkpt lat="43.2167421" lon="12.127137"><ele>416.2</ele><time>2026-05-02T06:20:17.499Z</time></trkpt><trkpt lat="43.2166512" lon="12.1270703"><ele>413.4</ele><time>2026-05-02T06:20:18.496Z</time></trkpt><trkpt lat="43.2165598" lon="12.1270041"><ele>410.6</ele><time>2026-05-02T06:20:19.494Z</time></trkpt><trkpt lat="43.2164737" lon="12.1269412"><ele>407.8</ele><time>2026-05-02T06:20:20.49Z</time></trkpt><trkpt lat="43.216387" lon="12.1268929"><ele>405.0</ele><time>2026-05-02T06:20:21.496Z</time></trkpt><trkpt lat="43.2163081" lon="12.1268509"><ele>403.4</ele><time>2026-05-02T06:20:22.49Z</time></trkpt><trkpt lat="43.2162192" lon="12.126835"><ele>401.8</ele><time>2026-05-02T06:20:23.495Z</time></trkpt><trkpt lat="43.2161253" lon="12.1268349"><ele>400.20000000000005</ele><time>2026-05-02T06:20:24.495Z</time></trkpt><trkpt lat="43.2160263" lon="12.1268743"><ele>398.6</ele><time>2026-05-02T06:20:25.507Z</time></trkpt><trkpt lat="43.2159283" lon="12.126908"><ele>397.0</ele><time>2026-05-02T06:20:26.496Z</time></trkpt><trkpt lat="43.2158373" lon="12.1269353"><ele>397.00000000000006</ele><time>2026-05-02T06:20:27.494Z</time></trkpt><trkpt lat="43.2157636" lon="12.1269529"><ele>397.0</ele><time>2026-05-02T06:20:28.494Z</time></trkpt><trkpt lat="43.2157004" lon="12.1269633"><ele>397.0</ele><time>2026-05-02T06:20:29.495Z</time></trkpt><trkpt lat="43.2156182" lon="12.1269612"><ele>397.0</ele><time>2026-05-02T06:20:31.499Z</time></trkpt><trkpt lat="43.215606" lon="12.1268371"><ele>397.00000000000006</ele><time>2026-05-02T06:20:34.492Z</time></trkpt><trkpt lat="43.2156546" lon="12.1266729"><ele>397.0</ele><time>2026-05-02T06:20:36.502Z</time></trkpt><trkpt lat="43.2157032" lon="12.126561"><ele>394.25</ele><time>2026-05-02T06:20:37.5Z</time></trkpt><trkpt lat="43.2157459" lon="12.1264264"><ele>391.5</ele><time>2026-05-02T06:20:38.501Z</time></trkpt><trkpt lat="43.2157969" lon="12.1262729"><ele>388.75</ele><time>2026-05-02T06:20:39.497Z</time></trkpt><trkpt lat="43.2158521" lon="12.1261166"><ele>386.0</ele><time>2026-05-02T06:20:40.494Z</time></trkpt><trkpt lat="43.2159076" lon="12.125968"><ele>386.0</ele><time>2026-05-02T06:20:41.495Z</time></trkpt><trkpt lat="43.2159662" lon="12.1258258"><ele>386.0</ele><time>2026-05-02T06:20:42.506Z</time></trkpt><trkpt lat="43.2160183" lon="12.125688"><ele>386.0</ele><time>2026-05-02T06:20:43.493Z</time></trkpt><trkpt lat="43.216069" lon="12.1255541"><ele>386.0</ele><time>2026-05-02T06:20:44.497Z</time></trkpt><trkpt lat="43.2161109" lon="12.1254413"><ele>386.0</ele><time>2026-05-02T06:20:45.505Z</time></trkpt><trkpt lat="43.2161466" lon="12.1253324"><ele>383.20000000000005</ele><time>2026-05-02T06:20:46.489Z</time></trkpt><trkpt lat="43.2161723" lon="12.1252278"><ele>380.40000000000003</ele><time>2026-05-02T06:20:47.498Z</time></trkpt><trkpt lat="43.2161913" lon="12.1251363"><ele>377.6</ele><time>2026-05-02T06:20:48.506Z</time></trkpt><trkpt lat="43.2161953" lon="12.1249839"><ele>374.8</ele><time>2026-05-02T06:20:50.492Z</time></trkpt><trkpt lat="43.2161442" lon="12.1248566"><ele>372.0</ele><time>2026-05-02T06:20:52.501Z</time></trkpt><trkpt lat="43.2160317" lon="12.1247643"><ele>369.8333333333333</ele><time>2026-05-02T06:20:54.498Z</time></trkpt><trkpt lat="43.2159569" lon="12.1247333"><ele>367.6666666666667</ele><time>2026-05-02T06:20:55.497Z</time></trkpt><trkpt lat="43.2158829" lon="12.124727"><ele>365.5</ele><time>2026-05-02T06:20:56.493Z</time></trkpt><trkpt lat="43.215803" lon="12.1247512"><ele>363.33333333333337</ele><time>2026-05-02T06:20:57.497Z</time></trkpt><trkpt lat="43.2157361" lon="12.1247898"><ele>361.1666666666667</ele><time>2026-05-02T06:20:58.497Z</time></trkpt><trkpt lat="43.2156373" lon="12.1247899"><ele>359.0</ele><time>2026-05-02T06:21:00.498Z</time></trkpt><trkpt lat="43.2156001" lon="12.1246839"><ele>359.0</ele><time>2026-05-02T06:21:02.493Z</time></trkpt><trkpt lat="43.2156187" lon="12.1245121"><ele>359.0</ele><time>2026-05-02T06:21:04.499Z</time></trkpt><trkpt lat="43.2156451" lon="12.1244252"><ele>359.0</ele><time>2026-05-02T06:21:05.502Z</time></trkpt><trkpt lat="43.2156933" lon="12.1243115"><ele>359.0</ele><time>2026-05-02T06:21:06.495Z</time></trkpt><trkpt lat="43.2157509" lon="12.1241652"><ele>359.0</ele><time>2026-05-02T06:21:07.494Z</time></trkpt><trkpt lat="43.2158017" lon="12.1240251"><ele>357.2</ele><time>2026-05-02T06:21:08.489Z</time></trkpt><trkpt lat="43.2158531" lon="12.1238868"><ele>355.4</ele><time>2026-05-02T06:21:09.506Z</time></trkpt><trkpt lat="43.2159018" lon="12.1237575"><ele>353.6</ele><time>2026-05-02T06:21:10.501Z</time></trkpt><trkpt lat="43.2159495" lon="12.1236333"><ele>351.8</ele><time>2026-05-02T06:21:11.499Z</time></trkpt><trkpt lat="43.2159866" lon="12.1235435"><ele>350.0</ele><time>2026-05-02T06:21:12.511Z</time></trkpt><trkpt lat="43.2160258" lon="12.1234553"><ele>350.0</ele><time>2026-05-02T06:21:13.499Z</time></trkpt><trkpt lat="43.2160626" lon="12.123374"><ele>350.0</ele><time>2026-05-02T06:21:14.489Z</time></trkpt><trkpt lat="43.2161076" lon="12.1232415"><ele>350.0</ele><time>2026-05-02T06:21:16.498Z</time></trkpt><trkpt lat="43.2160874" lon="12.1231418"><ele>350.0</ele><time>2026-05-02T06:21:18.5Z</time></trkpt><trkpt lat="43.2160388" lon="12.1230792"><ele>350.0</ele><time>2026-05-02T06:21:19.503Z</time></trkpt><trkpt lat="43.2159758" lon="12.1230519"><ele>350.0</ele><time>2026-05-02T06:21:21.498Z</time></trkpt><trkpt lat="43.2159614" lon="12.1229568"><ele>349.0</ele><time>2026-05-02T06:21:25.494Z</time></trkpt><trkpt lat="43.2160273" lon="12.1229251"><ele>348.0</ele><time>2026-05-02T06:21:27.495Z</time></trkpt><trkpt lat="43.2161497" lon="12.1229085"><ele>347.0</ele><time>2026-05-02T06:21:29.488Z</time></trkpt><trkpt lat="43.2163414" lon="12.122902"><ele>346.0</ele><time>2026-05-02T06:21:30.499Z</time></trkpt><trkpt lat="43.2165194" lon="12.1229055"><ele>346.0</ele><time>2026-05-02T06:21:31.508Z</time></trkpt><trkpt lat="43.2165761" lon="12.1228398"><ele>346.0</ele><time>2026-05-02T06:21:32.491Z</time></trkpt><trkpt lat="43.2166262" lon="12.122766"><ele>346.0</ele><time>2026-05-02T06:21:33.496Z</time></trkpt><trkpt lat="43.2166351" lon="12.1226276"><ele>346.0</ele><time>2026-05-02T06:21:34.5Z</time></trkpt><trkpt lat="43.2165882" lon="12.1225338"><ele>346.0</ele><time>2026-05-02T06:21:35.498Z</time></trkpt><trkpt lat="43.2165469" lon="12.1224339"><ele>346.0</ele><time>2026-05-02T06:21:36.495Z</time></trkpt><trkpt lat="43.2164777" lon="12.1223658"><ele>343.5</ele><time>2026-05-02T06:21:37.503Z</time></trkpt><trkpt lat="43.2163891" lon="12.1223034"><ele>341.0</ele><time>2026-05-02T06:21:38.495Z</time></trkpt><trkpt lat="43.2162718" lon="12.1222272"><ele>338.5</ele><time>2026-05-02T06:21:39.498Z</time></trkpt><trkpt lat="43.2161438" lon="12.1221661"><ele>336.0</ele><time>2026-05-02T06:21:40.498Z</time></trkpt><trkpt lat="43.2160075" lon="12.1220729"><ele>336.0</ele><time>2026-05-02T06:21:41.498Z</time></trkpt><trkpt lat="43.2158724" lon="12.1219884"><ele>336.0</ele><time>2026-05-02T06:21:42.488Z</time></trkpt><trkpt lat="43.2157555" lon="12.1218769"><ele>336.0</ele><time>2026-05-02T06:21:43.489Z</time></trkpt><trkpt lat="43.2156484" lon="12.1217964"><ele>336.0</ele><time>2026-05-02T06:21:44.49Z</time></trkpt><trkpt lat="43.21555" lon="12.1217457"><ele>334.8</ele><time>2026-05-02T06:21:45.494Z</time></trkpt><trkpt lat="43.2154643" lon="12.1217125"><ele>333.6</ele><time>2026-05-02T06:21:46.489Z</time></trkpt><trkpt lat="43.2153853" lon="12.1217326"><ele>332.4</ele><time>2026-05-02T06:21:47.491Z</time></trkpt><trkpt lat="43.2153037" lon="12.1217744"><ele>331.2</ele><time>2026-05-02T06:21:48.49Z</time></trkpt><trkpt lat="43.2152191" lon="12.1218254"><ele>330.0</ele><time>2026-05-02T06:21:49.49Z</time></trkpt><trkpt lat="43.2151167" lon="12.1219201"><ele>330.0</ele><time>2026-05-02T06:21:50.499Z</time></trkpt><trkpt lat="43.2150256" lon="12.1220239"><ele>330.0</ele><time>2026-05-02T06:21:51.494Z</time></trkpt><trkpt lat="43.2149324" lon="12.1220841"><ele>330.0</ele><time>2026-05-02T06:21:52.488Z</time></trkpt><trkpt lat="43.2148356" lon="12.1221456"><ele>330.0</ele><time>2026-05-02T06:21:53.5Z</time></trkpt><trkpt lat="43.2147535" lon="12.1221563"><ele>330.0</ele><time>2026-05-02T06:21:54.501Z</time></trkpt><trkpt lat="43.2146596" lon="12.1221538"><ele>328.0</ele><time>2026-05-02T06:21:55.507Z</time></trkpt><trkpt lat="43.214559" lon="12.1221172"><ele>326.0</ele><time>2026-05-02T06:21:56.496Z</time></trkpt><trkpt lat="43.2144413" lon="12.1220497"><ele>324.0</ele><time>2026-05-02T06:21:57.497Z</time></trkpt><trkpt lat="43.2143151" lon="12.1219807"><ele>322.0</ele><time>2026-05-02T06:21:58.502Z</time></trkpt><trkpt lat="43.2141972" lon="12.1219074"><ele>322.0</ele><time>2026-05-02T06:21:59.491Z</time></trkpt><trkpt lat="43.2140718" lon="12.1218304"><ele>322.0</ele><time>2026-05-02T06:22:00.501Z</time></trkpt><trkpt lat="43.2139385" lon="12.1217542"><ele>322.0</ele><time>2026-05-02T06:22:01.495Z</time></trkpt><trkpt lat="43.213787" lon="12.1216706"><ele>322.0</ele><time>2026-05-02T06:22:02.496Z</time></trkpt><trkpt lat="43.2136351" lon="12.1215748"><ele>318.3333333333333</ele><time>2026-05-02T06:22:03.501Z</time></trkpt><trkpt lat="43.2134797" lon="12.1214746"><ele>314.6666666666667</ele><time>2026-05-02T06:22:04.494Z</time></trkpt><trkpt lat="43.2133245" lon="12.1213639"><ele>311.0</ele><time>2026-05-02T06:22:05.495Z</time></trkpt><trkpt lat="43.2131617" lon="12.1212617"><ele>309.6666666666667</ele><time>2026-05-02T06:22:06.503Z</time></trkpt><trkpt lat="43.2129887" lon="12.1211844"><ele>308.3333333333333</ele><time>2026-05-02T06:22:07.507Z</time></trkpt><trkpt lat="43.2128251" lon="12.1210983"><ele>307.0</ele><time>2026-05-02T06:22:08.494Z</time></trkpt><trkpt lat="43.2126659" lon="12.1210102"><ele>307.0</ele><time>2026-05-02T06:22:09.497Z</time></trkpt><trkpt lat="43.2125118" lon="12.1209034"><ele>307.0</ele><time>2026-05-02T06:22:10.501Z</time></trkpt><trkpt lat="43.2123525" lon="12.1208112"><ele>307.0</ele><time>2026-05-02T06:22:11.496Z</time></trkpt><trkpt lat="43.2121937" lon="12.1207235"><ele>305.3333333333333</ele><time>2026-05-02T06:22:12.495Z</time></trkpt><trkpt lat="43.212037" lon="12.1206412"><ele>303.6666666666667</ele><time>2026-05-02T06:22:13.507Z</time></trkpt><trkpt lat="43.2118858" lon="12.1205555"><ele>302.0</ele><time>2026-05-02T06:22:14.493Z</time></trkpt><trkpt lat="43.2117311" lon="12.1204708"><ele>302.0</ele><time>2026-05-02T06:22:15.499Z</time></trkpt><trkpt lat="43.211574" lon="12.1203787"><ele>302.0</ele><time>2026-05-02T06:22:16.511Z</time></trkpt><trkpt lat="43.2114124" lon="12.1202961"><ele>302.0</ele><time>2026-05-02T06:22:17.508Z</time></trkpt><trkpt lat="43.2112611" lon="12.1201913"><ele>300.0</ele><time>2026-05-02T06:22:18.495Z</time></trkpt><trkpt lat="43.2111036" lon="12.1200989"><ele>298.0</ele><time>2026-05-02T06:22:19.5Z</time></trkpt><trkpt lat="43.2109431" lon="12.12001"><ele>296.0</ele><time>2026-05-02T06:22:20.498Z</time></trkpt><trkpt lat="43.2107878" lon="12.1199301"><ele>294.33333333333337</ele><time>2026-05-02T06:22:21.5Z</time></trkpt><trkpt lat="43.210631" lon="12.1198419"><ele>292.6666666666667</ele><time>2026-05-02T06:22:22.501Z</time></trkpt><trkpt lat="43.2104682" lon="12.1197486"><ele>291.0</ele><time>2026-05-02T06:22:23.497Z</time></trkpt><trkpt lat="43.2103182" lon="12.1196597"><ele>291.0</ele><time>2026-05-02T06:22:24.503Z</time></trkpt><trkpt lat="43.2101659" lon="12.1195714"><ele>291.0</ele><time>2026-05-02T06:22:25.497Z</time></trkpt><trkpt lat="43.2100193" lon="12.1194803"><ele>291.0</ele><time>2026-05-02T06:22:26.493Z</time></trkpt><trkpt lat="43.2098705" lon="12.1193969"><ele>290.3333333333333</ele><time>2026-05-02T06:22:27.493Z</time></trkpt><trkpt lat="43.2097319" lon="12.1193112"><ele>289.66666666666663</ele><time>2026-05-02T06:22:28.494Z</time></trkpt><trkpt lat="43.2095869" lon="12.1192274"><ele>289.0</ele><time>2026-05-02T06:22:29.496Z</time></trkpt><trkpt lat="43.2094393" lon="12.1191498"><ele>289.0</ele><time>2026-05-02T06:22:30.495Z</time></trkpt><trkpt lat="43.2092966" lon="12.1190717"><ele>289.0</ele><time>2026-05-02T06:22:31.491Z</time></trkpt><trkpt lat="43.2091534" lon="12.1189865"><ele>289.0</ele><time>2026-05-02T06:22:32.498Z</time></trkpt><trkpt lat="43.2090111" lon="12.1188991"><ele>287.3333333333333</ele><time>2026-05-02T06:22:33.5Z</time></trkpt><trkpt lat="43.2088655" lon="12.118815"><ele>285.6666666666667</ele><time>2026-05-02T06:22:34.491Z</time></trkpt><trkpt lat="43.2087209" lon="12.1187342"><ele>284.0</ele><time>2026-05-02T06:22:35.505Z</time></trkpt><trkpt lat="43.20858" lon="12.1186553"><ele>284.0</ele><time>2026-05-02T06:22:36.493Z</time></trkpt><trkpt lat="43.2084371" lon="12.1185947"><ele>284.0</ele><time>2026-05-02T06:22:37.496Z</time></trkpt><trkpt lat="43.208302" lon="12.1185154"><ele>284.0</ele><time>2026-05-02T06:22:38.493Z</time></trkpt><trkpt lat="43.2081657" lon="12.1184354"><ele>284.0</ele><time>2026-05-02T06:22:39.499Z</time></trkpt><trkpt lat="43.2080323" lon="12.1183551"><ele>283.75</ele><time>2026-05-02T06:22:40.494Z</time></trkpt><trkpt lat="43.2078931" lon="12.1182805"><ele>283.5</ele><time>2026-05-02T06:22:41.497Z</time></trkpt><trkpt lat="43.207754" lon="12.1181898"><ele>283.25</ele><time>2026-05-02T06:22:42.496Z</time></trkpt><trkpt lat="43.2076331" lon="12.1181214"><ele>283.0</ele><time>2026-05-02T06:22:43.496Z</time></trkpt><trkpt lat="43.2075055" lon="12.118037"><ele>282.8</ele><time>2026-05-02T06:22:44.499Z</time></trkpt><trkpt lat="43.2073927" lon="12.1179796"><ele>282.6</ele><time>2026-05-02T06:22:45.497Z</time></trkpt><trkpt lat="43.207291" lon="12.1179162"><ele>282.4</ele><time>2026-05-02T06:22:46.499Z</time></trkpt><trkpt lat="43.2071896" lon="12.1178556"><ele>282.2</ele><time>2026-05-02T06:22:47.498Z</time></trkpt><trkpt lat="43.2070947" lon="12.1177909"><ele>282.0</ele><time>2026-05-02T06:22:48.508Z</time></trkpt><trkpt lat="43.2069987" lon="12.1177283"><ele>281.6</ele><time>2026-05-02T06:22:49.511Z</time></trkpt><trkpt lat="43.2069175" lon="12.1176779"><ele>281.2</ele><time>2026-05-02T06:22:50.495Z</time></trkpt><trkpt lat="43.2068235" lon="12.1176273"><ele>280.8</ele><time>2026-05-02T06:22:51.495Z</time></trkpt><trkpt lat="43.2067376" lon="12.117581"><ele>280.4</ele><time>2026-05-02T06:22:52.495Z</time></trkpt><trkpt lat="43.2066462" lon="12.1175319"><ele>280.0</ele><time>2026-05-02T06:22:53.499Z</time></trkpt><trkpt lat="43.2065617" lon="12.1174789"><ele>279.8333333333333</ele><time>2026-05-02T06:22:54.494Z</time></trkpt><trkpt lat="43.2064734" lon="12.1174311"><ele>279.66666666666663</ele><time>2026-05-02T06:22:55.496Z</time></trkpt><trkpt lat="43.2063921" lon="12.1173777"><ele>279.5</ele><time>2026-05-02T06:22:56.5Z</time></trkpt><trkpt lat="43.2063223" lon="12.1173306"><ele>279.3333333333333</ele><time>2026-05-02T06:22:57.499Z</time></trkpt><trkpt lat="43.2062583" lon="12.1172871"><ele>279.1666666666667</ele><time>2026-05-02T06:22:58.495Z</time></trkpt><trkpt lat="43.2061569" lon="12.1172127"><ele>279.0</ele><time>2026-05-02T06:23:00.515Z</time></trkpt><trkpt lat="43.2060465" lon="12.1171589"><ele>279.0</ele><time>2026-05-02T06:23:02.51Z</time></trkpt><trkpt lat="43.2059311" lon="12.1171029"><ele>279.0</ele><time>2026-05-02T06:23:04.5Z</time></trkpt><trkpt lat="43.2058554" lon="12.1170605"><ele>279.0</ele><time>2026-05-02T06:23:05.498Z</time></trkpt><trkpt lat="43.2057684" lon="12.1170081"><ele>279.0</ele><time>2026-05-02T06:23:06.496Z</time></trkpt><trkpt lat="43.2056728" lon="12.1169513"><ele>279.0</ele><time>2026-05-02T06:23:07.492Z</time></trkpt><trkpt lat="43.2055687" lon="12.1169052"><ele>278.25</ele><time>2026-05-02T06:23:08.493Z</time></trkpt><trkpt lat="43.2054474" lon="12.1168754"><ele>277.5</ele><time>2026-05-02T06:23:09.493Z</time></trkpt><trkpt lat="43.2053244" lon="12.1168657"><ele>276.75</ele><time>2026-05-02T06:23:10.493Z</time></trkpt><trkpt lat="43.2052009" lon="12.1168695"><ele>276.0</ele><time>2026-05-02T06:23:11.495Z</time></trkpt><trkpt lat="43.2050753" lon="12.1168798"><ele>276.0</ele><time>2026-05-02T06:23:12.492Z</time></trkpt><trkpt lat="43.2049527" lon="12.1168854"><ele>276.0</ele><time>2026-05-02T06:23:13.497Z</time></trkpt><trkpt lat="43.204826" lon="12.1168926"><ele>276.0</ele><time>2026-05-02T06:23:14.497Z</time></trkpt><trkpt lat="43.2046996" lon="12.116882"><ele>276.0</ele><time>2026-05-02T06:23:15.504Z</time></trkpt><trkpt lat="43.2045777" lon="12.1168663"><ele>275.25</ele><time>2026-05-02T06:23:16.495Z</time></trkpt><trkpt lat="43.2044637" lon="12.1168436"><ele>274.5</ele><time>2026-05-02T06:23:17.494Z</time></trkpt><trkpt lat="43.2043469" lon="12.1168143"><ele>273.75</ele><time>2026-05-02T06:23:18.495Z</time></trkpt><trkpt lat="43.20423" lon="12.1167839"><ele>273.0</ele><time>2026-05-02T06:23:19.497Z</time></trkpt><trkpt lat="43.2041105" lon="12.1167564"><ele>272.75</ele><time>2026-05-02T06:23:20.5Z</time></trkpt><trkpt lat="43.2039888" lon="12.1167231"><ele>272.5</ele><time>2026-05-02T06:23:21.497Z</time></trkpt><trkpt lat="43.2038771" lon="12.1166778"><ele>272.25</ele><time>2026-05-02T06:23:22.496Z</time></trkpt><trkpt lat="43.2037667" lon="12.1166231"><ele>272.0</ele><time>2026-05-02T06:23:23.502Z</time></trkpt><trkpt lat="43.2036584" lon="12.1165611"><ele>271.75</ele><time>2026-05-02T06:23:24.504Z</time></trkpt><trkpt lat="43.2035547" lon="12.1164853"><ele>271.5</ele><time>2026-05-02T06:23:25.499Z</time></trkpt><trkpt lat="43.2034428" lon="12.1164022"><ele>271.25</ele><time>2026-05-02T06:23:26.502Z</time></trkpt><trkpt lat="43.2033274" lon="12.1163249"><ele>271.0</ele><time>2026-05-02T06:23:27.5Z</time></trkpt><trkpt lat="43.203215" lon="12.1162501"><ele>270.5</ele><time>2026-05-02T06:23:28.492Z</time></trkpt><trkpt lat="43.203105" lon="12.1161774"><ele>270.0</ele><time>2026-05-02T06:23:29.492Z</time></trkpt><trkpt lat="43.2029935" lon="12.1160939"><ele>269.5</ele><time>2026-05-02T06:23:30.495Z</time></trkpt><trkpt lat="43.2028775" lon="12.1160225"><ele>269.0</ele><time>2026-05-02T06:23:31.495Z</time></trkpt><trkpt lat="43.2027618" lon="12.1159518"><ele>269.0</ele><time>2026-05-02T06:23:32.493Z</time></trkpt><trkpt lat="43.2026537" lon="12.1158838"><ele>269.0</ele><time>2026-05-02T06:23:33.492Z</time></trkpt><trkpt lat="43.2025471" lon="12.1158133"><ele>269.0</ele><time>2026-05-02T06:23:34.496Z</time></trkpt><trkpt lat="43.2024396" lon="12.1157358"><ele>269.0</ele><time>2026-05-02T06:23:35.494Z</time></trkpt><trkpt lat="43.2023169" lon="12.1156534"><ele>268.75</ele><time>2026-05-02T06:23:36.498Z</time></trkpt><trkpt lat="43.2021889" lon="12.1155739"><ele>268.5</ele><time>2026-05-02T06:23:37.497Z</time></trkpt><trkpt lat="43.2020673" lon="12.1155065"><ele>268.25</ele><time>2026-05-02T06:23:38.504Z</time></trkpt><trkpt lat="43.2019453" lon="12.1154385"><ele>268.0</ele><time>2026-05-02T06:23:39.495Z</time></trkpt><trkpt lat="43.2018219" lon="12.1153612"><ele>268.0</ele><time>2026-05-02T06:23:40.493Z</time></trkpt><trkpt lat="43.201702" lon="12.1152883"><ele>268.0</ele><time>2026-05-02T06:23:41.492Z</time></trkpt><trkpt lat="43.2015724" lon="12.1152243"><ele>268.0</ele><time>2026-05-02T06:23:42.494Z</time></trkpt><trkpt lat="43.2014398" lon="12.1151583"><ele>268.0</ele><time>2026-05-02T06:23:43.499Z</time></trkpt><trkpt lat="43.2013177" lon="12.1150894"><ele>268.25</ele><time>2026-05-02T06:23:44.504Z</time></trkpt><trkpt lat="43.201194" lon="12.1150186"><ele>268.5</ele><time>2026-05-02T06:23:45.493Z</time></trkpt><trkpt lat="43.2010749" lon="12.1149438"><ele>268.75</ele><time>2026-05-02T06:23:46.498Z</time></trkpt><trkpt lat="43.2009523" lon="12.1148694"><ele>269.0</ele><time>2026-05-02T06:23:47.497Z</time></trkpt><trkpt lat="43.2008248" lon="12.1147888"><ele>269.0</ele><time>2026-05-02T06:23:48.495Z</time></trkpt><trkpt lat="43.2006946" lon="12.1147065"><ele>269.0</ele><time>2026-05-02T06:23:49.5Z</time></trkpt><trkpt lat="43.2005636" lon="12.1146223"><ele>269.0</ele><time>2026-05-02T06:23:50.494Z</time></trkpt><trkpt lat="43.2004206" lon="12.1145383"><ele>269.0</ele><time>2026-05-02T06:23:51.507Z</time></trkpt><trkpt lat="43.2002758" lon="12.1144542"><ele>268.0</ele><time>2026-05-02T06:23:52.489Z</time></trkpt><trkpt lat="43.2001215" lon="12.1143605"><ele>267.0</ele><time>2026-05-02T06:23:53.503Z</time></trkpt><trkpt lat="43.199968" lon="12.1142744"><ele>266.0</ele><time>2026-05-02T06:23:54.496Z</time></trkpt><trkpt lat="43.1998115" lon="12.1141914"><ele>265.6666666666667</ele><time>2026-05-02T06:23:55.498Z</time></trkpt><trkpt lat="43.1996612" lon="12.114117"><ele>265.3333333333333</ele><time>2026-05-02T06:23:56.504Z</time></trkpt><trkpt lat="43.1995125" lon="12.1140364"><ele>265.0</ele><time>2026-05-02T06:23:57.495Z</time></trkpt><trkpt lat="43.1993674" lon="12.1139523"><ele>265.0</ele><time>2026-05-02T06:23:58.499Z</time></trkpt><trkpt lat="43.1992222" lon="12.1138666"><ele>265.0</ele><time>2026-05-02T06:23:59.496Z</time></trkpt><trkpt lat="43.1990859" lon="12.1137803"><ele>265.0</ele><time>2026-05-02T06:24:00.494Z</time></trkpt><trkpt lat="43.1989476" lon="12.1137001"><ele>264.75</ele><time>2026-05-02T06:24:01.496Z</time></trkpt><trkpt lat="43.1988112" lon="12.1136229"><ele>264.5</ele><time>2026-05-02T06:24:02.5Z</time></trkpt><trkpt lat="43.1986851" lon="12.1135525"><ele>264.25</ele><time>2026-05-02T06:24:03.494Z</time></trkpt><trkpt lat="43.1985532" lon="12.1134764"><ele>264.0</ele><time>2026-05-02T06:24:04.493Z</time></trkpt><trkpt lat="43.1984275" lon="12.1133982"><ele>264.0</ele><time>2026-05-02T06:24:05.494Z</time></trkpt><trkpt lat="43.1983062" lon="12.1133288"><ele>264.0</ele><time>2026-05-02T06:24:06.501Z</time></trkpt><trkpt lat="43.1981877" lon="12.1132574"><ele>264.0</ele><time>2026-05-02T06:24:07.499Z</time></trkpt><trkpt lat="43.1980674" lon="12.1131911"><ele>264.0</ele><time>2026-05-02T06:24:08.495Z</time></trkpt><trkpt lat="43.1979503" lon="12.1131285"><ele>263.59999999999997</ele><time>2026-05-02T06:24:09.499Z</time></trkpt><trkpt lat="43.1978356" lon="12.1130622"><ele>263.2</ele><time>2026-05-02T06:24:10.495Z</time></trkpt><trkpt lat="43.1977304" lon="12.1129973"><ele>262.79999999999995</ele><time>2026-05-02T06:24:11.492Z</time></trkpt><trkpt lat="43.1976322" lon="12.1129393"><ele>262.4</ele><time>2026-05-02T06:24:12.495Z</time></trkpt><trkpt lat="43.19754" lon="12.1128889"><ele>262.0</ele><time>2026-05-02T06:24:13.505Z</time></trkpt><trkpt lat="43.1974587" lon="12.1128443"><ele>262.0</ele><time>2026-05-02T06:24:14.514Z</time></trkpt><trkpt lat="43.1973829" lon="12.1128041"><ele>262.0</ele><time>2026-05-02T06:24:15.506Z</time></trkpt><trkpt lat="43.1973153" lon="12.1127721"><ele>262.0</ele><time>2026-05-02T06:24:16.496Z</time></trkpt><trkpt lat="43.1972545" lon="12.1127409"><ele>262.0</ele><time>2026-05-02T06:24:17.492Z</time></trkpt><trkpt lat="43.1971585" lon="12.1126905"><ele>262.0</ele><time>2026-05-02T06:24:19.509Z</time></trkpt><trkpt lat="43.1970852" lon="12.1126457"><ele>262.0</ele><time>2026-05-02T06:24:21.503Z</time></trkpt><trkpt lat="43.1970073" lon="12.1126124"><ele>264.0</ele><time>2026-05-02T06:24:24.501Z</time></trkpt></trkseg></trk></gpx>